<?xml version="1.0" encoding="UTF-8" standalone="no" ?>
<gpx xmlns="http://www.topografix.com/GPX/1/1" xmlns:xsi="http://www.w3.org/2001/XMLSchema-instance" xsi:schemaLocation="http://www.topografix.com/GPX/1/1 http://www.topografix.com/GPX/1/1/gpx.xsd" version="1.1" creator="VisuGPX - https://www.visugpx.com">
  <metadata>
    <name>Pau - Conakry J13</name>
    <desc><![CDATA[File with points/tracks from Locus Map/3.37.2]]></desc>
  </metadata>
  <trk>
    <name><![CDATA[2019-10-15 09:01:41]]></name>
    <trkseg>
      <trkpt lat="37.61581" lon="-4.32038">
        <ele>483.03</ele>
        <time>2019-10-15T07:01:41.000Z</time>
      </trkpt>
      <trkpt lat="37.61585" lon="-4.3205">
        <ele>461.11</ele>
        <time>2019-10-15T07:02:01.000Z</time>
      </trkpt>
      <trkpt lat="37.61582" lon="-4.32062">
        <ele>460.8</ele>
        <time>2019-10-15T07:02:10.000Z</time>
      </trkpt>
      <trkpt lat="37.61582" lon="-4.32083">
        <ele>460.86</ele>
        <time>2019-10-15T07:02:15.000Z</time>
      </trkpt>
      <trkpt lat="37.61588" lon="-4.32102">
        <ele>461.04</ele>
        <time>2019-10-15T07:02:20.000Z</time>
      </trkpt>
      <trkpt lat="37.616" lon="-4.32105">
        <ele>461.5</ele>
        <time>2019-10-15T07:02:25.000Z</time>
      </trkpt>
      <trkpt lat="37.6161" lon="-4.3211">
        <ele>462.12</ele>
        <time>2019-10-15T07:02:38.000Z</time>
      </trkpt>
      <trkpt lat="37.61619" lon="-4.3212">
        <ele>462.68</ele>
        <time>2019-10-15T07:02:43.000Z</time>
      </trkpt>
      <trkpt lat="37.61627" lon="-4.32137">
        <ele>463.18</ele>
        <time>2019-10-15T07:02:48.000Z</time>
      </trkpt>
      <trkpt lat="37.61634" lon="-4.32161">
        <ele>464.99</ele>
        <time>2019-10-15T07:02:53.000Z</time>
      </trkpt>
      <trkpt lat="37.6164" lon="-4.32194">
        <ele>466.61</ele>
        <time>2019-10-15T07:02:58.000Z</time>
      </trkpt>
      <trkpt lat="37.61646" lon="-4.32223">
        <ele>466.87</ele>
        <time>2019-10-15T07:03:03.000Z</time>
      </trkpt>
      <trkpt lat="37.61652" lon="-4.32246">
        <ele>466.9</ele>
        <time>2019-10-15T07:03:08.000Z</time>
      </trkpt>
      <trkpt lat="37.61644" lon="-4.3226">
        <ele>466.87</ele>
        <time>2019-10-15T07:03:13.000Z</time>
      </trkpt>
      <trkpt lat="37.61632" lon="-4.32278">
        <ele>466.7</ele>
        <time>2019-10-15T07:03:18.000Z</time>
      </trkpt>
      <trkpt lat="37.61627" lon="-4.32307">
        <ele>466.65</ele>
        <time>2019-10-15T07:03:23.000Z</time>
      </trkpt>
      <trkpt lat="37.61635" lon="-4.32332">
        <ele>466.67</ele>
        <time>2019-10-15T07:03:28.000Z</time>
      </trkpt>
      <trkpt lat="37.61642" lon="-4.32338">
        <ele>466.63</ele>
        <time>2019-10-15T07:04:09.000Z</time>
      </trkpt>
      <trkpt lat="37.61643" lon="-4.32351">
        <ele>465.78</ele>
        <time>2019-10-15T07:04:31.000Z</time>
      </trkpt>
      <trkpt lat="37.61631" lon="-4.3236">
        <ele>465.36</ele>
        <time>2019-10-15T07:04:36.000Z</time>
      </trkpt>
      <trkpt lat="37.61619" lon="-4.3236">
        <ele>464.95</ele>
        <time>2019-10-15T07:04:41.000Z</time>
      </trkpt>
      <trkpt lat="37.61611" lon="-4.3235">
        <ele>464.61</ele>
        <time>2019-10-15T07:04:46.000Z</time>
      </trkpt>
      <trkpt lat="37.61604" lon="-4.32343">
        <ele>464.34</ele>
        <time>2019-10-15T07:04:51.000Z</time>
      </trkpt>
      <trkpt lat="37.61596" lon="-4.32334">
        <ele>464.12</ele>
        <time>2019-10-15T07:04:56.000Z</time>
      </trkpt>
      <trkpt lat="37.6159" lon="-4.32325">
        <ele>463.96</ele>
        <time>2019-10-15T07:05:11.000Z</time>
      </trkpt>
      <trkpt lat="37.61584" lon="-4.32316">
        <ele>463.93</ele>
        <time>2019-10-15T07:05:18.000Z</time>
      </trkpt>
      <trkpt lat="37.6158" lon="-4.32302">
        <ele>463.93</ele>
        <time>2019-10-15T07:05:23.000Z</time>
      </trkpt>
      <trkpt lat="37.61574" lon="-4.32286">
        <ele>463.94</ele>
        <time>2019-10-15T07:05:28.000Z</time>
      </trkpt>
      <trkpt lat="37.61569" lon="-4.3227">
        <ele>463.96</ele>
        <time>2019-10-15T07:05:33.000Z</time>
      </trkpt>
      <trkpt lat="37.61554" lon="-4.32251">
        <ele>464.16</ele>
        <time>2019-10-15T07:05:38.000Z</time>
      </trkpt>
      <trkpt lat="37.61541" lon="-4.32239">
        <ele>464.19</ele>
        <time>2019-10-15T07:05:43.000Z</time>
      </trkpt>
      <trkpt lat="37.61534" lon="-4.32227">
        <ele>464.2</ele>
        <time>2019-10-15T07:05:48.000Z</time>
      </trkpt>
      <trkpt lat="37.61528" lon="-4.32215">
        <ele>464.22</ele>
        <time>2019-10-15T07:05:53.000Z</time>
      </trkpt>
      <trkpt lat="37.61525" lon="-4.32201">
        <ele>464.24</ele>
        <time>2019-10-15T07:06:06.000Z</time>
      </trkpt>
      <trkpt lat="37.6152" lon="-4.32174">
        <ele>464.15</ele>
        <time>2019-10-15T07:06:10.999Z</time>
      </trkpt>
      <trkpt lat="37.61514" lon="-4.32139">
        <ele>463.9</ele>
        <time>2019-10-15T07:06:15.999Z</time>
      </trkpt>
      <trkpt lat="37.61491" lon="-4.32106">
        <ele>463.67</ele>
        <time>2019-10-15T07:06:20.999Z</time>
      </trkpt>
      <trkpt lat="37.61447" lon="-4.32106">
        <ele>463.25</ele>
        <time>2019-10-15T07:06:25.999Z</time>
      </trkpt>
      <trkpt lat="37.61411" lon="-4.3213">
        <ele>462.76</ele>
        <time>2019-10-15T07:06:30.999Z</time>
      </trkpt>
      <trkpt lat="37.61379" lon="-4.32147">
        <ele>462</ele>
        <time>2019-10-15T07:06:35.999Z</time>
      </trkpt>
      <trkpt lat="37.61343" lon="-4.3215">
        <ele>460.62</ele>
        <time>2019-10-15T07:06:40.999Z</time>
      </trkpt>
      <trkpt lat="37.61307" lon="-4.32143">
        <ele>459.37</ele>
        <time>2019-10-15T07:06:45.999Z</time>
      </trkpt>
      <trkpt lat="37.61276" lon="-4.32134">
        <ele>460.76</ele>
        <time>2019-10-15T07:06:50.999Z</time>
      </trkpt>
      <trkpt lat="37.61245" lon="-4.32128">
        <ele>460.89</ele>
        <time>2019-10-15T07:06:55.999Z</time>
      </trkpt>
      <trkpt lat="37.61219" lon="-4.32119">
        <ele>460.74</ele>
        <time>2019-10-15T07:07:00.999Z</time>
      </trkpt>
      <trkpt lat="37.61198" lon="-4.32135">
        <ele>458.92</ele>
        <time>2019-10-15T07:07:05.999Z</time>
      </trkpt>
      <trkpt lat="37.61177" lon="-4.32158">
        <ele>456.87</ele>
        <time>2019-10-15T07:07:10.999Z</time>
      </trkpt>
      <trkpt lat="37.61155" lon="-4.32183">
        <ele>455.88</ele>
        <time>2019-10-15T07:07:15.999Z</time>
      </trkpt>
      <trkpt lat="37.61132" lon="-4.32213">
        <ele>455.65</ele>
        <time>2019-10-15T07:07:20.999Z</time>
      </trkpt>
      <trkpt lat="37.61108" lon="-4.32246">
        <ele>455.88</ele>
        <time>2019-10-15T07:07:25.999Z</time>
      </trkpt>
      <trkpt lat="37.61085" lon="-4.32275">
        <ele>455.05</ele>
        <time>2019-10-15T07:07:30.999Z</time>
      </trkpt>
      <trkpt lat="37.61064" lon="-4.32299">
        <ele>454.18</ele>
        <time>2019-10-15T07:07:35.999Z</time>
      </trkpt>
      <trkpt lat="37.61043" lon="-4.32318">
        <ele>453.36</ele>
        <time>2019-10-15T07:07:40.999Z</time>
      </trkpt>
      <trkpt lat="37.61024" lon="-4.32322">
        <ele>453.17</ele>
        <time>2019-10-15T07:07:45.999Z</time>
      </trkpt>
      <trkpt lat="37.61012" lon="-4.3232">
        <ele>453.09</ele>
        <time>2019-10-15T07:07:50.999Z</time>
      </trkpt>
      <trkpt lat="37.61001" lon="-4.32318">
        <ele>452.96</ele>
        <time>2019-10-15T07:07:55.999Z</time>
      </trkpt>
      <trkpt lat="37.6099" lon="-4.32317">
        <ele>452.8</ele>
        <time>2019-10-15T07:08:00.999Z</time>
      </trkpt>
      <trkpt lat="37.60979" lon="-4.32314">
        <ele>452.61</ele>
        <time>2019-10-15T07:08:05.999Z</time>
      </trkpt>
      <trkpt lat="37.60968" lon="-4.3231">
        <ele>452.42</ele>
        <time>2019-10-15T07:08:10.999Z</time>
      </trkpt>
      <trkpt lat="37.60959" lon="-4.32305">
        <ele>452.22</ele>
        <time>2019-10-15T07:08:15.999Z</time>
      </trkpt>
      <trkpt lat="37.60947" lon="-4.32301">
        <ele>452.01</ele>
        <time>2019-10-15T07:08:20.999Z</time>
      </trkpt>
      <trkpt lat="37.60932" lon="-4.32294">
        <ele>451.79</ele>
        <time>2019-10-15T07:08:25.999Z</time>
      </trkpt>
      <trkpt lat="37.60913" lon="-4.32285">
        <ele>451.54</ele>
        <time>2019-10-15T07:08:30.999Z</time>
      </trkpt>
      <trkpt lat="37.60896" lon="-4.32274">
        <ele>449.67</ele>
        <time>2019-10-15T07:08:35.999Z</time>
      </trkpt>
      <trkpt lat="37.60878" lon="-4.32263">
        <ele>448.77</ele>
        <time>2019-10-15T07:08:40.999Z</time>
      </trkpt>
      <trkpt lat="37.60858" lon="-4.3225">
        <ele>448.33</ele>
        <time>2019-10-15T07:08:45.999Z</time>
      </trkpt>
      <trkpt lat="37.60837" lon="-4.32236">
        <ele>447.99</ele>
        <time>2019-10-15T07:08:50.999Z</time>
      </trkpt>
      <trkpt lat="37.60817" lon="-4.32223">
        <ele>447.79</ele>
        <time>2019-10-15T07:08:55.999Z</time>
      </trkpt>
      <trkpt lat="37.60798" lon="-4.32211">
        <ele>447.86</ele>
        <time>2019-10-15T07:09:00.999Z</time>
      </trkpt>
      <trkpt lat="37.60782" lon="-4.32201">
        <ele>447.93</ele>
        <time>2019-10-15T07:09:05.999Z</time>
      </trkpt>
      <trkpt lat="37.6077" lon="-4.32192">
        <ele>448.01</ele>
        <time>2019-10-15T07:09:10.999Z</time>
      </trkpt>
      <trkpt lat="37.60758" lon="-4.32186">
        <ele>448.11</ele>
        <time>2019-10-15T07:09:15.999Z</time>
      </trkpt>
      <trkpt lat="37.60747" lon="-4.32179">
        <ele>448.27</ele>
        <time>2019-10-15T07:09:20.999Z</time>
      </trkpt>
      <trkpt lat="37.60738" lon="-4.32175">
        <ele>448.43</ele>
        <time>2019-10-15T07:09:25.999Z</time>
      </trkpt>
      <trkpt lat="37.60728" lon="-4.3217">
        <ele>448.65</ele>
        <time>2019-10-15T07:09:31.999Z</time>
      </trkpt>
      <trkpt lat="37.60718" lon="-4.32166">
        <ele>448.87</ele>
        <time>2019-10-15T07:09:37.999Z</time>
      </trkpt>
      <trkpt lat="37.60707" lon="-4.32164">
        <ele>449.07</ele>
        <time>2019-10-15T07:09:42.999Z</time>
      </trkpt>
      <trkpt lat="37.60697" lon="-4.32163">
        <ele>449.32</ele>
        <time>2019-10-15T07:09:47.999Z</time>
      </trkpt>
      <trkpt lat="37.60688" lon="-4.32162">
        <ele>449.58</ele>
        <time>2019-10-15T07:09:52.999Z</time>
      </trkpt>
      <trkpt lat="37.60679" lon="-4.32162">
        <ele>449.86</ele>
        <time>2019-10-15T07:09:57.999Z</time>
      </trkpt>
      <trkpt lat="37.60668" lon="-4.32159">
        <ele>450.15</ele>
        <time>2019-10-15T07:10:02.999Z</time>
      </trkpt>
      <trkpt lat="37.60658" lon="-4.32156">
        <ele>450.42</ele>
        <time>2019-10-15T07:10:07.999Z</time>
      </trkpt>
      <trkpt lat="37.60648" lon="-4.32154">
        <ele>450.7</ele>
        <time>2019-10-15T07:10:12.999Z</time>
      </trkpt>
      <trkpt lat="37.60639" lon="-4.32149">
        <ele>450.98</ele>
        <time>2019-10-15T07:10:17.999Z</time>
      </trkpt>
      <trkpt lat="37.60629" lon="-4.32144">
        <ele>451.26</ele>
        <time>2019-10-15T07:10:22.999Z</time>
      </trkpt>
      <trkpt lat="37.60619" lon="-4.32138">
        <ele>451.55</ele>
        <time>2019-10-15T07:10:27.999Z</time>
      </trkpt>
      <trkpt lat="37.6061" lon="-4.32131">
        <ele>451.87</ele>
        <time>2019-10-15T07:10:32.999Z</time>
      </trkpt>
      <trkpt lat="37.60601" lon="-4.32125">
        <ele>452.19</ele>
        <time>2019-10-15T07:10:37.999Z</time>
      </trkpt>
      <trkpt lat="37.60592" lon="-4.32118">
        <ele>452.53</ele>
        <time>2019-10-15T07:10:42.999Z</time>
      </trkpt>
      <trkpt lat="37.60585" lon="-4.32111">
        <ele>452.88</ele>
        <time>2019-10-15T07:10:47.999Z</time>
      </trkpt>
      <trkpt lat="37.60577" lon="-4.32104">
        <ele>453.21</ele>
        <time>2019-10-15T07:10:52.999Z</time>
      </trkpt>
      <trkpt lat="37.60569" lon="-4.32097">
        <ele>453.53</ele>
        <time>2019-10-15T07:10:57.999Z</time>
      </trkpt>
      <trkpt lat="37.60559" lon="-4.32092">
        <ele>453.79</ele>
        <time>2019-10-15T07:11:02.999Z</time>
      </trkpt>
      <trkpt lat="37.60546" lon="-4.32085">
        <ele>454</ele>
        <time>2019-10-15T07:11:07.999Z</time>
      </trkpt>
      <trkpt lat="37.60528" lon="-4.32078">
        <ele>454.5</ele>
        <time>2019-10-15T07:11:12.999Z</time>
      </trkpt>
      <trkpt lat="37.60503" lon="-4.32073">
        <ele>454.9</ele>
        <time>2019-10-15T07:11:17.999Z</time>
      </trkpt>
      <trkpt lat="37.6047" lon="-4.32079">
        <ele>454.88</ele>
        <time>2019-10-15T07:11:22.999Z</time>
      </trkpt>
      <trkpt lat="37.60435" lon="-4.32088">
        <ele>454.75</ele>
        <time>2019-10-15T07:11:27.999Z</time>
      </trkpt>
      <trkpt lat="37.604" lon="-4.32081">
        <ele>454.62</ele>
        <time>2019-10-15T07:11:32.999Z</time>
      </trkpt>
      <trkpt lat="37.6037" lon="-4.3206">
        <ele>454.67</ele>
        <time>2019-10-15T07:11:37.999Z</time>
      </trkpt>
      <trkpt lat="37.6034" lon="-4.3204">
        <ele>454.8</ele>
        <time>2019-10-15T07:11:42.999Z</time>
      </trkpt>
      <trkpt lat="37.60311" lon="-4.32031">
        <ele>455.21</ele>
        <time>2019-10-15T07:11:47.999Z</time>
      </trkpt>
      <trkpt lat="37.60288" lon="-4.32026">
        <ele>455.71</ele>
        <time>2019-10-15T07:11:52.999Z</time>
      </trkpt>
      <trkpt lat="37.60269" lon="-4.32021">
        <ele>455.87</ele>
        <time>2019-10-15T07:11:57.999Z</time>
      </trkpt>
      <trkpt lat="37.60254" lon="-4.32018">
        <ele>455.9</ele>
        <time>2019-10-15T07:12:02.999Z</time>
      </trkpt>
      <trkpt lat="37.60241" lon="-4.32016">
        <ele>455.94</ele>
        <time>2019-10-15T07:12:07.999Z</time>
      </trkpt>
      <trkpt lat="37.60227" lon="-4.32015">
        <ele>455.99</ele>
        <time>2019-10-15T07:12:12.999Z</time>
      </trkpt>
      <trkpt lat="37.60211" lon="-4.32018">
        <ele>456.04</ele>
        <time>2019-10-15T07:12:17.999Z</time>
      </trkpt>
      <trkpt lat="37.60197" lon="-4.32025">
        <ele>456.1</ele>
        <time>2019-10-15T07:12:22.999Z</time>
      </trkpt>
      <trkpt lat="37.60182" lon="-4.32031">
        <ele>456.17</ele>
        <time>2019-10-15T07:12:27.999Z</time>
      </trkpt>
      <trkpt lat="37.60167" lon="-4.32037">
        <ele>456.29</ele>
        <time>2019-10-15T07:12:32.999Z</time>
      </trkpt>
      <trkpt lat="37.60155" lon="-4.32041">
        <ele>456.45</ele>
        <time>2019-10-15T07:12:37.999Z</time>
      </trkpt>
      <trkpt lat="37.60144" lon="-4.32042">
        <ele>456.67</ele>
        <time>2019-10-15T07:12:42.999Z</time>
      </trkpt>
      <trkpt lat="37.60133" lon="-4.32041">
        <ele>456.92</ele>
        <time>2019-10-15T07:12:47.999Z</time>
      </trkpt>
      <trkpt lat="37.60122" lon="-4.32038">
        <ele>457.22</ele>
        <time>2019-10-15T07:12:52.999Z</time>
      </trkpt>
      <trkpt lat="37.60113" lon="-4.32034">
        <ele>457.53</ele>
        <time>2019-10-15T07:12:57.999Z</time>
      </trkpt>
      <trkpt lat="37.60104" lon="-4.32027">
        <ele>457.93</ele>
        <time>2019-10-15T07:13:03.999Z</time>
      </trkpt>
      <trkpt lat="37.60096" lon="-4.32019">
        <ele>458.32</ele>
        <time>2019-10-15T07:13:09.999Z</time>
      </trkpt>
      <trkpt lat="37.60089" lon="-4.32012">
        <ele>458.74</ele>
        <time>2019-10-15T07:13:15.999Z</time>
      </trkpt>
      <trkpt lat="37.6008" lon="-4.32005">
        <ele>459.2</ele>
        <time>2019-10-15T07:13:21.999Z</time>
      </trkpt>
      <trkpt lat="37.60071" lon="-4.31999">
        <ele>459.6</ele>
        <time>2019-10-15T07:13:26.999Z</time>
      </trkpt>
      <trkpt lat="37.60062" lon="-4.31994">
        <ele>460</ele>
        <time>2019-10-15T07:13:31.999Z</time>
      </trkpt>
      <trkpt lat="37.60052" lon="-4.31989">
        <ele>460.5</ele>
        <time>2019-10-15T07:13:37.999Z</time>
      </trkpt>
      <trkpt lat="37.60043" lon="-4.31984">
        <ele>460.93</ele>
        <time>2019-10-15T07:13:42.999Z</time>
      </trkpt>
      <trkpt lat="37.60035" lon="-4.31979">
        <ele>461.36</ele>
        <time>2019-10-15T07:13:47.999Z</time>
      </trkpt>
      <trkpt lat="37.60026" lon="-4.31977">
        <ele>461.8</ele>
        <time>2019-10-15T07:13:52.999Z</time>
      </trkpt>
      <trkpt lat="37.60016" lon="-4.31974">
        <ele>462.23</ele>
        <time>2019-10-15T07:13:57.999Z</time>
      </trkpt>
      <trkpt lat="37.60007" lon="-4.31972">
        <ele>462.66</ele>
        <time>2019-10-15T07:14:02.999Z</time>
      </trkpt>
      <trkpt lat="37.59997" lon="-4.31972">
        <ele>463.11</ele>
        <time>2019-10-15T07:14:07.999Z</time>
      </trkpt>
      <trkpt lat="37.59988" lon="-4.31972">
        <ele>463.58</ele>
        <time>2019-10-15T07:14:12.999Z</time>
      </trkpt>
      <trkpt lat="37.59977" lon="-4.3197">
        <ele>464.04</ele>
        <time>2019-10-15T07:14:17.999Z</time>
      </trkpt>
      <trkpt lat="37.59967" lon="-4.31963">
        <ele>464.5</ele>
        <time>2019-10-15T07:14:22.999Z</time>
      </trkpt>
      <trkpt lat="37.59959" lon="-4.31952">
        <ele>464.96</ele>
        <time>2019-10-15T07:14:27.999Z</time>
      </trkpt>
      <trkpt lat="37.59952" lon="-4.3194">
        <ele>465.4</ele>
        <time>2019-10-15T07:14:32.999Z</time>
      </trkpt>
      <trkpt lat="37.59947" lon="-4.31926">
        <ele>465.83</ele>
        <time>2019-10-15T07:14:37.999Z</time>
      </trkpt>
      <trkpt lat="37.59942" lon="-4.31912">
        <ele>466.23</ele>
        <time>2019-10-15T07:14:42.999Z</time>
      </trkpt>
      <trkpt lat="37.59936" lon="-4.31897">
        <ele>466.63</ele>
        <time>2019-10-15T07:14:47.999Z</time>
      </trkpt>
      <trkpt lat="37.5993" lon="-4.31882">
        <ele>467</ele>
        <time>2019-10-15T07:14:52.999Z</time>
      </trkpt>
      <trkpt lat="37.59923" lon="-4.31867">
        <ele>467.37</ele>
        <time>2019-10-15T07:14:57.999Z</time>
      </trkpt>
      <trkpt lat="37.59915" lon="-4.31852">
        <ele>467.73</ele>
        <time>2019-10-15T07:15:02.999Z</time>
      </trkpt>
      <trkpt lat="37.59906" lon="-4.31839">
        <ele>468.08</ele>
        <time>2019-10-15T07:15:07.999Z</time>
      </trkpt>
      <trkpt lat="37.59897" lon="-4.31825">
        <ele>468.42</ele>
        <time>2019-10-15T07:15:12.999Z</time>
      </trkpt>
      <trkpt lat="37.59889" lon="-4.31811">
        <ele>468.75</ele>
        <time>2019-10-15T07:15:17.999Z</time>
      </trkpt>
      <trkpt lat="37.59881" lon="-4.31798">
        <ele>469.09</ele>
        <time>2019-10-15T07:15:22.999Z</time>
      </trkpt>
      <trkpt lat="37.59872" lon="-4.31784">
        <ele>469.45</ele>
        <time>2019-10-15T07:15:27.999Z</time>
      </trkpt>
      <trkpt lat="37.59864" lon="-4.31771">
        <ele>469.78</ele>
        <time>2019-10-15T07:15:32.999Z</time>
      </trkpt>
      <trkpt lat="37.59855" lon="-4.31761">
        <ele>470.12</ele>
        <time>2019-10-15T07:15:37.999Z</time>
      </trkpt>
      <trkpt lat="37.59845" lon="-4.31752">
        <ele>470.47</ele>
        <time>2019-10-15T07:15:42.999Z</time>
      </trkpt>
      <trkpt lat="37.59834" lon="-4.31748">
        <ele>470.84</ele>
        <time>2019-10-15T07:15:47.999Z</time>
      </trkpt>
      <trkpt lat="37.59822" lon="-4.31746">
        <ele>471.23</ele>
        <time>2019-10-15T07:15:52.999Z</time>
      </trkpt>
      <trkpt lat="37.59808" lon="-4.31746">
        <ele>471.64</ele>
        <time>2019-10-15T07:15:57.999Z</time>
      </trkpt>
      <trkpt lat="37.59795" lon="-4.31748">
        <ele>472.04</ele>
        <time>2019-10-15T07:16:02.999Z</time>
      </trkpt>
      <trkpt lat="37.59781" lon="-4.31749">
        <ele>472.43</ele>
        <time>2019-10-15T07:16:07.999Z</time>
      </trkpt>
      <trkpt lat="37.59766" lon="-4.31751">
        <ele>472.77</ele>
        <time>2019-10-15T07:16:12.999Z</time>
      </trkpt>
      <trkpt lat="37.59743" lon="-4.31759">
        <ele>474.75</ele>
        <time>2019-10-15T07:16:17.999Z</time>
      </trkpt>
      <trkpt lat="37.59718" lon="-4.31787">
        <ele>475.28</ele>
        <time>2019-10-15T07:16:22.999Z</time>
      </trkpt>
      <trkpt lat="37.59691" lon="-4.31826">
        <ele>474.91</ele>
        <time>2019-10-15T07:16:27.999Z</time>
      </trkpt>
      <trkpt lat="37.59654" lon="-4.31856">
        <ele>474.13</ele>
        <time>2019-10-15T07:16:32.999Z</time>
      </trkpt>
      <trkpt lat="37.59611" lon="-4.31829">
        <ele>472.2</ele>
        <time>2019-10-15T07:16:37.999Z</time>
      </trkpt>
      <trkpt lat="37.5957" lon="-4.31816">
        <ele>470.49</ele>
        <time>2019-10-15T07:16:42.999Z</time>
      </trkpt>
      <trkpt lat="37.59539" lon="-4.31803">
        <ele>470.05</ele>
        <time>2019-10-15T07:16:47.999Z</time>
      </trkpt>
      <trkpt lat="37.59514" lon="-4.31794">
        <ele>469.43</ele>
        <time>2019-10-15T07:16:52.999Z</time>
      </trkpt>
      <trkpt lat="37.59493" lon="-4.31789">
        <ele>469.39</ele>
        <time>2019-10-15T07:16:57.999Z</time>
      </trkpt>
      <trkpt lat="37.59474" lon="-4.31788">
        <ele>469.26</ele>
        <time>2019-10-15T07:17:02.999Z</time>
      </trkpt>
      <trkpt lat="37.59458" lon="-4.31785">
        <ele>469.06</ele>
        <time>2019-10-15T07:17:07.999Z</time>
      </trkpt>
      <trkpt lat="37.5944" lon="-4.3178">
        <ele>468.88</ele>
        <time>2019-10-15T07:17:12.999Z</time>
      </trkpt>
      <trkpt lat="37.59428" lon="-4.31777">
        <ele>468.73</ele>
        <time>2019-10-15T07:17:17.999Z</time>
      </trkpt>
      <trkpt lat="37.59416" lon="-4.31774">
        <ele>468.64</ele>
        <time>2019-10-15T07:17:22.999Z</time>
      </trkpt>
      <trkpt lat="37.59403" lon="-4.31772">
        <ele>468.58</ele>
        <time>2019-10-15T07:17:27.999Z</time>
      </trkpt>
      <trkpt lat="37.59394" lon="-4.31768">
        <ele>468.53</ele>
        <time>2019-10-15T07:17:33.999Z</time>
      </trkpt>
      <trkpt lat="37.59382" lon="-4.31764">
        <ele>468.51</ele>
        <time>2019-10-15T07:17:38.999Z</time>
      </trkpt>
      <trkpt lat="37.59372" lon="-4.31761">
        <ele>468.49</ele>
        <time>2019-10-15T07:17:43.999Z</time>
      </trkpt>
      <trkpt lat="37.59364" lon="-4.31758">
        <ele>468.48</ele>
        <time>2019-10-15T07:17:48.999Z</time>
      </trkpt>
      <trkpt lat="37.59355" lon="-4.31754">
        <ele>468.52</ele>
        <time>2019-10-15T07:17:53.999Z</time>
      </trkpt>
      <trkpt lat="37.59345" lon="-4.31753">
        <ele>468.84</ele>
        <time>2019-10-15T07:19:01.999Z</time>
      </trkpt>
      <trkpt lat="37.59333" lon="-4.31751">
        <ele>468.97</ele>
        <time>2019-10-15T07:19:06.999Z</time>
      </trkpt>
      <trkpt lat="37.5932" lon="-4.31745">
        <ele>469.12</ele>
        <time>2019-10-15T07:19:11.999Z</time>
      </trkpt>
      <trkpt lat="37.59308" lon="-4.31736">
        <ele>469.26</ele>
        <time>2019-10-15T07:19:16.999Z</time>
      </trkpt>
      <trkpt lat="37.59298" lon="-4.31727">
        <ele>469.38</ele>
        <time>2019-10-15T07:19:21.999Z</time>
      </trkpt>
      <trkpt lat="37.59288" lon="-4.31719">
        <ele>469.53</ele>
        <time>2019-10-15T07:19:26.999Z</time>
      </trkpt>
      <trkpt lat="37.59279" lon="-4.31712">
        <ele>469.7</ele>
        <time>2019-10-15T07:19:31.999Z</time>
      </trkpt>
      <trkpt lat="37.5927" lon="-4.31704">
        <ele>469.9</ele>
        <time>2019-10-15T07:19:36.999Z</time>
      </trkpt>
      <trkpt lat="37.5926" lon="-4.31696">
        <ele>470.12</ele>
        <time>2019-10-15T07:19:41.999Z</time>
      </trkpt>
      <trkpt lat="37.59251" lon="-4.31689">
        <ele>470.37</ele>
        <time>2019-10-15T07:19:46.999Z</time>
      </trkpt>
      <trkpt lat="37.59241" lon="-4.31682">
        <ele>470.63</ele>
        <time>2019-10-15T07:19:51.999Z</time>
      </trkpt>
      <trkpt lat="37.59232" lon="-4.31674">
        <ele>470.85</ele>
        <time>2019-10-15T07:19:56.999Z</time>
      </trkpt>
      <trkpt lat="37.59222" lon="-4.31667">
        <ele>471.05</ele>
        <time>2019-10-15T07:20:01.999Z</time>
      </trkpt>
      <trkpt lat="37.5921" lon="-4.31659">
        <ele>471.26</ele>
        <time>2019-10-15T07:20:06.999Z</time>
      </trkpt>
      <trkpt lat="37.59198" lon="-4.3165">
        <ele>471.46</ele>
        <time>2019-10-15T07:20:11.999Z</time>
      </trkpt>
      <trkpt lat="37.59185" lon="-4.31642">
        <ele>471.67</ele>
        <time>2019-10-15T07:20:16.999Z</time>
      </trkpt>
      <trkpt lat="37.59172" lon="-4.31633">
        <ele>471.89</ele>
        <time>2019-10-15T07:20:21.999Z</time>
      </trkpt>
      <trkpt lat="37.59159" lon="-4.31622">
        <ele>472.13</ele>
        <time>2019-10-15T07:20:26.999Z</time>
      </trkpt>
      <trkpt lat="37.59147" lon="-4.31611">
        <ele>472.39</ele>
        <time>2019-10-15T07:20:31.999Z</time>
      </trkpt>
      <trkpt lat="37.59136" lon="-4.316">
        <ele>472.67</ele>
        <time>2019-10-15T07:20:36.999Z</time>
      </trkpt>
      <trkpt lat="37.59124" lon="-4.31588">
        <ele>472.95</ele>
        <time>2019-10-15T07:20:41.999Z</time>
      </trkpt>
      <trkpt lat="37.59113" lon="-4.31576">
        <ele>473.24</ele>
        <time>2019-10-15T07:20:46.999Z</time>
      </trkpt>
      <trkpt lat="37.59102" lon="-4.31564">
        <ele>473.53</ele>
        <time>2019-10-15T07:20:51.999Z</time>
      </trkpt>
      <trkpt lat="37.59092" lon="-4.31553">
        <ele>473.83</ele>
        <time>2019-10-15T07:20:56.999Z</time>
      </trkpt>
      <trkpt lat="37.59082" lon="-4.31541">
        <ele>474.14</ele>
        <time>2019-10-15T07:21:01.999Z</time>
      </trkpt>
      <trkpt lat="37.59072" lon="-4.31531">
        <ele>474.45</ele>
        <time>2019-10-15T07:21:06.999Z</time>
      </trkpt>
      <trkpt lat="37.59062" lon="-4.31519">
        <ele>474.73</ele>
        <time>2019-10-15T07:21:11.999Z</time>
      </trkpt>
      <trkpt lat="37.59053" lon="-4.31509">
        <ele>474.96</ele>
        <time>2019-10-15T07:21:16.999Z</time>
      </trkpt>
      <trkpt lat="37.59043" lon="-4.31499">
        <ele>475.14</ele>
        <time>2019-10-15T07:21:21.999Z</time>
      </trkpt>
      <trkpt lat="37.59031" lon="-4.31489">
        <ele>475.29</ele>
        <time>2019-10-15T07:21:26.999Z</time>
      </trkpt>
      <trkpt lat="37.59017" lon="-4.31482">
        <ele>475.39</ele>
        <time>2019-10-15T07:21:31.999Z</time>
      </trkpt>
      <trkpt lat="37.58996" lon="-4.3148">
        <ele>475.51</ele>
        <time>2019-10-15T07:21:36.999Z</time>
      </trkpt>
      <trkpt lat="37.58971" lon="-4.31478">
        <ele>475.47</ele>
        <time>2019-10-15T07:21:41.999Z</time>
      </trkpt>
      <trkpt lat="37.58948" lon="-4.3147">
        <ele>475.31</ele>
        <time>2019-10-15T07:21:46.999Z</time>
      </trkpt>
      <trkpt lat="37.58927" lon="-4.31454">
        <ele>475.22</ele>
        <time>2019-10-15T07:21:51.999Z</time>
      </trkpt>
      <trkpt lat="37.58905" lon="-4.31438">
        <ele>475.58</ele>
        <time>2019-10-15T07:21:56.999Z</time>
      </trkpt>
      <trkpt lat="37.58888" lon="-4.31423">
        <ele>475.9</ele>
        <time>2019-10-15T07:22:01.999Z</time>
      </trkpt>
      <trkpt lat="37.58876" lon="-4.31413">
        <ele>476.06</ele>
        <time>2019-10-15T07:22:06.999Z</time>
      </trkpt>
      <trkpt lat="37.58866" lon="-4.31405">
        <ele>476.3</ele>
        <time>2019-10-15T07:22:11.999Z</time>
      </trkpt>
      <trkpt lat="37.58857" lon="-4.31396">
        <ele>476.59</ele>
        <time>2019-10-15T07:22:16.999Z</time>
      </trkpt>
      <trkpt lat="37.58848" lon="-4.31388">
        <ele>476.89</ele>
        <time>2019-10-15T07:22:21.999Z</time>
      </trkpt>
      <trkpt lat="37.58841" lon="-4.31382">
        <ele>477.19</ele>
        <time>2019-10-15T07:22:26.999Z</time>
      </trkpt>
      <trkpt lat="37.58832" lon="-4.31374">
        <ele>477.56</ele>
        <time>2019-10-15T07:22:32.999Z</time>
      </trkpt>
      <trkpt lat="37.58823" lon="-4.31367">
        <ele>477.86</ele>
        <time>2019-10-15T07:22:37.999Z</time>
      </trkpt>
      <trkpt lat="37.58811" lon="-4.3136">
        <ele>478.15</ele>
        <time>2019-10-15T07:22:42.999Z</time>
      </trkpt>
      <trkpt lat="37.58793" lon="-4.31352">
        <ele>479.48</ele>
        <time>2019-10-15T07:22:47.999Z</time>
      </trkpt>
      <trkpt lat="37.58772" lon="-4.31344">
        <ele>480.49</ele>
        <time>2019-10-15T07:22:52.999Z</time>
      </trkpt>
      <trkpt lat="37.58748" lon="-4.31334">
        <ele>480.84</ele>
        <time>2019-10-15T07:22:57.999Z</time>
      </trkpt>
      <trkpt lat="37.58723" lon="-4.31324">
        <ele>481.01</ele>
        <time>2019-10-15T07:23:02.999Z</time>
      </trkpt>
      <trkpt lat="37.58692" lon="-4.31315">
        <ele>481.36</ele>
        <time>2019-10-15T07:23:08.000Z</time>
      </trkpt>
      <trkpt lat="37.58659" lon="-4.31312">
        <ele>481.76</ele>
        <time>2019-10-15T07:23:13.000Z</time>
      </trkpt>
      <trkpt lat="37.5863" lon="-4.31317">
        <ele>482.01</ele>
        <time>2019-10-15T07:23:18.000Z</time>
      </trkpt>
      <trkpt lat="37.58608" lon="-4.3132">
        <ele>482.37</ele>
        <time>2019-10-15T07:23:23.000Z</time>
      </trkpt>
      <trkpt lat="37.58588" lon="-4.31321">
        <ele>482.82</ele>
        <time>2019-10-15T07:23:28.000Z</time>
      </trkpt>
      <trkpt lat="37.58569" lon="-4.31322">
        <ele>483.01</ele>
        <time>2019-10-15T07:23:33.000Z</time>
      </trkpt>
      <trkpt lat="37.5855" lon="-4.31325">
        <ele>483.41</ele>
        <time>2019-10-15T07:23:38.000Z</time>
      </trkpt>
      <trkpt lat="37.58532" lon="-4.31327">
        <ele>483.8</ele>
        <time>2019-10-15T07:23:43.000Z</time>
      </trkpt>
      <trkpt lat="37.58514" lon="-4.31331">
        <ele>483.96</ele>
        <time>2019-10-15T07:23:48.000Z</time>
      </trkpt>
      <trkpt lat="37.58496" lon="-4.31335">
        <ele>484.23</ele>
        <time>2019-10-15T07:23:53.000Z</time>
      </trkpt>
      <trkpt lat="37.58478" lon="-4.31341">
        <ele>484.45</ele>
        <time>2019-10-15T07:23:58.000Z</time>
      </trkpt>
      <trkpt lat="37.58461" lon="-4.31348">
        <ele>484.55</ele>
        <time>2019-10-15T07:24:03.000Z</time>
      </trkpt>
      <trkpt lat="37.58443" lon="-4.31355">
        <ele>485.05</ele>
        <time>2019-10-15T07:24:08.000Z</time>
      </trkpt>
      <trkpt lat="37.58426" lon="-4.31364">
        <ele>485.93</ele>
        <time>2019-10-15T07:24:13.000Z</time>
      </trkpt>
      <trkpt lat="37.58408" lon="-4.31373">
        <ele>486.58</ele>
        <time>2019-10-15T07:24:18.000Z</time>
      </trkpt>
      <trkpt lat="37.58391" lon="-4.31381">
        <ele>487.02</ele>
        <time>2019-10-15T07:24:23.000Z</time>
      </trkpt>
      <trkpt lat="37.58373" lon="-4.3139">
        <ele>487.6</ele>
        <time>2019-10-15T07:24:28.000Z</time>
      </trkpt>
      <trkpt lat="37.58354" lon="-4.31398">
        <ele>487.85</ele>
        <time>2019-10-15T07:24:33.000Z</time>
      </trkpt>
      <trkpt lat="37.58336" lon="-4.31407">
        <ele>488.06</ele>
        <time>2019-10-15T07:24:38.000Z</time>
      </trkpt>
      <trkpt lat="37.58317" lon="-4.31416">
        <ele>488.35</ele>
        <time>2019-10-15T07:24:43.000Z</time>
      </trkpt>
      <trkpt lat="37.58296" lon="-4.31426">
        <ele>488.54</ele>
        <time>2019-10-15T07:24:48.000Z</time>
      </trkpt>
      <trkpt lat="37.58276" lon="-4.31436">
        <ele>488.8</ele>
        <time>2019-10-15T07:24:53.000Z</time>
      </trkpt>
      <trkpt lat="37.58254" lon="-4.31446">
        <ele>489.07</ele>
        <time>2019-10-15T07:24:58.000Z</time>
      </trkpt>
      <trkpt lat="37.58235" lon="-4.31456">
        <ele>489.31</ele>
        <time>2019-10-15T07:25:03.000Z</time>
      </trkpt>
      <trkpt lat="37.58214" lon="-4.31466">
        <ele>489.4</ele>
        <time>2019-10-15T07:25:08.000Z</time>
      </trkpt>
      <trkpt lat="37.58193" lon="-4.31474">
        <ele>489.6</ele>
        <time>2019-10-15T07:25:13.000Z</time>
      </trkpt>
      <trkpt lat="37.58171" lon="-4.31481">
        <ele>489.82</ele>
        <time>2019-10-15T07:25:18.000Z</time>
      </trkpt>
      <trkpt lat="37.58147" lon="-4.31489">
        <ele>489.96</ele>
        <time>2019-10-15T07:25:23.000Z</time>
      </trkpt>
      <trkpt lat="37.58124" lon="-4.31494">
        <ele>489.97</ele>
        <time>2019-10-15T07:25:28.000Z</time>
      </trkpt>
      <trkpt lat="37.58102" lon="-4.31497">
        <ele>489.92</ele>
        <time>2019-10-15T07:25:33.000Z</time>
      </trkpt>
      <trkpt lat="37.58082" lon="-4.315">
        <ele>489.91</ele>
        <time>2019-10-15T07:25:38.000Z</time>
      </trkpt>
      <trkpt lat="37.58063" lon="-4.31502">
        <ele>489.99</ele>
        <time>2019-10-15T07:25:43.000Z</time>
      </trkpt>
      <trkpt lat="37.58045" lon="-4.31502">
        <ele>490.14</ele>
        <time>2019-10-15T07:25:48.000Z</time>
      </trkpt>
      <trkpt lat="37.58027" lon="-4.31502">
        <ele>490.09</ele>
        <time>2019-10-15T07:25:53.000Z</time>
      </trkpt>
      <trkpt lat="37.58008" lon="-4.31501">
        <ele>490.28</ele>
        <time>2019-10-15T07:25:58.000Z</time>
      </trkpt>
      <trkpt lat="37.57988" lon="-4.31499">
        <ele>490.54</ele>
        <time>2019-10-15T07:26:03.000Z</time>
      </trkpt>
      <trkpt lat="37.57968" lon="-4.31498">
        <ele>491.07</ele>
        <time>2019-10-15T07:26:08.000Z</time>
      </trkpt>
      <trkpt lat="37.57949" lon="-4.31498">
        <ele>491.63</ele>
        <time>2019-10-15T07:26:13.000Z</time>
      </trkpt>
      <trkpt lat="37.5793" lon="-4.31496">
        <ele>492.08</ele>
        <time>2019-10-15T07:26:18.000Z</time>
      </trkpt>
      <trkpt lat="37.57911" lon="-4.31495">
        <ele>492.27</ele>
        <time>2019-10-15T07:26:23.000Z</time>
      </trkpt>
      <trkpt lat="37.57893" lon="-4.31494">
        <ele>492.37</ele>
        <time>2019-10-15T07:26:28.000Z</time>
      </trkpt>
      <trkpt lat="37.57876" lon="-4.31493">
        <ele>492.49</ele>
        <time>2019-10-15T07:26:33.000Z</time>
      </trkpt>
      <trkpt lat="37.57858" lon="-4.31491">
        <ele>492.62</ele>
        <time>2019-10-15T07:26:38.000Z</time>
      </trkpt>
      <trkpt lat="37.57839" lon="-4.31489">
        <ele>493.09</ele>
        <time>2019-10-15T07:26:43.000Z</time>
      </trkpt>
      <trkpt lat="37.57819" lon="-4.31487">
        <ele>493.58</ele>
        <time>2019-10-15T07:26:48.000Z</time>
      </trkpt>
      <trkpt lat="37.57798" lon="-4.31486">
        <ele>493.92</ele>
        <time>2019-10-15T07:26:53.000Z</time>
      </trkpt>
      <trkpt lat="37.57778" lon="-4.31483">
        <ele>494.17</ele>
        <time>2019-10-15T07:26:58.000Z</time>
      </trkpt>
      <trkpt lat="37.57758" lon="-4.3148">
        <ele>494.43</ele>
        <time>2019-10-15T07:27:03.000Z</time>
      </trkpt>
      <trkpt lat="37.57738" lon="-4.31477">
        <ele>494.64</ele>
        <time>2019-10-15T07:27:08.000Z</time>
      </trkpt>
      <trkpt lat="37.57719" lon="-4.31474">
        <ele>494.94</ele>
        <time>2019-10-15T07:27:13.000Z</time>
      </trkpt>
      <trkpt lat="37.577" lon="-4.31471">
        <ele>495.18</ele>
        <time>2019-10-15T07:27:18.000Z</time>
      </trkpt>
      <trkpt lat="37.57681" lon="-4.31468">
        <ele>495.47</ele>
        <time>2019-10-15T07:27:23.000Z</time>
      </trkpt>
      <trkpt lat="37.57661" lon="-4.31465">
        <ele>495.89</ele>
        <time>2019-10-15T07:27:28.000Z</time>
      </trkpt>
      <trkpt lat="37.57642" lon="-4.31462">
        <ele>496.33</ele>
        <time>2019-10-15T07:27:33.000Z</time>
      </trkpt>
      <trkpt lat="37.57623" lon="-4.31459">
        <ele>496.75</ele>
        <time>2019-10-15T07:27:38.000Z</time>
      </trkpt>
      <trkpt lat="37.57604" lon="-4.31455">
        <ele>497.16</ele>
        <time>2019-10-15T07:27:43.000Z</time>
      </trkpt>
      <trkpt lat="37.57587" lon="-4.31452">
        <ele>497.58</ele>
        <time>2019-10-15T07:27:48.000Z</time>
      </trkpt>
      <trkpt lat="37.57568" lon="-4.31449">
        <ele>498.04</ele>
        <time>2019-10-15T07:27:53.000Z</time>
      </trkpt>
      <trkpt lat="37.57548" lon="-4.31448">
        <ele>498.37</ele>
        <time>2019-10-15T07:27:58.000Z</time>
      </trkpt>
      <trkpt lat="37.5753" lon="-4.31448">
        <ele>498.49</ele>
        <time>2019-10-15T07:28:03.000Z</time>
      </trkpt>
      <trkpt lat="37.57512" lon="-4.31449">
        <ele>498.57</ele>
        <time>2019-10-15T07:28:08.000Z</time>
      </trkpt>
      <trkpt lat="37.57495" lon="-4.31452">
        <ele>498.66</ele>
        <time>2019-10-15T07:28:13.000Z</time>
      </trkpt>
      <trkpt lat="37.57479" lon="-4.31454">
        <ele>498.75</ele>
        <time>2019-10-15T07:28:18.000Z</time>
      </trkpt>
      <trkpt lat="37.57464" lon="-4.31458">
        <ele>498.87</ele>
        <time>2019-10-15T07:28:23.000Z</time>
      </trkpt>
      <trkpt lat="37.57448" lon="-4.31463">
        <ele>499</ele>
        <time>2019-10-15T07:28:28.000Z</time>
      </trkpt>
      <trkpt lat="37.57434" lon="-4.31469">
        <ele>499.15</ele>
        <time>2019-10-15T07:28:33.000Z</time>
      </trkpt>
      <trkpt lat="37.57418" lon="-4.31476">
        <ele>499.29</ele>
        <time>2019-10-15T07:28:38.000Z</time>
      </trkpt>
      <trkpt lat="37.57404" lon="-4.31483">
        <ele>499.43</ele>
        <time>2019-10-15T07:28:43.000Z</time>
      </trkpt>
      <trkpt lat="37.5739" lon="-4.31489">
        <ele>499.57</ele>
        <time>2019-10-15T07:28:48.000Z</time>
      </trkpt>
      <trkpt lat="37.57375" lon="-4.31495">
        <ele>499.71</ele>
        <time>2019-10-15T07:28:53.000Z</time>
      </trkpt>
      <trkpt lat="37.57359" lon="-4.31501">
        <ele>499.85</ele>
        <time>2019-10-15T07:28:58.000Z</time>
      </trkpt>
      <trkpt lat="37.57345" lon="-4.31507">
        <ele>499.98</ele>
        <time>2019-10-15T07:29:03.000Z</time>
      </trkpt>
      <trkpt lat="37.5733" lon="-4.31513">
        <ele>500.12</ele>
        <time>2019-10-15T07:29:08.000Z</time>
      </trkpt>
      <trkpt lat="37.57314" lon="-4.31517">
        <ele>500.28</ele>
        <time>2019-10-15T07:29:13.000Z</time>
      </trkpt>
      <trkpt lat="37.57298" lon="-4.3152">
        <ele>500.46</ele>
        <time>2019-10-15T07:29:18.000Z</time>
      </trkpt>
      <trkpt lat="37.57282" lon="-4.31521">
        <ele>500.65</ele>
        <time>2019-10-15T07:29:23.000Z</time>
      </trkpt>
      <trkpt lat="37.57265" lon="-4.31522">
        <ele>500.84</ele>
        <time>2019-10-15T07:29:28.000Z</time>
      </trkpt>
      <trkpt lat="37.57249" lon="-4.3152">
        <ele>501.02</ele>
        <time>2019-10-15T07:29:33.000Z</time>
      </trkpt>
      <trkpt lat="37.57231" lon="-4.31519">
        <ele>501.18</ele>
        <time>2019-10-15T07:29:38.000Z</time>
      </trkpt>
      <trkpt lat="37.57214" lon="-4.31516">
        <ele>501.34</ele>
        <time>2019-10-15T07:29:43.000Z</time>
      </trkpt>
      <trkpt lat="37.57197" lon="-4.31514">
        <ele>501.49</ele>
        <time>2019-10-15T07:29:48.000Z</time>
      </trkpt>
      <trkpt lat="37.57179" lon="-4.31512">
        <ele>501.65</ele>
        <time>2019-10-15T07:29:53.000Z</time>
      </trkpt>
      <trkpt lat="37.57161" lon="-4.31509">
        <ele>501.79</ele>
        <time>2019-10-15T07:29:58.000Z</time>
      </trkpt>
      <trkpt lat="37.57144" lon="-4.31506">
        <ele>501.93</ele>
        <time>2019-10-15T07:30:03.000Z</time>
      </trkpt>
      <trkpt lat="37.57126" lon="-4.31504">
        <ele>502.05</ele>
        <time>2019-10-15T07:30:08.000Z</time>
      </trkpt>
      <trkpt lat="37.57108" lon="-4.31501">
        <ele>502.17</ele>
        <time>2019-10-15T07:30:13.000Z</time>
      </trkpt>
      <trkpt lat="37.57087" lon="-4.31498">
        <ele>502.79</ele>
        <time>2019-10-15T07:30:18.000Z</time>
      </trkpt>
      <trkpt lat="37.57069" lon="-4.31495">
        <ele>502.93</ele>
        <time>2019-10-15T07:30:23.000Z</time>
      </trkpt>
      <trkpt lat="37.57052" lon="-4.31493">
        <ele>503.07</ele>
        <time>2019-10-15T07:30:28.000Z</time>
      </trkpt>
      <trkpt lat="37.57034" lon="-4.31492">
        <ele>504.07</ele>
        <time>2019-10-15T07:30:33.000Z</time>
      </trkpt>
      <trkpt lat="37.57015" lon="-4.31493">
        <ele>504.8</ele>
        <time>2019-10-15T07:30:38.000Z</time>
      </trkpt>
      <trkpt lat="37.56993" lon="-4.31496">
        <ele>505.12</ele>
        <time>2019-10-15T07:30:43.000Z</time>
      </trkpt>
      <trkpt lat="37.56971" lon="-4.31503">
        <ele>505.44</ele>
        <time>2019-10-15T07:30:48.000Z</time>
      </trkpt>
      <trkpt lat="37.56951" lon="-4.31509">
        <ele>505.79</ele>
        <time>2019-10-15T07:30:53.000Z</time>
      </trkpt>
      <trkpt lat="37.56931" lon="-4.31522">
        <ele>506.15</ele>
        <time>2019-10-15T07:30:58.000Z</time>
      </trkpt>
      <trkpt lat="37.56913" lon="-4.31533">
        <ele>506.3</ele>
        <time>2019-10-15T07:31:03.000Z</time>
      </trkpt>
      <trkpt lat="37.56896" lon="-4.31544">
        <ele>506.35</ele>
        <time>2019-10-15T07:31:08.000Z</time>
      </trkpt>
      <trkpt lat="37.56878" lon="-4.31554">
        <ele>506.39</ele>
        <time>2019-10-15T07:31:13.000Z</time>
      </trkpt>
      <trkpt lat="37.56861" lon="-4.31564">
        <ele>506.45</ele>
        <time>2019-10-15T07:31:18.000Z</time>
      </trkpt>
      <trkpt lat="37.56843" lon="-4.31571">
        <ele>506.6</ele>
        <time>2019-10-15T07:31:23.000Z</time>
      </trkpt>
      <trkpt lat="37.56826" lon="-4.31575">
        <ele>506.82</ele>
        <time>2019-10-15T07:31:28.000Z</time>
      </trkpt>
      <trkpt lat="37.56808" lon="-4.31578">
        <ele>507.02</ele>
        <time>2019-10-15T07:31:33.000Z</time>
      </trkpt>
      <trkpt lat="37.56789" lon="-4.31578">
        <ele>507.28</ele>
        <time>2019-10-15T07:31:38.000Z</time>
      </trkpt>
      <trkpt lat="37.56768" lon="-4.31577">
        <ele>507.53</ele>
        <time>2019-10-15T07:31:43.000Z</time>
      </trkpt>
      <trkpt lat="37.56749" lon="-4.3157">
        <ele>507.78</ele>
        <time>2019-10-15T07:31:48.000Z</time>
      </trkpt>
      <trkpt lat="37.56729" lon="-4.31562">
        <ele>508.08</ele>
        <time>2019-10-15T07:31:53.000Z</time>
      </trkpt>
      <trkpt lat="37.56709" lon="-4.31553">
        <ele>508.43</ele>
        <time>2019-10-15T07:31:58.000Z</time>
      </trkpt>
      <trkpt lat="37.56687" lon="-4.31544">
        <ele>508.76</ele>
        <time>2019-10-15T07:32:03.000Z</time>
      </trkpt>
      <trkpt lat="37.56666" lon="-4.31538">
        <ele>509.07</ele>
        <time>2019-10-15T07:32:08.000Z</time>
      </trkpt>
      <trkpt lat="37.56644" lon="-4.31533">
        <ele>509.37</ele>
        <time>2019-10-15T07:32:13.000Z</time>
      </trkpt>
      <trkpt lat="37.56622" lon="-4.31532">
        <ele>509.67</ele>
        <time>2019-10-15T07:32:18.000Z</time>
      </trkpt>
      <trkpt lat="37.56603" lon="-4.31534">
        <ele>509.95</ele>
        <time>2019-10-15T07:32:23.000Z</time>
      </trkpt>
      <trkpt lat="37.56584" lon="-4.31539">
        <ele>510.18</ele>
        <time>2019-10-15T07:32:28.000Z</time>
      </trkpt>
      <trkpt lat="37.56565" lon="-4.31546">
        <ele>510.4</ele>
        <time>2019-10-15T07:32:33.000Z</time>
      </trkpt>
      <trkpt lat="37.56546" lon="-4.31555">
        <ele>510.63</ele>
        <time>2019-10-15T07:32:38.000Z</time>
      </trkpt>
      <trkpt lat="37.56529" lon="-4.31567">
        <ele>510.76</ele>
        <time>2019-10-15T07:32:43.000Z</time>
      </trkpt>
      <trkpt lat="37.56513" lon="-4.31579">
        <ele>510.91</ele>
        <time>2019-10-15T07:32:48.000Z</time>
      </trkpt>
      <trkpt lat="37.56497" lon="-4.31592">
        <ele>510.94</ele>
        <time>2019-10-15T07:32:53.000Z</time>
      </trkpt>
      <trkpt lat="37.5648" lon="-4.31606">
        <ele>510.96</ele>
        <time>2019-10-15T07:32:58.000Z</time>
      </trkpt>
      <trkpt lat="37.56463" lon="-4.31621">
        <ele>510.96</ele>
        <time>2019-10-15T07:33:03.000Z</time>
      </trkpt>
      <trkpt lat="37.56447" lon="-4.31634">
        <ele>510.93</ele>
        <time>2019-10-15T07:33:08.000Z</time>
      </trkpt>
      <trkpt lat="37.56432" lon="-4.31647">
        <ele>510.94</ele>
        <time>2019-10-15T07:33:13.000Z</time>
      </trkpt>
      <trkpt lat="37.56419" lon="-4.31659">
        <ele>510.93</ele>
        <time>2019-10-15T07:33:18.000Z</time>
      </trkpt>
      <trkpt lat="37.56406" lon="-4.31672">
        <ele>510.93</ele>
        <time>2019-10-15T07:33:23.000Z</time>
      </trkpt>
      <trkpt lat="37.56395" lon="-4.31683">
        <ele>510.92</ele>
        <time>2019-10-15T07:33:28.000Z</time>
      </trkpt>
      <trkpt lat="37.56385" lon="-4.31695">
        <ele>510.9</ele>
        <time>2019-10-15T07:33:33.000Z</time>
      </trkpt>
      <trkpt lat="37.56376" lon="-4.31707">
        <ele>510.88</ele>
        <time>2019-10-15T07:33:38.000Z</time>
      </trkpt>
      <trkpt lat="37.56368" lon="-4.31718">
        <ele>510.87</ele>
        <time>2019-10-15T07:33:43.000Z</time>
      </trkpt>
      <trkpt lat="37.56358" lon="-4.3173">
        <ele>510.85</ele>
        <time>2019-10-15T07:33:48.000Z</time>
      </trkpt>
      <trkpt lat="37.56347" lon="-4.31743">
        <ele>510.82</ele>
        <time>2019-10-15T07:33:53.000Z</time>
      </trkpt>
      <trkpt lat="37.56336" lon="-4.31756">
        <ele>510.78</ele>
        <time>2019-10-15T07:33:58.000Z</time>
      </trkpt>
      <trkpt lat="37.56324" lon="-4.31769">
        <ele>510.73</ele>
        <time>2019-10-15T07:34:03.000Z</time>
      </trkpt>
      <trkpt lat="37.56311" lon="-4.31783">
        <ele>510.69</ele>
        <time>2019-10-15T07:34:08.000Z</time>
      </trkpt>
      <trkpt lat="37.56299" lon="-4.31798">
        <ele>510.64</ele>
        <time>2019-10-15T07:34:13.000Z</time>
      </trkpt>
      <trkpt lat="37.56284" lon="-4.31811">
        <ele>510.4</ele>
        <time>2019-10-15T07:34:18.000Z</time>
      </trkpt>
      <trkpt lat="37.56266" lon="-4.31825">
        <ele>510.16</ele>
        <time>2019-10-15T07:34:23.000Z</time>
      </trkpt>
      <trkpt lat="37.56246" lon="-4.31835">
        <ele>510.07</ele>
        <time>2019-10-15T07:34:28.000Z</time>
      </trkpt>
      <trkpt lat="37.56222" lon="-4.31844">
        <ele>510.05</ele>
        <time>2019-10-15T07:34:33.000Z</time>
      </trkpt>
      <trkpt lat="37.56202" lon="-4.31848">
        <ele>510.3</ele>
        <time>2019-10-15T07:34:38.000Z</time>
      </trkpt>
      <trkpt lat="37.56181" lon="-4.3185">
        <ele>510.74</ele>
        <time>2019-10-15T07:34:43.000Z</time>
      </trkpt>
      <trkpt lat="37.56159" lon="-4.3185">
        <ele>511.23</ele>
        <time>2019-10-15T07:34:48.000Z</time>
      </trkpt>
      <trkpt lat="37.56137" lon="-4.31847">
        <ele>511.69</ele>
        <time>2019-10-15T07:34:53.000Z</time>
      </trkpt>
      <trkpt lat="37.56119" lon="-4.31845">
        <ele>512.08</ele>
        <time>2019-10-15T07:34:58.000Z</time>
      </trkpt>
      <trkpt lat="37.56102" lon="-4.31846">
        <ele>512.15</ele>
        <time>2019-10-15T07:35:03.000Z</time>
      </trkpt>
      <trkpt lat="37.5609" lon="-4.31858">
        <ele>512.24</ele>
        <time>2019-10-15T07:35:08.000Z</time>
      </trkpt>
      <trkpt lat="37.56085" lon="-4.31871">
        <ele>512.32</ele>
        <time>2019-10-15T07:35:13.000Z</time>
      </trkpt>
      <trkpt lat="37.56088" lon="-4.31882">
        <ele>512.69</ele>
        <time>2019-10-15T07:37:10.000Z</time>
      </trkpt>
      <trkpt lat="37.56089" lon="-4.31894">
        <ele>513.25</ele>
        <time>2019-10-15T07:38:52.000Z</time>
      </trkpt>
      <trkpt lat="37.56086" lon="-4.31912">
        <ele>513.32</ele>
        <time>2019-10-15T07:38:57.000Z</time>
      </trkpt>
      <trkpt lat="37.56082" lon="-4.31934">
        <ele>513.38</ele>
        <time>2019-10-15T07:39:02.000Z</time>
      </trkpt>
      <trkpt lat="37.56078" lon="-4.31955">
        <ele>513.55</ele>
        <time>2019-10-15T07:39:07.000Z</time>
      </trkpt>
      <trkpt lat="37.56074" lon="-4.31977">
        <ele>513.6</ele>
        <time>2019-10-15T07:39:12.000Z</time>
      </trkpt>
      <trkpt lat="37.5607" lon="-4.3199">
        <ele>513.6</ele>
        <time>2019-10-15T07:39:17.000Z</time>
      </trkpt>
      <trkpt lat="37.56069" lon="-4.3201">
        <ele>513.59</ele>
        <time>2019-10-15T07:39:22.000Z</time>
      </trkpt>
      <trkpt lat="37.56069" lon="-4.3203">
        <ele>513.58</ele>
        <time>2019-10-15T07:39:27.000Z</time>
      </trkpt>
      <trkpt lat="37.5607" lon="-4.32051">
        <ele>513.57</ele>
        <time>2019-10-15T07:39:32.000Z</time>
      </trkpt>
      <trkpt lat="37.56071" lon="-4.32072">
        <ele>513.56</ele>
        <time>2019-10-15T07:39:37.000Z</time>
      </trkpt>
      <trkpt lat="37.56072" lon="-4.32089">
        <ele>513.55</ele>
        <time>2019-10-15T07:39:42.000Z</time>
      </trkpt>
      <trkpt lat="37.56072" lon="-4.32106">
        <ele>513.54</ele>
        <time>2019-10-15T07:39:47.000Z</time>
      </trkpt>
      <trkpt lat="37.56073" lon="-4.32121">
        <ele>513.53</ele>
        <time>2019-10-15T07:39:52.000Z</time>
      </trkpt>
      <trkpt lat="37.56073" lon="-4.32136">
        <ele>513.52</ele>
        <time>2019-10-15T07:39:57.000Z</time>
      </trkpt>
      <trkpt lat="37.56073" lon="-4.3215">
        <ele>513.52</ele>
        <time>2019-10-15T07:40:02.000Z</time>
      </trkpt>
      <trkpt lat="37.56073" lon="-4.32164">
        <ele>513.53</ele>
        <time>2019-10-15T07:40:07.000Z</time>
      </trkpt>
      <trkpt lat="37.56072" lon="-4.32178">
        <ele>513.55</ele>
        <time>2019-10-15T07:40:12.000Z</time>
      </trkpt>
      <trkpt lat="37.56071" lon="-4.32191">
        <ele>513.57</ele>
        <time>2019-10-15T07:40:17.000Z</time>
      </trkpt>
      <trkpt lat="37.5607" lon="-4.32205">
        <ele>513.61</ele>
        <time>2019-10-15T07:40:23.000Z</time>
      </trkpt>
      <trkpt lat="37.56069" lon="-4.32219">
        <ele>513.65</ele>
        <time>2019-10-15T07:40:28.000Z</time>
      </trkpt>
      <trkpt lat="37.56067" lon="-4.32235">
        <ele>513.71</ele>
        <time>2019-10-15T07:40:33.000Z</time>
      </trkpt>
      <trkpt lat="37.56065" lon="-4.32248">
        <ele>513.77</ele>
        <time>2019-10-15T07:40:37.999Z</time>
      </trkpt>
      <trkpt lat="37.56062" lon="-4.3226">
        <ele>513.86</ele>
        <time>2019-10-15T07:40:42.999Z</time>
      </trkpt>
      <trkpt lat="37.56059" lon="-4.32271">
        <ele>513.95</ele>
        <time>2019-10-15T07:40:47.999Z</time>
      </trkpt>
      <trkpt lat="37.56056" lon="-4.32283">
        <ele>514.09</ele>
        <time>2019-10-15T07:40:53.999Z</time>
      </trkpt>
      <trkpt lat="37.56052" lon="-4.32295">
        <ele>514.23</ele>
        <time>2019-10-15T07:40:59.999Z</time>
      </trkpt>
      <trkpt lat="37.56049" lon="-4.32306">
        <ele>514.32</ele>
        <time>2019-10-15T07:41:04.999Z</time>
      </trkpt>
      <trkpt lat="37.56046" lon="-4.32318">
        <ele>514.38</ele>
        <time>2019-10-15T07:41:09.999Z</time>
      </trkpt>
      <trkpt lat="37.56043" lon="-4.32329">
        <ele>514.43</ele>
        <time>2019-10-15T07:41:14.999Z</time>
      </trkpt>
      <trkpt lat="37.56038" lon="-4.32341">
        <ele>514.45</ele>
        <time>2019-10-15T07:41:20.999Z</time>
      </trkpt>
      <trkpt lat="37.56034" lon="-4.32353">
        <ele>514.45</ele>
        <time>2019-10-15T07:41:25.999Z</time>
      </trkpt>
      <trkpt lat="37.5603" lon="-4.32365">
        <ele>514.43</ele>
        <time>2019-10-15T07:41:31.999Z</time>
      </trkpt>
      <trkpt lat="37.56025" lon="-4.32376">
        <ele>514.39</ele>
        <time>2019-10-15T07:41:37.999Z</time>
      </trkpt>
      <trkpt lat="37.56019" lon="-4.32389">
        <ele>514.34</ele>
        <time>2019-10-15T07:41:43.999Z</time>
      </trkpt>
      <trkpt lat="37.56013" lon="-4.32399">
        <ele>514.27</ele>
        <time>2019-10-15T07:41:49.999Z</time>
      </trkpt>
      <trkpt lat="37.56008" lon="-4.32408">
        <ele>514.21</ele>
        <time>2019-10-15T07:41:54.999Z</time>
      </trkpt>
      <trkpt lat="37.56002" lon="-4.32418">
        <ele>514.14</ele>
        <time>2019-10-15T07:41:59.999Z</time>
      </trkpt>
      <trkpt lat="37.55996" lon="-4.32429">
        <ele>514.07</ele>
        <time>2019-10-15T07:42:04.999Z</time>
      </trkpt>
      <trkpt lat="37.55989" lon="-4.3244">
        <ele>513.97</ele>
        <time>2019-10-15T07:42:10.999Z</time>
      </trkpt>
      <trkpt lat="37.55981" lon="-4.32454">
        <ele>513.9</ele>
        <time>2019-10-15T07:42:15.999Z</time>
      </trkpt>
      <trkpt lat="37.55975" lon="-4.32462">
        <ele>513.82</ele>
        <time>2019-10-15T07:42:21.999Z</time>
      </trkpt>
      <trkpt lat="37.55967" lon="-4.32471">
        <ele>513.74</ele>
        <time>2019-10-15T07:42:27.999Z</time>
      </trkpt>
      <trkpt lat="37.55958" lon="-4.32479">
        <ele>513.66</ele>
        <time>2019-10-15T07:42:33.999Z</time>
      </trkpt>
      <trkpt lat="37.5595" lon="-4.32488">
        <ele>513.59</ele>
        <time>2019-10-15T07:42:39.999Z</time>
      </trkpt>
      <trkpt lat="37.55943" lon="-4.32496">
        <ele>513.52</ele>
        <time>2019-10-15T07:42:45.999Z</time>
      </trkpt>
      <trkpt lat="37.55935" lon="-4.32504">
        <ele>513.46</ele>
        <time>2019-10-15T07:42:51.999Z</time>
      </trkpt>
      <trkpt lat="37.55926" lon="-4.3251">
        <ele>513.41</ele>
        <time>2019-10-15T07:42:57.999Z</time>
      </trkpt>
      <trkpt lat="37.55918" lon="-4.32518">
        <ele>513.37</ele>
        <time>2019-10-15T07:43:02.999Z</time>
      </trkpt>
      <trkpt lat="37.5591" lon="-4.32524">
        <ele>513.33</ele>
        <time>2019-10-15T07:43:07.999Z</time>
      </trkpt>
      <trkpt lat="37.55902" lon="-4.32531">
        <ele>513.3</ele>
        <time>2019-10-15T07:43:12.999Z</time>
      </trkpt>
      <trkpt lat="37.55895" lon="-4.3254">
        <ele>513.26</ele>
        <time>2019-10-15T07:43:17.999Z</time>
      </trkpt>
      <trkpt lat="37.55886" lon="-4.32546">
        <ele>513.23</ele>
        <time>2019-10-15T07:43:22.999Z</time>
      </trkpt>
      <trkpt lat="37.55879" lon="-4.32553">
        <ele>513.21</ele>
        <time>2019-10-15T07:43:27.999Z</time>
      </trkpt>
      <trkpt lat="37.55871" lon="-4.32559">
        <ele>513.18</ele>
        <time>2019-10-15T07:43:32.999Z</time>
      </trkpt>
      <trkpt lat="37.55862" lon="-4.32565">
        <ele>513.15</ele>
        <time>2019-10-15T07:43:37.999Z</time>
      </trkpt>
      <trkpt lat="37.55854" lon="-4.32571">
        <ele>513.12</ele>
        <time>2019-10-15T07:43:42.999Z</time>
      </trkpt>
      <trkpt lat="37.55844" lon="-4.32577">
        <ele>513.09</ele>
        <time>2019-10-15T07:43:47.999Z</time>
      </trkpt>
      <trkpt lat="37.55836" lon="-4.32581">
        <ele>513.07</ele>
        <time>2019-10-15T07:43:52.999Z</time>
      </trkpt>
      <trkpt lat="37.55827" lon="-4.32586">
        <ele>513.04</ele>
        <time>2019-10-15T07:43:57.999Z</time>
      </trkpt>
      <trkpt lat="37.55817" lon="-4.32592">
        <ele>513.01</ele>
        <time>2019-10-15T07:44:03.999Z</time>
      </trkpt>
      <trkpt lat="37.5581" lon="-4.32599">
        <ele>512.99</ele>
        <time>2019-10-15T07:44:08.999Z</time>
      </trkpt>
      <trkpt lat="37.55803" lon="-4.32606">
        <ele>512.98</ele>
        <time>2019-10-15T07:44:14.999Z</time>
      </trkpt>
      <trkpt lat="37.55794" lon="-4.3261">
        <ele>512.96</ele>
        <time>2019-10-15T07:44:19.999Z</time>
      </trkpt>
      <trkpt lat="37.55785" lon="-4.32616">
        <ele>512.95</ele>
        <time>2019-10-15T07:44:25.999Z</time>
      </trkpt>
      <trkpt lat="37.55777" lon="-4.32622">
        <ele>512.94</ele>
        <time>2019-10-15T07:44:30.999Z</time>
      </trkpt>
      <trkpt lat="37.55769" lon="-4.32629">
        <ele>512.93</ele>
        <time>2019-10-15T07:44:35.999Z</time>
      </trkpt>
      <trkpt lat="37.55762" lon="-4.32635">
        <ele>512.93</ele>
        <time>2019-10-15T07:44:40.999Z</time>
      </trkpt>
      <trkpt lat="37.55753" lon="-4.32641">
        <ele>512.94</ele>
        <time>2019-10-15T07:44:45.999Z</time>
      </trkpt>
      <trkpt lat="37.55744" lon="-4.32648">
        <ele>512.94</ele>
        <time>2019-10-15T07:44:50.999Z</time>
      </trkpt>
      <trkpt lat="37.55736" lon="-4.32654">
        <ele>512.95</ele>
        <time>2019-10-15T07:44:55.999Z</time>
      </trkpt>
      <trkpt lat="37.55728" lon="-4.32659">
        <ele>512.96</ele>
        <time>2019-10-15T07:45:00.999Z</time>
      </trkpt>
      <trkpt lat="37.5572" lon="-4.32666">
        <ele>512.98</ele>
        <time>2019-10-15T07:45:05.999Z</time>
      </trkpt>
      <trkpt lat="37.55711" lon="-4.32672">
        <ele>513</ele>
        <time>2019-10-15T07:45:10.999Z</time>
      </trkpt>
      <trkpt lat="37.55703" lon="-4.3268">
        <ele>513.03</ele>
        <time>2019-10-15T07:45:16.999Z</time>
      </trkpt>
      <trkpt lat="37.55695" lon="-4.32685">
        <ele>513.05</ele>
        <time>2019-10-15T07:45:21.999Z</time>
      </trkpt>
      <trkpt lat="37.55685" lon="-4.32691">
        <ele>513.08</ele>
        <time>2019-10-15T07:45:26.999Z</time>
      </trkpt>
      <trkpt lat="37.55676" lon="-4.32696">
        <ele>513.12</ele>
        <time>2019-10-15T07:45:31.999Z</time>
      </trkpt>
      <trkpt lat="37.55669" lon="-4.32702">
        <ele>513.16</ele>
        <time>2019-10-15T07:45:36.999Z</time>
      </trkpt>
      <trkpt lat="37.5566" lon="-4.32709">
        <ele>513.2</ele>
        <time>2019-10-15T07:45:41.999Z</time>
      </trkpt>
      <trkpt lat="37.55652" lon="-4.32714">
        <ele>513.27</ele>
        <time>2019-10-15T07:45:47.999Z</time>
      </trkpt>
      <trkpt lat="37.55644" lon="-4.32722">
        <ele>513.33</ele>
        <time>2019-10-15T07:45:53.999Z</time>
      </trkpt>
      <trkpt lat="37.55637" lon="-4.3273">
        <ele>513.4</ele>
        <time>2019-10-15T07:45:58.999Z</time>
      </trkpt>
      <trkpt lat="37.55629" lon="-4.32737">
        <ele>513.48</ele>
        <time>2019-10-15T07:46:04.999Z</time>
      </trkpt>
      <trkpt lat="37.55622" lon="-4.32746">
        <ele>513.58</ele>
        <time>2019-10-15T07:46:10.999Z</time>
      </trkpt>
      <trkpt lat="37.55617" lon="-4.32755">
        <ele>513.67</ele>
        <time>2019-10-15T07:46:15.999Z</time>
      </trkpt>
      <trkpt lat="37.5561" lon="-4.32765">
        <ele>513.77</ele>
        <time>2019-10-15T07:46:21.999Z</time>
      </trkpt>
      <trkpt lat="37.55603" lon="-4.32775">
        <ele>513.89</ele>
        <time>2019-10-15T07:46:27.999Z</time>
      </trkpt>
      <trkpt lat="37.55596" lon="-4.32784">
        <ele>513.98</ele>
        <time>2019-10-15T07:46:32.999Z</time>
      </trkpt>
      <trkpt lat="37.5559" lon="-4.32793">
        <ele>514.08</ele>
        <time>2019-10-15T07:46:37.999Z</time>
      </trkpt>
      <trkpt lat="37.55582" lon="-4.32803">
        <ele>514.22</ele>
        <time>2019-10-15T07:46:44.999Z</time>
      </trkpt>
      <trkpt lat="37.55576" lon="-4.32812">
        <ele>514.33</ele>
        <time>2019-10-15T07:46:49.999Z</time>
      </trkpt>
      <trkpt lat="37.55568" lon="-4.32824">
        <ele>514.44</ele>
        <time>2019-10-15T07:46:54.999Z</time>
      </trkpt>
      <trkpt lat="37.55561" lon="-4.32836">
        <ele>514.55</ele>
        <time>2019-10-15T07:46:59.999Z</time>
      </trkpt>
      <trkpt lat="37.55555" lon="-4.32847">
        <ele>514.67</ele>
        <time>2019-10-15T07:47:04.999Z</time>
      </trkpt>
      <trkpt lat="37.5555" lon="-4.32857">
        <ele>514.8</ele>
        <time>2019-10-15T07:47:09.999Z</time>
      </trkpt>
      <trkpt lat="37.55545" lon="-4.32867">
        <ele>514.92</ele>
        <time>2019-10-15T07:47:14.999Z</time>
      </trkpt>
      <trkpt lat="37.5554" lon="-4.32878">
        <ele>515.05</ele>
        <time>2019-10-15T07:47:19.999Z</time>
      </trkpt>
      <trkpt lat="37.55535" lon="-4.32889">
        <ele>515.2</ele>
        <time>2019-10-15T07:47:25.999Z</time>
      </trkpt>
      <trkpt lat="37.5553" lon="-4.329">
        <ele>515.36</ele>
        <time>2019-10-15T07:47:31.999Z</time>
      </trkpt>
      <trkpt lat="37.55525" lon="-4.32911">
        <ele>515.52</ele>
        <time>2019-10-15T07:47:37.999Z</time>
      </trkpt>
      <trkpt lat="37.55521" lon="-4.32921">
        <ele>515.66</ele>
        <time>2019-10-15T07:47:42.999Z</time>
      </trkpt>
      <trkpt lat="37.55517" lon="-4.32932">
        <ele>515.79</ele>
        <time>2019-10-15T07:47:47.999Z</time>
      </trkpt>
      <trkpt lat="37.55513" lon="-4.32943">
        <ele>515.96</ele>
        <time>2019-10-15T07:47:53.999Z</time>
      </trkpt>
      <trkpt lat="37.55509" lon="-4.32954">
        <ele>516.14</ele>
        <time>2019-10-15T07:47:59.999Z</time>
      </trkpt>
      <trkpt lat="37.55506" lon="-4.32965">
        <ele>516.3</ele>
        <time>2019-10-15T07:48:04.999Z</time>
      </trkpt>
      <trkpt lat="37.55502" lon="-4.32977">
        <ele>516.5</ele>
        <time>2019-10-15T07:48:10.999Z</time>
      </trkpt>
      <trkpt lat="37.55498" lon="-4.3299">
        <ele>516.75</ele>
        <time>2019-10-15T07:48:17.999Z</time>
      </trkpt>
      <trkpt lat="37.55495" lon="-4.33003">
        <ele>516.99</ele>
        <time>2019-10-15T07:48:23.999Z</time>
      </trkpt>
      <trkpt lat="37.55492" lon="-4.33015">
        <ele>517.25</ele>
        <time>2019-10-15T07:48:29.999Z</time>
      </trkpt>
      <trkpt lat="37.5549" lon="-4.33028">
        <ele>517.53</ele>
        <time>2019-10-15T07:48:35.999Z</time>
      </trkpt>
      <trkpt lat="37.55487" lon="-4.33041">
        <ele>517.89</ele>
        <time>2019-10-15T07:48:41.999Z</time>
      </trkpt>
      <trkpt lat="37.55485" lon="-4.33052">
        <ele>518.3</ele>
        <time>2019-10-15T07:48:46.999Z</time>
      </trkpt>
      <trkpt lat="37.55483" lon="-4.33065">
        <ele>518.89</ele>
        <time>2019-10-15T07:48:52.999Z</time>
      </trkpt>
      <trkpt lat="37.5548" lon="-4.33076">
        <ele>519.5</ele>
        <time>2019-10-15T07:48:58.999Z</time>
      </trkpt>
      <trkpt lat="37.55479" lon="-4.33087">
        <ele>520.03</ele>
        <time>2019-10-15T07:49:03.999Z</time>
      </trkpt>
      <trkpt lat="37.55477" lon="-4.331">
        <ele>520.69</ele>
        <time>2019-10-15T07:49:09.999Z</time>
      </trkpt>
      <trkpt lat="37.55475" lon="-4.33111">
        <ele>521.36</ele>
        <time>2019-10-15T07:49:15.999Z</time>
      </trkpt>
      <trkpt lat="37.55472" lon="-4.33123">
        <ele>521.92</ele>
        <time>2019-10-15T07:49:20.999Z</time>
      </trkpt>
      <trkpt lat="37.55471" lon="-4.33135">
        <ele>522.62</ele>
        <time>2019-10-15T07:49:26.999Z</time>
      </trkpt>
      <trkpt lat="37.5547" lon="-4.33147">
        <ele>523.22</ele>
        <time>2019-10-15T07:49:31.999Z</time>
      </trkpt>
      <trkpt lat="37.55466" lon="-4.33163">
        <ele>523.85</ele>
        <time>2019-10-15T07:49:36.999Z</time>
      </trkpt>
      <trkpt lat="37.55465" lon="-4.33175">
        <ele>524.95</ele>
        <time>2019-10-15T07:49:44.999Z</time>
      </trkpt>
      <trkpt lat="37.55462" lon="-4.33189">
        <ele>525.67</ele>
        <time>2019-10-15T07:49:49.999Z</time>
      </trkpt>
      <trkpt lat="37.55458" lon="-4.33201">
        <ele>526.62</ele>
        <time>2019-10-15T07:49:55.999Z</time>
      </trkpt>
      <trkpt lat="37.55455" lon="-4.33212">
        <ele>527.63</ele>
        <time>2019-10-15T07:50:01.999Z</time>
      </trkpt>
      <trkpt lat="37.55452" lon="-4.33224">
        <ele>528.69</ele>
        <time>2019-10-15T07:50:07.999Z</time>
      </trkpt>
      <trkpt lat="37.5545" lon="-4.33236">
        <ele>529.68</ele>
        <time>2019-10-15T07:50:12.999Z</time>
      </trkpt>
      <trkpt lat="37.55447" lon="-4.33249">
        <ele>530.69</ele>
        <time>2019-10-15T07:50:17.999Z</time>
      </trkpt>
      <trkpt lat="37.55444" lon="-4.33261">
        <ele>531.88</ele>
        <time>2019-10-15T07:50:23.999Z</time>
      </trkpt>
      <trkpt lat="37.55441" lon="-4.33272">
        <ele>533.04</ele>
        <time>2019-10-15T07:50:29.999Z</time>
      </trkpt>
      <trkpt lat="37.55438" lon="-4.33284">
        <ele>534.14</ele>
        <time>2019-10-15T07:50:35.999Z</time>
      </trkpt>
      <trkpt lat="37.55432" lon="-4.33296">
        <ele>535.01</ele>
        <time>2019-10-15T07:50:40.999Z</time>
      </trkpt>
      <trkpt lat="37.55428" lon="-4.33307">
        <ele>535.87</ele>
        <time>2019-10-15T07:50:45.999Z</time>
      </trkpt>
      <trkpt lat="37.55423" lon="-4.33317">
        <ele>536.7</ele>
        <time>2019-10-15T07:50:50.999Z</time>
      </trkpt>
      <trkpt lat="37.55417" lon="-4.33327">
        <ele>537.53</ele>
        <time>2019-10-15T07:50:55.999Z</time>
      </trkpt>
      <trkpt lat="37.55412" lon="-4.33338">
        <ele>538.51</ele>
        <time>2019-10-15T07:51:01.999Z</time>
      </trkpt>
      <trkpt lat="37.55406" lon="-4.3335">
        <ele>539.44</ele>
        <time>2019-10-15T07:51:07.999Z</time>
      </trkpt>
      <trkpt lat="37.554" lon="-4.33361">
        <ele>540.2</ele>
        <time>2019-10-15T07:51:12.999Z</time>
      </trkpt>
      <trkpt lat="37.55394" lon="-4.33373">
        <ele>541.08</ele>
        <time>2019-10-15T07:51:18.999Z</time>
      </trkpt>
      <trkpt lat="37.55388" lon="-4.33383">
        <ele>541.8</ele>
        <time>2019-10-15T07:51:23.999Z</time>
      </trkpt>
      <trkpt lat="37.55382" lon="-4.33393">
        <ele>542.5</ele>
        <time>2019-10-15T07:51:28.999Z</time>
      </trkpt>
      <trkpt lat="37.55374" lon="-4.33402">
        <ele>543.21</ele>
        <time>2019-10-15T07:51:33.999Z</time>
      </trkpt>
      <trkpt lat="37.55367" lon="-4.33411">
        <ele>544.23</ele>
        <time>2019-10-15T07:51:40.999Z</time>
      </trkpt>
      <trkpt lat="37.55359" lon="-4.3342">
        <ele>544.99</ele>
        <time>2019-10-15T07:51:45.999Z</time>
      </trkpt>
      <trkpt lat="37.55351" lon="-4.33427">
        <ele>546.11</ele>
        <time>2019-10-15T07:51:52.999Z</time>
      </trkpt>
      <trkpt lat="37.55343" lon="-4.33437">
        <ele>546.89</ele>
        <time>2019-10-15T07:51:57.999Z</time>
      </trkpt>
      <trkpt lat="37.55335" lon="-4.33445">
        <ele>547.68</ele>
        <time>2019-10-15T07:52:02.999Z</time>
      </trkpt>
      <trkpt lat="37.55328" lon="-4.33453">
        <ele>548.46</ele>
        <time>2019-10-15T07:52:07.999Z</time>
      </trkpt>
      <trkpt lat="37.5532" lon="-4.33461">
        <ele>549.37</ele>
        <time>2019-10-15T07:52:13.999Z</time>
      </trkpt>
      <trkpt lat="37.55313" lon="-4.33468">
        <ele>550.25</ele>
        <time>2019-10-15T07:52:19.999Z</time>
      </trkpt>
      <trkpt lat="37.55305" lon="-4.33476">
        <ele>550.94</ele>
        <time>2019-10-15T07:52:24.999Z</time>
      </trkpt>
      <trkpt lat="37.55295" lon="-4.33484">
        <ele>551.62</ele>
        <time>2019-10-15T07:52:29.999Z</time>
      </trkpt>
      <trkpt lat="37.55288" lon="-4.33491">
        <ele>552.41</ele>
        <time>2019-10-15T07:52:35.999Z</time>
      </trkpt>
      <trkpt lat="37.5528" lon="-4.33499">
        <ele>553.05</ele>
        <time>2019-10-15T07:52:40.999Z</time>
      </trkpt>
      <trkpt lat="37.55271" lon="-4.33508">
        <ele>553.67</ele>
        <time>2019-10-15T07:52:45.999Z</time>
      </trkpt>
      <trkpt lat="37.55265" lon="-4.33517">
        <ele>554.26</ele>
        <time>2019-10-15T07:52:50.999Z</time>
      </trkpt>
      <trkpt lat="37.55258" lon="-4.33525">
        <ele>554.81</ele>
        <time>2019-10-15T07:52:55.999Z</time>
      </trkpt>
      <trkpt lat="37.5525" lon="-4.33531">
        <ele>555.32</ele>
        <time>2019-10-15T07:53:00.999Z</time>
      </trkpt>
      <trkpt lat="37.55242" lon="-4.33537">
        <ele>555.8</ele>
        <time>2019-10-15T07:53:05.999Z</time>
      </trkpt>
      <trkpt lat="37.55234" lon="-4.33544">
        <ele>556.25</ele>
        <time>2019-10-15T07:53:10.999Z</time>
      </trkpt>
      <trkpt lat="37.55226" lon="-4.33551">
        <ele>556.69</ele>
        <time>2019-10-15T07:53:15.999Z</time>
      </trkpt>
      <trkpt lat="37.55217" lon="-4.33558">
        <ele>557.2</ele>
        <time>2019-10-15T07:53:21.999Z</time>
      </trkpt>
      <trkpt lat="37.5521" lon="-4.33564">
        <ele>557.62</ele>
        <time>2019-10-15T07:53:26.999Z</time>
      </trkpt>
      <trkpt lat="37.55201" lon="-4.33572">
        <ele>558.09</ele>
        <time>2019-10-15T07:53:32.999Z</time>
      </trkpt>
      <trkpt lat="37.55194" lon="-4.33581">
        <ele>558.55</ele>
        <time>2019-10-15T07:53:38.999Z</time>
      </trkpt>
      <trkpt lat="37.55186" lon="-4.33588">
        <ele>558.97</ele>
        <time>2019-10-15T07:53:44.999Z</time>
      </trkpt>
      <trkpt lat="37.55179" lon="-4.33596">
        <ele>559.31</ele>
        <time>2019-10-15T07:53:49.999Z</time>
      </trkpt>
      <trkpt lat="37.55171" lon="-4.33603">
        <ele>559.7</ele>
        <time>2019-10-15T07:53:55.999Z</time>
      </trkpt>
      <trkpt lat="37.55164" lon="-4.33611">
        <ele>560.06</ele>
        <time>2019-10-15T07:54:01.999Z</time>
      </trkpt>
      <trkpt lat="37.55155" lon="-4.3362">
        <ele>560.44</ele>
        <time>2019-10-15T07:54:08.999Z</time>
      </trkpt>
      <trkpt lat="37.55147" lon="-4.33627">
        <ele>560.79</ele>
        <time>2019-10-15T07:54:15.999Z</time>
      </trkpt>
      <trkpt lat="37.55139" lon="-4.33634">
        <ele>561.08</ele>
        <time>2019-10-15T07:54:21.999Z</time>
      </trkpt>
      <trkpt lat="37.5513" lon="-4.33641">
        <ele>561.37</ele>
        <time>2019-10-15T07:54:27.999Z</time>
      </trkpt>
      <trkpt lat="37.55122" lon="-4.33647">
        <ele>561.62</ele>
        <time>2019-10-15T07:54:32.999Z</time>
      </trkpt>
      <trkpt lat="37.55115" lon="-4.33656">
        <ele>561.93</ele>
        <time>2019-10-15T07:54:38.999Z</time>
      </trkpt>
      <trkpt lat="37.55106" lon="-4.33664">
        <ele>562.19</ele>
        <time>2019-10-15T07:54:43.999Z</time>
      </trkpt>
      <trkpt lat="37.55099" lon="-4.33672">
        <ele>562.55</ele>
        <time>2019-10-15T07:54:50.999Z</time>
      </trkpt>
      <trkpt lat="37.55091" lon="-4.33679">
        <ele>562.86</ele>
        <time>2019-10-15T07:54:56.999Z</time>
      </trkpt>
      <trkpt lat="37.55084" lon="-4.33686">
        <ele>563.12</ele>
        <time>2019-10-15T07:55:01.999Z</time>
      </trkpt>
      <trkpt lat="37.55072" lon="-4.33692">
        <ele>563.4</ele>
        <time>2019-10-15T07:55:06.999Z</time>
      </trkpt>
      <trkpt lat="37.55064" lon="-4.337">
        <ele>563.7</ele>
        <time>2019-10-15T07:55:11.999Z</time>
      </trkpt>
      <trkpt lat="37.55055" lon="-4.33709">
        <ele>564.02</ele>
        <time>2019-10-15T07:55:16.999Z</time>
      </trkpt>
      <trkpt lat="37.55047" lon="-4.33718">
        <ele>564.49</ele>
        <time>2019-10-15T07:55:23.999Z</time>
      </trkpt>
      <trkpt lat="37.55038" lon="-4.33726">
        <ele>564.84</ele>
        <time>2019-10-15T07:55:28.999Z</time>
      </trkpt>
      <trkpt lat="37.5503" lon="-4.33734">
        <ele>565.26</ele>
        <time>2019-10-15T07:55:34.999Z</time>
      </trkpt>
      <trkpt lat="37.55023" lon="-4.33741">
        <ele>565.63</ele>
        <time>2019-10-15T07:55:39.999Z</time>
      </trkpt>
      <trkpt lat="37.55012" lon="-4.33752">
        <ele>566</ele>
        <time>2019-10-15T07:55:44.999Z</time>
      </trkpt>
      <trkpt lat="37.55005" lon="-4.33761">
        <ele>566.54</ele>
        <time>2019-10-15T07:55:51.999Z</time>
      </trkpt>
      <trkpt lat="37.55" lon="-4.3377">
        <ele>566.91</ele>
        <time>2019-10-15T07:55:56.999Z</time>
      </trkpt>
      <trkpt lat="37.54993" lon="-4.3378">
        <ele>567.28</ele>
        <time>2019-10-15T07:56:01.999Z</time>
      </trkpt>
      <trkpt lat="37.54986" lon="-4.33789">
        <ele>567.72</ele>
        <time>2019-10-15T07:56:07.999Z</time>
      </trkpt>
      <trkpt lat="37.54981" lon="-4.33799">
        <ele>568.11</ele>
        <time>2019-10-15T07:56:12.999Z</time>
      </trkpt>
      <trkpt lat="37.54973" lon="-4.33807">
        <ele>568.53</ele>
        <time>2019-10-15T07:56:17.999Z</time>
      </trkpt>
      <trkpt lat="37.54963" lon="-4.33815">
        <ele>569.05</ele>
        <time>2019-10-15T07:56:23.999Z</time>
      </trkpt>
      <trkpt lat="37.54957" lon="-4.33826">
        <ele>569.52</ele>
        <time>2019-10-15T07:56:28.999Z</time>
      </trkpt>
      <trkpt lat="37.5495" lon="-4.33836">
        <ele>570.05</ele>
        <time>2019-10-15T07:56:33.999Z</time>
      </trkpt>
      <trkpt lat="37.54944" lon="-4.33847">
        <ele>570.74</ele>
        <time>2019-10-15T07:56:39.999Z</time>
      </trkpt>
      <trkpt lat="37.54937" lon="-4.33859">
        <ele>571.35</ele>
        <time>2019-10-15T07:56:44.999Z</time>
      </trkpt>
      <trkpt lat="37.54934" lon="-4.33871">
        <ele>571.97</ele>
        <time>2019-10-15T07:56:49.999Z</time>
      </trkpt>
      <trkpt lat="37.54928" lon="-4.33883">
        <ele>572.62</ele>
        <time>2019-10-15T07:56:54.999Z</time>
      </trkpt>
      <trkpt lat="37.54924" lon="-4.33893">
        <ele>573.27</ele>
        <time>2019-10-15T07:56:59.999Z</time>
      </trkpt>
      <trkpt lat="37.54916" lon="-4.33905">
        <ele>573.93</ele>
        <time>2019-10-15T07:57:04.999Z</time>
      </trkpt>
      <trkpt lat="37.54912" lon="-4.33915">
        <ele>574.62</ele>
        <time>2019-10-15T07:57:09.999Z</time>
      </trkpt>
      <trkpt lat="37.54909" lon="-4.33926">
        <ele>575.34</ele>
        <time>2019-10-15T07:57:14.999Z</time>
      </trkpt>
      <trkpt lat="37.54904" lon="-4.3394">
        <ele>576.05</ele>
        <time>2019-10-15T07:57:19.999Z</time>
      </trkpt>
      <trkpt lat="37.549" lon="-4.33952">
        <ele>576.75</ele>
        <time>2019-10-15T07:57:24.999Z</time>
      </trkpt>
      <trkpt lat="37.54897" lon="-4.33964">
        <ele>577.42</ele>
        <time>2019-10-15T07:57:29.999Z</time>
      </trkpt>
      <trkpt lat="37.54892" lon="-4.33979">
        <ele>578.07</ele>
        <time>2019-10-15T07:57:34.999Z</time>
      </trkpt>
      <trkpt lat="37.54888" lon="-4.33991">
        <ele>578.73</ele>
        <time>2019-10-15T07:57:39.999Z</time>
      </trkpt>
      <trkpt lat="37.54885" lon="-4.34003">
        <ele>579.4</ele>
        <time>2019-10-15T07:57:44.999Z</time>
      </trkpt>
      <trkpt lat="37.54882" lon="-4.34017">
        <ele>580.07</ele>
        <time>2019-10-15T07:57:49.999Z</time>
      </trkpt>
      <trkpt lat="37.5488" lon="-4.34031">
        <ele>580.75</ele>
        <time>2019-10-15T07:57:54.999Z</time>
      </trkpt>
      <trkpt lat="37.54878" lon="-4.34044">
        <ele>581.42</ele>
        <time>2019-10-15T07:58:00.000Z</time>
      </trkpt>
      <trkpt lat="37.54876" lon="-4.34057">
        <ele>582.09</ele>
        <time>2019-10-15T07:58:05.000Z</time>
      </trkpt>
      <trkpt lat="37.54874" lon="-4.34071">
        <ele>582.76</ele>
        <time>2019-10-15T07:58:10.000Z</time>
      </trkpt>
      <trkpt lat="37.54873" lon="-4.34083">
        <ele>583.43</ele>
        <time>2019-10-15T07:58:15.000Z</time>
      </trkpt>
      <trkpt lat="37.54871" lon="-4.34095">
        <ele>584.12</ele>
        <time>2019-10-15T07:58:20.000Z</time>
      </trkpt>
      <trkpt lat="37.54869" lon="-4.34107">
        <ele>585.01</ele>
        <time>2019-10-15T07:58:26.000Z</time>
      </trkpt>
      <trkpt lat="37.54868" lon="-4.34119">
        <ele>585.8</ele>
        <time>2019-10-15T07:58:31.000Z</time>
      </trkpt>
      <trkpt lat="37.54867" lon="-4.34132">
        <ele>586.62</ele>
        <time>2019-10-15T07:58:36.000Z</time>
      </trkpt>
      <trkpt lat="37.54866" lon="-4.34144">
        <ele>587.48</ele>
        <time>2019-10-15T07:58:41.000Z</time>
      </trkpt>
      <trkpt lat="37.54865" lon="-4.34156">
        <ele>588.34</ele>
        <time>2019-10-15T07:58:46.000Z</time>
      </trkpt>
      <trkpt lat="37.54862" lon="-4.3417">
        <ele>589.23</ele>
        <time>2019-10-15T07:58:51.000Z</time>
      </trkpt>
      <trkpt lat="37.54861" lon="-4.34183">
        <ele>590.12</ele>
        <time>2019-10-15T07:58:56.000Z</time>
      </trkpt>
      <trkpt lat="37.5486" lon="-4.34195">
        <ele>591.03</ele>
        <time>2019-10-15T07:59:01.000Z</time>
      </trkpt>
      <trkpt lat="37.54858" lon="-4.34206">
        <ele>591.95</ele>
        <time>2019-10-15T07:59:06.000Z</time>
      </trkpt>
      <trkpt lat="37.54855" lon="-4.3422">
        <ele>592.87</ele>
        <time>2019-10-15T07:59:11.000Z</time>
      </trkpt>
      <trkpt lat="37.54851" lon="-4.34232">
        <ele>593.79</ele>
        <time>2019-10-15T07:59:16.000Z</time>
      </trkpt>
      <trkpt lat="37.54851" lon="-4.34245">
        <ele>594.7</ele>
        <time>2019-10-15T07:59:21.000Z</time>
      </trkpt>
      <trkpt lat="37.54848" lon="-4.34258">
        <ele>595.6</ele>
        <time>2019-10-15T07:59:26.000Z</time>
      </trkpt>
      <trkpt lat="37.54847" lon="-4.34271">
        <ele>596.48</ele>
        <time>2019-10-15T07:59:31.000Z</time>
      </trkpt>
      <trkpt lat="37.54844" lon="-4.34288">
        <ele>597.32</ele>
        <time>2019-10-15T07:59:36.000Z</time>
      </trkpt>
      <trkpt lat="37.54841" lon="-4.343">
        <ele>598.12</ele>
        <time>2019-10-15T07:59:41.000Z</time>
      </trkpt>
      <trkpt lat="37.54838" lon="-4.34312">
        <ele>598.88</ele>
        <time>2019-10-15T07:59:46.000Z</time>
      </trkpt>
      <trkpt lat="37.54834" lon="-4.34322">
        <ele>599.61</ele>
        <time>2019-10-15T07:59:51.000Z</time>
      </trkpt>
      <trkpt lat="37.54829" lon="-4.34336">
        <ele>600.31</ele>
        <time>2019-10-15T07:59:56.000Z</time>
      </trkpt>
      <trkpt lat="37.54825" lon="-4.34347">
        <ele>600.98</ele>
        <time>2019-10-15T08:00:01.000Z</time>
      </trkpt>
      <trkpt lat="37.54822" lon="-4.3436">
        <ele>601.75</ele>
        <time>2019-10-15T08:00:07.000Z</time>
      </trkpt>
      <trkpt lat="37.54817" lon="-4.34371">
        <ele>602.37</ele>
        <time>2019-10-15T08:00:12.000Z</time>
      </trkpt>
      <trkpt lat="37.54812" lon="-4.34385">
        <ele>602.97</ele>
        <time>2019-10-15T08:00:17.000Z</time>
      </trkpt>
      <trkpt lat="37.54808" lon="-4.34395">
        <ele>603.54</ele>
        <time>2019-10-15T08:00:22.000Z</time>
      </trkpt>
      <trkpt lat="37.54804" lon="-4.34406">
        <ele>604.07</ele>
        <time>2019-10-15T08:00:27.000Z</time>
      </trkpt>
      <trkpt lat="37.54799" lon="-4.34419">
        <ele>604.58</ele>
        <time>2019-10-15T08:00:32.000Z</time>
      </trkpt>
      <trkpt lat="37.54794" lon="-4.34431">
        <ele>605.05</ele>
        <time>2019-10-15T08:00:37.000Z</time>
      </trkpt>
      <trkpt lat="37.54787" lon="-4.34445">
        <ele>605.49</ele>
        <time>2019-10-15T08:00:42.000Z</time>
      </trkpt>
      <trkpt lat="37.54782" lon="-4.34458">
        <ele>605.91</ele>
        <time>2019-10-15T08:00:47.000Z</time>
      </trkpt>
      <trkpt lat="37.54775" lon="-4.3447">
        <ele>606.31</ele>
        <time>2019-10-15T08:00:52.000Z</time>
      </trkpt>
      <trkpt lat="37.54767" lon="-4.34485">
        <ele>606.7</ele>
        <time>2019-10-15T08:00:57.000Z</time>
      </trkpt>
      <trkpt lat="37.5476" lon="-4.34497">
        <ele>607.07</ele>
        <time>2019-10-15T08:01:02.000Z</time>
      </trkpt>
      <trkpt lat="37.54753" lon="-4.34509">
        <ele>607.43</ele>
        <time>2019-10-15T08:01:07.000Z</time>
      </trkpt>
      <trkpt lat="37.54748" lon="-4.34521">
        <ele>607.79</ele>
        <time>2019-10-15T08:01:12.000Z</time>
      </trkpt>
      <trkpt lat="37.54744" lon="-4.34534">
        <ele>608.13</ele>
        <time>2019-10-15T08:01:17.000Z</time>
      </trkpt>
      <trkpt lat="37.54737" lon="-4.34547">
        <ele>608.46</ele>
        <time>2019-10-15T08:01:22.000Z</time>
      </trkpt>
      <trkpt lat="37.54733" lon="-4.3456">
        <ele>608.8</ele>
        <time>2019-10-15T08:01:27.000Z</time>
      </trkpt>
      <trkpt lat="37.54728" lon="-4.34573">
        <ele>609.13</ele>
        <time>2019-10-15T08:01:32.000Z</time>
      </trkpt>
      <trkpt lat="37.54724" lon="-4.34587">
        <ele>609.45</ele>
        <time>2019-10-15T08:01:37.000Z</time>
      </trkpt>
      <trkpt lat="37.54718" lon="-4.34598">
        <ele>609.76</ele>
        <time>2019-10-15T08:01:42.000Z</time>
      </trkpt>
      <trkpt lat="37.54713" lon="-4.34611">
        <ele>610.08</ele>
        <time>2019-10-15T08:01:47.000Z</time>
      </trkpt>
      <trkpt lat="37.5471" lon="-4.34626">
        <ele>610.42</ele>
        <time>2019-10-15T08:01:52.000Z</time>
      </trkpt>
      <trkpt lat="37.54707" lon="-4.3464">
        <ele>610.78</ele>
        <time>2019-10-15T08:01:57.000Z</time>
      </trkpt>
      <trkpt lat="37.54704" lon="-4.34654">
        <ele>611.19</ele>
        <time>2019-10-15T08:02:02.000Z</time>
      </trkpt>
      <trkpt lat="37.54701" lon="-4.34664">
        <ele>611.62</ele>
        <time>2019-10-15T08:02:07.000Z</time>
      </trkpt>
      <trkpt lat="37.547" lon="-4.34677">
        <ele>612.08</ele>
        <time>2019-10-15T08:02:12.000Z</time>
      </trkpt>
      <trkpt lat="37.54698" lon="-4.34691">
        <ele>612.56</ele>
        <time>2019-10-15T08:02:17.000Z</time>
      </trkpt>
      <trkpt lat="37.54696" lon="-4.34705">
        <ele>613.07</ele>
        <time>2019-10-15T08:02:22.000Z</time>
      </trkpt>
      <trkpt lat="37.54695" lon="-4.34719">
        <ele>613.61</ele>
        <time>2019-10-15T08:02:27.000Z</time>
      </trkpt>
      <trkpt lat="37.54694" lon="-4.34733">
        <ele>614.16</ele>
        <time>2019-10-15T08:02:32.000Z</time>
      </trkpt>
      <trkpt lat="37.54693" lon="-4.34749">
        <ele>614.73</ele>
        <time>2019-10-15T08:02:37.000Z</time>
      </trkpt>
      <trkpt lat="37.54693" lon="-4.34763">
        <ele>615.31</ele>
        <time>2019-10-15T08:02:42.000Z</time>
      </trkpt>
      <trkpt lat="37.54693" lon="-4.34778">
        <ele>615.9</ele>
        <time>2019-10-15T08:02:47.000Z</time>
      </trkpt>
      <trkpt lat="37.54693" lon="-4.34795">
        <ele>616.52</ele>
        <time>2019-10-15T08:02:52.000Z</time>
      </trkpt>
      <trkpt lat="37.54695" lon="-4.3481">
        <ele>617.17</ele>
        <time>2019-10-15T08:02:57.000Z</time>
      </trkpt>
      <trkpt lat="37.54697" lon="-4.34826">
        <ele>617.84</ele>
        <time>2019-10-15T08:03:02.000Z</time>
      </trkpt>
      <trkpt lat="37.54699" lon="-4.34844">
        <ele>618.52</ele>
        <time>2019-10-15T08:03:07.000Z</time>
      </trkpt>
      <trkpt lat="37.54701" lon="-4.34862">
        <ele>619.2</ele>
        <time>2019-10-15T08:03:12.000Z</time>
      </trkpt>
      <trkpt lat="37.54704" lon="-4.34881">
        <ele>619.88</ele>
        <time>2019-10-15T08:03:17.000Z</time>
      </trkpt>
      <trkpt lat="37.54706" lon="-4.34901">
        <ele>620.58</ele>
        <time>2019-10-15T08:03:22.000Z</time>
      </trkpt>
      <trkpt lat="37.54707" lon="-4.3492">
        <ele>621.28</ele>
        <time>2019-10-15T08:03:27.000Z</time>
      </trkpt>
      <trkpt lat="37.54709" lon="-4.34939">
        <ele>621.99</ele>
        <time>2019-10-15T08:03:32.000Z</time>
      </trkpt>
      <trkpt lat="37.54711" lon="-4.34961">
        <ele>622.72</ele>
        <time>2019-10-15T08:03:37.000Z</time>
      </trkpt>
      <trkpt lat="37.54713" lon="-4.34984">
        <ele>623.45</ele>
        <time>2019-10-15T08:03:42.000Z</time>
      </trkpt>
      <trkpt lat="37.54714" lon="-4.35009">
        <ele>626.41</ele>
        <time>2019-10-15T08:03:47.000Z</time>
      </trkpt>
      <trkpt lat="37.54716" lon="-4.35029">
        <ele>626.93</ele>
        <time>2019-10-15T08:03:52.000Z</time>
      </trkpt>
      <trkpt lat="37.54715" lon="-4.3504">
        <ele>628.09</ele>
        <time>2019-10-15T08:04:42.000Z</time>
      </trkpt>
      <trkpt lat="37.54715" lon="-4.35054">
        <ele>628.92</ele>
        <time>2019-10-15T08:04:47.000Z</time>
      </trkpt>
      <trkpt lat="37.54726" lon="-4.35078">
        <ele>631.01</ele>
        <time>2019-10-15T08:04:52.000Z</time>
      </trkpt>
      <trkpt lat="37.54732" lon="-4.35095">
        <ele>634.75</ele>
        <time>2019-10-15T08:04:57.000Z</time>
      </trkpt>
      <trkpt lat="37.54726" lon="-4.35132">
        <ele>636.98</ele>
        <time>2019-10-15T08:05:02.000Z</time>
      </trkpt>
      <trkpt lat="37.54715" lon="-4.35169">
        <ele>637.97</ele>
        <time>2019-10-15T08:05:07.000Z</time>
      </trkpt>
      <trkpt lat="37.54709" lon="-4.35211">
        <ele>638.57</ele>
        <time>2019-10-15T08:05:12.000Z</time>
      </trkpt>
      <trkpt lat="37.54702" lon="-4.35257">
        <ele>639.12</ele>
        <time>2019-10-15T08:05:17.000Z</time>
      </trkpt>
      <trkpt lat="37.5469" lon="-4.35303">
        <ele>639.49</ele>
        <time>2019-10-15T08:05:22.000Z</time>
      </trkpt>
      <trkpt lat="37.54681" lon="-4.35347">
        <ele>639.7</ele>
        <time>2019-10-15T08:05:27.000Z</time>
      </trkpt>
      <trkpt lat="37.54673" lon="-4.3539">
        <ele>639.61</ele>
        <time>2019-10-15T08:05:32.000Z</time>
      </trkpt>
      <trkpt lat="37.54666" lon="-4.3543">
        <ele>639.6</ele>
        <time>2019-10-15T08:05:37.000Z</time>
      </trkpt>
      <trkpt lat="37.54658" lon="-4.35465">
        <ele>639.48</ele>
        <time>2019-10-15T08:05:42.000Z</time>
      </trkpt>
      <trkpt lat="37.54652" lon="-4.35499">
        <ele>639.42</ele>
        <time>2019-10-15T08:05:47.000Z</time>
      </trkpt>
      <trkpt lat="37.54646" lon="-4.35529">
        <ele>639.38</ele>
        <time>2019-10-15T08:05:52.000Z</time>
      </trkpt>
      <trkpt lat="37.5464" lon="-4.35558">
        <ele>639.54</ele>
        <time>2019-10-15T08:05:57.000Z</time>
      </trkpt>
      <trkpt lat="37.54634" lon="-4.35589">
        <ele>639.54</ele>
        <time>2019-10-15T08:06:02.000Z</time>
      </trkpt>
      <trkpt lat="37.54629" lon="-4.35617">
        <ele>639.57</ele>
        <time>2019-10-15T08:06:07.000Z</time>
      </trkpt>
      <trkpt lat="37.54623" lon="-4.35646">
        <ele>639.44</ele>
        <time>2019-10-15T08:06:12.000Z</time>
      </trkpt>
      <trkpt lat="37.54617" lon="-4.35671">
        <ele>639.04</ele>
        <time>2019-10-15T08:06:17.000Z</time>
      </trkpt>
      <trkpt lat="37.54608" lon="-4.35701">
        <ele>638.45</ele>
        <time>2019-10-15T08:06:22.000Z</time>
      </trkpt>
      <trkpt lat="37.54596" lon="-4.35735">
        <ele>637.83</ele>
        <time>2019-10-15T08:06:27.000Z</time>
      </trkpt>
      <trkpt lat="37.54583" lon="-4.35774">
        <ele>637.12</ele>
        <time>2019-10-15T08:06:32.000Z</time>
      </trkpt>
      <trkpt lat="37.54565" lon="-4.35815">
        <ele>636.47</ele>
        <time>2019-10-15T08:06:37.000Z</time>
      </trkpt>
      <trkpt lat="37.54548" lon="-4.35863">
        <ele>635.78</ele>
        <time>2019-10-15T08:06:42.000Z</time>
      </trkpt>
      <trkpt lat="37.54529" lon="-4.35917">
        <ele>634.71</ele>
        <time>2019-10-15T08:06:47.000Z</time>
      </trkpt>
      <trkpt lat="37.54513" lon="-4.35977">
        <ele>633.87</ele>
        <time>2019-10-15T08:06:52.000Z</time>
      </trkpt>
      <trkpt lat="37.545" lon="-4.36039">
        <ele>633</ele>
        <time>2019-10-15T08:06:57.000Z</time>
      </trkpt>
      <trkpt lat="37.54492" lon="-4.36102">
        <ele>632.1</ele>
        <time>2019-10-15T08:07:02.000Z</time>
      </trkpt>
      <trkpt lat="37.54486" lon="-4.36165">
        <ele>630.96</ele>
        <time>2019-10-15T08:07:07.000Z</time>
      </trkpt>
      <trkpt lat="37.5448" lon="-4.36227">
        <ele>629.87</ele>
        <time>2019-10-15T08:07:12.000Z</time>
      </trkpt>
      <trkpt lat="37.54477" lon="-4.36287">
        <ele>629.25</ele>
        <time>2019-10-15T08:07:17.000Z</time>
      </trkpt>
      <trkpt lat="37.54476" lon="-4.36344">
        <ele>628.91</ele>
        <time>2019-10-15T08:07:22.000Z</time>
      </trkpt>
      <trkpt lat="37.54476" lon="-4.36397">
        <ele>628.41</ele>
        <time>2019-10-15T08:07:27.000Z</time>
      </trkpt>
      <trkpt lat="37.54478" lon="-4.36444">
        <ele>628.07</ele>
        <time>2019-10-15T08:07:32.000Z</time>
      </trkpt>
      <trkpt lat="37.54478" lon="-4.36485">
        <ele>627.53</ele>
        <time>2019-10-15T08:07:37.000Z</time>
      </trkpt>
      <trkpt lat="37.54477" lon="-4.36521">
        <ele>627.06</ele>
        <time>2019-10-15T08:07:42.000Z</time>
      </trkpt>
      <trkpt lat="37.54478" lon="-4.36552">
        <ele>627.11</ele>
        <time>2019-10-15T08:07:47.000Z</time>
      </trkpt>
      <trkpt lat="37.54479" lon="-4.36573">
        <ele>627.28</ele>
        <time>2019-10-15T08:07:52.000Z</time>
      </trkpt>
      <trkpt lat="37.54479" lon="-4.36589">
        <ele>627.33</ele>
        <time>2019-10-15T08:07:57.000Z</time>
      </trkpt>
      <trkpt lat="37.5448" lon="-4.36606">
        <ele>627.35</ele>
        <time>2019-10-15T08:08:02.000Z</time>
      </trkpt>
      <trkpt lat="37.5448" lon="-4.36621">
        <ele>627.4</ele>
        <time>2019-10-15T08:08:07.000Z</time>
      </trkpt>
      <trkpt lat="37.54481" lon="-4.36636">
        <ele>627.43</ele>
        <time>2019-10-15T08:08:12.000Z</time>
      </trkpt>
      <trkpt lat="37.54481" lon="-4.36649">
        <ele>627.46</ele>
        <time>2019-10-15T08:08:17.000Z</time>
      </trkpt>
      <trkpt lat="37.54481" lon="-4.36665">
        <ele>627.47</ele>
        <time>2019-10-15T08:08:22.000Z</time>
      </trkpt>
      <trkpt lat="37.54481" lon="-4.36682">
        <ele>627.52</ele>
        <time>2019-10-15T08:08:27.000Z</time>
      </trkpt>
      <trkpt lat="37.54481" lon="-4.367">
        <ele>627.56</ele>
        <time>2019-10-15T08:08:32.000Z</time>
      </trkpt>
      <trkpt lat="37.5448" lon="-4.36718">
        <ele>627.57</ele>
        <time>2019-10-15T08:08:37.000Z</time>
      </trkpt>
      <trkpt lat="37.54479" lon="-4.36738">
        <ele>627.59</ele>
        <time>2019-10-15T08:08:42.000Z</time>
      </trkpt>
      <trkpt lat="37.54478" lon="-4.36757">
        <ele>627.59</ele>
        <time>2019-10-15T08:08:47.000Z</time>
      </trkpt>
      <trkpt lat="37.54476" lon="-4.36779">
        <ele>627.57</ele>
        <time>2019-10-15T08:08:52.000Z</time>
      </trkpt>
      <trkpt lat="37.54474" lon="-4.36801">
        <ele>627.46</ele>
        <time>2019-10-15T08:08:57.000Z</time>
      </trkpt>
      <trkpt lat="37.54472" lon="-4.36827">
        <ele>627.21</ele>
        <time>2019-10-15T08:09:02.000Z</time>
      </trkpt>
      <trkpt lat="37.5447" lon="-4.36854">
        <ele>627.13</ele>
        <time>2019-10-15T08:09:07.000Z</time>
      </trkpt>
      <trkpt lat="37.54467" lon="-4.36886">
        <ele>627.15</ele>
        <time>2019-10-15T08:09:12.000Z</time>
      </trkpt>
      <trkpt lat="37.54464" lon="-4.36923">
        <ele>626.87</ele>
        <time>2019-10-15T08:09:17.000Z</time>
      </trkpt>
      <trkpt lat="37.54462" lon="-4.36963">
        <ele>626.61</ele>
        <time>2019-10-15T08:09:22.000Z</time>
      </trkpt>
      <trkpt lat="37.54462" lon="-4.37002">
        <ele>626.32</ele>
        <time>2019-10-15T08:09:27.000Z</time>
      </trkpt>
      <trkpt lat="37.54463" lon="-4.3704">
        <ele>626.3</ele>
        <time>2019-10-15T08:09:32.000Z</time>
      </trkpt>
      <trkpt lat="37.54467" lon="-4.37079">
        <ele>626.38</ele>
        <time>2019-10-15T08:09:37.000Z</time>
      </trkpt>
      <trkpt lat="37.54472" lon="-4.37119">
        <ele>626.42</ele>
        <time>2019-10-15T08:09:42.000Z</time>
      </trkpt>
      <trkpt lat="37.5448" lon="-4.37162">
        <ele>626.27</ele>
        <time>2019-10-15T08:09:47.000Z</time>
      </trkpt>
      <trkpt lat="37.54489" lon="-4.37206">
        <ele>626</ele>
        <time>2019-10-15T08:09:52.000Z</time>
      </trkpt>
      <trkpt lat="37.54498" lon="-4.37253">
        <ele>625.31</ele>
        <time>2019-10-15T08:09:57.000Z</time>
      </trkpt>
      <trkpt lat="37.54507" lon="-4.37302">
        <ele>624.36</ele>
        <time>2019-10-15T08:10:02.000Z</time>
      </trkpt>
      <trkpt lat="37.54513" lon="-4.37354">
        <ele>623.29</ele>
        <time>2019-10-15T08:10:07.000Z</time>
      </trkpt>
      <trkpt lat="37.54515" lon="-4.37409">
        <ele>622.43</ele>
        <time>2019-10-15T08:10:12.000Z</time>
      </trkpt>
      <trkpt lat="37.54513" lon="-4.37464">
        <ele>621.49</ele>
        <time>2019-10-15T08:10:17.000Z</time>
      </trkpt>
      <trkpt lat="37.54509" lon="-4.37508">
        <ele>620.5</ele>
        <time>2019-10-15T08:10:22.000Z</time>
      </trkpt>
      <trkpt lat="37.54503" lon="-4.37553">
        <ele>619.38</ele>
        <time>2019-10-15T08:10:27.000Z</time>
      </trkpt>
      <trkpt lat="37.54496" lon="-4.376">
        <ele>618.23</ele>
        <time>2019-10-15T08:10:32.000Z</time>
      </trkpt>
      <trkpt lat="37.5449" lon="-4.37644">
        <ele>617.25</ele>
        <time>2019-10-15T08:10:37.000Z</time>
      </trkpt>
      <trkpt lat="37.54486" lon="-4.37669">
        <ele>616.97</ele>
        <time>2019-10-15T08:10:42.000Z</time>
      </trkpt>
      <trkpt lat="37.54484" lon="-4.37682">
        <ele>616.88</ele>
        <time>2019-10-15T08:10:47.000Z</time>
      </trkpt>
      <trkpt lat="37.54476" lon="-4.3769">
        <ele>616.79</ele>
        <time>2019-10-15T08:10:56.000Z</time>
      </trkpt>
      <trkpt lat="37.54473" lon="-4.37679">
        <ele>616.73</ele>
        <time>2019-10-15T08:11:01.000Z</time>
      </trkpt>
      <trkpt lat="37.54473" lon="-4.37663">
        <ele>616.61</ele>
        <time>2019-10-15T08:13:28.000Z</time>
      </trkpt>
      <trkpt lat="37.54471" lon="-4.37652">
        <ele>610.57</ele>
        <time>2019-10-15T08:20:29.999Z</time>
      </trkpt>
      <trkpt lat="37.54469" lon="-4.37633">
        <ele>610.1</ele>
        <time>2019-10-15T08:20:34.999Z</time>
      </trkpt>
      <trkpt lat="37.54455" lon="-4.37611">
        <ele>607.53</ele>
        <time>2019-10-15T08:20:39.999Z</time>
      </trkpt>
      <trkpt lat="37.54435" lon="-4.3761">
        <ele>606.16</ele>
        <time>2019-10-15T08:20:44.999Z</time>
      </trkpt>
      <trkpt lat="37.54416" lon="-4.37621">
        <ele>605.69</ele>
        <time>2019-10-15T08:20:49.999Z</time>
      </trkpt>
      <trkpt lat="37.544" lon="-4.37639">
        <ele>605.51</ele>
        <time>2019-10-15T08:20:54.999Z</time>
      </trkpt>
      <trkpt lat="37.54389" lon="-4.37659">
        <ele>605.45</ele>
        <time>2019-10-15T08:20:59.999Z</time>
      </trkpt>
      <trkpt lat="37.54385" lon="-4.37686">
        <ele>605.45</ele>
        <time>2019-10-15T08:21:04.999Z</time>
      </trkpt>
      <trkpt lat="37.54385" lon="-4.37701">
        <ele>605.47</ele>
        <time>2019-10-15T08:21:09.999Z</time>
      </trkpt>
      <trkpt lat="37.54385" lon="-4.37715">
        <ele>605.51</ele>
        <time>2019-10-15T08:21:14.999Z</time>
      </trkpt>
      <trkpt lat="37.54384" lon="-4.37727">
        <ele>605.56</ele>
        <time>2019-10-15T08:21:20.999Z</time>
      </trkpt>
      <trkpt lat="37.54385" lon="-4.3774">
        <ele>605.64</ele>
        <time>2019-10-15T08:21:27.999Z</time>
      </trkpt>
      <trkpt lat="37.54384" lon="-4.37753">
        <ele>605.73</ele>
        <time>2019-10-15T08:21:33.999Z</time>
      </trkpt>
      <trkpt lat="37.54383" lon="-4.37766">
        <ele>605.84</ele>
        <time>2019-10-15T08:21:39.999Z</time>
      </trkpt>
      <trkpt lat="37.54382" lon="-4.37778">
        <ele>605.96</ele>
        <time>2019-10-15T08:21:45.999Z</time>
      </trkpt>
      <trkpt lat="37.5438" lon="-4.37789">
        <ele>606.1</ele>
        <time>2019-10-15T08:21:51.999Z</time>
      </trkpt>
      <trkpt lat="37.54377" lon="-4.378">
        <ele>606.24</ele>
        <time>2019-10-15T08:21:57.999Z</time>
      </trkpt>
      <trkpt lat="37.54373" lon="-4.37811">
        <ele>606.43</ele>
        <time>2019-10-15T08:22:04.999Z</time>
      </trkpt>
      <trkpt lat="37.54371" lon="-4.37822">
        <ele>606.56</ele>
        <time>2019-10-15T08:22:09.999Z</time>
      </trkpt>
      <trkpt lat="37.54368" lon="-4.37836">
        <ele>606.69</ele>
        <time>2019-10-15T08:22:14.999Z</time>
      </trkpt>
      <trkpt lat="37.54364" lon="-4.37847">
        <ele>606.86</ele>
        <time>2019-10-15T08:22:20.999Z</time>
      </trkpt>
      <trkpt lat="37.54362" lon="-4.37859">
        <ele>607.04</ele>
        <time>2019-10-15T08:22:26.999Z</time>
      </trkpt>
      <trkpt lat="37.5436" lon="-4.37872">
        <ele>607.23</ele>
        <time>2019-10-15T08:22:32.999Z</time>
      </trkpt>
      <trkpt lat="37.54358" lon="-4.37884">
        <ele>607.43</ele>
        <time>2019-10-15T08:22:38.999Z</time>
      </trkpt>
      <trkpt lat="37.54355" lon="-4.37895">
        <ele>607.61</ele>
        <time>2019-10-15T08:22:43.999Z</time>
      </trkpt>
      <trkpt lat="37.54355" lon="-4.37909">
        <ele>607.82</ele>
        <time>2019-10-15T08:22:49.999Z</time>
      </trkpt>
      <trkpt lat="37.54356" lon="-4.37923">
        <ele>608.04</ele>
        <time>2019-10-15T08:22:55.999Z</time>
      </trkpt>
      <trkpt lat="37.54358" lon="-4.37936">
        <ele>608.27</ele>
        <time>2019-10-15T08:23:01.999Z</time>
      </trkpt>
      <trkpt lat="37.5436" lon="-4.37948">
        <ele>608.53</ele>
        <time>2019-10-15T08:23:08.999Z</time>
      </trkpt>
      <trkpt lat="37.54361" lon="-4.37961">
        <ele>608.75</ele>
        <time>2019-10-15T08:23:14.999Z</time>
      </trkpt>
      <trkpt lat="37.54359" lon="-4.37973">
        <ele>608.97</ele>
        <time>2019-10-15T08:23:20.999Z</time>
      </trkpt>
      <trkpt lat="37.54357" lon="-4.37984">
        <ele>609.18</ele>
        <time>2019-10-15T08:23:26.999Z</time>
      </trkpt>
      <trkpt lat="37.54353" lon="-4.37996">
        <ele>609.41</ele>
        <time>2019-10-15T08:23:32.999Z</time>
      </trkpt>
      <trkpt lat="37.54348" lon="-4.3801">
        <ele>609.59</ele>
        <time>2019-10-15T08:23:37.999Z</time>
      </trkpt>
      <trkpt lat="37.54343" lon="-4.38021">
        <ele>609.78</ele>
        <time>2019-10-15T08:23:42.999Z</time>
      </trkpt>
      <trkpt lat="37.54336" lon="-4.38035">
        <ele>609.96</ele>
        <time>2019-10-15T08:23:47.999Z</time>
      </trkpt>
      <trkpt lat="37.54329" lon="-4.38052">
        <ele>610.13</ele>
        <time>2019-10-15T08:23:52.999Z</time>
      </trkpt>
      <trkpt lat="37.54322" lon="-4.38069">
        <ele>610.3</ele>
        <time>2019-10-15T08:23:57.999Z</time>
      </trkpt>
      <trkpt lat="37.54313" lon="-4.38088">
        <ele>610.46</ele>
        <time>2019-10-15T08:24:02.999Z</time>
      </trkpt>
      <trkpt lat="37.54305" lon="-4.38107">
        <ele>610.62</ele>
        <time>2019-10-15T08:24:07.999Z</time>
      </trkpt>
      <trkpt lat="37.54297" lon="-4.38127">
        <ele>610.78</ele>
        <time>2019-10-15T08:24:12.999Z</time>
      </trkpt>
      <trkpt lat="37.54289" lon="-4.38146">
        <ele>610.94</ele>
        <time>2019-10-15T08:24:17.999Z</time>
      </trkpt>
      <trkpt lat="37.5428" lon="-4.38164">
        <ele>611.1</ele>
        <time>2019-10-15T08:24:22.999Z</time>
      </trkpt>
      <trkpt lat="37.5427" lon="-4.3818">
        <ele>611.26</ele>
        <time>2019-10-15T08:24:27.999Z</time>
      </trkpt>
      <trkpt lat="37.54257" lon="-4.38195">
        <ele>611.42</ele>
        <time>2019-10-15T08:24:32.999Z</time>
      </trkpt>
      <trkpt lat="37.54243" lon="-4.38206">
        <ele>611.99</ele>
        <time>2019-10-15T08:24:37.999Z</time>
      </trkpt>
      <trkpt lat="37.54226" lon="-4.38217">
        <ele>612.74</ele>
        <time>2019-10-15T08:24:42.999Z</time>
      </trkpt>
      <trkpt lat="37.54208" lon="-4.38231">
        <ele>613.07</ele>
        <time>2019-10-15T08:24:47.999Z</time>
      </trkpt>
      <trkpt lat="37.5419" lon="-4.38246">
        <ele>613.27</ele>
        <time>2019-10-15T08:24:52.999Z</time>
      </trkpt>
      <trkpt lat="37.54174" lon="-4.38263">
        <ele>613.4</ele>
        <time>2019-10-15T08:24:57.999Z</time>
      </trkpt>
      <trkpt lat="37.54162" lon="-4.38283">
        <ele>613.52</ele>
        <time>2019-10-15T08:25:02.999Z</time>
      </trkpt>
      <trkpt lat="37.54152" lon="-4.38305">
        <ele>613.66</ele>
        <time>2019-10-15T08:25:07.999Z</time>
      </trkpt>
      <trkpt lat="37.54143" lon="-4.38328">
        <ele>613.8</ele>
        <time>2019-10-15T08:25:12.999Z</time>
      </trkpt>
      <trkpt lat="37.54133" lon="-4.38354">
        <ele>613.94</ele>
        <time>2019-10-15T08:25:17.999Z</time>
      </trkpt>
      <trkpt lat="37.54116" lon="-4.38384">
        <ele>614.11</ele>
        <time>2019-10-15T08:25:22.999Z</time>
      </trkpt>
      <trkpt lat="37.54096" lon="-4.38425">
        <ele>614.18</ele>
        <time>2019-10-15T08:25:27.999Z</time>
      </trkpt>
      <trkpt lat="37.54077" lon="-4.38474">
        <ele>614.22</ele>
        <time>2019-10-15T08:25:32.999Z</time>
      </trkpt>
      <trkpt lat="37.54062" lon="-4.38522">
        <ele>614.53</ele>
        <time>2019-10-15T08:25:37.999Z</time>
      </trkpt>
      <trkpt lat="37.54049" lon="-4.38568">
        <ele>614.76</ele>
        <time>2019-10-15T08:25:42.999Z</time>
      </trkpt>
      <trkpt lat="37.54036" lon="-4.38611">
        <ele>614.81</ele>
        <time>2019-10-15T08:25:47.999Z</time>
      </trkpt>
      <trkpt lat="37.54023" lon="-4.38652">
        <ele>615.03</ele>
        <time>2019-10-15T08:25:52.999Z</time>
      </trkpt>
      <trkpt lat="37.5401" lon="-4.38692">
        <ele>615.63</ele>
        <time>2019-10-15T08:25:57.999Z</time>
      </trkpt>
      <trkpt lat="37.53993" lon="-4.38731">
        <ele>616.07</ele>
        <time>2019-10-15T08:26:02.999Z</time>
      </trkpt>
      <trkpt lat="37.53964" lon="-4.38767">
        <ele>615.96</ele>
        <time>2019-10-15T08:26:07.999Z</time>
      </trkpt>
      <trkpt lat="37.53925" lon="-4.38791">
        <ele>616.14</ele>
        <time>2019-10-15T08:26:12.999Z</time>
      </trkpt>
      <trkpt lat="37.53884" lon="-4.38804">
        <ele>616.5</ele>
        <time>2019-10-15T08:26:17.999Z</time>
      </trkpt>
      <trkpt lat="37.53847" lon="-4.38818">
        <ele>616.59</ele>
        <time>2019-10-15T08:26:22.999Z</time>
      </trkpt>
      <trkpt lat="37.53827" lon="-4.38847">
        <ele>617.2</ele>
        <time>2019-10-15T08:26:27.999Z</time>
      </trkpt>
      <trkpt lat="37.53823" lon="-4.3888">
        <ele>617.84</ele>
        <time>2019-10-15T08:26:32.999Z</time>
      </trkpt>
      <trkpt lat="37.53825" lon="-4.38907">
        <ele>618.69</ele>
        <time>2019-10-15T08:26:37.999Z</time>
      </trkpt>
      <trkpt lat="37.53825" lon="-4.38928">
        <ele>618.86</ele>
        <time>2019-10-15T08:26:42.999Z</time>
      </trkpt>
      <trkpt lat="37.53825" lon="-4.38946">
        <ele>619.09</ele>
        <time>2019-10-15T08:26:47.999Z</time>
      </trkpt>
      <trkpt lat="37.53826" lon="-4.38964">
        <ele>619.38</ele>
        <time>2019-10-15T08:26:52.999Z</time>
      </trkpt>
      <trkpt lat="37.53826" lon="-4.3898">
        <ele>619.72</ele>
        <time>2019-10-15T08:26:57.999Z</time>
      </trkpt>
      <trkpt lat="37.53824" lon="-4.38998">
        <ele>620.08</ele>
        <time>2019-10-15T08:27:02.999Z</time>
      </trkpt>
      <trkpt lat="37.53822" lon="-4.39014">
        <ele>620.43</ele>
        <time>2019-10-15T08:27:07.999Z</time>
      </trkpt>
      <trkpt lat="37.53818" lon="-4.39029">
        <ele>620.73</ele>
        <time>2019-10-15T08:27:12.999Z</time>
      </trkpt>
      <trkpt lat="37.53813" lon="-4.39045">
        <ele>621.02</ele>
        <time>2019-10-15T08:27:17.999Z</time>
      </trkpt>
      <trkpt lat="37.53808" lon="-4.39061">
        <ele>621.27</ele>
        <time>2019-10-15T08:27:22.999Z</time>
      </trkpt>
      <trkpt lat="37.53803" lon="-4.39077">
        <ele>621.5</ele>
        <time>2019-10-15T08:27:27.999Z</time>
      </trkpt>
      <trkpt lat="37.53798" lon="-4.39092">
        <ele>621.73</ele>
        <time>2019-10-15T08:27:32.999Z</time>
      </trkpt>
      <trkpt lat="37.53792" lon="-4.39108">
        <ele>621.97</ele>
        <time>2019-10-15T08:27:37.999Z</time>
      </trkpt>
      <trkpt lat="37.53787" lon="-4.39124">
        <ele>622.24</ele>
        <time>2019-10-15T08:27:42.999Z</time>
      </trkpt>
      <trkpt lat="37.53781" lon="-4.3914">
        <ele>622.52</ele>
        <time>2019-10-15T08:27:47.999Z</time>
      </trkpt>
      <trkpt lat="37.53776" lon="-4.39156">
        <ele>622.81</ele>
        <time>2019-10-15T08:27:52.999Z</time>
      </trkpt>
      <trkpt lat="37.53771" lon="-4.39172">
        <ele>623.11</ele>
        <time>2019-10-15T08:27:57.999Z</time>
      </trkpt>
      <trkpt lat="37.53765" lon="-4.39188">
        <ele>623.47</ele>
        <time>2019-10-15T08:28:02.999Z</time>
      </trkpt>
      <trkpt lat="37.53758" lon="-4.39202">
        <ele>623.89</ele>
        <time>2019-10-15T08:28:07.999Z</time>
      </trkpt>
      <trkpt lat="37.53746" lon="-4.39216">
        <ele>624.3</ele>
        <time>2019-10-15T08:28:12.999Z</time>
      </trkpt>
      <trkpt lat="37.53725" lon="-4.39223">
        <ele>626.29</ele>
        <time>2019-10-15T08:28:17.999Z</time>
      </trkpt>
      <trkpt lat="37.53698" lon="-4.3922">
        <ele>626.7</ele>
        <time>2019-10-15T08:28:22.999Z</time>
      </trkpt>
      <trkpt lat="37.53669" lon="-4.39206">
        <ele>626.58</ele>
        <time>2019-10-15T08:28:27.999Z</time>
      </trkpt>
      <trkpt lat="37.53637" lon="-4.39186">
        <ele>626.07</ele>
        <time>2019-10-15T08:28:32.999Z</time>
      </trkpt>
      <trkpt lat="37.53602" lon="-4.3917">
        <ele>625.35</ele>
        <time>2019-10-15T08:28:37.999Z</time>
      </trkpt>
      <trkpt lat="37.53566" lon="-4.3918">
        <ele>625.07</ele>
        <time>2019-10-15T08:28:42.999Z</time>
      </trkpt>
      <trkpt lat="37.53548" lon="-4.39217">
        <ele>625.51</ele>
        <time>2019-10-15T08:28:47.999Z</time>
      </trkpt>
      <trkpt lat="37.53542" lon="-4.39256">
        <ele>625.62</ele>
        <time>2019-10-15T08:28:52.999Z</time>
      </trkpt>
      <trkpt lat="37.53526" lon="-4.39285">
        <ele>625.63</ele>
        <time>2019-10-15T08:28:57.999Z</time>
      </trkpt>
      <trkpt lat="37.5349" lon="-4.39308">
        <ele>625.3</ele>
        <time>2019-10-15T08:29:02.999Z</time>
      </trkpt>
      <trkpt lat="37.53453" lon="-4.39338">
        <ele>624.93</ele>
        <time>2019-10-15T08:29:07.999Z</time>
      </trkpt>
      <trkpt lat="37.53419" lon="-4.39374">
        <ele>624.77</ele>
        <time>2019-10-15T08:29:12.999Z</time>
      </trkpt>
      <trkpt lat="37.53394" lon="-4.39417">
        <ele>625.18</ele>
        <time>2019-10-15T08:29:17.999Z</time>
      </trkpt>
      <trkpt lat="37.53378" lon="-4.39457">
        <ele>625.46</ele>
        <time>2019-10-15T08:29:22.999Z</time>
      </trkpt>
      <trkpt lat="37.53362" lon="-4.39497">
        <ele>625.65</ele>
        <time>2019-10-15T08:29:27.999Z</time>
      </trkpt>
      <trkpt lat="37.53346" lon="-4.39535">
        <ele>625.73</ele>
        <time>2019-10-15T08:29:32.999Z</time>
      </trkpt>
      <trkpt lat="37.53329" lon="-4.39571">
        <ele>625.81</ele>
        <time>2019-10-15T08:29:37.999Z</time>
      </trkpt>
      <trkpt lat="37.53308" lon="-4.39604">
        <ele>626.19</ele>
        <time>2019-10-15T08:29:42.999Z</time>
      </trkpt>
      <trkpt lat="37.53287" lon="-4.39638">
        <ele>626.38</ele>
        <time>2019-10-15T08:29:47.999Z</time>
      </trkpt>
      <trkpt lat="37.53264" lon="-4.3967">
        <ele>626.43</ele>
        <time>2019-10-15T08:29:52.999Z</time>
      </trkpt>
      <trkpt lat="37.53241" lon="-4.39703">
        <ele>626.44</ele>
        <time>2019-10-15T08:29:57.999Z</time>
      </trkpt>
      <trkpt lat="37.53215" lon="-4.39736">
        <ele>626.51</ele>
        <time>2019-10-15T08:30:02.999Z</time>
      </trkpt>
      <trkpt lat="37.53187" lon="-4.3977">
        <ele>626.73</ele>
        <time>2019-10-15T08:30:07.999Z</time>
      </trkpt>
      <trkpt lat="37.53157" lon="-4.39808">
        <ele>626.64</ele>
        <time>2019-10-15T08:30:12.999Z</time>
      </trkpt>
      <trkpt lat="37.53125" lon="-4.39846">
        <ele>626.17</ele>
        <time>2019-10-15T08:30:17.999Z</time>
      </trkpt>
      <trkpt lat="37.53095" lon="-4.39885">
        <ele>625.79</ele>
        <time>2019-10-15T08:30:22.999Z</time>
      </trkpt>
      <trkpt lat="37.53063" lon="-4.39922">
        <ele>625.15</ele>
        <time>2019-10-15T08:30:27.999Z</time>
      </trkpt>
      <trkpt lat="37.53031" lon="-4.3996">
        <ele>624.26</ele>
        <time>2019-10-15T08:30:32.999Z</time>
      </trkpt>
      <trkpt lat="37.52998" lon="-4.39999">
        <ele>622.91</ele>
        <time>2019-10-15T08:30:37.999Z</time>
      </trkpt>
      <trkpt lat="37.52966" lon="-4.40037">
        <ele>621.77</ele>
        <time>2019-10-15T08:30:42.999Z</time>
      </trkpt>
      <trkpt lat="37.52943" lon="-4.40074">
        <ele>622.1</ele>
        <time>2019-10-15T08:30:47.999Z</time>
      </trkpt>
      <trkpt lat="37.52934" lon="-4.40108">
        <ele>622.44</ele>
        <time>2019-10-15T08:30:52.999Z</time>
      </trkpt>
      <trkpt lat="37.52932" lon="-4.40135">
        <ele>622.42</ele>
        <time>2019-10-15T08:30:57.999Z</time>
      </trkpt>
      <trkpt lat="37.52933" lon="-4.40157">
        <ele>622.42</ele>
        <time>2019-10-15T08:31:02.999Z</time>
      </trkpt>
      <trkpt lat="37.52934" lon="-4.40175">
        <ele>622.41</ele>
        <time>2019-10-15T08:31:07.999Z</time>
      </trkpt>
      <trkpt lat="37.52933" lon="-4.40192">
        <ele>622.4</ele>
        <time>2019-10-15T08:31:12.999Z</time>
      </trkpt>
      <trkpt lat="37.52928" lon="-4.40207">
        <ele>622.39</ele>
        <time>2019-10-15T08:31:17.999Z</time>
      </trkpt>
      <trkpt lat="37.52922" lon="-4.40222">
        <ele>622.35</ele>
        <time>2019-10-15T08:31:22.999Z</time>
      </trkpt>
      <trkpt lat="37.52913" lon="-4.40237">
        <ele>622.32</ele>
        <time>2019-10-15T08:31:27.999Z</time>
      </trkpt>
      <trkpt lat="37.52904" lon="-4.40252">
        <ele>622.32</ele>
        <time>2019-10-15T08:31:32.999Z</time>
      </trkpt>
      <trkpt lat="37.52893" lon="-4.40268">
        <ele>622.41</ele>
        <time>2019-10-15T08:31:37.999Z</time>
      </trkpt>
      <trkpt lat="37.52883" lon="-4.40286">
        <ele>622.56</ele>
        <time>2019-10-15T08:31:42.999Z</time>
      </trkpt>
      <trkpt lat="37.52871" lon="-4.40308">
        <ele>623.89</ele>
        <time>2019-10-15T08:31:47.999Z</time>
      </trkpt>
      <trkpt lat="37.52857" lon="-4.4033">
        <ele>624.63</ele>
        <time>2019-10-15T08:31:52.999Z</time>
      </trkpt>
      <trkpt lat="37.52844" lon="-4.40355">
        <ele>625.04</ele>
        <time>2019-10-15T08:31:57.999Z</time>
      </trkpt>
      <trkpt lat="37.5283" lon="-4.40374">
        <ele>625.13</ele>
        <time>2019-10-15T08:32:02.999Z</time>
      </trkpt>
      <trkpt lat="37.52814" lon="-4.40391">
        <ele>625.19</ele>
        <time>2019-10-15T08:32:07.999Z</time>
      </trkpt>
      <trkpt lat="37.52798" lon="-4.40401">
        <ele>625.2</ele>
        <time>2019-10-15T08:32:12.999Z</time>
      </trkpt>
      <trkpt lat="37.52783" lon="-4.40406">
        <ele>625.33</ele>
        <time>2019-10-15T08:32:17.999Z</time>
      </trkpt>
      <trkpt lat="37.52763" lon="-4.4041">
        <ele>625.32</ele>
        <time>2019-10-15T08:32:22.999Z</time>
      </trkpt>
      <trkpt lat="37.52743" lon="-4.40413">
        <ele>625.02</ele>
        <time>2019-10-15T08:32:27.999Z</time>
      </trkpt>
      <trkpt lat="37.52723" lon="-4.40412">
        <ele>624.78</ele>
        <time>2019-10-15T08:32:32.999Z</time>
      </trkpt>
      <trkpt lat="37.52702" lon="-4.40411">
        <ele>624.7</ele>
        <time>2019-10-15T08:32:37.999Z</time>
      </trkpt>
      <trkpt lat="37.52679" lon="-4.40411">
        <ele>624.8</ele>
        <time>2019-10-15T08:32:42.999Z</time>
      </trkpt>
      <trkpt lat="37.5266" lon="-4.4041">
        <ele>624.94</ele>
        <time>2019-10-15T08:32:47.000Z</time>
      </trkpt>
      <trkpt lat="37.52639" lon="-4.40413">
        <ele>624.84</ele>
        <time>2019-10-15T08:32:52.000Z</time>
      </trkpt>
      <trkpt lat="37.52617" lon="-4.40419">
        <ele>624.86</ele>
        <time>2019-10-15T08:32:57.000Z</time>
      </trkpt>
      <trkpt lat="37.526" lon="-4.40432">
        <ele>625.09</ele>
        <time>2019-10-15T08:33:02.000Z</time>
      </trkpt>
      <trkpt lat="37.52587" lon="-4.40447">
        <ele>625.19</ele>
        <time>2019-10-15T08:33:07.000Z</time>
      </trkpt>
      <trkpt lat="37.52576" lon="-4.40461">
        <ele>625.31</ele>
        <time>2019-10-15T08:33:12.000Z</time>
      </trkpt>
      <trkpt lat="37.52564" lon="-4.40474">
        <ele>625.48</ele>
        <time>2019-10-15T08:33:17.000Z</time>
      </trkpt>
      <trkpt lat="37.52553" lon="-4.40486">
        <ele>625.68</ele>
        <time>2019-10-15T08:33:22.000Z</time>
      </trkpt>
      <trkpt lat="37.5254" lon="-4.40497">
        <ele>625.9</ele>
        <time>2019-10-15T08:33:27.000Z</time>
      </trkpt>
      <trkpt lat="37.5253" lon="-4.40508">
        <ele>626.1</ele>
        <time>2019-10-15T08:33:32.000Z</time>
      </trkpt>
      <trkpt lat="37.52518" lon="-4.40516">
        <ele>626.34</ele>
        <time>2019-10-15T08:33:37.000Z</time>
      </trkpt>
      <trkpt lat="37.52507" lon="-4.40521">
        <ele>626.61</ele>
        <time>2019-10-15T08:33:42.000Z</time>
      </trkpt>
      <trkpt lat="37.52496" lon="-4.40524">
        <ele>626.9</ele>
        <time>2019-10-15T08:33:47.000Z</time>
      </trkpt>
      <trkpt lat="37.52484" lon="-4.40526">
        <ele>627.27</ele>
        <time>2019-10-15T08:33:52.000Z</time>
      </trkpt>
      <trkpt lat="37.52472" lon="-4.40526">
        <ele>627.7</ele>
        <time>2019-10-15T08:33:57.000Z</time>
      </trkpt>
      <trkpt lat="37.52461" lon="-4.40525">
        <ele>628.17</ele>
        <time>2019-10-15T08:34:02.000Z</time>
      </trkpt>
      <trkpt lat="37.52451" lon="-4.40524">
        <ele>628.64</ele>
        <time>2019-10-15T08:34:07.000Z</time>
      </trkpt>
      <trkpt lat="37.5244" lon="-4.40524">
        <ele>629.22</ele>
        <time>2019-10-15T08:34:13.000Z</time>
      </trkpt>
      <trkpt lat="37.52429" lon="-4.40525">
        <ele>629.68</ele>
        <time>2019-10-15T08:34:18.000Z</time>
      </trkpt>
      <trkpt lat="37.52417" lon="-4.40525">
        <ele>630.13</ele>
        <time>2019-10-15T08:34:23.000Z</time>
      </trkpt>
      <trkpt lat="37.524" lon="-4.40525">
        <ele>631.69</ele>
        <time>2019-10-15T08:34:28.000Z</time>
      </trkpt>
      <trkpt lat="37.52377" lon="-4.40523">
        <ele>633.38</ele>
        <time>2019-10-15T08:34:33.000Z</time>
      </trkpt>
      <trkpt lat="37.52347" lon="-4.40525">
        <ele>633.56</ele>
        <time>2019-10-15T08:34:38.000Z</time>
      </trkpt>
      <trkpt lat="37.52311" lon="-4.40526">
        <ele>633.25</ele>
        <time>2019-10-15T08:34:43.000Z</time>
      </trkpt>
      <trkpt lat="37.52277" lon="-4.40525">
        <ele>633.1</ele>
        <time>2019-10-15T08:34:48.000Z</time>
      </trkpt>
      <trkpt lat="37.52246" lon="-4.40519">
        <ele>633.01</ele>
        <time>2019-10-15T08:34:53.000Z</time>
      </trkpt>
      <trkpt lat="37.52221" lon="-4.40493">
        <ele>633.18</ele>
        <time>2019-10-15T08:34:58.000Z</time>
      </trkpt>
      <trkpt lat="37.52192" lon="-4.40473">
        <ele>634.16</ele>
        <time>2019-10-15T08:35:03.000Z</time>
      </trkpt>
      <trkpt lat="37.52162" lon="-4.40471">
        <ele>634.63</ele>
        <time>2019-10-15T08:35:08.000Z</time>
      </trkpt>
      <trkpt lat="37.52137" lon="-4.40483">
        <ele>635.04</ele>
        <time>2019-10-15T08:35:13.000Z</time>
      </trkpt>
      <trkpt lat="37.52119" lon="-4.40494">
        <ele>635.48</ele>
        <time>2019-10-15T08:35:18.000Z</time>
      </trkpt>
      <trkpt lat="37.52102" lon="-4.40502">
        <ele>635.52</ele>
        <time>2019-10-15T08:35:23.000Z</time>
      </trkpt>
      <trkpt lat="37.52087" lon="-4.40509">
        <ele>635.59</ele>
        <time>2019-10-15T08:35:28.000Z</time>
      </trkpt>
      <trkpt lat="37.52075" lon="-4.40515">
        <ele>635.65</ele>
        <time>2019-10-15T08:35:33.000Z</time>
      </trkpt>
      <trkpt lat="37.52062" lon="-4.40522">
        <ele>635.72</ele>
        <time>2019-10-15T08:35:38.000Z</time>
      </trkpt>
      <trkpt lat="37.52051" lon="-4.40529">
        <ele>635.84</ele>
        <time>2019-10-15T08:35:43.000Z</time>
      </trkpt>
      <trkpt lat="37.5204" lon="-4.40538">
        <ele>636.05</ele>
        <time>2019-10-15T08:35:48.000Z</time>
      </trkpt>
      <trkpt lat="37.5203" lon="-4.40549">
        <ele>636.28</ele>
        <time>2019-10-15T08:35:53.000Z</time>
      </trkpt>
      <trkpt lat="37.52019" lon="-4.40564">
        <ele>636.49</ele>
        <time>2019-10-15T08:35:58.000Z</time>
      </trkpt>
      <trkpt lat="37.52012" lon="-4.40581">
        <ele>636.72</ele>
        <time>2019-10-15T08:36:03.000Z</time>
      </trkpt>
      <trkpt lat="37.52008" lon="-4.40597">
        <ele>636.96</ele>
        <time>2019-10-15T08:36:08.000Z</time>
      </trkpt>
      <trkpt lat="37.52003" lon="-4.4061">
        <ele>637.22</ele>
        <time>2019-10-15T08:36:13.000Z</time>
      </trkpt>
      <trkpt lat="37.51996" lon="-4.40621">
        <ele>637.48</ele>
        <time>2019-10-15T08:36:18.000Z</time>
      </trkpt>
      <trkpt lat="37.51988" lon="-4.40631">
        <ele>637.76</ele>
        <time>2019-10-15T08:36:23.000Z</time>
      </trkpt>
      <trkpt lat="37.51978" lon="-4.40636">
        <ele>638.08</ele>
        <time>2019-10-15T08:36:28.000Z</time>
      </trkpt>
      <trkpt lat="37.51968" lon="-4.4064">
        <ele>638.42</ele>
        <time>2019-10-15T08:36:33.000Z</time>
      </trkpt>
      <trkpt lat="37.51959" lon="-4.40643">
        <ele>638.77</ele>
        <time>2019-10-15T08:36:38.000Z</time>
      </trkpt>
      <trkpt lat="37.51949" lon="-4.40646">
        <ele>639.17</ele>
        <time>2019-10-15T08:36:43.000Z</time>
      </trkpt>
      <trkpt lat="37.51937" lon="-4.40649">
        <ele>639.61</ele>
        <time>2019-10-15T08:36:48.000Z</time>
      </trkpt>
      <trkpt lat="37.5192" lon="-4.40648">
        <ele>641.79</ele>
        <time>2019-10-15T08:36:53.000Z</time>
      </trkpt>
      <trkpt lat="37.51891" lon="-4.40637">
        <ele>643.19</ele>
        <time>2019-10-15T08:36:58.000Z</time>
      </trkpt>
      <trkpt lat="37.51855" lon="-4.40624">
        <ele>643.28</ele>
        <time>2019-10-15T08:37:03.000Z</time>
      </trkpt>
      <trkpt lat="37.51813" lon="-4.4061">
        <ele>642.77</ele>
        <time>2019-10-15T08:37:08.000Z</time>
      </trkpt>
      <trkpt lat="37.51769" lon="-4.40588">
        <ele>641.86</ele>
        <time>2019-10-15T08:37:13.000Z</time>
      </trkpt>
      <trkpt lat="37.51735" lon="-4.40549">
        <ele>641</ele>
        <time>2019-10-15T08:37:18.000Z</time>
      </trkpt>
      <trkpt lat="37.51714" lon="-4.40531">
        <ele>640.06</ele>
        <time>2019-10-15T08:37:23.000Z</time>
      </trkpt>
      <trkpt lat="37.51718" lon="-4.40576">
        <ele>640.26</ele>
        <time>2019-10-15T08:37:28.000Z</time>
      </trkpt>
      <trkpt lat="37.51719" lon="-4.40624">
        <ele>640.16</ele>
        <time>2019-10-15T08:37:33.000Z</time>
      </trkpt>
      <trkpt lat="37.51699" lon="-4.40667">
        <ele>640.23</ele>
        <time>2019-10-15T08:37:38.000Z</time>
      </trkpt>
      <trkpt lat="37.51656" lon="-4.40674">
        <ele>639.37</ele>
        <time>2019-10-15T08:37:43.000Z</time>
      </trkpt>
      <trkpt lat="37.5161" lon="-4.40706">
        <ele>637.82</ele>
        <time>2019-10-15T08:37:48.000Z</time>
      </trkpt>
      <trkpt lat="37.51563" lon="-4.40747">
        <ele>635.97</ele>
        <time>2019-10-15T08:37:53.000Z</time>
      </trkpt>
      <trkpt lat="37.51518" lon="-4.40795">
        <ele>634.55</ele>
        <time>2019-10-15T08:37:58.000Z</time>
      </trkpt>
      <trkpt lat="37.51494" lon="-4.40864">
        <ele>633.53</ele>
        <time>2019-10-15T08:38:03.000Z</time>
      </trkpt>
      <trkpt lat="37.51499" lon="-4.40936">
        <ele>632.74</ele>
        <time>2019-10-15T08:38:08.000Z</time>
      </trkpt>
      <trkpt lat="37.51517" lon="-4.41002">
        <ele>631.33</ele>
        <time>2019-10-15T08:38:13.000Z</time>
      </trkpt>
      <trkpt lat="37.51478" lon="-4.41046">
        <ele>629.72</ele>
        <time>2019-10-15T08:38:18.000Z</time>
      </trkpt>
      <trkpt lat="37.51427" lon="-4.4107">
        <ele>628.31</ele>
        <time>2019-10-15T08:38:23.000Z</time>
      </trkpt>
      <trkpt lat="37.51428" lon="-4.41129">
        <ele>626.57</ele>
        <time>2019-10-15T08:38:28.000Z</time>
      </trkpt>
      <trkpt lat="37.514" lon="-4.41179">
        <ele>624.29</ele>
        <time>2019-10-15T08:38:33.000Z</time>
      </trkpt>
      <trkpt lat="37.51346" lon="-4.41212">
        <ele>621.64</ele>
        <time>2019-10-15T08:38:38.000Z</time>
      </trkpt>
      <trkpt lat="37.51293" lon="-4.41246">
        <ele>619.21</ele>
        <time>2019-10-15T08:38:43.000Z</time>
      </trkpt>
      <trkpt lat="37.51252" lon="-4.41291">
        <ele>617.55</ele>
        <time>2019-10-15T08:38:48.000Z</time>
      </trkpt>
      <trkpt lat="37.5122" lon="-4.41331">
        <ele>615.15</ele>
        <time>2019-10-15T08:38:53.000Z</time>
      </trkpt>
      <trkpt lat="37.51184" lon="-4.41365">
        <ele>612.81</ele>
        <time>2019-10-15T08:38:58.000Z</time>
      </trkpt>
      <trkpt lat="37.51146" lon="-4.41396">
        <ele>610.71</ele>
        <time>2019-10-15T08:39:03.000Z</time>
      </trkpt>
      <trkpt lat="37.51108" lon="-4.41428">
        <ele>608.96</ele>
        <time>2019-10-15T08:39:08.000Z</time>
      </trkpt>
      <trkpt lat="37.51078" lon="-4.41469">
        <ele>607.37</ele>
        <time>2019-10-15T08:39:13.000Z</time>
      </trkpt>
      <trkpt lat="37.5105" lon="-4.41511">
        <ele>605.68</ele>
        <time>2019-10-15T08:39:18.000Z</time>
      </trkpt>
      <trkpt lat="37.51025" lon="-4.41553">
        <ele>603.86</ele>
        <time>2019-10-15T08:39:23.000Z</time>
      </trkpt>
      <trkpt lat="37.51004" lon="-4.41589">
        <ele>602.43</ele>
        <time>2019-10-15T08:39:28.000Z</time>
      </trkpt>
      <trkpt lat="37.50984" lon="-4.4162">
        <ele>601.09</ele>
        <time>2019-10-15T08:39:33.000Z</time>
      </trkpt>
      <trkpt lat="37.50966" lon="-4.41648">
        <ele>600.36</ele>
        <time>2019-10-15T08:39:38.000Z</time>
      </trkpt>
      <trkpt lat="37.50953" lon="-4.41673">
        <ele>599.78</ele>
        <time>2019-10-15T08:39:43.000Z</time>
      </trkpt>
      <trkpt lat="37.50941" lon="-4.41694">
        <ele>599.46</ele>
        <time>2019-10-15T08:39:48.000Z</time>
      </trkpt>
      <trkpt lat="37.50935" lon="-4.41713">
        <ele>599.48</ele>
        <time>2019-10-15T08:39:53.000Z</time>
      </trkpt>
      <trkpt lat="37.50929" lon="-4.41729">
        <ele>599.54</ele>
        <time>2019-10-15T08:39:58.000Z</time>
      </trkpt>
      <trkpt lat="37.50924" lon="-4.41743">
        <ele>599.57</ele>
        <time>2019-10-15T08:40:03.000Z</time>
      </trkpt>
      <trkpt lat="37.5092" lon="-4.41755">
        <ele>599.56</ele>
        <time>2019-10-15T08:40:08.000Z</time>
      </trkpt>
      <trkpt lat="37.50916" lon="-4.41766">
        <ele>599.56</ele>
        <time>2019-10-15T08:40:13.000Z</time>
      </trkpt>
      <trkpt lat="37.5091" lon="-4.41775">
        <ele>599.55</ele>
        <time>2019-10-15T08:40:18.000Z</time>
      </trkpt>
      <trkpt lat="37.50903" lon="-4.41786">
        <ele>599.52</ele>
        <time>2019-10-15T08:40:23.000Z</time>
      </trkpt>
      <trkpt lat="37.50892" lon="-4.41797">
        <ele>599.46</ele>
        <time>2019-10-15T08:40:28.000Z</time>
      </trkpt>
      <trkpt lat="37.50877" lon="-4.4181">
        <ele>599.05</ele>
        <time>2019-10-15T08:40:33.000Z</time>
      </trkpt>
      <trkpt lat="37.50858" lon="-4.41827">
        <ele>598.03</ele>
        <time>2019-10-15T08:40:38.000Z</time>
      </trkpt>
      <trkpt lat="37.50833" lon="-4.41848">
        <ele>597.06</ele>
        <time>2019-10-15T08:40:43.000Z</time>
      </trkpt>
      <trkpt lat="37.50806" lon="-4.41874">
        <ele>596.05</ele>
        <time>2019-10-15T08:40:48.000Z</time>
      </trkpt>
      <trkpt lat="37.50771" lon="-4.41903">
        <ele>594.99</ele>
        <time>2019-10-15T08:40:53.000Z</time>
      </trkpt>
      <trkpt lat="37.5073" lon="-4.41934">
        <ele>593.18</ele>
        <time>2019-10-15T08:40:58.000Z</time>
      </trkpt>
      <trkpt lat="37.50682" lon="-4.41963">
        <ele>591.59</ele>
        <time>2019-10-15T08:41:03.000Z</time>
      </trkpt>
      <trkpt lat="37.50631" lon="-4.41995">
        <ele>590.65</ele>
        <time>2019-10-15T08:41:08.000Z</time>
      </trkpt>
      <trkpt lat="37.50576" lon="-4.42015">
        <ele>589.71</ele>
        <time>2019-10-15T08:41:13.000Z</time>
      </trkpt>
      <trkpt lat="37.50521" lon="-4.41992">
        <ele>588.62</ele>
        <time>2019-10-15T08:41:18.000Z</time>
      </trkpt>
      <trkpt lat="37.50477" lon="-4.41958">
        <ele>587.76</ele>
        <time>2019-10-15T08:41:23.000Z</time>
      </trkpt>
      <trkpt lat="37.50439" lon="-4.41984">
        <ele>588.81</ele>
        <time>2019-10-15T08:41:28.000Z</time>
      </trkpt>
      <trkpt lat="37.50415" lon="-4.4202">
        <ele>588.37</ele>
        <time>2019-10-15T08:41:33.000Z</time>
      </trkpt>
      <trkpt lat="37.50388" lon="-4.42044">
        <ele>587.02</ele>
        <time>2019-10-15T08:41:38.000Z</time>
      </trkpt>
      <trkpt lat="37.50362" lon="-4.42065">
        <ele>585.74</ele>
        <time>2019-10-15T08:41:43.000Z</time>
      </trkpt>
      <trkpt lat="37.50339" lon="-4.42083">
        <ele>584.72</ele>
        <time>2019-10-15T08:41:48.000Z</time>
      </trkpt>
      <trkpt lat="37.5032" lon="-4.42101">
        <ele>583.89</ele>
        <time>2019-10-15T08:41:53.000Z</time>
      </trkpt>
      <trkpt lat="37.50305" lon="-4.42115">
        <ele>582.82</ele>
        <time>2019-10-15T08:41:58.000Z</time>
      </trkpt>
      <trkpt lat="37.50292" lon="-4.42134">
        <ele>582.23</ele>
        <time>2019-10-15T08:42:03.000Z</time>
      </trkpt>
      <trkpt lat="37.50285" lon="-4.42152">
        <ele>582.05</ele>
        <time>2019-10-15T08:42:08.000Z</time>
      </trkpt>
      <trkpt lat="37.50281" lon="-4.4217">
        <ele>581.84</ele>
        <time>2019-10-15T08:42:13.000Z</time>
      </trkpt>
      <trkpt lat="37.50275" lon="-4.42186">
        <ele>581.63</ele>
        <time>2019-10-15T08:42:18.000Z</time>
      </trkpt>
      <trkpt lat="37.50267" lon="-4.42198">
        <ele>581.42</ele>
        <time>2019-10-15T08:42:23.000Z</time>
      </trkpt>
      <trkpt lat="37.50257" lon="-4.4221">
        <ele>581.22</ele>
        <time>2019-10-15T08:42:28.000Z</time>
      </trkpt>
      <trkpt lat="37.50244" lon="-4.42216">
        <ele>581</ele>
        <time>2019-10-15T08:42:33.000Z</time>
      </trkpt>
      <trkpt lat="37.5023" lon="-4.42219">
        <ele>580.83</ele>
        <time>2019-10-15T08:42:38.000Z</time>
      </trkpt>
      <trkpt lat="37.50217" lon="-4.4222">
        <ele>580.64</ele>
        <time>2019-10-15T08:42:43.000Z</time>
      </trkpt>
      <trkpt lat="37.50204" lon="-4.42218">
        <ele>580.42</ele>
        <time>2019-10-15T08:42:48.000Z</time>
      </trkpt>
      <trkpt lat="37.50191" lon="-4.42217">
        <ele>580.23</ele>
        <time>2019-10-15T08:42:53.000Z</time>
      </trkpt>
      <trkpt lat="37.5018" lon="-4.42217">
        <ele>580.11</ele>
        <time>2019-10-15T08:42:58.000Z</time>
      </trkpt>
      <trkpt lat="37.50169" lon="-4.42217">
        <ele>580.07</ele>
        <time>2019-10-15T08:43:03.000Z</time>
      </trkpt>
      <trkpt lat="37.50159" lon="-4.42219">
        <ele>580.1</ele>
        <time>2019-10-15T08:43:08.000Z</time>
      </trkpt>
      <trkpt lat="37.50148" lon="-4.42223">
        <ele>580.18</ele>
        <time>2019-10-15T08:43:13.000Z</time>
      </trkpt>
      <trkpt lat="37.50139" lon="-4.42227">
        <ele>580.29</ele>
        <time>2019-10-15T08:43:18.000Z</time>
      </trkpt>
      <trkpt lat="37.5013" lon="-4.42233">
        <ele>580.43</ele>
        <time>2019-10-15T08:43:23.000Z</time>
      </trkpt>
      <trkpt lat="37.50121" lon="-4.42239">
        <ele>580.59</ele>
        <time>2019-10-15T08:43:28.000Z</time>
      </trkpt>
      <trkpt lat="37.50112" lon="-4.42245">
        <ele>580.73</ele>
        <time>2019-10-15T08:43:33.000Z</time>
      </trkpt>
      <trkpt lat="37.50102" lon="-4.4225">
        <ele>580.85</ele>
        <time>2019-10-15T08:43:38.000Z</time>
      </trkpt>
      <trkpt lat="37.50092" lon="-4.42251">
        <ele>580.96</ele>
        <time>2019-10-15T08:43:43.000Z</time>
      </trkpt>
      <trkpt lat="37.50081" lon="-4.42249">
        <ele>581.09</ele>
        <time>2019-10-15T08:43:48.000Z</time>
      </trkpt>
      <trkpt lat="37.50069" lon="-4.42245">
        <ele>581.21</ele>
        <time>2019-10-15T08:43:53.000Z</time>
      </trkpt>
      <trkpt lat="37.50055" lon="-4.4224">
        <ele>581.34</ele>
        <time>2019-10-15T08:43:58.000Z</time>
      </trkpt>
      <trkpt lat="37.5004" lon="-4.42237">
        <ele>581.48</ele>
        <time>2019-10-15T08:44:03.000Z</time>
      </trkpt>
      <trkpt lat="37.50025" lon="-4.42235">
        <ele>581.61</ele>
        <time>2019-10-15T08:44:08.000Z</time>
      </trkpt>
      <trkpt lat="37.50011" lon="-4.42238">
        <ele>581.76</ele>
        <time>2019-10-15T08:44:13.000Z</time>
      </trkpt>
      <trkpt lat="37.49997" lon="-4.42245">
        <ele>581.9</ele>
        <time>2019-10-15T08:44:18.000Z</time>
      </trkpt>
      <trkpt lat="37.49982" lon="-4.42251">
        <ele>582.05</ele>
        <time>2019-10-15T08:44:23.000Z</time>
      </trkpt>
      <trkpt lat="37.49968" lon="-4.42258">
        <ele>582.18</ele>
        <time>2019-10-15T08:44:28.000Z</time>
      </trkpt>
      <trkpt lat="37.49953" lon="-4.42263">
        <ele>582.3</ele>
        <time>2019-10-15T08:44:33.000Z</time>
      </trkpt>
      <trkpt lat="37.49939" lon="-4.42266">
        <ele>582.42</ele>
        <time>2019-10-15T08:44:38.000Z</time>
      </trkpt>
      <trkpt lat="37.49926" lon="-4.42266">
        <ele>582.54</ele>
        <time>2019-10-15T08:44:43.000Z</time>
      </trkpt>
      <trkpt lat="37.49914" lon="-4.42267">
        <ele>582.69</ele>
        <time>2019-10-15T08:44:48.000Z</time>
      </trkpt>
      <trkpt lat="37.499" lon="-4.42269">
        <ele>582.88</ele>
        <time>2019-10-15T08:44:53.000Z</time>
      </trkpt>
      <trkpt lat="37.49901" lon="-4.42282">
        <ele>583.41</ele>
        <time>2019-10-15T08:47:55.000Z</time>
      </trkpt>
      <trkpt lat="37.49896" lon="-4.42292">
        <ele>583.36</ele>
        <time>2019-10-15T08:48:05.000Z</time>
      </trkpt>
      <trkpt lat="37.4989" lon="-4.42302">
        <ele>583.31</ele>
        <time>2019-10-15T08:48:12.000Z</time>
      </trkpt>
      <trkpt lat="37.49883" lon="-4.4231">
        <ele>583.27</ele>
        <time>2019-10-15T08:48:19.000Z</time>
      </trkpt>
      <trkpt lat="37.49877" lon="-4.42319">
        <ele>583.22</ele>
        <time>2019-10-15T08:48:27.000Z</time>
      </trkpt>
      <trkpt lat="37.49871" lon="-4.42329">
        <ele>583.18</ele>
        <time>2019-10-15T08:48:36.000Z</time>
      </trkpt>
      <trkpt lat="37.49866" lon="-4.42339">
        <ele>583.15</ele>
        <time>2019-10-15T08:48:45.000Z</time>
      </trkpt>
      <trkpt lat="37.49861" lon="-4.42349">
        <ele>583.11</ele>
        <time>2019-10-15T08:48:54.000Z</time>
      </trkpt>
      <trkpt lat="37.49856" lon="-4.42358">
        <ele>583.05</ele>
        <time>2019-10-15T08:49:03.000Z</time>
      </trkpt>
      <trkpt lat="37.49853" lon="-4.4237">
        <ele>583.01</ele>
        <time>2019-10-15T08:49:11.000Z</time>
      </trkpt>
      <trkpt lat="37.49856" lon="-4.42382">
        <ele>583.23</ele>
        <time>2019-10-15T08:50:16.999Z</time>
      </trkpt>
      <trkpt lat="37.49849" lon="-4.42389">
        <ele>583.34</ele>
        <time>2019-10-15T08:51:04.999Z</time>
      </trkpt>
      <trkpt lat="37.49837" lon="-4.42403">
        <ele>583.39</ele>
        <time>2019-10-15T08:51:09.999Z</time>
      </trkpt>
      <trkpt lat="37.49823" lon="-4.42422">
        <ele>583.77</ele>
        <time>2019-10-15T08:51:14.999Z</time>
      </trkpt>
      <trkpt lat="37.49806" lon="-4.42441">
        <ele>583.91</ele>
        <time>2019-10-15T08:51:19.999Z</time>
      </trkpt>
      <trkpt lat="37.49787" lon="-4.42461">
        <ele>583.98</ele>
        <time>2019-10-15T08:51:24.999Z</time>
      </trkpt>
      <trkpt lat="37.49765" lon="-4.42483">
        <ele>584.08</ele>
        <time>2019-10-15T08:51:29.999Z</time>
      </trkpt>
      <trkpt lat="37.49741" lon="-4.42503">
        <ele>584.23</ele>
        <time>2019-10-15T08:51:34.999Z</time>
      </trkpt>
      <trkpt lat="37.49715" lon="-4.42519">
        <ele>584.34</ele>
        <time>2019-10-15T08:51:39.999Z</time>
      </trkpt>
      <trkpt lat="37.4969" lon="-4.42533">
        <ele>584.46</ele>
        <time>2019-10-15T08:51:44.999Z</time>
      </trkpt>
      <trkpt lat="37.49667" lon="-4.42542">
        <ele>584.57</ele>
        <time>2019-10-15T08:51:49.999Z</time>
      </trkpt>
      <trkpt lat="37.4964" lon="-4.42549">
        <ele>584.64</ele>
        <time>2019-10-15T08:51:54.999Z</time>
      </trkpt>
      <trkpt lat="37.49613" lon="-4.42555">
        <ele>584.7</ele>
        <time>2019-10-15T08:51:59.999Z</time>
      </trkpt>
      <trkpt lat="37.49586" lon="-4.42559">
        <ele>584.74</ele>
        <time>2019-10-15T08:52:04.999Z</time>
      </trkpt>
      <trkpt lat="37.49571" lon="-4.4256">
        <ele>584.75</ele>
        <time>2019-10-15T08:52:09.999Z</time>
      </trkpt>
      <trkpt lat="37.49561" lon="-4.42564">
        <ele>584.82</ele>
        <time>2019-10-15T08:52:36.999Z</time>
      </trkpt>
      <trkpt lat="37.49552" lon="-4.42563">
        <ele>584.91</ele>
        <time>2019-10-15T08:52:41.999Z</time>
      </trkpt>
      <trkpt lat="37.49539" lon="-4.42562">
        <ele>584.99</ele>
        <time>2019-10-15T08:52:46.999Z</time>
      </trkpt>
      <trkpt lat="37.49525" lon="-4.42558">
        <ele>585.06</ele>
        <time>2019-10-15T08:52:51.999Z</time>
      </trkpt>
      <trkpt lat="37.49516" lon="-4.42557">
        <ele>585.16</ele>
        <time>2019-10-15T08:52:59.999Z</time>
      </trkpt>
      <trkpt lat="37.49507" lon="-4.42557">
        <ele>585.23</ele>
        <time>2019-10-15T08:53:05.999Z</time>
      </trkpt>
      <trkpt lat="37.49496" lon="-4.42557">
        <ele>585.29</ele>
        <time>2019-10-15T08:53:10.999Z</time>
      </trkpt>
      <trkpt lat="37.49486" lon="-4.42556">
        <ele>585.34</ele>
        <time>2019-10-15T08:53:15.999Z</time>
      </trkpt>
      <trkpt lat="37.49475" lon="-4.42555">
        <ele>585.38</ele>
        <time>2019-10-15T08:53:20.999Z</time>
      </trkpt>
      <trkpt lat="37.49464" lon="-4.42555">
        <ele>585.42</ele>
        <time>2019-10-15T08:53:25.999Z</time>
      </trkpt>
      <trkpt lat="37.49452" lon="-4.42555">
        <ele>585.45</ele>
        <time>2019-10-15T08:53:30.999Z</time>
      </trkpt>
      <trkpt lat="37.49437" lon="-4.42555">
        <ele>585.48</ele>
        <time>2019-10-15T08:53:35.999Z</time>
      </trkpt>
      <trkpt lat="37.49421" lon="-4.42556">
        <ele>585.51</ele>
        <time>2019-10-15T08:53:40.999Z</time>
      </trkpt>
      <trkpt lat="37.49403" lon="-4.42555">
        <ele>585.55</ele>
        <time>2019-10-15T08:53:45.999Z</time>
      </trkpt>
      <trkpt lat="37.49388" lon="-4.42557">
        <ele>585.59</ele>
        <time>2019-10-15T08:53:50.999Z</time>
      </trkpt>
      <trkpt lat="37.49372" lon="-4.42559">
        <ele>585.62</ele>
        <time>2019-10-15T08:53:55.999Z</time>
      </trkpt>
      <trkpt lat="37.49354" lon="-4.42564">
        <ele>585.72</ele>
        <time>2019-10-15T08:54:00.999Z</time>
      </trkpt>
      <trkpt lat="37.49334" lon="-4.42569">
        <ele>585.77</ele>
        <time>2019-10-15T08:54:05.999Z</time>
      </trkpt>
      <trkpt lat="37.49313" lon="-4.42579">
        <ele>585.79</ele>
        <time>2019-10-15T08:54:10.999Z</time>
      </trkpt>
      <trkpt lat="37.49289" lon="-4.42591">
        <ele>585.79</ele>
        <time>2019-10-15T08:54:15.999Z</time>
      </trkpt>
      <trkpt lat="37.49268" lon="-4.42603">
        <ele>585.78</ele>
        <time>2019-10-15T08:54:20.999Z</time>
      </trkpt>
      <trkpt lat="37.49246" lon="-4.42618">
        <ele>585.66</ele>
        <time>2019-10-15T08:54:25.999Z</time>
      </trkpt>
      <trkpt lat="37.49225" lon="-4.42636">
        <ele>585.53</ele>
        <time>2019-10-15T08:54:30.999Z</time>
      </trkpt>
      <trkpt lat="37.49205" lon="-4.42654">
        <ele>585.43</ele>
        <time>2019-10-15T08:54:35.999Z</time>
      </trkpt>
      <trkpt lat="37.49187" lon="-4.42672">
        <ele>585.46</ele>
        <time>2019-10-15T08:54:40.999Z</time>
      </trkpt>
      <trkpt lat="37.4917" lon="-4.4269">
        <ele>585.48</ele>
        <time>2019-10-15T08:54:45.999Z</time>
      </trkpt>
      <trkpt lat="37.49155" lon="-4.4271">
        <ele>585.42</ele>
        <time>2019-10-15T08:54:50.999Z</time>
      </trkpt>
      <trkpt lat="37.4914" lon="-4.42731">
        <ele>585.29</ele>
        <time>2019-10-15T08:54:55.999Z</time>
      </trkpt>
      <trkpt lat="37.49126" lon="-4.4275">
        <ele>585.18</ele>
        <time>2019-10-15T08:55:00.999Z</time>
      </trkpt>
      <trkpt lat="37.4911" lon="-4.4277">
        <ele>585.09</ele>
        <time>2019-10-15T08:55:05.999Z</time>
      </trkpt>
      <trkpt lat="37.49095" lon="-4.42791">
        <ele>585.03</ele>
        <time>2019-10-15T08:55:10.999Z</time>
      </trkpt>
      <trkpt lat="37.49081" lon="-4.42812">
        <ele>585.02</ele>
        <time>2019-10-15T08:55:15.999Z</time>
      </trkpt>
      <trkpt lat="37.49066" lon="-4.42832">
        <ele>585.04</ele>
        <time>2019-10-15T08:55:20.999Z</time>
      </trkpt>
      <trkpt lat="37.4905" lon="-4.42857">
        <ele>585.02</ele>
        <time>2019-10-15T08:55:25.999Z</time>
      </trkpt>
      <trkpt lat="37.49032" lon="-4.4288">
        <ele>585.01</ele>
        <time>2019-10-15T08:55:30.999Z</time>
      </trkpt>
      <trkpt lat="37.4901" lon="-4.42904">
        <ele>584.99</ele>
        <time>2019-10-15T08:55:35.999Z</time>
      </trkpt>
      <trkpt lat="37.48988" lon="-4.42925">
        <ele>584.76</ele>
        <time>2019-10-15T08:55:40.999Z</time>
      </trkpt>
      <trkpt lat="37.48967" lon="-4.42946">
        <ele>584.64</ele>
        <time>2019-10-15T08:55:45.999Z</time>
      </trkpt>
      <trkpt lat="37.48941" lon="-4.42969">
        <ele>584.54</ele>
        <time>2019-10-15T08:55:50.999Z</time>
      </trkpt>
      <trkpt lat="37.48918" lon="-4.42989">
        <ele>584.37</ele>
        <time>2019-10-15T08:55:55.999Z</time>
      </trkpt>
      <trkpt lat="37.48897" lon="-4.4301">
        <ele>584.23</ele>
        <time>2019-10-15T08:56:00.999Z</time>
      </trkpt>
      <trkpt lat="37.48872" lon="-4.4303">
        <ele>584.11</ele>
        <time>2019-10-15T08:56:05.999Z</time>
      </trkpt>
      <trkpt lat="37.48846" lon="-4.43047">
        <ele>583.96</ele>
        <time>2019-10-15T08:56:10.999Z</time>
      </trkpt>
      <trkpt lat="37.48826" lon="-4.43055">
        <ele>583.79</ele>
        <time>2019-10-15T08:56:15.999Z</time>
      </trkpt>
      <trkpt lat="37.48809" lon="-4.43059">
        <ele>583.74</ele>
        <time>2019-10-15T08:56:20.999Z</time>
      </trkpt>
      <trkpt lat="37.48789" lon="-4.43063">
        <ele>583.55</ele>
        <time>2019-10-15T08:56:25.999Z</time>
      </trkpt>
      <trkpt lat="37.4877" lon="-4.43067">
        <ele>583.41</ele>
        <time>2019-10-15T08:56:30.999Z</time>
      </trkpt>
      <trkpt lat="37.48749" lon="-4.43072">
        <ele>583.39</ele>
        <time>2019-10-15T08:56:35.999Z</time>
      </trkpt>
      <trkpt lat="37.48733" lon="-4.43078">
        <ele>583.37</ele>
        <time>2019-10-15T08:56:40.999Z</time>
      </trkpt>
      <trkpt lat="37.48714" lon="-4.43082">
        <ele>583.23</ele>
        <time>2019-10-15T08:56:45.999Z</time>
      </trkpt>
      <trkpt lat="37.48695" lon="-4.43087">
        <ele>583.18</ele>
        <time>2019-10-15T08:56:50.999Z</time>
      </trkpt>
      <trkpt lat="37.48675" lon="-4.4309">
        <ele>582.99</ele>
        <time>2019-10-15T08:56:55.999Z</time>
      </trkpt>
      <trkpt lat="37.48652" lon="-4.43095">
        <ele>582.87</ele>
        <time>2019-10-15T08:57:00.999Z</time>
      </trkpt>
      <trkpt lat="37.48629" lon="-4.431">
        <ele>582.82</ele>
        <time>2019-10-15T08:57:05.999Z</time>
      </trkpt>
      <trkpt lat="37.48604" lon="-4.43107">
        <ele>582.74</ele>
        <time>2019-10-15T08:57:10.999Z</time>
      </trkpt>
      <trkpt lat="37.48578" lon="-4.43114">
        <ele>582.63</ele>
        <time>2019-10-15T08:57:15.999Z</time>
      </trkpt>
      <trkpt lat="37.48554" lon="-4.43123">
        <ele>582.42</ele>
        <time>2019-10-15T08:57:20.999Z</time>
      </trkpt>
      <trkpt lat="37.48532" lon="-4.43134">
        <ele>582.23</ele>
        <time>2019-10-15T08:57:25.999Z</time>
      </trkpt>
      <trkpt lat="37.48508" lon="-4.43145">
        <ele>582.04</ele>
        <time>2019-10-15T08:57:30.999Z</time>
      </trkpt>
      <trkpt lat="37.48485" lon="-4.43154">
        <ele>581.84</ele>
        <time>2019-10-15T08:57:35.999Z</time>
      </trkpt>
      <trkpt lat="37.4846" lon="-4.43165">
        <ele>581.67</ele>
        <time>2019-10-15T08:57:40.999Z</time>
      </trkpt>
      <trkpt lat="37.48435" lon="-4.43174">
        <ele>581.56</ele>
        <time>2019-10-15T08:57:45.999Z</time>
      </trkpt>
      <trkpt lat="37.48413" lon="-4.43183">
        <ele>581.43</ele>
        <time>2019-10-15T08:57:50.999Z</time>
      </trkpt>
      <trkpt lat="37.4839" lon="-4.43193">
        <ele>581.24</ele>
        <time>2019-10-15T08:57:55.999Z</time>
      </trkpt>
      <trkpt lat="37.48366" lon="-4.43197">
        <ele>581.04</ele>
        <time>2019-10-15T08:58:00.999Z</time>
      </trkpt>
      <trkpt lat="37.48342" lon="-4.43196">
        <ele>580.95</ele>
        <time>2019-10-15T08:58:05.999Z</time>
      </trkpt>
      <trkpt lat="37.48317" lon="-4.43192">
        <ele>580.88</ele>
        <time>2019-10-15T08:58:10.999Z</time>
      </trkpt>
      <trkpt lat="37.48289" lon="-4.43183">
        <ele>580.83</ele>
        <time>2019-10-15T08:58:15.999Z</time>
      </trkpt>
      <trkpt lat="37.48267" lon="-4.43173">
        <ele>580.77</ele>
        <time>2019-10-15T08:58:20.999Z</time>
      </trkpt>
      <trkpt lat="37.48244" lon="-4.43163">
        <ele>580.72</ele>
        <time>2019-10-15T08:58:25.999Z</time>
      </trkpt>
      <trkpt lat="37.48223" lon="-4.43146">
        <ele>580.63</ele>
        <time>2019-10-15T08:58:30.999Z</time>
      </trkpt>
      <trkpt lat="37.48202" lon="-4.43125">
        <ele>580.51</ele>
        <time>2019-10-15T08:58:35.999Z</time>
      </trkpt>
      <trkpt lat="37.48184" lon="-4.43103">
        <ele>580.35</ele>
        <time>2019-10-15T08:58:40.999Z</time>
      </trkpt>
      <trkpt lat="37.48167" lon="-4.43083">
        <ele>580.18</ele>
        <time>2019-10-15T08:58:45.999Z</time>
      </trkpt>
      <trkpt lat="37.48149" lon="-4.43062">
        <ele>579.95</ele>
        <time>2019-10-15T08:58:50.999Z</time>
      </trkpt>
      <trkpt lat="37.48134" lon="-4.43036">
        <ele>579.77</ele>
        <time>2019-10-15T08:58:55.999Z</time>
      </trkpt>
      <trkpt lat="37.4812" lon="-4.43009">
        <ele>579.7</ele>
        <time>2019-10-15T08:59:00.999Z</time>
      </trkpt>
      <trkpt lat="37.48109" lon="-4.42982">
        <ele>579.63</ele>
        <time>2019-10-15T08:59:05.999Z</time>
      </trkpt>
      <trkpt lat="37.48099" lon="-4.42953">
        <ele>579.55</ele>
        <time>2019-10-15T08:59:10.999Z</time>
      </trkpt>
      <trkpt lat="37.48087" lon="-4.42925">
        <ele>579.5</ele>
        <time>2019-10-15T08:59:15.999Z</time>
      </trkpt>
      <trkpt lat="37.48078" lon="-4.42897">
        <ele>579.48</ele>
        <time>2019-10-15T08:59:20.999Z</time>
      </trkpt>
      <trkpt lat="37.48068" lon="-4.42869">
        <ele>579.49</ele>
        <time>2019-10-15T08:59:25.999Z</time>
      </trkpt>
      <trkpt lat="37.48059" lon="-4.42843">
        <ele>579.5</ele>
        <time>2019-10-15T08:59:30.999Z</time>
      </trkpt>
      <trkpt lat="37.48049" lon="-4.4282">
        <ele>579.54</ele>
        <time>2019-10-15T08:59:35.999Z</time>
      </trkpt>
      <trkpt lat="37.48039" lon="-4.42804">
        <ele>579.54</ele>
        <time>2019-10-15T08:59:40.999Z</time>
      </trkpt>
      <trkpt lat="37.48031" lon="-4.428">
        <ele>579.53</ele>
        <time>2019-10-15T08:59:45.999Z</time>
      </trkpt>
      <trkpt lat="37.48029" lon="-4.42788">
        <ele>579.48</ele>
        <time>2019-10-15T09:00:18.999Z</time>
      </trkpt>
      <trkpt lat="37.48022" lon="-4.42771">
        <ele>579.44</ele>
        <time>2019-10-15T09:00:23.999Z</time>
      </trkpt>
      <trkpt lat="37.48017" lon="-4.42748">
        <ele>579.3</ele>
        <time>2019-10-15T09:00:28.999Z</time>
      </trkpt>
      <trkpt lat="37.48005" lon="-4.42719">
        <ele>578.92</ele>
        <time>2019-10-15T09:00:33.999Z</time>
      </trkpt>
      <trkpt lat="37.47993" lon="-4.42686">
        <ele>578.75</ele>
        <time>2019-10-15T09:00:38.999Z</time>
      </trkpt>
      <trkpt lat="37.47979" lon="-4.42654">
        <ele>578.69</ele>
        <time>2019-10-15T09:00:43.999Z</time>
      </trkpt>
      <trkpt lat="37.47965" lon="-4.42624">
        <ele>578.59</ele>
        <time>2019-10-15T09:00:48.999Z</time>
      </trkpt>
      <trkpt lat="37.4795" lon="-4.42596">
        <ele>578.48</ele>
        <time>2019-10-15T09:00:53.999Z</time>
      </trkpt>
      <trkpt lat="37.47936" lon="-4.42575">
        <ele>578.33</ele>
        <time>2019-10-15T09:00:58.999Z</time>
      </trkpt>
      <trkpt lat="37.47919" lon="-4.42554">
        <ele>578.12</ele>
        <time>2019-10-15T09:01:03.999Z</time>
      </trkpt>
      <trkpt lat="37.47895" lon="-4.42525">
        <ele>577.83</ele>
        <time>2019-10-15T09:01:08.999Z</time>
      </trkpt>
      <trkpt lat="37.47869" lon="-4.425">
        <ele>577.67</ele>
        <time>2019-10-15T09:01:13.999Z</time>
      </trkpt>
      <trkpt lat="37.47844" lon="-4.42478">
        <ele>577.51</ele>
        <time>2019-10-15T09:01:18.999Z</time>
      </trkpt>
      <trkpt lat="37.47819" lon="-4.42461">
        <ele>577.33</ele>
        <time>2019-10-15T09:01:23.999Z</time>
      </trkpt>
      <trkpt lat="37.47792" lon="-4.42448">
        <ele>577.17</ele>
        <time>2019-10-15T09:01:28.999Z</time>
      </trkpt>
      <trkpt lat="37.47766" lon="-4.42438">
        <ele>577</ele>
        <time>2019-10-15T09:01:33.999Z</time>
      </trkpt>
      <trkpt lat="37.4774" lon="-4.42431">
        <ele>576.92</ele>
        <time>2019-10-15T09:01:38.999Z</time>
      </trkpt>
      <trkpt lat="37.47721" lon="-4.42427">
        <ele>576.9</ele>
        <time>2019-10-15T09:01:43.999Z</time>
      </trkpt>
      <trkpt lat="37.47708" lon="-4.42426">
        <ele>576.88</ele>
        <time>2019-10-15T09:01:48.999Z</time>
      </trkpt>
      <trkpt lat="37.47696" lon="-4.42426">
        <ele>576.87</ele>
        <time>2019-10-15T09:01:53.999Z</time>
      </trkpt>
      <trkpt lat="37.4768" lon="-4.42424">
        <ele>576.85</ele>
        <time>2019-10-15T09:01:58.999Z</time>
      </trkpt>
      <trkpt lat="37.47659" lon="-4.42422">
        <ele>576.72</ele>
        <time>2019-10-15T09:02:03.999Z</time>
      </trkpt>
      <trkpt lat="37.47635" lon="-4.42422">
        <ele>576.5</ele>
        <time>2019-10-15T09:02:08.999Z</time>
      </trkpt>
      <trkpt lat="37.47613" lon="-4.42421">
        <ele>576.37</ele>
        <time>2019-10-15T09:02:13.999Z</time>
      </trkpt>
      <trkpt lat="37.47592" lon="-4.42418">
        <ele>576.28</ele>
        <time>2019-10-15T09:02:18.999Z</time>
      </trkpt>
      <trkpt lat="37.47571" lon="-4.42418">
        <ele>576.22</ele>
        <time>2019-10-15T09:02:23.999Z</time>
      </trkpt>
      <trkpt lat="37.47553" lon="-4.42419">
        <ele>576.17</ele>
        <time>2019-10-15T09:02:28.999Z</time>
      </trkpt>
      <trkpt lat="37.4754" lon="-4.42418">
        <ele>576.12</ele>
        <time>2019-10-15T09:02:33.999Z</time>
      </trkpt>
      <trkpt lat="37.47526" lon="-4.42419">
        <ele>576.06</ele>
        <time>2019-10-15T09:02:38.999Z</time>
      </trkpt>
      <trkpt lat="37.47513" lon="-4.42421">
        <ele>575.99</ele>
        <time>2019-10-15T09:02:43.999Z</time>
      </trkpt>
      <trkpt lat="37.47503" lon="-4.42423">
        <ele>575.9</ele>
        <time>2019-10-15T09:02:49.999Z</time>
      </trkpt>
      <trkpt lat="37.47494" lon="-4.42425">
        <ele>575.73</ele>
        <time>2019-10-15T09:02:59.999Z</time>
      </trkpt>
      <trkpt lat="37.4748" lon="-4.42429">
        <ele>575.53</ele>
        <time>2019-10-15T09:03:10.999Z</time>
      </trkpt>
      <trkpt lat="37.47466" lon="-4.42426">
        <ele>575.42</ele>
        <time>2019-10-15T09:03:15.999Z</time>
      </trkpt>
      <trkpt lat="37.47457" lon="-4.42424">
        <ele>572.66</ele>
        <time>2019-10-15T09:09:19.000Z</time>
      </trkpt>
      <trkpt lat="37.47451" lon="-4.42433">
        <ele>567.01</ele>
        <time>2019-10-15T09:34:10.999Z</time>
      </trkpt>
      <trkpt lat="37.47442" lon="-4.42431">
        <ele>567.01</ele>
        <time>2019-10-15T09:34:15.999Z</time>
      </trkpt>
      <trkpt lat="37.4743" lon="-4.4243">
        <ele>566.99</ele>
        <time>2019-10-15T09:34:21.999Z</time>
      </trkpt>
      <trkpt lat="37.47419" lon="-4.42428">
        <ele>566.97</ele>
        <time>2019-10-15T09:34:26.999Z</time>
      </trkpt>
      <trkpt lat="37.47407" lon="-4.42427">
        <ele>566.95</ele>
        <time>2019-10-15T09:34:31.999Z</time>
      </trkpt>
      <trkpt lat="37.47398" lon="-4.42424">
        <ele>566.94</ele>
        <time>2019-10-15T09:34:36.999Z</time>
      </trkpt>
      <trkpt lat="37.4739" lon="-4.42417">
        <ele>566.93</ele>
        <time>2019-10-15T09:34:41.999Z</time>
      </trkpt>
      <trkpt lat="37.47378" lon="-4.42413">
        <ele>566.92</ele>
        <time>2019-10-15T09:34:46.999Z</time>
      </trkpt>
      <trkpt lat="37.47367" lon="-4.42413">
        <ele>566.9</ele>
        <time>2019-10-15T09:34:51.999Z</time>
      </trkpt>
      <trkpt lat="37.47351" lon="-4.42413">
        <ele>566.88</ele>
        <time>2019-10-15T09:34:56.999Z</time>
      </trkpt>
      <trkpt lat="37.47334" lon="-4.42412">
        <ele>566.87</ele>
        <time>2019-10-15T09:35:01.999Z</time>
      </trkpt>
      <trkpt lat="37.47315" lon="-4.42413">
        <ele>566.85</ele>
        <time>2019-10-15T09:35:06.999Z</time>
      </trkpt>
      <trkpt lat="37.47297" lon="-4.42417">
        <ele>566.84</ele>
        <time>2019-10-15T09:35:11.999Z</time>
      </trkpt>
      <trkpt lat="37.47278" lon="-4.42425">
        <ele>566.82</ele>
        <time>2019-10-15T09:35:16.999Z</time>
      </trkpt>
      <trkpt lat="37.4726" lon="-4.42431">
        <ele>566.64</ele>
        <time>2019-10-15T09:35:21.999Z</time>
      </trkpt>
      <trkpt lat="37.4724" lon="-4.42436">
        <ele>566.35</ele>
        <time>2019-10-15T09:35:26.999Z</time>
      </trkpt>
      <trkpt lat="37.47221" lon="-4.4244">
        <ele>565.92</ele>
        <time>2019-10-15T09:35:31.999Z</time>
      </trkpt>
      <trkpt lat="37.47199" lon="-4.42438">
        <ele>565.49</ele>
        <time>2019-10-15T09:35:36.999Z</time>
      </trkpt>
      <trkpt lat="37.47176" lon="-4.42436">
        <ele>565.1</ele>
        <time>2019-10-15T09:35:41.999Z</time>
      </trkpt>
      <trkpt lat="37.47155" lon="-4.42436">
        <ele>564.78</ele>
        <time>2019-10-15T09:35:46.999Z</time>
      </trkpt>
      <trkpt lat="37.47135" lon="-4.42433">
        <ele>564.57</ele>
        <time>2019-10-15T09:35:51.999Z</time>
      </trkpt>
      <trkpt lat="37.47113" lon="-4.42432">
        <ele>564.39</ele>
        <time>2019-10-15T09:35:56.999Z</time>
      </trkpt>
      <trkpt lat="37.4709" lon="-4.42431">
        <ele>564.26</ele>
        <time>2019-10-15T09:36:01.999Z</time>
      </trkpt>
      <trkpt lat="37.47066" lon="-4.42428">
        <ele>564.17</ele>
        <time>2019-10-15T09:36:06.999Z</time>
      </trkpt>
      <trkpt lat="37.47043" lon="-4.42429">
        <ele>564.13</ele>
        <time>2019-10-15T09:36:11.999Z</time>
      </trkpt>
      <trkpt lat="37.47021" lon="-4.42427">
        <ele>564.11</ele>
        <time>2019-10-15T09:36:16.999Z</time>
      </trkpt>
      <trkpt lat="37.46996" lon="-4.42425">
        <ele>564.12</ele>
        <time>2019-10-15T09:36:21.999Z</time>
      </trkpt>
      <trkpt lat="37.46971" lon="-4.42418">
        <ele>564.11</ele>
        <time>2019-10-15T09:36:26.999Z</time>
      </trkpt>
      <trkpt lat="37.46944" lon="-4.42412">
        <ele>564.07</ele>
        <time>2019-10-15T09:36:31.999Z</time>
      </trkpt>
      <trkpt lat="37.46916" lon="-4.42404">
        <ele>564.02</ele>
        <time>2019-10-15T09:36:36.999Z</time>
      </trkpt>
      <trkpt lat="37.4689" lon="-4.42391">
        <ele>563.96</ele>
        <time>2019-10-15T09:36:41.999Z</time>
      </trkpt>
      <trkpt lat="37.46863" lon="-4.42377">
        <ele>563.89</ele>
        <time>2019-10-15T09:36:46.999Z</time>
      </trkpt>
      <trkpt lat="37.46839" lon="-4.42362">
        <ele>563.8</ele>
        <time>2019-10-15T09:36:51.999Z</time>
      </trkpt>
      <trkpt lat="37.46812" lon="-4.42347">
        <ele>563.72</ele>
        <time>2019-10-15T09:36:56.999Z</time>
      </trkpt>
      <trkpt lat="37.46785" lon="-4.4233">
        <ele>563.59</ele>
        <time>2019-10-15T09:37:01.999Z</time>
      </trkpt>
      <trkpt lat="37.46759" lon="-4.42312">
        <ele>563.43</ele>
        <time>2019-10-15T09:37:06.999Z</time>
      </trkpt>
      <trkpt lat="37.46734" lon="-4.42296">
        <ele>563.21</ele>
        <time>2019-10-15T09:37:11.999Z</time>
      </trkpt>
      <trkpt lat="37.46708" lon="-4.42281">
        <ele>562.96</ele>
        <time>2019-10-15T09:37:16.999Z</time>
      </trkpt>
      <trkpt lat="37.46683" lon="-4.42265">
        <ele>562.63</ele>
        <time>2019-10-15T09:37:21.999Z</time>
      </trkpt>
      <trkpt lat="37.46656" lon="-4.42252">
        <ele>562.32</ele>
        <time>2019-10-15T09:37:26.999Z</time>
      </trkpt>
      <trkpt lat="37.46631" lon="-4.42241">
        <ele>561.98</ele>
        <time>2019-10-15T09:37:31.999Z</time>
      </trkpt>
      <trkpt lat="37.46605" lon="-4.42232">
        <ele>561.93</ele>
        <time>2019-10-15T09:37:36.999Z</time>
      </trkpt>
      <trkpt lat="37.46578" lon="-4.42224">
        <ele>561.98</ele>
        <time>2019-10-15T09:37:41.999Z</time>
      </trkpt>
      <trkpt lat="37.4655" lon="-4.42222">
        <ele>561.77</ele>
        <time>2019-10-15T09:37:46.999Z</time>
      </trkpt>
      <trkpt lat="37.46521" lon="-4.42222">
        <ele>561.09</ele>
        <time>2019-10-15T09:37:51.999Z</time>
      </trkpt>
      <trkpt lat="37.46493" lon="-4.42226">
        <ele>560.46</ele>
        <time>2019-10-15T09:37:56.999Z</time>
      </trkpt>
      <trkpt lat="37.46463" lon="-4.42231">
        <ele>560.14</ele>
        <time>2019-10-15T09:38:01.999Z</time>
      </trkpt>
      <trkpt lat="37.46432" lon="-4.42234">
        <ele>560.14</ele>
        <time>2019-10-15T09:38:06.999Z</time>
      </trkpt>
      <trkpt lat="37.46401" lon="-4.42239">
        <ele>560.26</ele>
        <time>2019-10-15T09:38:11.999Z</time>
      </trkpt>
      <trkpt lat="37.46369" lon="-4.42246">
        <ele>560.28</ele>
        <time>2019-10-15T09:38:16.999Z</time>
      </trkpt>
      <trkpt lat="37.46337" lon="-4.42249">
        <ele>559.66</ele>
        <time>2019-10-15T09:38:21.999Z</time>
      </trkpt>
      <trkpt lat="37.46308" lon="-4.42261">
        <ele>558.88</ele>
        <time>2019-10-15T09:38:26.999Z</time>
      </trkpt>
      <trkpt lat="37.46281" lon="-4.42277">
        <ele>558.23</ele>
        <time>2019-10-15T09:38:31.999Z</time>
      </trkpt>
      <trkpt lat="37.46257" lon="-4.42295">
        <ele>557.79</ele>
        <time>2019-10-15T09:38:36.999Z</time>
      </trkpt>
      <trkpt lat="37.46234" lon="-4.42316">
        <ele>557.35</ele>
        <time>2019-10-15T09:38:41.999Z</time>
      </trkpt>
      <trkpt lat="37.46212" lon="-4.42338">
        <ele>557</ele>
        <time>2019-10-15T09:38:46.999Z</time>
      </trkpt>
      <trkpt lat="37.46189" lon="-4.4236">
        <ele>556.63</ele>
        <time>2019-10-15T09:38:51.999Z</time>
      </trkpt>
      <trkpt lat="37.46166" lon="-4.4238">
        <ele>556.3</ele>
        <time>2019-10-15T09:38:56.999Z</time>
      </trkpt>
      <trkpt lat="37.46142" lon="-4.42402">
        <ele>555.64</ele>
        <time>2019-10-15T09:39:01.999Z</time>
      </trkpt>
      <trkpt lat="37.46119" lon="-4.42424">
        <ele>555.1</ele>
        <time>2019-10-15T09:39:06.999Z</time>
      </trkpt>
      <trkpt lat="37.46095" lon="-4.42441">
        <ele>554.81</ele>
        <time>2019-10-15T09:39:11.999Z</time>
      </trkpt>
      <trkpt lat="37.46071" lon="-4.42455">
        <ele>554.64</ele>
        <time>2019-10-15T09:39:16.999Z</time>
      </trkpt>
      <trkpt lat="37.46047" lon="-4.42468">
        <ele>554.46</ele>
        <time>2019-10-15T09:39:21.999Z</time>
      </trkpt>
      <trkpt lat="37.46023" lon="-4.42478">
        <ele>554.27</ele>
        <time>2019-10-15T09:39:26.999Z</time>
      </trkpt>
      <trkpt lat="37.45998" lon="-4.42487">
        <ele>554.03</ele>
        <time>2019-10-15T09:39:31.999Z</time>
      </trkpt>
      <trkpt lat="37.45975" lon="-4.42493">
        <ele>553.87</ele>
        <time>2019-10-15T09:39:36.999Z</time>
      </trkpt>
      <trkpt lat="37.45954" lon="-4.42498">
        <ele>553.7</ele>
        <time>2019-10-15T09:39:41.999Z</time>
      </trkpt>
      <trkpt lat="37.45932" lon="-4.42504">
        <ele>553.61</ele>
        <time>2019-10-15T09:39:46.999Z</time>
      </trkpt>
      <trkpt lat="37.4591" lon="-4.42509">
        <ele>553.5</ele>
        <time>2019-10-15T09:39:51.999Z</time>
      </trkpt>
      <trkpt lat="37.45887" lon="-4.42516">
        <ele>553.37</ele>
        <time>2019-10-15T09:39:56.999Z</time>
      </trkpt>
      <trkpt lat="37.45865" lon="-4.42522">
        <ele>553.2</ele>
        <time>2019-10-15T09:40:01.999Z</time>
      </trkpt>
      <trkpt lat="37.45843" lon="-4.42532">
        <ele>553.05</ele>
        <time>2019-10-15T09:40:06.999Z</time>
      </trkpt>
      <trkpt lat="37.45821" lon="-4.42543">
        <ele>552.94</ele>
        <time>2019-10-15T09:40:11.999Z</time>
      </trkpt>
      <trkpt lat="37.458" lon="-4.42556">
        <ele>552.84</ele>
        <time>2019-10-15T09:40:16.999Z</time>
      </trkpt>
      <trkpt lat="37.45779" lon="-4.4257">
        <ele>552.73</ele>
        <time>2019-10-15T09:40:21.999Z</time>
      </trkpt>
      <trkpt lat="37.45759" lon="-4.42587">
        <ele>552.6</ele>
        <time>2019-10-15T09:40:26.999Z</time>
      </trkpt>
      <trkpt lat="37.45739" lon="-4.42605">
        <ele>552.42</ele>
        <time>2019-10-15T09:40:31.999Z</time>
      </trkpt>
      <trkpt lat="37.4572" lon="-4.42623">
        <ele>552.3</ele>
        <time>2019-10-15T09:40:36.999Z</time>
      </trkpt>
      <trkpt lat="37.45703" lon="-4.42644">
        <ele>552.21</ele>
        <time>2019-10-15T09:40:41.999Z</time>
      </trkpt>
      <trkpt lat="37.4569" lon="-4.42664">
        <ele>552.08</ele>
        <time>2019-10-15T09:40:46.999Z</time>
      </trkpt>
      <trkpt lat="37.45677" lon="-4.42691">
        <ele>552.03</ele>
        <time>2019-10-15T09:40:51.999Z</time>
      </trkpt>
      <trkpt lat="37.45655" lon="-4.42714">
        <ele>551.9</ele>
        <time>2019-10-15T09:40:56.999Z</time>
      </trkpt>
      <trkpt lat="37.4564" lon="-4.42736">
        <ele>551.8</ele>
        <time>2019-10-15T09:41:01.999Z</time>
      </trkpt>
      <trkpt lat="37.45623" lon="-4.42755">
        <ele>551.73</ele>
        <time>2019-10-15T09:41:06.999Z</time>
      </trkpt>
      <trkpt lat="37.45606" lon="-4.42774">
        <ele>551.7</ele>
        <time>2019-10-15T09:41:11.999Z</time>
      </trkpt>
      <trkpt lat="37.4559" lon="-4.42792">
        <ele>551.56</ele>
        <time>2019-10-15T09:41:16.999Z</time>
      </trkpt>
      <trkpt lat="37.45572" lon="-4.42809">
        <ele>551.47</ele>
        <time>2019-10-15T09:41:21.999Z</time>
      </trkpt>
      <trkpt lat="37.45552" lon="-4.42824">
        <ele>551.39</ele>
        <time>2019-10-15T09:41:26.999Z</time>
      </trkpt>
      <trkpt lat="37.45531" lon="-4.42839">
        <ele>551.31</ele>
        <time>2019-10-15T09:41:31.999Z</time>
      </trkpt>
      <trkpt lat="37.45507" lon="-4.42852">
        <ele>551.24</ele>
        <time>2019-10-15T09:41:36.999Z</time>
      </trkpt>
      <trkpt lat="37.45483" lon="-4.42864">
        <ele>551.19</ele>
        <time>2019-10-15T09:41:41.999Z</time>
      </trkpt>
      <trkpt lat="37.45459" lon="-4.42875">
        <ele>551.12</ele>
        <time>2019-10-15T09:41:46.999Z</time>
      </trkpt>
      <trkpt lat="37.45435" lon="-4.42887">
        <ele>551.09</ele>
        <time>2019-10-15T09:41:51.999Z</time>
      </trkpt>
      <trkpt lat="37.45412" lon="-4.42899">
        <ele>551.07</ele>
        <time>2019-10-15T09:41:56.999Z</time>
      </trkpt>
      <trkpt lat="37.45389" lon="-4.42911">
        <ele>551.03</ele>
        <time>2019-10-15T09:42:01.999Z</time>
      </trkpt>
      <trkpt lat="37.45366" lon="-4.42923">
        <ele>550.98</ele>
        <time>2019-10-15T09:42:06.999Z</time>
      </trkpt>
      <trkpt lat="37.45342" lon="-4.42934">
        <ele>550.99</ele>
        <time>2019-10-15T09:42:11.999Z</time>
      </trkpt>
      <trkpt lat="37.45325" lon="-4.42942">
        <ele>551.01</ele>
        <time>2019-10-15T09:42:16.000Z</time>
      </trkpt>
      <trkpt lat="37.45302" lon="-4.42953">
        <ele>551.05</ele>
        <time>2019-10-15T09:42:21.000Z</time>
      </trkpt>
      <trkpt lat="37.45279" lon="-4.42966">
        <ele>551.07</ele>
        <time>2019-10-15T09:42:26.000Z</time>
      </trkpt>
      <trkpt lat="37.45255" lon="-4.42979">
        <ele>551.08</ele>
        <time>2019-10-15T09:42:31.000Z</time>
      </trkpt>
      <trkpt lat="37.45233" lon="-4.4299">
        <ele>551.09</ele>
        <time>2019-10-15T09:42:36.000Z</time>
      </trkpt>
      <trkpt lat="37.45211" lon="-4.43001">
        <ele>551.08</ele>
        <time>2019-10-15T09:42:41.000Z</time>
      </trkpt>
      <trkpt lat="37.45188" lon="-4.43013">
        <ele>551.07</ele>
        <time>2019-10-15T09:42:46.000Z</time>
      </trkpt>
      <trkpt lat="37.45166" lon="-4.43025">
        <ele>551.06</ele>
        <time>2019-10-15T09:42:51.000Z</time>
      </trkpt>
      <trkpt lat="37.45143" lon="-4.43036">
        <ele>551.02</ele>
        <time>2019-10-15T09:42:56.000Z</time>
      </trkpt>
      <trkpt lat="37.45119" lon="-4.43046">
        <ele>551.01</ele>
        <time>2019-10-15T09:43:01.000Z</time>
      </trkpt>
      <trkpt lat="37.45097" lon="-4.43058">
        <ele>550.98</ele>
        <time>2019-10-15T09:43:06.000Z</time>
      </trkpt>
      <trkpt lat="37.45075" lon="-4.4307">
        <ele>550.95</ele>
        <time>2019-10-15T09:43:11.000Z</time>
      </trkpt>
      <trkpt lat="37.45051" lon="-4.43079">
        <ele>550.92</ele>
        <time>2019-10-15T09:43:16.000Z</time>
      </trkpt>
      <trkpt lat="37.45029" lon="-4.43087">
        <ele>550.9</ele>
        <time>2019-10-15T09:43:21.000Z</time>
      </trkpt>
      <trkpt lat="37.45005" lon="-4.43092">
        <ele>550.89</ele>
        <time>2019-10-15T09:43:26.000Z</time>
      </trkpt>
      <trkpt lat="37.44981" lon="-4.43095">
        <ele>550.89</ele>
        <time>2019-10-15T09:43:31.000Z</time>
      </trkpt>
      <trkpt lat="37.44957" lon="-4.43097">
        <ele>550.92</ele>
        <time>2019-10-15T09:43:36.000Z</time>
      </trkpt>
      <trkpt lat="37.44932" lon="-4.43097">
        <ele>550.93</ele>
        <time>2019-10-15T09:43:41.000Z</time>
      </trkpt>
      <trkpt lat="37.44908" lon="-4.43095">
        <ele>550.93</ele>
        <time>2019-10-15T09:43:46.000Z</time>
      </trkpt>
      <trkpt lat="37.44884" lon="-4.43091">
        <ele>550.91</ele>
        <time>2019-10-15T09:43:51.000Z</time>
      </trkpt>
      <trkpt lat="37.44861" lon="-4.43088">
        <ele>550.87</ele>
        <time>2019-10-15T09:43:56.000Z</time>
      </trkpt>
      <trkpt lat="37.4484" lon="-4.43086">
        <ele>550.85</ele>
        <time>2019-10-15T09:44:01.000Z</time>
      </trkpt>
      <trkpt lat="37.4483" lon="-4.43088">
        <ele>550.84</ele>
        <time>2019-10-15T09:44:06.000Z</time>
      </trkpt>
      <trkpt lat="37.44819" lon="-4.43083">
        <ele>550.83</ele>
        <time>2019-10-15T09:44:11.000Z</time>
      </trkpt>
      <trkpt lat="37.44804" lon="-4.43077">
        <ele>550.82</ele>
        <time>2019-10-15T09:44:16.000Z</time>
      </trkpt>
      <trkpt lat="37.44785" lon="-4.43075">
        <ele>550.76</ele>
        <time>2019-10-15T09:44:21.000Z</time>
      </trkpt>
      <trkpt lat="37.44764" lon="-4.43071">
        <ele>550.73</ele>
        <time>2019-10-15T09:44:26.000Z</time>
      </trkpt>
      <trkpt lat="37.44735" lon="-4.43067">
        <ele>550.71</ele>
        <time>2019-10-15T09:44:31.000Z</time>
      </trkpt>
      <trkpt lat="37.44716" lon="-4.43065">
        <ele>550.7</ele>
        <time>2019-10-15T09:44:36.000Z</time>
      </trkpt>
      <trkpt lat="37.44702" lon="-4.43065">
        <ele>550.7</ele>
        <time>2019-10-15T09:44:41.000Z</time>
      </trkpt>
      <trkpt lat="37.44683" lon="-4.43063">
        <ele>550.7</ele>
        <time>2019-10-15T09:44:46.000Z</time>
      </trkpt>
      <trkpt lat="37.44662" lon="-4.43061">
        <ele>550.67</ele>
        <time>2019-10-15T09:44:51.000Z</time>
      </trkpt>
      <trkpt lat="37.44641" lon="-4.43059">
        <ele>550.67</ele>
        <time>2019-10-15T09:44:56.000Z</time>
      </trkpt>
      <trkpt lat="37.44619" lon="-4.43055">
        <ele>550.69</ele>
        <time>2019-10-15T09:45:01.000Z</time>
      </trkpt>
      <trkpt lat="37.44598" lon="-4.43052">
        <ele>550.68</ele>
        <time>2019-10-15T09:45:06.000Z</time>
      </trkpt>
      <trkpt lat="37.44576" lon="-4.43049">
        <ele>550.66</ele>
        <time>2019-10-15T09:45:11.000Z</time>
      </trkpt>
      <trkpt lat="37.44554" lon="-4.43047">
        <ele>550.63</ele>
        <time>2019-10-15T09:45:16.000Z</time>
      </trkpt>
      <trkpt lat="37.44532" lon="-4.43044">
        <ele>550.6</ele>
        <time>2019-10-15T09:45:21.000Z</time>
      </trkpt>
      <trkpt lat="37.4451" lon="-4.43041">
        <ele>550.56</ele>
        <time>2019-10-15T09:45:26.000Z</time>
      </trkpt>
      <trkpt lat="37.44488" lon="-4.43038">
        <ele>550.52</ele>
        <time>2019-10-15T09:45:31.000Z</time>
      </trkpt>
      <trkpt lat="37.44467" lon="-4.43035">
        <ele>550.52</ele>
        <time>2019-10-15T09:45:36.000Z</time>
      </trkpt>
      <trkpt lat="37.44444" lon="-4.43032">
        <ele>550.49</ele>
        <time>2019-10-15T09:45:41.000Z</time>
      </trkpt>
      <trkpt lat="37.44422" lon="-4.43029">
        <ele>550.45</ele>
        <time>2019-10-15T09:45:46.000Z</time>
      </trkpt>
      <trkpt lat="37.44399" lon="-4.43026">
        <ele>550.43</ele>
        <time>2019-10-15T09:45:51.000Z</time>
      </trkpt>
      <trkpt lat="37.44377" lon="-4.43023">
        <ele>550.4</ele>
        <time>2019-10-15T09:45:56.000Z</time>
      </trkpt>
      <trkpt lat="37.44356" lon="-4.43021">
        <ele>550.37</ele>
        <time>2019-10-15T09:46:01.000Z</time>
      </trkpt>
      <trkpt lat="37.44333" lon="-4.4302">
        <ele>550.35</ele>
        <time>2019-10-15T09:46:06.000Z</time>
      </trkpt>
      <trkpt lat="37.44312" lon="-4.43019">
        <ele>550.34</ele>
        <time>2019-10-15T09:46:11.000Z</time>
      </trkpt>
      <trkpt lat="37.4429" lon="-4.4302">
        <ele>550.35</ele>
        <time>2019-10-15T09:46:16.000Z</time>
      </trkpt>
      <trkpt lat="37.44268" lon="-4.43023">
        <ele>550.37</ele>
        <time>2019-10-15T09:46:21.000Z</time>
      </trkpt>
      <trkpt lat="37.44245" lon="-4.43027">
        <ele>550.39</ele>
        <time>2019-10-15T09:46:26.000Z</time>
      </trkpt>
      <trkpt lat="37.44223" lon="-4.43035">
        <ele>550.41</ele>
        <time>2019-10-15T09:46:31.000Z</time>
      </trkpt>
      <trkpt lat="37.44201" lon="-4.43044">
        <ele>550.42</ele>
        <time>2019-10-15T09:46:36.000Z</time>
      </trkpt>
      <trkpt lat="37.44181" lon="-4.43054">
        <ele>550.47</ele>
        <time>2019-10-15T09:46:41.000Z</time>
      </trkpt>
      <trkpt lat="37.44162" lon="-4.43065">
        <ele>550.51</ele>
        <time>2019-10-15T09:46:46.000Z</time>
      </trkpt>
      <trkpt lat="37.44143" lon="-4.43076">
        <ele>550.54</ele>
        <time>2019-10-15T09:46:51.000Z</time>
      </trkpt>
      <trkpt lat="37.44125" lon="-4.43089">
        <ele>550.56</ele>
        <time>2019-10-15T09:46:56.000Z</time>
      </trkpt>
      <trkpt lat="37.44106" lon="-4.43101">
        <ele>550.57</ele>
        <time>2019-10-15T09:47:01.000Z</time>
      </trkpt>
      <trkpt lat="37.44088" lon="-4.43114">
        <ele>550.61</ele>
        <time>2019-10-15T09:47:06.000Z</time>
      </trkpt>
      <trkpt lat="37.44068" lon="-4.43128">
        <ele>550.64</ele>
        <time>2019-10-15T09:47:11.000Z</time>
      </trkpt>
      <trkpt lat="37.44049" lon="-4.43143">
        <ele>550.69</ele>
        <time>2019-10-15T09:47:16.000Z</time>
      </trkpt>
      <trkpt lat="37.44031" lon="-4.43156">
        <ele>550.72</ele>
        <time>2019-10-15T09:47:21.000Z</time>
      </trkpt>
      <trkpt lat="37.44011" lon="-4.43166">
        <ele>550.73</ele>
        <time>2019-10-15T09:47:26.000Z</time>
      </trkpt>
      <trkpt lat="37.4399" lon="-4.43173">
        <ele>550.76</ele>
        <time>2019-10-15T09:47:31.000Z</time>
      </trkpt>
      <trkpt lat="37.4397" lon="-4.4318">
        <ele>550.77</ele>
        <time>2019-10-15T09:47:36.000Z</time>
      </trkpt>
      <trkpt lat="37.43948" lon="-4.43186">
        <ele>550.79</ele>
        <time>2019-10-15T09:47:41.000Z</time>
      </trkpt>
      <trkpt lat="37.43927" lon="-4.43189">
        <ele>550.81</ele>
        <time>2019-10-15T09:47:46.000Z</time>
      </trkpt>
      <trkpt lat="37.43905" lon="-4.4319">
        <ele>550.84</ele>
        <time>2019-10-15T09:47:51.000Z</time>
      </trkpt>
      <trkpt lat="37.43884" lon="-4.4319">
        <ele>550.89</ele>
        <time>2019-10-15T09:47:56.000Z</time>
      </trkpt>
      <trkpt lat="37.43862" lon="-4.43189">
        <ele>550.93</ele>
        <time>2019-10-15T09:48:01.000Z</time>
      </trkpt>
      <trkpt lat="37.4384" lon="-4.43185">
        <ele>550.96</ele>
        <time>2019-10-15T09:48:06.000Z</time>
      </trkpt>
      <trkpt lat="37.4382" lon="-4.43181">
        <ele>550.98</ele>
        <time>2019-10-15T09:48:11.000Z</time>
      </trkpt>
      <trkpt lat="37.438" lon="-4.43177">
        <ele>551.02</ele>
        <time>2019-10-15T09:48:16.000Z</time>
      </trkpt>
      <trkpt lat="37.43778" lon="-4.43171">
        <ele>551.07</ele>
        <time>2019-10-15T09:48:21.000Z</time>
      </trkpt>
      <trkpt lat="37.43756" lon="-4.43165">
        <ele>551.13</ele>
        <time>2019-10-15T09:48:26.000Z</time>
      </trkpt>
      <trkpt lat="37.43734" lon="-4.43159">
        <ele>551.19</ele>
        <time>2019-10-15T09:48:31.000Z</time>
      </trkpt>
      <trkpt lat="37.43713" lon="-4.43155">
        <ele>551.25</ele>
        <time>2019-10-15T09:48:36.000Z</time>
      </trkpt>
      <trkpt lat="37.43692" lon="-4.43149">
        <ele>551.3</ele>
        <time>2019-10-15T09:48:41.000Z</time>
      </trkpt>
      <trkpt lat="37.4367" lon="-4.43144">
        <ele>551.34</ele>
        <time>2019-10-15T09:48:46.000Z</time>
      </trkpt>
      <trkpt lat="37.43649" lon="-4.4314">
        <ele>551.39</ele>
        <time>2019-10-15T09:48:51.000Z</time>
      </trkpt>
      <trkpt lat="37.43628" lon="-4.43139">
        <ele>551.44</ele>
        <time>2019-10-15T09:48:56.000Z</time>
      </trkpt>
      <trkpt lat="37.43609" lon="-4.43138">
        <ele>551.49</ele>
        <time>2019-10-15T09:49:01.000Z</time>
      </trkpt>
      <trkpt lat="37.43589" lon="-4.43139">
        <ele>551.56</ele>
        <time>2019-10-15T09:49:06.000Z</time>
      </trkpt>
      <trkpt lat="37.43571" lon="-4.43142">
        <ele>551.62</ele>
        <time>2019-10-15T09:49:11.000Z</time>
      </trkpt>
      <trkpt lat="37.43551" lon="-4.43145">
        <ele>551.69</ele>
        <time>2019-10-15T09:49:16.000Z</time>
      </trkpt>
      <trkpt lat="37.43532" lon="-4.4315">
        <ele>551.75</ele>
        <time>2019-10-15T09:49:21.000Z</time>
      </trkpt>
      <trkpt lat="37.43513" lon="-4.43156">
        <ele>551.81</ele>
        <time>2019-10-15T09:49:26.000Z</time>
      </trkpt>
      <trkpt lat="37.43495" lon="-4.43163">
        <ele>551.85</ele>
        <time>2019-10-15T09:49:31.000Z</time>
      </trkpt>
      <trkpt lat="37.43477" lon="-4.4317">
        <ele>551.86</ele>
        <time>2019-10-15T09:49:36.000Z</time>
      </trkpt>
      <trkpt lat="37.43459" lon="-4.4318">
        <ele>551.91</ele>
        <time>2019-10-15T09:49:41.000Z</time>
      </trkpt>
      <trkpt lat="37.43442" lon="-4.43191">
        <ele>551.98</ele>
        <time>2019-10-15T09:49:46.000Z</time>
      </trkpt>
      <trkpt lat="37.43425" lon="-4.43203">
        <ele>552.04</ele>
        <time>2019-10-15T09:49:51.000Z</time>
      </trkpt>
      <trkpt lat="37.43409" lon="-4.43216">
        <ele>552.14</ele>
        <time>2019-10-15T09:49:56.000Z</time>
      </trkpt>
      <trkpt lat="37.43395" lon="-4.43231">
        <ele>552.21</ele>
        <time>2019-10-15T09:50:01.000Z</time>
      </trkpt>
      <trkpt lat="37.43381" lon="-4.43246">
        <ele>552.23</ele>
        <time>2019-10-15T09:50:06.000Z</time>
      </trkpt>
      <trkpt lat="37.43367" lon="-4.4326">
        <ele>552.25</ele>
        <time>2019-10-15T09:50:11.000Z</time>
      </trkpt>
      <trkpt lat="37.43354" lon="-4.43276">
        <ele>552.29</ele>
        <time>2019-10-15T09:50:16.000Z</time>
      </trkpt>
      <trkpt lat="37.43343" lon="-4.43292">
        <ele>552.34</ele>
        <time>2019-10-15T09:50:21.000Z</time>
      </trkpt>
      <trkpt lat="37.43332" lon="-4.4331">
        <ele>552.41</ele>
        <time>2019-10-15T09:50:26.000Z</time>
      </trkpt>
      <trkpt lat="37.43321" lon="-4.43326">
        <ele>552.48</ele>
        <time>2019-10-15T09:50:31.000Z</time>
      </trkpt>
      <trkpt lat="37.43311" lon="-4.43343">
        <ele>552.56</ele>
        <time>2019-10-15T09:50:36.000Z</time>
      </trkpt>
      <trkpt lat="37.433" lon="-4.4336">
        <ele>552.64</ele>
        <time>2019-10-15T09:50:41.000Z</time>
      </trkpt>
      <trkpt lat="37.4329" lon="-4.43375">
        <ele>552.72</ele>
        <time>2019-10-15T09:50:46.000Z</time>
      </trkpt>
      <trkpt lat="37.43281" lon="-4.43393">
        <ele>552.81</ele>
        <time>2019-10-15T09:50:51.000Z</time>
      </trkpt>
      <trkpt lat="37.43271" lon="-4.4341">
        <ele>552.9</ele>
        <time>2019-10-15T09:50:56.000Z</time>
      </trkpt>
      <trkpt lat="37.43261" lon="-4.43428">
        <ele>552.99</ele>
        <time>2019-10-15T09:51:01.000Z</time>
      </trkpt>
      <trkpt lat="37.43251" lon="-4.43443">
        <ele>553.08</ele>
        <time>2019-10-15T09:51:06.000Z</time>
      </trkpt>
      <trkpt lat="37.43239" lon="-4.43459">
        <ele>553.17</ele>
        <time>2019-10-15T09:51:11.000Z</time>
      </trkpt>
      <trkpt lat="37.43227" lon="-4.43475">
        <ele>553.26</ele>
        <time>2019-10-15T09:51:16.000Z</time>
      </trkpt>
      <trkpt lat="37.43213" lon="-4.43491">
        <ele>553.51</ele>
        <time>2019-10-15T09:51:21.000Z</time>
      </trkpt>
      <trkpt lat="37.43199" lon="-4.43506">
        <ele>553.59</ele>
        <time>2019-10-15T09:51:26.000Z</time>
      </trkpt>
      <trkpt lat="37.43185" lon="-4.43519">
        <ele>553.67</ele>
        <time>2019-10-15T09:51:31.000Z</time>
      </trkpt>
      <trkpt lat="37.4317" lon="-4.43532">
        <ele>553.89</ele>
        <time>2019-10-15T09:51:36.000Z</time>
      </trkpt>
      <trkpt lat="37.43153" lon="-4.43543">
        <ele>554.3</ele>
        <time>2019-10-15T09:51:41.000Z</time>
      </trkpt>
      <trkpt lat="37.43137" lon="-4.43555">
        <ele>554.42</ele>
        <time>2019-10-15T09:51:46.000Z</time>
      </trkpt>
      <trkpt lat="37.43121" lon="-4.43563">
        <ele>554.45</ele>
        <time>2019-10-15T09:51:51.000Z</time>
      </trkpt>
      <trkpt lat="37.43104" lon="-4.43572">
        <ele>554.57</ele>
        <time>2019-10-15T09:51:56.000Z</time>
      </trkpt>
      <trkpt lat="37.43087" lon="-4.4358">
        <ele>554.61</ele>
        <time>2019-10-15T09:52:01.000Z</time>
      </trkpt>
      <trkpt lat="37.43069" lon="-4.43587">
        <ele>554.76</ele>
        <time>2019-10-15T09:52:06.000Z</time>
      </trkpt>
      <trkpt lat="37.4305" lon="-4.43592">
        <ele>555.13</ele>
        <time>2019-10-15T09:52:11.000Z</time>
      </trkpt>
      <trkpt lat="37.4303" lon="-4.43598">
        <ele>555.41</ele>
        <time>2019-10-15T09:52:16.000Z</time>
      </trkpt>
      <trkpt lat="37.43011" lon="-4.43603">
        <ele>555.6</ele>
        <time>2019-10-15T09:52:21.000Z</time>
      </trkpt>
      <trkpt lat="37.42992" lon="-4.43608">
        <ele>555.76</ele>
        <time>2019-10-15T09:52:26.000Z</time>
      </trkpt>
      <trkpt lat="37.42972" lon="-4.43613">
        <ele>555.91</ele>
        <time>2019-10-15T09:52:31.000Z</time>
      </trkpt>
      <trkpt lat="37.42953" lon="-4.4362">
        <ele>556.04</ele>
        <time>2019-10-15T09:52:36.000Z</time>
      </trkpt>
      <trkpt lat="37.42933" lon="-4.43625">
        <ele>556.21</ele>
        <time>2019-10-15T09:52:41.000Z</time>
      </trkpt>
      <trkpt lat="37.42915" lon="-4.4363">
        <ele>556.33</ele>
        <time>2019-10-15T09:52:46.000Z</time>
      </trkpt>
      <trkpt lat="37.42898" lon="-4.43638">
        <ele>556.37</ele>
        <time>2019-10-15T09:52:51.000Z</time>
      </trkpt>
      <trkpt lat="37.42881" lon="-4.43647">
        <ele>556.41</ele>
        <time>2019-10-15T09:52:56.000Z</time>
      </trkpt>
      <trkpt lat="37.42864" lon="-4.43658">
        <ele>556.72</ele>
        <time>2019-10-15T09:53:01.000Z</time>
      </trkpt>
      <trkpt lat="37.42846" lon="-4.43669">
        <ele>556.92</ele>
        <time>2019-10-15T09:53:06.000Z</time>
      </trkpt>
      <trkpt lat="37.42829" lon="-4.43682">
        <ele>557.1</ele>
        <time>2019-10-15T09:53:11.000Z</time>
      </trkpt>
      <trkpt lat="37.42813" lon="-4.43695">
        <ele>557.27</ele>
        <time>2019-10-15T09:53:16.000Z</time>
      </trkpt>
      <trkpt lat="37.42796" lon="-4.43711">
        <ele>557.45</ele>
        <time>2019-10-15T09:53:21.000Z</time>
      </trkpt>
      <trkpt lat="37.42781" lon="-4.43727">
        <ele>557.69</ele>
        <time>2019-10-15T09:53:26.000Z</time>
      </trkpt>
      <trkpt lat="37.42766" lon="-4.43746">
        <ele>557.91</ele>
        <time>2019-10-15T09:53:31.000Z</time>
      </trkpt>
      <trkpt lat="37.42753" lon="-4.43764">
        <ele>558.01</ele>
        <time>2019-10-15T09:53:36.000Z</time>
      </trkpt>
      <trkpt lat="37.42742" lon="-4.43778">
        <ele>558.05</ele>
        <time>2019-10-15T09:53:41.000Z</time>
      </trkpt>
      <trkpt lat="37.42731" lon="-4.43795">
        <ele>558.1</ele>
        <time>2019-10-15T09:53:46.000Z</time>
      </trkpt>
      <trkpt lat="37.42718" lon="-4.43812">
        <ele>558.29</ele>
        <time>2019-10-15T09:53:51.000Z</time>
      </trkpt>
      <trkpt lat="37.42706" lon="-4.43829">
        <ele>558.4</ele>
        <time>2019-10-15T09:53:56.000Z</time>
      </trkpt>
      <trkpt lat="37.42697" lon="-4.43845">
        <ele>558.5</ele>
        <time>2019-10-15T09:54:01.000Z</time>
      </trkpt>
      <trkpt lat="37.42686" lon="-4.43861">
        <ele>558.6</ele>
        <time>2019-10-15T09:54:06.000Z</time>
      </trkpt>
      <trkpt lat="37.42674" lon="-4.43878">
        <ele>558.7</ele>
        <time>2019-10-15T09:54:11.000Z</time>
      </trkpt>
      <trkpt lat="37.42663" lon="-4.43898">
        <ele>559.22</ele>
        <time>2019-10-15T09:54:16.000Z</time>
      </trkpt>
      <trkpt lat="37.42652" lon="-4.43917">
        <ele>559.47</ele>
        <time>2019-10-15T09:54:21.000Z</time>
      </trkpt>
      <trkpt lat="37.42642" lon="-4.43936">
        <ele>559.58</ele>
        <time>2019-10-15T09:54:26.000Z</time>
      </trkpt>
      <trkpt lat="37.42633" lon="-4.43956">
        <ele>559.75</ele>
        <time>2019-10-15T09:54:31.000Z</time>
      </trkpt>
      <trkpt lat="37.42623" lon="-4.43976">
        <ele>559.97</ele>
        <time>2019-10-15T09:54:36.000Z</time>
      </trkpt>
      <trkpt lat="37.42612" lon="-4.43996">
        <ele>560.11</ele>
        <time>2019-10-15T09:54:41.000Z</time>
      </trkpt>
      <trkpt lat="37.42603" lon="-4.44018">
        <ele>560.24</ele>
        <time>2019-10-15T09:54:46.000Z</time>
      </trkpt>
      <trkpt lat="37.42593" lon="-4.4404">
        <ele>560.34</ele>
        <time>2019-10-15T09:54:51.000Z</time>
      </trkpt>
      <trkpt lat="37.42583" lon="-4.44062">
        <ele>560.41</ele>
        <time>2019-10-15T09:54:56.000Z</time>
      </trkpt>
      <trkpt lat="37.42573" lon="-4.44083">
        <ele>560.47</ele>
        <time>2019-10-15T09:55:01.000Z</time>
      </trkpt>
      <trkpt lat="37.42561" lon="-4.44103">
        <ele>560.52</ele>
        <time>2019-10-15T09:55:06.000Z</time>
      </trkpt>
      <trkpt lat="37.42549" lon="-4.44122">
        <ele>560.58</ele>
        <time>2019-10-15T09:55:11.000Z</time>
      </trkpt>
      <trkpt lat="37.42535" lon="-4.4414">
        <ele>560.69</ele>
        <time>2019-10-15T09:55:16.000Z</time>
      </trkpt>
      <trkpt lat="37.4252" lon="-4.44157">
        <ele>560.81</ele>
        <time>2019-10-15T09:55:21.000Z</time>
      </trkpt>
      <trkpt lat="37.42504" lon="-4.44175">
        <ele>560.9</ele>
        <time>2019-10-15T09:55:26.000Z</time>
      </trkpt>
      <trkpt lat="37.42487" lon="-4.44192">
        <ele>561</ele>
        <time>2019-10-15T09:55:31.000Z</time>
      </trkpt>
      <trkpt lat="37.4247" lon="-4.44208">
        <ele>561.11</ele>
        <time>2019-10-15T09:55:36.000Z</time>
      </trkpt>
      <trkpt lat="37.42452" lon="-4.44224">
        <ele>561.24</ele>
        <time>2019-10-15T09:55:41.000Z</time>
      </trkpt>
      <trkpt lat="37.42433" lon="-4.44243">
        <ele>561.36</ele>
        <time>2019-10-15T09:55:46.000Z</time>
      </trkpt>
      <trkpt lat="37.42415" lon="-4.4426">
        <ele>561.49</ele>
        <time>2019-10-15T09:55:51.000Z</time>
      </trkpt>
      <trkpt lat="37.42396" lon="-4.44278">
        <ele>561.58</ele>
        <time>2019-10-15T09:55:56.000Z</time>
      </trkpt>
      <trkpt lat="37.42376" lon="-4.443">
        <ele>561.68</ele>
        <time>2019-10-15T09:56:01.000Z</time>
      </trkpt>
      <trkpt lat="37.42357" lon="-4.44324">
        <ele>561.75</ele>
        <time>2019-10-15T09:56:06.000Z</time>
      </trkpt>
      <trkpt lat="37.42338" lon="-4.44352">
        <ele>561.83</ele>
        <time>2019-10-15T09:56:11.000Z</time>
      </trkpt>
      <trkpt lat="37.4232" lon="-4.44382">
        <ele>561.89</ele>
        <time>2019-10-15T09:56:16.000Z</time>
      </trkpt>
      <trkpt lat="37.42304" lon="-4.44414">
        <ele>561.95</ele>
        <time>2019-10-15T09:56:21.000Z</time>
      </trkpt>
      <trkpt lat="37.42291" lon="-4.4445">
        <ele>562.01</ele>
        <time>2019-10-15T09:56:26.000Z</time>
      </trkpt>
      <trkpt lat="37.4228" lon="-4.44489">
        <ele>561.96</ele>
        <time>2019-10-15T09:56:31.000Z</time>
      </trkpt>
      <trkpt lat="37.4227" lon="-4.44527">
        <ele>562</ele>
        <time>2019-10-15T09:56:36.000Z</time>
      </trkpt>
      <trkpt lat="37.42265" lon="-4.44563">
        <ele>562.03</ele>
        <time>2019-10-15T09:56:41.000Z</time>
      </trkpt>
      <trkpt lat="37.42261" lon="-4.44596">
        <ele>561.85</ele>
        <time>2019-10-15T09:56:46.000Z</time>
      </trkpt>
      <trkpt lat="37.42258" lon="-4.44633">
        <ele>561.6</ele>
        <time>2019-10-15T09:56:51.000Z</time>
      </trkpt>
      <trkpt lat="37.42255" lon="-4.44672">
        <ele>561.26</ele>
        <time>2019-10-15T09:56:56.000Z</time>
      </trkpt>
      <trkpt lat="37.42252" lon="-4.44711">
        <ele>561.16</ele>
        <time>2019-10-15T09:57:01.000Z</time>
      </trkpt>
      <trkpt lat="37.42249" lon="-4.44748">
        <ele>561.09</ele>
        <time>2019-10-15T09:57:06.000Z</time>
      </trkpt>
      <trkpt lat="37.42245" lon="-4.44784">
        <ele>561.04</ele>
        <time>2019-10-15T09:57:11.000Z</time>
      </trkpt>
      <trkpt lat="37.42243" lon="-4.44818">
        <ele>560.92</ele>
        <time>2019-10-15T09:57:16.000Z</time>
      </trkpt>
      <trkpt lat="37.4224" lon="-4.44853">
        <ele>560.72</ele>
        <time>2019-10-15T09:57:21.000Z</time>
      </trkpt>
      <trkpt lat="37.42242" lon="-4.44888">
        <ele>560.51</ele>
        <time>2019-10-15T09:57:26.000Z</time>
      </trkpt>
      <trkpt lat="37.42244" lon="-4.44921">
        <ele>560.14</ele>
        <time>2019-10-15T09:57:31.000Z</time>
      </trkpt>
      <trkpt lat="37.42249" lon="-4.44955">
        <ele>559.78</ele>
        <time>2019-10-15T09:57:36.000Z</time>
      </trkpt>
      <trkpt lat="37.42257" lon="-4.4499">
        <ele>559.43</ele>
        <time>2019-10-15T09:57:41.000Z</time>
      </trkpt>
      <trkpt lat="37.42264" lon="-4.45025">
        <ele>559.29</ele>
        <time>2019-10-15T09:57:46.000Z</time>
      </trkpt>
      <trkpt lat="37.42274" lon="-4.45061">
        <ele>559.25</ele>
        <time>2019-10-15T09:57:51.000Z</time>
      </trkpt>
      <trkpt lat="37.42285" lon="-4.45097">
        <ele>559.23</ele>
        <time>2019-10-15T09:57:56.000Z</time>
      </trkpt>
      <trkpt lat="37.42296" lon="-4.4513">
        <ele>559.21</ele>
        <time>2019-10-15T09:58:01.000Z</time>
      </trkpt>
      <trkpt lat="37.42308" lon="-4.45162">
        <ele>559.05</ele>
        <time>2019-10-15T09:58:06.000Z</time>
      </trkpt>
      <trkpt lat="37.42319" lon="-4.45193">
        <ele>558.85</ele>
        <time>2019-10-15T09:58:11.000Z</time>
      </trkpt>
      <trkpt lat="37.42329" lon="-4.45225">
        <ele>558.71</ele>
        <time>2019-10-15T09:58:16.000Z</time>
      </trkpt>
      <trkpt lat="37.42339" lon="-4.45257">
        <ele>558.56</ele>
        <time>2019-10-15T09:58:21.000Z</time>
      </trkpt>
      <trkpt lat="37.42347" lon="-4.45291">
        <ele>558.27</ele>
        <time>2019-10-15T09:58:26.000Z</time>
      </trkpt>
      <trkpt lat="37.42353" lon="-4.45326">
        <ele>558.05</ele>
        <time>2019-10-15T09:58:31.000Z</time>
      </trkpt>
      <trkpt lat="37.42356" lon="-4.45359">
        <ele>557.83</ele>
        <time>2019-10-15T09:58:36.000Z</time>
      </trkpt>
      <trkpt lat="37.42357" lon="-4.45394">
        <ele>557.69</ele>
        <time>2019-10-15T09:58:41.000Z</time>
      </trkpt>
      <trkpt lat="37.42356" lon="-4.45431">
        <ele>557.6</ele>
        <time>2019-10-15T09:58:46.000Z</time>
      </trkpt>
      <trkpt lat="37.42354" lon="-4.45468">
        <ele>557.44</ele>
        <time>2019-10-15T09:58:51.000Z</time>
      </trkpt>
      <trkpt lat="37.4235" lon="-4.45504">
        <ele>556.8</ele>
        <time>2019-10-15T09:58:56.000Z</time>
      </trkpt>
      <trkpt lat="37.42342" lon="-4.45542">
        <ele>555.98</ele>
        <time>2019-10-15T09:59:01.000Z</time>
      </trkpt>
      <trkpt lat="37.4233" lon="-4.45579">
        <ele>555.24</ele>
        <time>2019-10-15T09:59:06.000Z</time>
      </trkpt>
      <trkpt lat="37.42316" lon="-4.45614">
        <ele>554.41</ele>
        <time>2019-10-15T09:59:11.000Z</time>
      </trkpt>
      <trkpt lat="37.423" lon="-4.45646">
        <ele>553.72</ele>
        <time>2019-10-15T09:59:16.000Z</time>
      </trkpt>
      <trkpt lat="37.42284" lon="-4.45678">
        <ele>553.27</ele>
        <time>2019-10-15T09:59:21.000Z</time>
      </trkpt>
      <trkpt lat="37.42264" lon="-4.45708">
        <ele>552.76</ele>
        <time>2019-10-15T09:59:26.000Z</time>
      </trkpt>
      <trkpt lat="37.42244" lon="-4.45735">
        <ele>552.45</ele>
        <time>2019-10-15T09:59:30.999Z</time>
      </trkpt>
      <trkpt lat="37.42223" lon="-4.45761">
        <ele>552.01</ele>
        <time>2019-10-15T09:59:35.999Z</time>
      </trkpt>
      <trkpt lat="37.42204" lon="-4.45785">
        <ele>551.25</ele>
        <time>2019-10-15T09:59:40.999Z</time>
      </trkpt>
      <trkpt lat="37.42187" lon="-4.45807">
        <ele>550.59</ele>
        <time>2019-10-15T09:59:45.999Z</time>
      </trkpt>
      <trkpt lat="37.42171" lon="-4.45825">
        <ele>549.99</ele>
        <time>2019-10-15T09:59:50.999Z</time>
      </trkpt>
      <trkpt lat="37.42153" lon="-4.4585">
        <ele>549.53</ele>
        <time>2019-10-15T09:59:55.999Z</time>
      </trkpt>
      <trkpt lat="37.42135" lon="-4.45873">
        <ele>549.07</ele>
        <time>2019-10-15T10:00:00.999Z</time>
      </trkpt>
      <trkpt lat="37.42114" lon="-4.45898">
        <ele>548.38</ele>
        <time>2019-10-15T10:00:05.999Z</time>
      </trkpt>
      <trkpt lat="37.42093" lon="-4.45924">
        <ele>548.09</ele>
        <time>2019-10-15T10:00:10.999Z</time>
      </trkpt>
      <trkpt lat="37.42073" lon="-4.4595">
        <ele>547.81</ele>
        <time>2019-10-15T10:00:15.999Z</time>
      </trkpt>
      <trkpt lat="37.42053" lon="-4.45977">
        <ele>547.48</ele>
        <time>2019-10-15T10:00:20.999Z</time>
      </trkpt>
      <trkpt lat="37.42034" lon="-4.46005">
        <ele>547.23</ele>
        <time>2019-10-15T10:00:25.999Z</time>
      </trkpt>
      <trkpt lat="37.42016" lon="-4.46036">
        <ele>547.04</ele>
        <time>2019-10-15T10:00:30.999Z</time>
      </trkpt>
      <trkpt lat="37.42001" lon="-4.4607">
        <ele>546.67</ele>
        <time>2019-10-15T10:00:35.999Z</time>
      </trkpt>
      <trkpt lat="37.41989" lon="-4.46103">
        <ele>545.92</ele>
        <time>2019-10-15T10:00:40.999Z</time>
      </trkpt>
      <trkpt lat="37.41978" lon="-4.46137">
        <ele>545.13</ele>
        <time>2019-10-15T10:00:45.999Z</time>
      </trkpt>
      <trkpt lat="37.4197" lon="-4.4617">
        <ele>544.19</ele>
        <time>2019-10-15T10:00:50.999Z</time>
      </trkpt>
      <trkpt lat="37.41965" lon="-4.46204">
        <ele>543.22</ele>
        <time>2019-10-15T10:00:55.999Z</time>
      </trkpt>
      <trkpt lat="37.4196" lon="-4.46238">
        <ele>542.43</ele>
        <time>2019-10-15T10:01:00.999Z</time>
      </trkpt>
      <trkpt lat="37.41956" lon="-4.46274">
        <ele>541.82</ele>
        <time>2019-10-15T10:01:05.999Z</time>
      </trkpt>
      <trkpt lat="37.41953" lon="-4.46311">
        <ele>541.23</ele>
        <time>2019-10-15T10:01:10.999Z</time>
      </trkpt>
      <trkpt lat="37.4195" lon="-4.46346">
        <ele>540.47</ele>
        <time>2019-10-15T10:01:15.999Z</time>
      </trkpt>
      <trkpt lat="37.41946" lon="-4.46381">
        <ele>539.91</ele>
        <time>2019-10-15T10:01:20.999Z</time>
      </trkpt>
      <trkpt lat="37.41942" lon="-4.46415">
        <ele>539.58</ele>
        <time>2019-10-15T10:01:25.999Z</time>
      </trkpt>
      <trkpt lat="37.41936" lon="-4.4645">
        <ele>539.31</ele>
        <time>2019-10-15T10:01:30.999Z</time>
      </trkpt>
      <trkpt lat="37.41928" lon="-4.46484">
        <ele>539.08</ele>
        <time>2019-10-15T10:01:35.999Z</time>
      </trkpt>
      <trkpt lat="37.41918" lon="-4.46519">
        <ele>538.92</ele>
        <time>2019-10-15T10:01:40.999Z</time>
      </trkpt>
      <trkpt lat="37.41906" lon="-4.46557">
        <ele>538.67</ele>
        <time>2019-10-15T10:01:45.999Z</time>
      </trkpt>
      <trkpt lat="37.41892" lon="-4.46591">
        <ele>538.33</ele>
        <time>2019-10-15T10:01:50.999Z</time>
      </trkpt>
      <trkpt lat="37.41873" lon="-4.46622">
        <ele>537.52</ele>
        <time>2019-10-15T10:01:55.999Z</time>
      </trkpt>
      <trkpt lat="37.41851" lon="-4.46652">
        <ele>536.66</ele>
        <time>2019-10-15T10:02:00.999Z</time>
      </trkpt>
      <trkpt lat="37.4183" lon="-4.46684">
        <ele>536.34</ele>
        <time>2019-10-15T10:02:05.999Z</time>
      </trkpt>
      <trkpt lat="37.41809" lon="-4.46715">
        <ele>535.85</ele>
        <time>2019-10-15T10:02:10.999Z</time>
      </trkpt>
      <trkpt lat="37.41789" lon="-4.46746">
        <ele>535.17</ele>
        <time>2019-10-15T10:02:15.999Z</time>
      </trkpt>
      <trkpt lat="37.41769" lon="-4.46776">
        <ele>534.19</ele>
        <time>2019-10-15T10:02:20.999Z</time>
      </trkpt>
      <trkpt lat="37.41751" lon="-4.46809">
        <ele>533.31</ele>
        <time>2019-10-15T10:02:25.999Z</time>
      </trkpt>
      <trkpt lat="37.41735" lon="-4.46845">
        <ele>532.9</ele>
        <time>2019-10-15T10:02:30.999Z</time>
      </trkpt>
      <trkpt lat="37.41722" lon="-4.4688">
        <ele>532.42</ele>
        <time>2019-10-15T10:02:35.999Z</time>
      </trkpt>
      <trkpt lat="37.41711" lon="-4.46918">
        <ele>531.54</ele>
        <time>2019-10-15T10:02:40.999Z</time>
      </trkpt>
      <trkpt lat="37.41702" lon="-4.46955">
        <ele>530.75</ele>
        <time>2019-10-15T10:02:45.999Z</time>
      </trkpt>
      <trkpt lat="37.41697" lon="-4.46993">
        <ele>530.24</ele>
        <time>2019-10-15T10:02:50.999Z</time>
      </trkpt>
      <trkpt lat="37.41695" lon="-4.47029">
        <ele>529.44</ele>
        <time>2019-10-15T10:02:55.999Z</time>
      </trkpt>
      <trkpt lat="37.41693" lon="-4.47062">
        <ele>528.82</ele>
        <time>2019-10-15T10:03:00.999Z</time>
      </trkpt>
      <trkpt lat="37.41695" lon="-4.47096">
        <ele>527.93</ele>
        <time>2019-10-15T10:03:05.999Z</time>
      </trkpt>
      <trkpt lat="37.41701" lon="-4.47132">
        <ele>527.32</ele>
        <time>2019-10-15T10:03:10.999Z</time>
      </trkpt>
      <trkpt lat="37.41708" lon="-4.47167">
        <ele>526.37</ele>
        <time>2019-10-15T10:03:15.999Z</time>
      </trkpt>
      <trkpt lat="37.41715" lon="-4.47201">
        <ele>525.39</ele>
        <time>2019-10-15T10:03:20.999Z</time>
      </trkpt>
      <trkpt lat="37.41724" lon="-4.47236">
        <ele>524.97</ele>
        <time>2019-10-15T10:03:25.999Z</time>
      </trkpt>
      <trkpt lat="37.41736" lon="-4.47269">
        <ele>524.77</ele>
        <time>2019-10-15T10:03:30.999Z</time>
      </trkpt>
      <trkpt lat="37.41746" lon="-4.47298">
        <ele>524.55</ele>
        <time>2019-10-15T10:03:35.999Z</time>
      </trkpt>
      <trkpt lat="37.41756" lon="-4.47329">
        <ele>524.39</ele>
        <time>2019-10-15T10:03:40.999Z</time>
      </trkpt>
      <trkpt lat="37.41766" lon="-4.47357">
        <ele>524.17</ele>
        <time>2019-10-15T10:03:45.999Z</time>
      </trkpt>
      <trkpt lat="37.41776" lon="-4.47387">
        <ele>524.01</ele>
        <time>2019-10-15T10:03:50.999Z</time>
      </trkpt>
      <trkpt lat="37.41786" lon="-4.47416">
        <ele>523.87</ele>
        <time>2019-10-15T10:03:55.999Z</time>
      </trkpt>
      <trkpt lat="37.41796" lon="-4.47444">
        <ele>523.7</ele>
        <time>2019-10-15T10:04:00.999Z</time>
      </trkpt>
      <trkpt lat="37.41807" lon="-4.47474">
        <ele>523.54</ele>
        <time>2019-10-15T10:04:05.999Z</time>
      </trkpt>
      <trkpt lat="37.41817" lon="-4.47503">
        <ele>523.39</ele>
        <time>2019-10-15T10:04:10.999Z</time>
      </trkpt>
      <trkpt lat="37.41828" lon="-4.47533">
        <ele>523.24</ele>
        <time>2019-10-15T10:04:15.999Z</time>
      </trkpt>
      <trkpt lat="37.41838" lon="-4.47561">
        <ele>523.1</ele>
        <time>2019-10-15T10:04:20.999Z</time>
      </trkpt>
      <trkpt lat="37.41848" lon="-4.47587">
        <ele>522.92</ele>
        <time>2019-10-15T10:04:25.999Z</time>
      </trkpt>
      <trkpt lat="37.41857" lon="-4.47614">
        <ele>522.75</ele>
        <time>2019-10-15T10:04:30.999Z</time>
      </trkpt>
      <trkpt lat="37.41867" lon="-4.47641">
        <ele>522.59</ele>
        <time>2019-10-15T10:04:35.999Z</time>
      </trkpt>
      <trkpt lat="37.41875" lon="-4.47668">
        <ele>522.47</ele>
        <time>2019-10-15T10:04:40.999Z</time>
      </trkpt>
      <trkpt lat="37.41885" lon="-4.47697">
        <ele>522.41</ele>
        <time>2019-10-15T10:04:45.999Z</time>
      </trkpt>
      <trkpt lat="37.41893" lon="-4.47721">
        <ele>522.36</ele>
        <time>2019-10-15T10:04:50.999Z</time>
      </trkpt>
      <trkpt lat="37.41904" lon="-4.47751">
        <ele>522.14</ele>
        <time>2019-10-15T10:04:55.999Z</time>
      </trkpt>
      <trkpt lat="37.41914" lon="-4.47779">
        <ele>521.9</ele>
        <time>2019-10-15T10:05:00.999Z</time>
      </trkpt>
      <trkpt lat="37.41924" lon="-4.47808">
        <ele>521.63</ele>
        <time>2019-10-15T10:05:05.999Z</time>
      </trkpt>
      <trkpt lat="37.41935" lon="-4.47839">
        <ele>521.41</ele>
        <time>2019-10-15T10:05:10.999Z</time>
      </trkpt>
      <trkpt lat="37.41946" lon="-4.47869">
        <ele>521.29</ele>
        <time>2019-10-15T10:05:15.999Z</time>
      </trkpt>
      <trkpt lat="37.41957" lon="-4.47899">
        <ele>521.15</ele>
        <time>2019-10-15T10:05:20.999Z</time>
      </trkpt>
      <trkpt lat="37.41967" lon="-4.4793">
        <ele>520.91</ele>
        <time>2019-10-15T10:05:25.999Z</time>
      </trkpt>
      <trkpt lat="37.41977" lon="-4.47961">
        <ele>520.68</ele>
        <time>2019-10-15T10:05:30.999Z</time>
      </trkpt>
      <trkpt lat="37.41987" lon="-4.47991">
        <ele>520.5</ele>
        <time>2019-10-15T10:05:35.999Z</time>
      </trkpt>
      <trkpt lat="37.41997" lon="-4.48021">
        <ele>520.32</ele>
        <time>2019-10-15T10:05:40.999Z</time>
      </trkpt>
      <trkpt lat="37.4201" lon="-4.48054">
        <ele>520.03</ele>
        <time>2019-10-15T10:05:45.999Z</time>
      </trkpt>
      <trkpt lat="37.42022" lon="-4.48088">
        <ele>519.78</ele>
        <time>2019-10-15T10:05:50.999Z</time>
      </trkpt>
      <trkpt lat="37.42034" lon="-4.48121">
        <ele>519.55</ele>
        <time>2019-10-15T10:05:55.999Z</time>
      </trkpt>
      <trkpt lat="37.42044" lon="-4.4815">
        <ele>519.41</ele>
        <time>2019-10-15T10:06:00.999Z</time>
      </trkpt>
      <trkpt lat="37.42049" lon="-4.48173">
        <ele>519.29</ele>
        <time>2019-10-15T10:06:05.999Z</time>
      </trkpt>
      <trkpt lat="37.42052" lon="-4.48191">
        <ele>519.26</ele>
        <time>2019-10-15T10:06:10.999Z</time>
      </trkpt>
      <trkpt lat="37.42053" lon="-4.48217">
        <ele>519.01</ele>
        <time>2019-10-15T10:06:15.999Z</time>
      </trkpt>
      <trkpt lat="37.42057" lon="-4.48252">
        <ele>518.77</ele>
        <time>2019-10-15T10:06:20.999Z</time>
      </trkpt>
      <trkpt lat="37.4206" lon="-4.48286">
        <ele>518.62</ele>
        <time>2019-10-15T10:06:25.999Z</time>
      </trkpt>
      <trkpt lat="37.42062" lon="-4.48317">
        <ele>518.48</ele>
        <time>2019-10-15T10:06:30.999Z</time>
      </trkpt>
      <trkpt lat="37.42061" lon="-4.4835">
        <ele>518.35</ele>
        <time>2019-10-15T10:06:35.999Z</time>
      </trkpt>
      <trkpt lat="37.42058" lon="-4.48386">
        <ele>518.19</ele>
        <time>2019-10-15T10:06:40.999Z</time>
      </trkpt>
      <trkpt lat="37.42054" lon="-4.48422">
        <ele>518.07</ele>
        <time>2019-10-15T10:06:45.999Z</time>
      </trkpt>
      <trkpt lat="37.42048" lon="-4.48458">
        <ele>517.95</ele>
        <time>2019-10-15T10:06:50.999Z</time>
      </trkpt>
      <trkpt lat="37.4204" lon="-4.48494">
        <ele>517.81</ele>
        <time>2019-10-15T10:06:55.999Z</time>
      </trkpt>
      <trkpt lat="37.42031" lon="-4.48532">
        <ele>517.44</ele>
        <time>2019-10-15T10:07:00.999Z</time>
      </trkpt>
      <trkpt lat="37.4202" lon="-4.4857">
        <ele>516.97</ele>
        <time>2019-10-15T10:07:05.999Z</time>
      </trkpt>
      <trkpt lat="37.42009" lon="-4.48606">
        <ele>516.33</ele>
        <time>2019-10-15T10:07:10.999Z</time>
      </trkpt>
      <trkpt lat="37.41997" lon="-4.48643">
        <ele>515.47</ele>
        <time>2019-10-15T10:07:15.999Z</time>
      </trkpt>
      <trkpt lat="37.41986" lon="-4.4868">
        <ele>514.76</ele>
        <time>2019-10-15T10:07:20.999Z</time>
      </trkpt>
      <trkpt lat="37.41975" lon="-4.48715">
        <ele>513.83</ele>
        <time>2019-10-15T10:07:25.999Z</time>
      </trkpt>
      <trkpt lat="37.41964" lon="-4.48753">
        <ele>513.02</ele>
        <time>2019-10-15T10:07:30.999Z</time>
      </trkpt>
      <trkpt lat="37.41954" lon="-4.4879">
        <ele>512.65</ele>
        <time>2019-10-15T10:07:35.999Z</time>
      </trkpt>
      <trkpt lat="37.41942" lon="-4.48827">
        <ele>512.4</ele>
        <time>2019-10-15T10:07:40.999Z</time>
      </trkpt>
      <trkpt lat="37.41933" lon="-4.48861">
        <ele>511.76</ele>
        <time>2019-10-15T10:07:45.999Z</time>
      </trkpt>
      <trkpt lat="37.41922" lon="-4.48897">
        <ele>511.27</ele>
        <time>2019-10-15T10:07:50.999Z</time>
      </trkpt>
      <trkpt lat="37.41911" lon="-4.48933">
        <ele>510.57</ele>
        <time>2019-10-15T10:07:55.999Z</time>
      </trkpt>
      <trkpt lat="37.41901" lon="-4.48972">
        <ele>509.87</ele>
        <time>2019-10-15T10:08:00.999Z</time>
      </trkpt>
      <trkpt lat="37.41889" lon="-4.49011">
        <ele>509.47</ele>
        <time>2019-10-15T10:08:05.999Z</time>
      </trkpt>
      <trkpt lat="37.41878" lon="-4.49047">
        <ele>509.47</ele>
        <time>2019-10-15T10:08:10.999Z</time>
      </trkpt>
      <trkpt lat="37.41868" lon="-4.49082">
        <ele>508.91</ele>
        <time>2019-10-15T10:08:15.999Z</time>
      </trkpt>
      <trkpt lat="37.41856" lon="-4.49117">
        <ele>507.86</ele>
        <time>2019-10-15T10:08:20.999Z</time>
      </trkpt>
      <trkpt lat="37.41844" lon="-4.49152">
        <ele>507</ele>
        <time>2019-10-15T10:08:25.999Z</time>
      </trkpt>
      <trkpt lat="37.41833" lon="-4.49186">
        <ele>506.34</ele>
        <time>2019-10-15T10:08:30.999Z</time>
      </trkpt>
      <trkpt lat="37.41821" lon="-4.49222">
        <ele>505.25</ele>
        <time>2019-10-15T10:08:35.999Z</time>
      </trkpt>
      <trkpt lat="37.41811" lon="-4.49259">
        <ele>504.25</ele>
        <time>2019-10-15T10:08:40.999Z</time>
      </trkpt>
      <trkpt lat="37.418" lon="-4.49295">
        <ele>503.53</ele>
        <time>2019-10-15T10:08:45.999Z</time>
      </trkpt>
      <trkpt lat="37.41791" lon="-4.49327">
        <ele>502.99</ele>
        <time>2019-10-15T10:08:50.999Z</time>
      </trkpt>
      <trkpt lat="37.41785" lon="-4.49344">
        <ele>502.88</ele>
        <time>2019-10-15T10:08:55.999Z</time>
      </trkpt>
      <trkpt lat="37.41778" lon="-4.49361">
        <ele>502.79</ele>
        <time>2019-10-15T10:09:00.999Z</time>
      </trkpt>
      <trkpt lat="37.41771" lon="-4.49386">
        <ele>501.89</ele>
        <time>2019-10-15T10:09:05.999Z</time>
      </trkpt>
      <trkpt lat="37.41763" lon="-4.49413">
        <ele>500.84</ele>
        <time>2019-10-15T10:09:10.999Z</time>
      </trkpt>
      <trkpt lat="37.41754" lon="-4.49441">
        <ele>500.28</ele>
        <time>2019-10-15T10:09:15.999Z</time>
      </trkpt>
      <trkpt lat="37.41746" lon="-4.49469">
        <ele>499.99</ele>
        <time>2019-10-15T10:09:20.999Z</time>
      </trkpt>
      <trkpt lat="37.41737" lon="-4.49497">
        <ele>499.91</ele>
        <time>2019-10-15T10:09:25.999Z</time>
      </trkpt>
      <trkpt lat="37.41729" lon="-4.49525">
        <ele>499.9</ele>
        <time>2019-10-15T10:09:30.999Z</time>
      </trkpt>
      <trkpt lat="37.41721" lon="-4.49552">
        <ele>499.9</ele>
        <time>2019-10-15T10:09:35.999Z</time>
      </trkpt>
      <trkpt lat="37.41715" lon="-4.49577">
        <ele>499.87</ele>
        <time>2019-10-15T10:09:40.999Z</time>
      </trkpt>
      <trkpt lat="37.41711" lon="-4.49594">
        <ele>499.86</ele>
        <time>2019-10-15T10:09:45.999Z</time>
      </trkpt>
      <trkpt lat="37.41707" lon="-4.49606">
        <ele>499.85</ele>
        <time>2019-10-15T10:09:50.999Z</time>
      </trkpt>
      <trkpt lat="37.41714" lon="-4.49612">
        <ele>500.14</ele>
        <time>2019-10-15T10:11:35.999Z</time>
      </trkpt>
      <trkpt lat="37.41714" lon="-4.49625">
        <ele>500.18</ele>
        <time>2019-10-15T10:15:21.999Z</time>
      </trkpt>
      <trkpt lat="37.41705" lon="-4.49643">
        <ele>500.12</ele>
        <time>2019-10-15T10:15:26.999Z</time>
      </trkpt>
      <trkpt lat="37.41696" lon="-4.49663">
        <ele>500.08</ele>
        <time>2019-10-15T10:15:31.999Z</time>
      </trkpt>
      <trkpt lat="37.41687" lon="-4.49685">
        <ele>499.97</ele>
        <time>2019-10-15T10:15:36.999Z</time>
      </trkpt>
      <trkpt lat="37.41679" lon="-4.49708">
        <ele>499.86</ele>
        <time>2019-10-15T10:15:41.999Z</time>
      </trkpt>
      <trkpt lat="37.41671" lon="-4.4973">
        <ele>499.8</ele>
        <time>2019-10-15T10:15:46.999Z</time>
      </trkpt>
      <trkpt lat="37.41663" lon="-4.49752">
        <ele>499.78</ele>
        <time>2019-10-15T10:15:51.999Z</time>
      </trkpt>
      <trkpt lat="37.41656" lon="-4.49774">
        <ele>499.75</ele>
        <time>2019-10-15T10:15:56.999Z</time>
      </trkpt>
      <trkpt lat="37.41649" lon="-4.49799">
        <ele>499.73</ele>
        <time>2019-10-15T10:16:01.999Z</time>
      </trkpt>
      <trkpt lat="37.41641" lon="-4.49824">
        <ele>499.72</ele>
        <time>2019-10-15T10:16:06.999Z</time>
      </trkpt>
      <trkpt lat="37.41636" lon="-4.49849">
        <ele>499.7</ele>
        <time>2019-10-15T10:16:11.999Z</time>
      </trkpt>
      <trkpt lat="37.4163" lon="-4.49874">
        <ele>499.65</ele>
        <time>2019-10-15T10:16:16.999Z</time>
      </trkpt>
      <trkpt lat="37.41626" lon="-4.49902">
        <ele>499.59</ele>
        <time>2019-10-15T10:16:21.999Z</time>
      </trkpt>
      <trkpt lat="37.41622" lon="-4.49931">
        <ele>499.54</ele>
        <time>2019-10-15T10:16:26.999Z</time>
      </trkpt>
      <trkpt lat="37.41619" lon="-4.49956">
        <ele>499.5</ele>
        <time>2019-10-15T10:16:31.000Z</time>
      </trkpt>
      <trkpt lat="37.41617" lon="-4.49985">
        <ele>499.47</ele>
        <time>2019-10-15T10:16:36.000Z</time>
      </trkpt>
      <trkpt lat="37.41618" lon="-4.50011">
        <ele>499.44</ele>
        <time>2019-10-15T10:16:41.000Z</time>
      </trkpt>
      <trkpt lat="37.41619" lon="-4.50034">
        <ele>499.44</ele>
        <time>2019-10-15T10:16:46.000Z</time>
      </trkpt>
      <trkpt lat="37.41621" lon="-4.50052">
        <ele>499.43</ele>
        <time>2019-10-15T10:16:51.000Z</time>
      </trkpt>
      <trkpt lat="37.41622" lon="-4.5007">
        <ele>499.43</ele>
        <time>2019-10-15T10:16:56.000Z</time>
      </trkpt>
      <trkpt lat="37.41623" lon="-4.50091">
        <ele>499.41</ele>
        <time>2019-10-15T10:17:01.000Z</time>
      </trkpt>
      <trkpt lat="37.41625" lon="-4.50114">
        <ele>499.37</ele>
        <time>2019-10-15T10:17:06.000Z</time>
      </trkpt>
      <trkpt lat="37.41628" lon="-4.50141">
        <ele>499.27</ele>
        <time>2019-10-15T10:17:11.000Z</time>
      </trkpt>
      <trkpt lat="37.4163" lon="-4.50173">
        <ele>499.2</ele>
        <time>2019-10-15T10:17:16.000Z</time>
      </trkpt>
      <trkpt lat="37.41633" lon="-4.50213">
        <ele>499.11</ele>
        <time>2019-10-15T10:17:21.000Z</time>
      </trkpt>
      <trkpt lat="37.41637" lon="-4.50258">
        <ele>498.95</ele>
        <time>2019-10-15T10:17:26.000Z</time>
      </trkpt>
      <trkpt lat="37.41641" lon="-4.50305">
        <ele>498.72</ele>
        <time>2019-10-15T10:17:31.000Z</time>
      </trkpt>
      <trkpt lat="37.41645" lon="-4.5035">
        <ele>498.5</ele>
        <time>2019-10-15T10:17:36.000Z</time>
      </trkpt>
      <trkpt lat="37.41649" lon="-4.50393">
        <ele>498.38</ele>
        <time>2019-10-15T10:17:41.000Z</time>
      </trkpt>
      <trkpt lat="37.41652" lon="-4.50434">
        <ele>498.06</ele>
        <time>2019-10-15T10:17:46.000Z</time>
      </trkpt>
      <trkpt lat="37.41656" lon="-4.50475">
        <ele>497.71</ele>
        <time>2019-10-15T10:17:51.000Z</time>
      </trkpt>
      <trkpt lat="37.4166" lon="-4.50515">
        <ele>497.26</ele>
        <time>2019-10-15T10:17:56.000Z</time>
      </trkpt>
      <trkpt lat="37.41663" lon="-4.50554">
        <ele>497.06</ele>
        <time>2019-10-15T10:18:01.000Z</time>
      </trkpt>
      <trkpt lat="37.41667" lon="-4.50593">
        <ele>496.63</ele>
        <time>2019-10-15T10:18:06.000Z</time>
      </trkpt>
      <trkpt lat="37.41671" lon="-4.50631">
        <ele>496.23</ele>
        <time>2019-10-15T10:18:11.000Z</time>
      </trkpt>
      <trkpt lat="37.41675" lon="-4.50667">
        <ele>495.36</ele>
        <time>2019-10-15T10:18:16.000Z</time>
      </trkpt>
      <trkpt lat="37.41678" lon="-4.50704">
        <ele>494.64</ele>
        <time>2019-10-15T10:18:21.000Z</time>
      </trkpt>
      <trkpt lat="37.41681" lon="-4.50738">
        <ele>494.15</ele>
        <time>2019-10-15T10:18:26.000Z</time>
      </trkpt>
      <trkpt lat="37.41683" lon="-4.50775">
        <ele>493.68</ele>
        <time>2019-10-15T10:18:31.000Z</time>
      </trkpt>
      <trkpt lat="37.41686" lon="-4.50811">
        <ele>493.38</ele>
        <time>2019-10-15T10:18:36.000Z</time>
      </trkpt>
      <trkpt lat="37.41689" lon="-4.50849">
        <ele>492.69</ele>
        <time>2019-10-15T10:18:41.000Z</time>
      </trkpt>
      <trkpt lat="37.41693" lon="-4.50886">
        <ele>491.73</ele>
        <time>2019-10-15T10:18:46.000Z</time>
      </trkpt>
      <trkpt lat="37.41697" lon="-4.50925">
        <ele>490.92</ele>
        <time>2019-10-15T10:18:51.000Z</time>
      </trkpt>
      <trkpt lat="37.41701" lon="-4.50964">
        <ele>490.47</ele>
        <time>2019-10-15T10:18:56.000Z</time>
      </trkpt>
      <trkpt lat="37.41704" lon="-4.51004">
        <ele>490.17</ele>
        <time>2019-10-15T10:19:01.000Z</time>
      </trkpt>
      <trkpt lat="37.41707" lon="-4.51042">
        <ele>490.49</ele>
        <time>2019-10-15T10:19:06.000Z</time>
      </trkpt>
      <trkpt lat="37.41711" lon="-4.51079">
        <ele>490.28</ele>
        <time>2019-10-15T10:19:11.000Z</time>
      </trkpt>
      <trkpt lat="37.41715" lon="-4.51117">
        <ele>489.95</ele>
        <time>2019-10-15T10:19:16.000Z</time>
      </trkpt>
      <trkpt lat="37.41718" lon="-4.51152">
        <ele>489.39</ele>
        <time>2019-10-15T10:19:21.000Z</time>
      </trkpt>
      <trkpt lat="37.41722" lon="-4.51188">
        <ele>488.95</ele>
        <time>2019-10-15T10:19:26.000Z</time>
      </trkpt>
      <trkpt lat="37.41728" lon="-4.51226">
        <ele>488.64</ele>
        <time>2019-10-15T10:19:31.000Z</time>
      </trkpt>
      <trkpt lat="37.41733" lon="-4.51265">
        <ele>488.24</ele>
        <time>2019-10-15T10:19:36.000Z</time>
      </trkpt>
      <trkpt lat="37.41739" lon="-4.51304">
        <ele>487.59</ele>
        <time>2019-10-15T10:19:41.000Z</time>
      </trkpt>
      <trkpt lat="37.4175" lon="-4.51342">
        <ele>486.71</ele>
        <time>2019-10-15T10:19:46.000Z</time>
      </trkpt>
      <trkpt lat="37.41765" lon="-4.51379">
        <ele>486.36</ele>
        <time>2019-10-15T10:19:51.000Z</time>
      </trkpt>
      <trkpt lat="37.41779" lon="-4.51415">
        <ele>486.3</ele>
        <time>2019-10-15T10:19:56.000Z</time>
      </trkpt>
      <trkpt lat="37.41794" lon="-4.5145">
        <ele>486.39</ele>
        <time>2019-10-15T10:20:01.000Z</time>
      </trkpt>
      <trkpt lat="37.41807" lon="-4.51486">
        <ele>486.07</ele>
        <time>2019-10-15T10:20:06.000Z</time>
      </trkpt>
      <trkpt lat="37.41821" lon="-4.51521">
        <ele>485.54</ele>
        <time>2019-10-15T10:20:11.000Z</time>
      </trkpt>
      <trkpt lat="37.41836" lon="-4.51556">
        <ele>484.63</ele>
        <time>2019-10-15T10:20:16.000Z</time>
      </trkpt>
      <trkpt lat="37.4185" lon="-4.5159">
        <ele>483.78</ele>
        <time>2019-10-15T10:20:21.000Z</time>
      </trkpt>
      <trkpt lat="37.41864" lon="-4.51623">
        <ele>482.84</ele>
        <time>2019-10-15T10:20:26.000Z</time>
      </trkpt>
      <trkpt lat="37.41877" lon="-4.51657">
        <ele>482.08</ele>
        <time>2019-10-15T10:20:31.000Z</time>
      </trkpt>
      <trkpt lat="37.41891" lon="-4.51692">
        <ele>481.08</ele>
        <time>2019-10-15T10:20:36.000Z</time>
      </trkpt>
      <trkpt lat="37.41907" lon="-4.51726">
        <ele>480.12</ele>
        <time>2019-10-15T10:20:41.000Z</time>
      </trkpt>
      <trkpt lat="37.41922" lon="-4.5176">
        <ele>479.91</ele>
        <time>2019-10-15T10:20:46.000Z</time>
      </trkpt>
      <trkpt lat="37.41937" lon="-4.51795">
        <ele>479.79</ele>
        <time>2019-10-15T10:20:51.000Z</time>
      </trkpt>
      <trkpt lat="37.41953" lon="-4.51832">
        <ele>479.44</ele>
        <time>2019-10-15T10:20:56.000Z</time>
      </trkpt>
      <trkpt lat="37.41968" lon="-4.51869">
        <ele>479.59</ele>
        <time>2019-10-15T10:21:01.000Z</time>
      </trkpt>
      <trkpt lat="37.41984" lon="-4.51903">
        <ele>479.81</ele>
        <time>2019-10-15T10:21:06.000Z</time>
      </trkpt>
      <trkpt lat="37.41997" lon="-4.51937">
        <ele>479.72</ele>
        <time>2019-10-15T10:21:11.000Z</time>
      </trkpt>
      <trkpt lat="37.42012" lon="-4.51974">
        <ele>479.77</ele>
        <time>2019-10-15T10:21:16.000Z</time>
      </trkpt>
      <trkpt lat="37.42027" lon="-4.52008">
        <ele>480.32</ele>
        <time>2019-10-15T10:21:21.000Z</time>
      </trkpt>
      <trkpt lat="37.4204" lon="-4.52043">
        <ele>480.17</ele>
        <time>2019-10-15T10:21:26.000Z</time>
      </trkpt>
      <trkpt lat="37.42054" lon="-4.52077">
        <ele>479.39</ele>
        <time>2019-10-15T10:21:31.000Z</time>
      </trkpt>
      <trkpt lat="37.42066" lon="-4.52115">
        <ele>479.51</ele>
        <time>2019-10-15T10:21:36.000Z</time>
      </trkpt>
      <trkpt lat="37.42079" lon="-4.5215">
        <ele>479.52</ele>
        <time>2019-10-15T10:21:41.000Z</time>
      </trkpt>
      <trkpt lat="37.42094" lon="-4.52183">
        <ele>479.36</ele>
        <time>2019-10-15T10:21:46.000Z</time>
      </trkpt>
      <trkpt lat="37.42108" lon="-4.52217">
        <ele>479.61</ele>
        <time>2019-10-15T10:21:51.000Z</time>
      </trkpt>
      <trkpt lat="37.42119" lon="-4.52248">
        <ele>480.05</ele>
        <time>2019-10-15T10:21:56.000Z</time>
      </trkpt>
      <trkpt lat="37.4213" lon="-4.52271">
        <ele>480.26</ele>
        <time>2019-10-15T10:22:01.000Z</time>
      </trkpt>
      <trkpt lat="37.42138" lon="-4.52287">
        <ele>480.19</ele>
        <time>2019-10-15T10:22:06.000Z</time>
      </trkpt>
      <trkpt lat="37.42148" lon="-4.5231">
        <ele>479.56</ele>
        <time>2019-10-15T10:22:11.000Z</time>
      </trkpt>
      <trkpt lat="37.42161" lon="-4.52337">
        <ele>477.5</ele>
        <time>2019-10-15T10:22:16.000Z</time>
      </trkpt>
      <trkpt lat="37.4217" lon="-4.52365">
        <ele>475.69</ele>
        <time>2019-10-15T10:22:21.000Z</time>
      </trkpt>
      <trkpt lat="37.42188" lon="-4.52401">
        <ele>475.52</ele>
        <time>2019-10-15T10:22:26.000Z</time>
      </trkpt>
      <trkpt lat="37.422" lon="-4.52431">
        <ele>475.61</ele>
        <time>2019-10-15T10:22:31.000Z</time>
      </trkpt>
      <trkpt lat="37.42213" lon="-4.52463">
        <ele>475.2</ele>
        <time>2019-10-15T10:22:36.000Z</time>
      </trkpt>
      <trkpt lat="37.42226" lon="-4.52494">
        <ele>475.06</ele>
        <time>2019-10-15T10:22:41.000Z</time>
      </trkpt>
      <trkpt lat="37.42241" lon="-4.52529">
        <ele>474.79</ele>
        <time>2019-10-15T10:22:46.000Z</time>
      </trkpt>
      <trkpt lat="37.42253" lon="-4.52561">
        <ele>474.46</ele>
        <time>2019-10-15T10:22:51.000Z</time>
      </trkpt>
      <trkpt lat="37.42269" lon="-4.52596">
        <ele>474.48</ele>
        <time>2019-10-15T10:22:56.000Z</time>
      </trkpt>
      <trkpt lat="37.42282" lon="-4.52626">
        <ele>474.91</ele>
        <time>2019-10-15T10:23:01.000Z</time>
      </trkpt>
      <trkpt lat="37.42295" lon="-4.52657">
        <ele>475.31</ele>
        <time>2019-10-15T10:23:06.000Z</time>
      </trkpt>
      <trkpt lat="37.42307" lon="-4.52687">
        <ele>475.55</ele>
        <time>2019-10-15T10:23:11.000Z</time>
      </trkpt>
      <trkpt lat="37.42322" lon="-4.52719">
        <ele>475.76</ele>
        <time>2019-10-15T10:23:16.000Z</time>
      </trkpt>
      <trkpt lat="37.42334" lon="-4.52752">
        <ele>476.05</ele>
        <time>2019-10-15T10:23:21.000Z</time>
      </trkpt>
      <trkpt lat="37.42346" lon="-4.52783">
        <ele>476.28</ele>
        <time>2019-10-15T10:23:26.000Z</time>
      </trkpt>
      <trkpt lat="37.42358" lon="-4.52814">
        <ele>476.51</ele>
        <time>2019-10-15T10:23:31.000Z</time>
      </trkpt>
      <trkpt lat="37.42371" lon="-4.52846">
        <ele>476.73</ele>
        <time>2019-10-15T10:23:36.000Z</time>
      </trkpt>
      <trkpt lat="37.42385" lon="-4.52876">
        <ele>476.96</ele>
        <time>2019-10-15T10:23:41.000Z</time>
      </trkpt>
      <trkpt lat="37.42397" lon="-4.52909">
        <ele>477.15</ele>
        <time>2019-10-15T10:23:46.000Z</time>
      </trkpt>
      <trkpt lat="37.42411" lon="-4.52941">
        <ele>477.3</ele>
        <time>2019-10-15T10:23:51.000Z</time>
      </trkpt>
      <trkpt lat="37.42424" lon="-4.52969">
        <ele>477.2</ele>
        <time>2019-10-15T10:23:56.000Z</time>
      </trkpt>
      <trkpt lat="37.42438" lon="-4.52997">
        <ele>476.85</ele>
        <time>2019-10-15T10:24:01.000Z</time>
      </trkpt>
      <trkpt lat="37.42453" lon="-4.53027">
        <ele>476.52</ele>
        <time>2019-10-15T10:24:06.000Z</time>
      </trkpt>
      <trkpt lat="37.42466" lon="-4.53055">
        <ele>476.32</ele>
        <time>2019-10-15T10:24:11.000Z</time>
      </trkpt>
      <trkpt lat="37.42473" lon="-4.5307">
        <ele>476.28</ele>
        <time>2019-10-15T10:24:16.000Z</time>
      </trkpt>
      <trkpt lat="37.42479" lon="-4.5309">
        <ele>476.02</ele>
        <time>2019-10-15T10:24:21.000Z</time>
      </trkpt>
      <trkpt lat="37.42487" lon="-4.53119">
        <ele>475.74</ele>
        <time>2019-10-15T10:24:26.000Z</time>
      </trkpt>
      <trkpt lat="37.42494" lon="-4.5315">
        <ele>475.56</ele>
        <time>2019-10-15T10:24:31.000Z</time>
      </trkpt>
      <trkpt lat="37.42501" lon="-4.53182">
        <ele>475.41</ele>
        <time>2019-10-15T10:24:36.000Z</time>
      </trkpt>
      <trkpt lat="37.42507" lon="-4.53215">
        <ele>475.3</ele>
        <time>2019-10-15T10:24:41.000Z</time>
      </trkpt>
      <trkpt lat="37.42511" lon="-4.53251">
        <ele>475.15</ele>
        <time>2019-10-15T10:24:46.000Z</time>
      </trkpt>
      <trkpt lat="37.4251" lon="-4.53293">
        <ele>474.88</ele>
        <time>2019-10-15T10:24:51.000Z</time>
      </trkpt>
      <trkpt lat="37.42511" lon="-4.53333">
        <ele>474.52</ele>
        <time>2019-10-15T10:24:56.000Z</time>
      </trkpt>
      <trkpt lat="37.42509" lon="-4.53375">
        <ele>474.05</ele>
        <time>2019-10-15T10:25:01.000Z</time>
      </trkpt>
      <trkpt lat="37.42506" lon="-4.53416">
        <ele>473.4</ele>
        <time>2019-10-15T10:25:06.000Z</time>
      </trkpt>
      <trkpt lat="37.42503" lon="-4.53456">
        <ele>472.77</ele>
        <time>2019-10-15T10:25:11.000Z</time>
      </trkpt>
      <trkpt lat="37.42499" lon="-4.53496">
        <ele>471.96</ele>
        <time>2019-10-15T10:25:16.000Z</time>
      </trkpt>
      <trkpt lat="37.42498" lon="-4.53538">
        <ele>471.27</ele>
        <time>2019-10-15T10:25:21.000Z</time>
      </trkpt>
      <trkpt lat="37.42498" lon="-4.53578">
        <ele>470.57</ele>
        <time>2019-10-15T10:25:26.000Z</time>
      </trkpt>
      <trkpt lat="37.42495" lon="-4.53617">
        <ele>469.62</ele>
        <time>2019-10-15T10:25:31.000Z</time>
      </trkpt>
      <trkpt lat="37.42493" lon="-4.5366">
        <ele>468.57</ele>
        <time>2019-10-15T10:25:36.000Z</time>
      </trkpt>
      <trkpt lat="37.42491" lon="-4.53702">
        <ele>467.56</ele>
        <time>2019-10-15T10:25:41.000Z</time>
      </trkpt>
      <trkpt lat="37.42488" lon="-4.53744">
        <ele>466.61</ele>
        <time>2019-10-15T10:25:46.000Z</time>
      </trkpt>
      <trkpt lat="37.42486" lon="-4.53786">
        <ele>465.47</ele>
        <time>2019-10-15T10:25:51.000Z</time>
      </trkpt>
      <trkpt lat="37.42483" lon="-4.5383">
        <ele>464.43</ele>
        <time>2019-10-15T10:25:56.000Z</time>
      </trkpt>
      <trkpt lat="37.42481" lon="-4.53875">
        <ele>463.57</ele>
        <time>2019-10-15T10:26:01.000Z</time>
      </trkpt>
      <trkpt lat="37.4248" lon="-4.53919">
        <ele>462.67</ele>
        <time>2019-10-15T10:26:06.000Z</time>
      </trkpt>
      <trkpt lat="37.42478" lon="-4.53964">
        <ele>461.72</ele>
        <time>2019-10-15T10:26:11.000Z</time>
      </trkpt>
      <trkpt lat="37.42474" lon="-4.54008">
        <ele>460.77</ele>
        <time>2019-10-15T10:26:16.000Z</time>
      </trkpt>
      <trkpt lat="37.42468" lon="-4.54054">
        <ele>459.46</ele>
        <time>2019-10-15T10:26:21.000Z</time>
      </trkpt>
      <trkpt lat="37.42454" lon="-4.54091">
        <ele>458.51</ele>
        <time>2019-10-15T10:26:26.000Z</time>
      </trkpt>
      <trkpt lat="37.42443" lon="-4.54124">
        <ele>458.34</ele>
        <time>2019-10-15T10:26:31.000Z</time>
      </trkpt>
      <trkpt lat="37.42432" lon="-4.5415">
        <ele>457.67</ele>
        <time>2019-10-15T10:26:36.000Z</time>
      </trkpt>
      <trkpt lat="37.42416" lon="-4.5418">
        <ele>456.71</ele>
        <time>2019-10-15T10:26:41.000Z</time>
      </trkpt>
      <trkpt lat="37.424" lon="-4.54214">
        <ele>455.77</ele>
        <time>2019-10-15T10:26:46.000Z</time>
      </trkpt>
      <trkpt lat="37.42384" lon="-4.54246">
        <ele>454.74</ele>
        <time>2019-10-15T10:26:51.000Z</time>
      </trkpt>
      <trkpt lat="37.42367" lon="-4.54276">
        <ele>453.47</ele>
        <time>2019-10-15T10:26:56.000Z</time>
      </trkpt>
      <trkpt lat="37.42348" lon="-4.5431">
        <ele>452.55</ele>
        <time>2019-10-15T10:27:01.000Z</time>
      </trkpt>
      <trkpt lat="37.42329" lon="-4.54345">
        <ele>451.5</ele>
        <time>2019-10-15T10:27:06.000Z</time>
      </trkpt>
      <trkpt lat="37.42309" lon="-4.54379">
        <ele>450.29</ele>
        <time>2019-10-15T10:27:11.000Z</time>
      </trkpt>
      <trkpt lat="37.42292" lon="-4.54415">
        <ele>449.64</ele>
        <time>2019-10-15T10:27:16.000Z</time>
      </trkpt>
      <trkpt lat="37.42273" lon="-4.5445">
        <ele>449.03</ele>
        <time>2019-10-15T10:27:21.000Z</time>
      </trkpt>
      <trkpt lat="37.42256" lon="-4.54487">
        <ele>448.33</ele>
        <time>2019-10-15T10:27:26.000Z</time>
      </trkpt>
      <trkpt lat="37.42242" lon="-4.54525">
        <ele>447.49</ele>
        <time>2019-10-15T10:27:31.000Z</time>
      </trkpt>
      <trkpt lat="37.42231" lon="-4.54563">
        <ele>446.1</ele>
        <time>2019-10-15T10:27:36.000Z</time>
      </trkpt>
      <trkpt lat="37.42222" lon="-4.54601">
        <ele>444.49</ele>
        <time>2019-10-15T10:27:41.000Z</time>
      </trkpt>
      <trkpt lat="37.42217" lon="-4.5464">
        <ele>442.7</ele>
        <time>2019-10-15T10:27:46.000Z</time>
      </trkpt>
      <trkpt lat="37.42213" lon="-4.5468">
        <ele>441.21</ele>
        <time>2019-10-15T10:27:51.000Z</time>
      </trkpt>
      <trkpt lat="37.42212" lon="-4.5472">
        <ele>440.18</ele>
        <time>2019-10-15T10:27:56.000Z</time>
      </trkpt>
      <trkpt lat="37.42215" lon="-4.54762">
        <ele>439.5</ele>
        <time>2019-10-15T10:28:01.000Z</time>
      </trkpt>
      <trkpt lat="37.42221" lon="-4.54802">
        <ele>438.72</ele>
        <time>2019-10-15T10:28:06.000Z</time>
      </trkpt>
      <trkpt lat="37.42229" lon="-4.5484">
        <ele>438.19</ele>
        <time>2019-10-15T10:28:11.000Z</time>
      </trkpt>
      <trkpt lat="37.42239" lon="-4.54876">
        <ele>437.32</ele>
        <time>2019-10-15T10:28:16.000Z</time>
      </trkpt>
      <trkpt lat="37.42249" lon="-4.54911">
        <ele>435.87</ele>
        <time>2019-10-15T10:28:21.000Z</time>
      </trkpt>
      <trkpt lat="37.42261" lon="-4.54946">
        <ele>434.67</ele>
        <time>2019-10-15T10:28:26.000Z</time>
      </trkpt>
      <trkpt lat="37.42273" lon="-4.54981">
        <ele>433.85</ele>
        <time>2019-10-15T10:28:31.000Z</time>
      </trkpt>
      <trkpt lat="37.42284" lon="-4.55018">
        <ele>433.1</ele>
        <time>2019-10-15T10:28:36.000Z</time>
      </trkpt>
      <trkpt lat="37.42296" lon="-4.55055">
        <ele>432.51</ele>
        <time>2019-10-15T10:28:41.000Z</time>
      </trkpt>
      <trkpt lat="37.42307" lon="-4.5509">
        <ele>432.06</ele>
        <time>2019-10-15T10:28:46.000Z</time>
      </trkpt>
      <trkpt lat="37.42317" lon="-4.55125">
        <ele>431.59</ele>
        <time>2019-10-15T10:28:51.000Z</time>
      </trkpt>
      <trkpt lat="37.42329" lon="-4.55161">
        <ele>431.12</ele>
        <time>2019-10-15T10:28:56.000Z</time>
      </trkpt>
      <trkpt lat="37.42339" lon="-4.55198">
        <ele>430.9</ele>
        <time>2019-10-15T10:29:01.000Z</time>
      </trkpt>
      <trkpt lat="37.42347" lon="-4.55236">
        <ele>430.72</ele>
        <time>2019-10-15T10:29:06.000Z</time>
      </trkpt>
      <trkpt lat="37.42356" lon="-4.55273">
        <ele>430.45</ele>
        <time>2019-10-15T10:29:11.000Z</time>
      </trkpt>
      <trkpt lat="37.42362" lon="-4.5531">
        <ele>430.05</ele>
        <time>2019-10-15T10:29:16.000Z</time>
      </trkpt>
      <trkpt lat="37.42363" lon="-4.55347">
        <ele>429.77</ele>
        <time>2019-10-15T10:29:21.000Z</time>
      </trkpt>
      <trkpt lat="37.42363" lon="-4.55384">
        <ele>429.69</ele>
        <time>2019-10-15T10:29:26.000Z</time>
      </trkpt>
      <trkpt lat="37.42361" lon="-4.5542">
        <ele>429.74</ele>
        <time>2019-10-15T10:29:31.000Z</time>
      </trkpt>
      <trkpt lat="37.42356" lon="-4.55456">
        <ele>429.71</ele>
        <time>2019-10-15T10:29:36.000Z</time>
      </trkpt>
      <trkpt lat="37.4235" lon="-4.55493">
        <ele>429.67</ele>
        <time>2019-10-15T10:29:41.000Z</time>
      </trkpt>
      <trkpt lat="37.42344" lon="-4.55529">
        <ele>429.56</ele>
        <time>2019-10-15T10:29:46.000Z</time>
      </trkpt>
      <trkpt lat="37.42336" lon="-4.55565">
        <ele>429.31</ele>
        <time>2019-10-15T10:29:51.000Z</time>
      </trkpt>
      <trkpt lat="37.42331" lon="-4.55599">
        <ele>429.04</ele>
        <time>2019-10-15T10:29:56.000Z</time>
      </trkpt>
      <trkpt lat="37.42326" lon="-4.55638">
        <ele>428.93</ele>
        <time>2019-10-15T10:30:01.000Z</time>
      </trkpt>
      <trkpt lat="37.42318" lon="-4.55676">
        <ele>428.67</ele>
        <time>2019-10-15T10:30:06.000Z</time>
      </trkpt>
      <trkpt lat="37.42311" lon="-4.55716">
        <ele>428.22</ele>
        <time>2019-10-15T10:30:11.000Z</time>
      </trkpt>
      <trkpt lat="37.42305" lon="-4.55753">
        <ele>427.96</ele>
        <time>2019-10-15T10:30:16.000Z</time>
      </trkpt>
      <trkpt lat="37.42297" lon="-4.55792">
        <ele>427.78</ele>
        <time>2019-10-15T10:30:21.000Z</time>
      </trkpt>
      <trkpt lat="37.42288" lon="-4.55831">
        <ele>427.38</ele>
        <time>2019-10-15T10:30:26.000Z</time>
      </trkpt>
      <trkpt lat="37.4228" lon="-4.55869">
        <ele>426.78</ele>
        <time>2019-10-15T10:30:31.000Z</time>
      </trkpt>
      <trkpt lat="37.42275" lon="-4.55909">
        <ele>426.22</ele>
        <time>2019-10-15T10:30:36.000Z</time>
      </trkpt>
      <trkpt lat="37.42265" lon="-4.55948">
        <ele>425.79</ele>
        <time>2019-10-15T10:30:41.000Z</time>
      </trkpt>
      <trkpt lat="37.42259" lon="-4.55986">
        <ele>425.11</ele>
        <time>2019-10-15T10:30:46.000Z</time>
      </trkpt>
      <trkpt lat="37.42253" lon="-4.56024">
        <ele>424.38</ele>
        <time>2019-10-15T10:30:51.000Z</time>
      </trkpt>
      <trkpt lat="37.42246" lon="-4.56063">
        <ele>423.88</ele>
        <time>2019-10-15T10:30:56.000Z</time>
      </trkpt>
      <trkpt lat="37.4224" lon="-4.56104">
        <ele>422.97</ele>
        <time>2019-10-15T10:31:01.000Z</time>
      </trkpt>
      <trkpt lat="37.42234" lon="-4.56143">
        <ele>422.07</ele>
        <time>2019-10-15T10:31:06.000Z</time>
      </trkpt>
      <trkpt lat="37.42225" lon="-4.56184">
        <ele>421.03</ele>
        <time>2019-10-15T10:31:11.000Z</time>
      </trkpt>
      <trkpt lat="37.42217" lon="-4.56227">
        <ele>420.82</ele>
        <time>2019-10-15T10:31:16.000Z</time>
      </trkpt>
      <trkpt lat="37.42208" lon="-4.56268">
        <ele>420.3</ele>
        <time>2019-10-15T10:31:21.000Z</time>
      </trkpt>
      <trkpt lat="37.42194" lon="-4.56307">
        <ele>419.44</ele>
        <time>2019-10-15T10:31:26.000Z</time>
      </trkpt>
      <trkpt lat="37.42178" lon="-4.56344">
        <ele>418.69</ele>
        <time>2019-10-15T10:31:31.000Z</time>
      </trkpt>
      <trkpt lat="37.42158" lon="-4.5638">
        <ele>418.2</ele>
        <time>2019-10-15T10:31:36.000Z</time>
      </trkpt>
      <trkpt lat="37.42136" lon="-4.56415">
        <ele>418.04</ele>
        <time>2019-10-15T10:31:41.000Z</time>
      </trkpt>
      <trkpt lat="37.42113" lon="-4.56447">
        <ele>417.85</ele>
        <time>2019-10-15T10:31:46.000Z</time>
      </trkpt>
      <trkpt lat="37.42086" lon="-4.56474">
        <ele>417.66</ele>
        <time>2019-10-15T10:31:51.000Z</time>
      </trkpt>
      <trkpt lat="37.42059" lon="-4.565">
        <ele>417.76</ele>
        <time>2019-10-15T10:31:56.000Z</time>
      </trkpt>
      <trkpt lat="37.4203" lon="-4.56522">
        <ele>417.97</ele>
        <time>2019-10-15T10:32:01.000Z</time>
      </trkpt>
      <trkpt lat="37.42" lon="-4.56543">
        <ele>417.61</ele>
        <time>2019-10-15T10:32:06.000Z</time>
      </trkpt>
      <trkpt lat="37.41969" lon="-4.56562">
        <ele>417.27</ele>
        <time>2019-10-15T10:32:11.000Z</time>
      </trkpt>
      <trkpt lat="37.41937" lon="-4.56583">
        <ele>417.27</ele>
        <time>2019-10-15T10:32:16.000Z</time>
      </trkpt>
      <trkpt lat="37.41907" lon="-4.56604">
        <ele>417.31</ele>
        <time>2019-10-15T10:32:21.000Z</time>
      </trkpt>
      <trkpt lat="37.41877" lon="-4.56627">
        <ele>417.24</ele>
        <time>2019-10-15T10:32:26.000Z</time>
      </trkpt>
      <trkpt lat="37.41848" lon="-4.56651">
        <ele>416.84</ele>
        <time>2019-10-15T10:32:31.000Z</time>
      </trkpt>
      <trkpt lat="37.41821" lon="-4.56677">
        <ele>415.83</ele>
        <time>2019-10-15T10:32:36.000Z</time>
      </trkpt>
      <trkpt lat="37.41799" lon="-4.56709">
        <ele>415.13</ele>
        <time>2019-10-15T10:32:41.000Z</time>
      </trkpt>
      <trkpt lat="37.41778" lon="-4.56742">
        <ele>414.42</ele>
        <time>2019-10-15T10:32:46.000Z</time>
      </trkpt>
      <trkpt lat="37.4176" lon="-4.56779">
        <ele>413.17</ele>
        <time>2019-10-15T10:32:51.000Z</time>
      </trkpt>
      <trkpt lat="37.41743" lon="-4.56816">
        <ele>411.94</ele>
        <time>2019-10-15T10:32:56.000Z</time>
      </trkpt>
      <trkpt lat="37.4173" lon="-4.56856">
        <ele>410.95</ele>
        <time>2019-10-15T10:33:01.000Z</time>
      </trkpt>
      <trkpt lat="37.41719" lon="-4.56895">
        <ele>410.01</ele>
        <time>2019-10-15T10:33:06.000Z</time>
      </trkpt>
      <trkpt lat="37.41714" lon="-4.56935">
        <ele>409.12</ele>
        <time>2019-10-15T10:33:11.000Z</time>
      </trkpt>
      <trkpt lat="37.41713" lon="-4.56976">
        <ele>408.38</ele>
        <time>2019-10-15T10:33:16.000Z</time>
      </trkpt>
      <trkpt lat="37.41711" lon="-4.57018">
        <ele>407.68</ele>
        <time>2019-10-15T10:33:21.000Z</time>
      </trkpt>
      <trkpt lat="37.41713" lon="-4.57058">
        <ele>407.28</ele>
        <time>2019-10-15T10:33:25.999Z</time>
      </trkpt>
      <trkpt lat="37.41712" lon="-4.571">
        <ele>406.54</ele>
        <time>2019-10-15T10:33:30.999Z</time>
      </trkpt>
      <trkpt lat="37.4171" lon="-4.57141">
        <ele>405.81</ele>
        <time>2019-10-15T10:33:35.999Z</time>
      </trkpt>
      <trkpt lat="37.4171" lon="-4.57181">
        <ele>405.1</ele>
        <time>2019-10-15T10:33:40.999Z</time>
      </trkpt>
      <trkpt lat="37.41707" lon="-4.57221">
        <ele>404.61</ele>
        <time>2019-10-15T10:33:45.999Z</time>
      </trkpt>
      <trkpt lat="37.41701" lon="-4.5726">
        <ele>404.2</ele>
        <time>2019-10-15T10:33:50.999Z</time>
      </trkpt>
      <trkpt lat="37.41695" lon="-4.57297">
        <ele>403.61</ele>
        <time>2019-10-15T10:33:55.999Z</time>
      </trkpt>
      <trkpt lat="37.41686" lon="-4.57335">
        <ele>403.11</ele>
        <time>2019-10-15T10:34:00.999Z</time>
      </trkpt>
      <trkpt lat="37.41675" lon="-4.57369">
        <ele>402.35</ele>
        <time>2019-10-15T10:34:05.999Z</time>
      </trkpt>
      <trkpt lat="37.41661" lon="-4.57403">
        <ele>401.74</ele>
        <time>2019-10-15T10:34:10.999Z</time>
      </trkpt>
      <trkpt lat="37.41648" lon="-4.57437">
        <ele>401.27</ele>
        <time>2019-10-15T10:34:15.999Z</time>
      </trkpt>
      <trkpt lat="37.41634" lon="-4.5747">
        <ele>400.95</ele>
        <time>2019-10-15T10:34:20.999Z</time>
      </trkpt>
      <trkpt lat="37.41621" lon="-4.57503">
        <ele>400.64</ele>
        <time>2019-10-15T10:34:25.999Z</time>
      </trkpt>
      <trkpt lat="37.41608" lon="-4.57537">
        <ele>400.28</ele>
        <time>2019-10-15T10:34:30.999Z</time>
      </trkpt>
      <trkpt lat="37.41594" lon="-4.5757">
        <ele>400.17</ele>
        <time>2019-10-15T10:34:35.999Z</time>
      </trkpt>
      <trkpt lat="37.41582" lon="-4.57602">
        <ele>399.95</ele>
        <time>2019-10-15T10:34:40.999Z</time>
      </trkpt>
      <trkpt lat="37.41571" lon="-4.57631">
        <ele>399.57</ele>
        <time>2019-10-15T10:34:45.999Z</time>
      </trkpt>
      <trkpt lat="37.4156" lon="-4.57659">
        <ele>399.25</ele>
        <time>2019-10-15T10:34:50.999Z</time>
      </trkpt>
      <trkpt lat="37.41553" lon="-4.57677">
        <ele>399.13</ele>
        <time>2019-10-15T10:34:55.999Z</time>
      </trkpt>
      <trkpt lat="37.41548" lon="-4.57689">
        <ele>399.11</ele>
        <time>2019-10-15T10:35:02.999Z</time>
      </trkpt>
      <trkpt lat="37.41542" lon="-4.57707">
        <ele>399.07</ele>
        <time>2019-10-15T10:35:07.999Z</time>
      </trkpt>
      <trkpt lat="37.41532" lon="-4.57731">
        <ele>398.93</ele>
        <time>2019-10-15T10:35:12.999Z</time>
      </trkpt>
      <trkpt lat="37.41522" lon="-4.57758">
        <ele>398.88</ele>
        <time>2019-10-15T10:35:17.999Z</time>
      </trkpt>
      <trkpt lat="37.41509" lon="-4.57789">
        <ele>398.81</ele>
        <time>2019-10-15T10:35:22.999Z</time>
      </trkpt>
      <trkpt lat="37.41496" lon="-4.5782">
        <ele>398.74</ele>
        <time>2019-10-15T10:35:27.999Z</time>
      </trkpt>
      <trkpt lat="37.41483" lon="-4.57852">
        <ele>398.67</ele>
        <time>2019-10-15T10:35:32.999Z</time>
      </trkpt>
      <trkpt lat="37.4147" lon="-4.57884">
        <ele>398.66</ele>
        <time>2019-10-15T10:35:37.999Z</time>
      </trkpt>
      <trkpt lat="37.41456" lon="-4.57918">
        <ele>398.59</ele>
        <time>2019-10-15T10:35:42.999Z</time>
      </trkpt>
      <trkpt lat="37.41443" lon="-4.57952">
        <ele>398.26</ele>
        <time>2019-10-15T10:35:47.999Z</time>
      </trkpt>
      <trkpt lat="37.4143" lon="-4.57986">
        <ele>397.86</ele>
        <time>2019-10-15T10:35:52.999Z</time>
      </trkpt>
      <trkpt lat="37.41417" lon="-4.58018">
        <ele>397.35</ele>
        <time>2019-10-15T10:35:57.999Z</time>
      </trkpt>
      <trkpt lat="37.41405" lon="-4.58049">
        <ele>397.2</ele>
        <time>2019-10-15T10:36:02.999Z</time>
      </trkpt>
      <trkpt lat="37.41395" lon="-4.58073">
        <ele>397.17</ele>
        <time>2019-10-15T10:36:07.999Z</time>
      </trkpt>
      <trkpt lat="37.41389" lon="-4.58085">
        <ele>397.12</ele>
        <time>2019-10-15T10:36:18.999Z</time>
      </trkpt>
      <trkpt lat="37.41381" lon="-4.58105">
        <ele>396.81</ele>
        <time>2019-10-15T10:36:23.999Z</time>
      </trkpt>
      <trkpt lat="37.41369" lon="-4.58132">
        <ele>396.44</ele>
        <time>2019-10-15T10:36:28.999Z</time>
      </trkpt>
      <trkpt lat="37.41357" lon="-4.58163">
        <ele>396.13</ele>
        <time>2019-10-15T10:36:33.999Z</time>
      </trkpt>
      <trkpt lat="37.41345" lon="-4.58198">
        <ele>395.77</ele>
        <time>2019-10-15T10:36:38.999Z</time>
      </trkpt>
      <trkpt lat="37.41335" lon="-4.58237">
        <ele>395.16</ele>
        <time>2019-10-15T10:36:43.999Z</time>
      </trkpt>
      <trkpt lat="37.41328" lon="-4.58277">
        <ele>394.38</ele>
        <time>2019-10-15T10:36:48.999Z</time>
      </trkpt>
      <trkpt lat="37.41324" lon="-4.58316">
        <ele>393.78</ele>
        <time>2019-10-15T10:36:53.999Z</time>
      </trkpt>
      <trkpt lat="37.41322" lon="-4.58356">
        <ele>392.68</ele>
        <time>2019-10-15T10:36:58.999Z</time>
      </trkpt>
      <trkpt lat="37.41323" lon="-4.58394">
        <ele>391.67</ele>
        <time>2019-10-15T10:37:03.999Z</time>
      </trkpt>
      <trkpt lat="37.41327" lon="-4.58433">
        <ele>390.88</ele>
        <time>2019-10-15T10:37:08.999Z</time>
      </trkpt>
      <trkpt lat="37.41334" lon="-4.58474">
        <ele>390.06</ele>
        <time>2019-10-15T10:37:13.999Z</time>
      </trkpt>
      <trkpt lat="37.41346" lon="-4.58514">
        <ele>389.15</ele>
        <time>2019-10-15T10:37:18.999Z</time>
      </trkpt>
      <trkpt lat="37.41359" lon="-4.58552">
        <ele>388.43</ele>
        <time>2019-10-15T10:37:23.999Z</time>
      </trkpt>
      <trkpt lat="37.41376" lon="-4.58589">
        <ele>387.75</ele>
        <time>2019-10-15T10:37:28.999Z</time>
      </trkpt>
      <trkpt lat="37.41394" lon="-4.58623">
        <ele>387.02</ele>
        <time>2019-10-15T10:37:33.999Z</time>
      </trkpt>
      <trkpt lat="37.41414" lon="-4.58654">
        <ele>386.65</ele>
        <time>2019-10-15T10:37:38.999Z</time>
      </trkpt>
      <trkpt lat="37.41433" lon="-4.58678">
        <ele>386.13</ele>
        <time>2019-10-15T10:37:43.999Z</time>
      </trkpt>
      <trkpt lat="37.41449" lon="-4.58696">
        <ele>385.33</ele>
        <time>2019-10-15T10:37:48.999Z</time>
      </trkpt>
      <trkpt lat="37.41464" lon="-4.58711">
        <ele>384.72</ele>
        <time>2019-10-15T10:37:53.999Z</time>
      </trkpt>
      <trkpt lat="37.41484" lon="-4.58728">
        <ele>383.97</ele>
        <time>2019-10-15T10:37:58.999Z</time>
      </trkpt>
      <trkpt lat="37.41504" lon="-4.58743">
        <ele>383.34</ele>
        <time>2019-10-15T10:38:03.999Z</time>
      </trkpt>
      <trkpt lat="37.41523" lon="-4.58755">
        <ele>382.92</ele>
        <time>2019-10-15T10:38:08.999Z</time>
      </trkpt>
      <trkpt lat="37.41543" lon="-4.58768">
        <ele>382.58</ele>
        <time>2019-10-15T10:38:13.999Z</time>
      </trkpt>
      <trkpt lat="37.41563" lon="-4.58781">
        <ele>382.25</ele>
        <time>2019-10-15T10:38:18.999Z</time>
      </trkpt>
      <trkpt lat="37.4158" lon="-4.58792">
        <ele>382.14</ele>
        <time>2019-10-15T10:38:23.999Z</time>
      </trkpt>
      <trkpt lat="37.41597" lon="-4.58801">
        <ele>382.12</ele>
        <time>2019-10-15T10:38:28.999Z</time>
      </trkpt>
      <trkpt lat="37.41605" lon="-4.58803">
        <ele>382.03</ele>
        <time>2019-10-15T10:40:26.999Z</time>
      </trkpt>
      <trkpt lat="37.41614" lon="-4.58809">
        <ele>383.06</ele>
        <time>2019-10-15T10:41:42.999Z</time>
      </trkpt>
      <trkpt lat="37.41622" lon="-4.58816">
        <ele>383.25</ele>
        <time>2019-10-15T10:41:49.999Z</time>
      </trkpt>
      <trkpt lat="37.41633" lon="-4.58823">
        <ele>383.37</ele>
        <time>2019-10-15T10:41:54.999Z</time>
      </trkpt>
      <trkpt lat="37.41646" lon="-4.58828">
        <ele>383.48</ele>
        <time>2019-10-15T10:41:59.999Z</time>
      </trkpt>
      <trkpt lat="37.41657" lon="-4.58835">
        <ele>383.58</ele>
        <time>2019-10-15T10:42:04.999Z</time>
      </trkpt>
      <trkpt lat="37.41673" lon="-4.58845">
        <ele>383.67</ele>
        <time>2019-10-15T10:42:09.999Z</time>
      </trkpt>
      <trkpt lat="37.41691" lon="-4.58856">
        <ele>383.75</ele>
        <time>2019-10-15T10:42:14.999Z</time>
      </trkpt>
      <trkpt lat="37.41705" lon="-4.58866">
        <ele>383.84</ele>
        <time>2019-10-15T10:42:19.999Z</time>
      </trkpt>
      <trkpt lat="37.41718" lon="-4.58875">
        <ele>383.93</ele>
        <time>2019-10-15T10:42:24.999Z</time>
      </trkpt>
      <trkpt lat="37.41731" lon="-4.58882">
        <ele>384.02</ele>
        <time>2019-10-15T10:42:29.999Z</time>
      </trkpt>
      <trkpt lat="37.41741" lon="-4.58885">
        <ele>384.1</ele>
        <time>2019-10-15T10:42:34.999Z</time>
      </trkpt>
      <trkpt lat="37.41749" lon="-4.5889">
        <ele>384.28</ele>
        <time>2019-10-15T10:43:07.999Z</time>
      </trkpt>
      <trkpt lat="37.4176" lon="-4.58895">
        <ele>384.35</ele>
        <time>2019-10-15T10:43:12.999Z</time>
      </trkpt>
      <trkpt lat="37.41777" lon="-4.58903">
        <ele>384.39</ele>
        <time>2019-10-15T10:43:17.999Z</time>
      </trkpt>
      <trkpt lat="37.41793" lon="-4.58913">
        <ele>384.43</ele>
        <time>2019-10-15T10:43:22.999Z</time>
      </trkpt>
      <trkpt lat="37.41811" lon="-4.58925">
        <ele>384.45</ele>
        <time>2019-10-15T10:43:27.999Z</time>
      </trkpt>
      <trkpt lat="37.41825" lon="-4.58929">
        <ele>384.46</ele>
        <time>2019-10-15T10:43:32.999Z</time>
      </trkpt>
      <trkpt lat="37.41827" lon="-4.58916">
        <ele>384.47</ele>
        <time>2019-10-15T10:43:37.999Z</time>
      </trkpt>
      <trkpt lat="37.41821" lon="-4.58893">
        <ele>384.59</ele>
        <time>2019-10-15T10:43:42.999Z</time>
      </trkpt>
      <trkpt lat="37.41819" lon="-4.58867">
        <ele>384.65</ele>
        <time>2019-10-15T10:43:47.999Z</time>
      </trkpt>
      <trkpt lat="37.41835" lon="-4.58864">
        <ele>384.65</ele>
        <time>2019-10-15T10:43:52.999Z</time>
      </trkpt>
      <trkpt lat="37.41855" lon="-4.58869">
        <ele>384.64</ele>
        <time>2019-10-15T10:43:57.999Z</time>
      </trkpt>
      <trkpt lat="37.41872" lon="-4.58873">
        <ele>384.64</ele>
        <time>2019-10-15T10:44:02.999Z</time>
      </trkpt>
      <trkpt lat="37.41888" lon="-4.58875">
        <ele>384.65</ele>
        <time>2019-10-15T10:44:07.999Z</time>
      </trkpt>
      <trkpt lat="37.41902" lon="-4.58878">
        <ele>384.66</ele>
        <time>2019-10-15T10:44:12.999Z</time>
      </trkpt>
      <trkpt lat="37.41915" lon="-4.58882">
        <ele>384.69</ele>
        <time>2019-10-15T10:44:17.999Z</time>
      </trkpt>
      <trkpt lat="37.41924" lon="-4.58872">
        <ele>384.72</ele>
        <time>2019-10-15T10:44:22.999Z</time>
      </trkpt>
      <trkpt lat="37.41929" lon="-4.58863">
        <ele>384.76</ele>
        <time>2019-10-15T10:44:27.999Z</time>
      </trkpt>
      <trkpt lat="37.41937" lon="-4.58855">
        <ele>384.81</ele>
        <time>2019-10-15T10:44:32.999Z</time>
      </trkpt>
      <trkpt lat="37.41944" lon="-4.58847">
        <ele>384.89</ele>
        <time>2019-10-15T10:44:37.999Z</time>
      </trkpt>
      <trkpt lat="37.41953" lon="-4.58841">
        <ele>385</ele>
        <time>2019-10-15T10:44:43.999Z</time>
      </trkpt>
      <trkpt lat="37.41963" lon="-4.58837">
        <ele>385.08</ele>
        <time>2019-10-15T10:44:48.999Z</time>
      </trkpt>
      <trkpt lat="37.41972" lon="-4.58832">
        <ele>385.17</ele>
        <time>2019-10-15T10:44:53.999Z</time>
      </trkpt>
      <trkpt lat="37.4198" lon="-4.58826">
        <ele>385.28</ele>
        <time>2019-10-15T10:44:58.999Z</time>
      </trkpt>
      <trkpt lat="37.41988" lon="-4.5882">
        <ele>385.41</ele>
        <time>2019-10-15T10:45:04.999Z</time>
      </trkpt>
      <trkpt lat="37.41997" lon="-4.58814">
        <ele>385.53</ele>
        <time>2019-10-15T10:45:09.999Z</time>
      </trkpt>
      <trkpt lat="37.42005" lon="-4.58809">
        <ele>385.66</ele>
        <time>2019-10-15T10:45:14.999Z</time>
      </trkpt>
      <trkpt lat="37.42014" lon="-4.58803">
        <ele>385.81</ele>
        <time>2019-10-15T10:45:19.999Z</time>
      </trkpt>
      <trkpt lat="37.42023" lon="-4.58801">
        <ele>385.95</ele>
        <time>2019-10-15T10:45:24.999Z</time>
      </trkpt>
      <trkpt lat="37.42028" lon="-4.5881">
        <ele>386.11</ele>
        <time>2019-10-15T10:45:29.999Z</time>
      </trkpt>
      <trkpt lat="37.4203" lon="-4.58822">
        <ele>386.39</ele>
        <time>2019-10-15T10:45:41.999Z</time>
      </trkpt>
      <trkpt lat="37.42031" lon="-4.58837">
        <ele>386.54</ele>
        <time>2019-10-15T10:45:46.999Z</time>
      </trkpt>
      <trkpt lat="37.42032" lon="-4.58858">
        <ele>386.68</ele>
        <time>2019-10-15T10:45:51.999Z</time>
      </trkpt>
      <trkpt lat="37.42032" lon="-4.58877">
        <ele>386.83</ele>
        <time>2019-10-15T10:45:56.999Z</time>
      </trkpt>
      <trkpt lat="37.42036" lon="-4.589">
        <ele>386.97</ele>
        <time>2019-10-15T10:46:01.999Z</time>
      </trkpt>
      <trkpt lat="37.42041" lon="-4.58921">
        <ele>387.12</ele>
        <time>2019-10-15T10:46:06.999Z</time>
      </trkpt>
      <trkpt lat="37.42045" lon="-4.58932">
        <ele>387.26</ele>
        <time>2019-10-15T10:46:11.999Z</time>
      </trkpt>
      <trkpt lat="37.42055" lon="-4.58936">
        <ele>387.4</ele>
        <time>2019-10-15T10:46:16.999Z</time>
      </trkpt>
      <trkpt lat="37.42064" lon="-4.5894">
        <ele>387.55</ele>
        <time>2019-10-15T10:46:21.999Z</time>
      </trkpt>
      <trkpt lat="37.42072" lon="-4.58949">
        <ele>387.71</ele>
        <time>2019-10-15T10:46:26.999Z</time>
      </trkpt>
      <trkpt lat="37.42076" lon="-4.58959">
        <ele>388.11</ele>
        <time>2019-10-15T10:46:47.999Z</time>
      </trkpt>
      <trkpt lat="37.42085" lon="-4.58966">
        <ele>401.83</ele>
        <time>2019-10-15T11:14:40.999Z</time>
      </trkpt>
      <trkpt lat="37.42092" lon="-4.58975">
        <ele>402.05</ele>
        <time>2019-10-15T11:14:45.999Z</time>
      </trkpt>
      <trkpt lat="37.421" lon="-4.58987">
        <ele>402.25</ele>
        <time>2019-10-15T11:14:50.999Z</time>
      </trkpt>
      <trkpt lat="37.4211" lon="-4.58999">
        <ele>402.44</ele>
        <time>2019-10-15T11:14:55.999Z</time>
      </trkpt>
      <trkpt lat="37.42116" lon="-4.59009">
        <ele>402.79</ele>
        <time>2019-10-15T11:15:24.999Z</time>
      </trkpt>
      <trkpt lat="37.42125" lon="-4.59017">
        <ele>402.92</ele>
        <time>2019-10-15T11:15:29.999Z</time>
      </trkpt>
      <trkpt lat="37.42134" lon="-4.59027">
        <ele>403.05</ele>
        <time>2019-10-15T11:15:34.999Z</time>
      </trkpt>
      <trkpt lat="37.42145" lon="-4.59036">
        <ele>403.17</ele>
        <time>2019-10-15T11:15:39.999Z</time>
      </trkpt>
      <trkpt lat="37.42154" lon="-4.5905">
        <ele>403.29</ele>
        <time>2019-10-15T11:15:44.999Z</time>
      </trkpt>
      <trkpt lat="37.42163" lon="-4.59059">
        <ele>403.4</ele>
        <time>2019-10-15T11:15:49.999Z</time>
      </trkpt>
      <trkpt lat="37.4217" lon="-4.59067">
        <ele>403.52</ele>
        <time>2019-10-15T11:15:55.999Z</time>
      </trkpt>
      <trkpt lat="37.42184" lon="-4.59081">
        <ele>403.61</ele>
        <time>2019-10-15T11:16:00.999Z</time>
      </trkpt>
      <trkpt lat="37.42193" lon="-4.59084">
        <ele>403.71</ele>
        <time>2019-10-15T11:16:27.999Z</time>
      </trkpt>
      <trkpt lat="37.42201" lon="-4.59078">
        <ele>403.74</ele>
        <time>2019-10-15T11:16:35.999Z</time>
      </trkpt>
      <trkpt lat="37.42193" lon="-4.59074">
        <ele>403.55</ele>
        <time>2019-10-15T11:17:54.999Z</time>
      </trkpt>
      <trkpt lat="37.42186" lon="-4.59066">
        <ele>403.33</ele>
        <time>2019-10-15T11:20:47.999Z</time>
      </trkpt>
      <trkpt lat="37.42195" lon="-4.59065">
        <ele>394.78</ele>
        <time>2019-10-15T11:43:47.999Z</time>
      </trkpt>
      <trkpt lat="37.42204" lon="-4.59063">
        <ele>392.21</ele>
        <time>2019-10-15T11:54:30.999Z</time>
      </trkpt>
      <trkpt lat="37.42202" lon="-4.59074">
        <ele>393.88</ele>
        <time>2019-10-15T12:30:58.000Z</time>
      </trkpt>
      <trkpt lat="37.42195" lon="-4.59082">
        <ele>391.01</ele>
        <time>2019-10-15T12:32:54.000Z</time>
      </trkpt>
      <trkpt lat="37.42186" lon="-4.59074">
        <ele>390.04</ele>
        <time>2019-10-15T12:33:01.000Z</time>
      </trkpt>
      <trkpt lat="37.42176" lon="-4.59062">
        <ele>389.53</ele>
        <time>2019-10-15T12:33:06.000Z</time>
      </trkpt>
      <trkpt lat="37.42166" lon="-4.59049">
        <ele>389.18</ele>
        <time>2019-10-15T12:33:11.000Z</time>
      </trkpt>
      <trkpt lat="37.42153" lon="-4.59034">
        <ele>388.96</ele>
        <time>2019-10-15T12:33:16.000Z</time>
      </trkpt>
      <trkpt lat="37.42141" lon="-4.5902">
        <ele>388.79</ele>
        <time>2019-10-15T12:33:21.000Z</time>
      </trkpt>
      <trkpt lat="37.42128" lon="-4.59006">
        <ele>388.66</ele>
        <time>2019-10-15T12:33:26.000Z</time>
      </trkpt>
      <trkpt lat="37.42114" lon="-4.58989">
        <ele>388.22</ele>
        <time>2019-10-15T12:33:31.000Z</time>
      </trkpt>
      <trkpt lat="37.421" lon="-4.58972">
        <ele>388.02</ele>
        <time>2019-10-15T12:33:36.000Z</time>
      </trkpt>
      <trkpt lat="37.42086" lon="-4.58954">
        <ele>388.16</ele>
        <time>2019-10-15T12:33:41.000Z</time>
      </trkpt>
      <trkpt lat="37.42072" lon="-4.58937">
        <ele>388.35</ele>
        <time>2019-10-15T12:33:46.000Z</time>
      </trkpt>
      <trkpt lat="37.42053" lon="-4.58926">
        <ele>388.58</ele>
        <time>2019-10-15T12:33:51.000Z</time>
      </trkpt>
      <trkpt lat="37.42029" lon="-4.58916">
        <ele>388.77</ele>
        <time>2019-10-15T12:33:56.000Z</time>
      </trkpt>
      <trkpt lat="37.42004" lon="-4.58906">
        <ele>388.71</ele>
        <time>2019-10-15T12:34:01.000Z</time>
      </trkpt>
      <trkpt lat="37.41978" lon="-4.58897">
        <ele>388.47</ele>
        <time>2019-10-15T12:34:06.000Z</time>
      </trkpt>
      <trkpt lat="37.41951" lon="-4.58886">
        <ele>388.13</ele>
        <time>2019-10-15T12:34:11.000Z</time>
      </trkpt>
      <trkpt lat="37.41928" lon="-4.58877">
        <ele>387.88</ele>
        <time>2019-10-15T12:34:16.000Z</time>
      </trkpt>
      <trkpt lat="37.41898" lon="-4.58869">
        <ele>387.67</ele>
        <time>2019-10-15T12:34:21.000Z</time>
      </trkpt>
      <trkpt lat="37.41863" lon="-4.58862">
        <ele>387.46</ele>
        <time>2019-10-15T12:34:26.000Z</time>
      </trkpt>
      <trkpt lat="37.41827" lon="-4.58856">
        <ele>387.4</ele>
        <time>2019-10-15T12:34:31.000Z</time>
      </trkpt>
      <trkpt lat="37.41802" lon="-4.58853">
        <ele>387.6</ele>
        <time>2019-10-15T12:34:36.000Z</time>
      </trkpt>
      <trkpt lat="37.41781" lon="-4.58847">
        <ele>387.92</ele>
        <time>2019-10-15T12:34:41.000Z</time>
      </trkpt>
      <trkpt lat="37.41758" lon="-4.58844">
        <ele>387.92</ele>
        <time>2019-10-15T12:34:46.000Z</time>
      </trkpt>
      <trkpt lat="37.41741" lon="-4.5884">
        <ele>387.92</ele>
        <time>2019-10-15T12:34:51.000Z</time>
      </trkpt>
      <trkpt lat="37.41728" lon="-4.58834">
        <ele>387.86</ele>
        <time>2019-10-15T12:34:56.000Z</time>
      </trkpt>
      <trkpt lat="37.41721" lon="-4.58843">
        <ele>387.74</ele>
        <time>2019-10-15T12:35:01.000Z</time>
      </trkpt>
      <trkpt lat="37.41717" lon="-4.58854">
        <ele>387.53</ele>
        <time>2019-10-15T12:35:06.000Z</time>
      </trkpt>
      <trkpt lat="37.41707" lon="-4.58854">
        <ele>387.25</ele>
        <time>2019-10-15T12:35:11.000Z</time>
      </trkpt>
      <trkpt lat="37.41693" lon="-4.58846">
        <ele>386.94</ele>
        <time>2019-10-15T12:35:16.000Z</time>
      </trkpt>
      <trkpt lat="37.41677" lon="-4.58838">
        <ele>386.21</ele>
        <time>2019-10-15T12:35:21.000Z</time>
      </trkpt>
      <trkpt lat="37.41659" lon="-4.5883">
        <ele>384.39</ele>
        <time>2019-10-15T12:35:26.000Z</time>
      </trkpt>
      <trkpt lat="37.41641" lon="-4.5882">
        <ele>383.66</ele>
        <time>2019-10-15T12:35:31.000Z</time>
      </trkpt>
      <trkpt lat="37.41625" lon="-4.58811">
        <ele>383.57</ele>
        <time>2019-10-15T12:35:36.000Z</time>
      </trkpt>
      <trkpt lat="37.41613" lon="-4.58805">
        <ele>383.52</ele>
        <time>2019-10-15T12:35:41.000Z</time>
      </trkpt>
      <trkpt lat="37.41602" lon="-4.58797">
        <ele>383.48</ele>
        <time>2019-10-15T12:35:46.000Z</time>
      </trkpt>
      <trkpt lat="37.41586" lon="-4.5879">
        <ele>383.44</ele>
        <time>2019-10-15T12:35:51.000Z</time>
      </trkpt>
      <trkpt lat="37.4157" lon="-4.58781">
        <ele>383.39</ele>
        <time>2019-10-15T12:35:56.000Z</time>
      </trkpt>
      <trkpt lat="37.41552" lon="-4.58769">
        <ele>383.03</ele>
        <time>2019-10-15T12:36:01.000Z</time>
      </trkpt>
      <trkpt lat="37.41534" lon="-4.58758">
        <ele>382.75</ele>
        <time>2019-10-15T12:36:06.000Z</time>
      </trkpt>
      <trkpt lat="37.41515" lon="-4.58745">
        <ele>382.57</ele>
        <time>2019-10-15T12:36:11.000Z</time>
      </trkpt>
      <trkpt lat="37.41498" lon="-4.5873">
        <ele>382.47</ele>
        <time>2019-10-15T12:36:16.000Z</time>
      </trkpt>
      <trkpt lat="37.4148" lon="-4.58714">
        <ele>382.4</ele>
        <time>2019-10-15T12:36:21.000Z</time>
      </trkpt>
      <trkpt lat="37.41462" lon="-4.58696">
        <ele>382.34</ele>
        <time>2019-10-15T12:36:26.000Z</time>
      </trkpt>
      <trkpt lat="37.41444" lon="-4.58677">
        <ele>382.26</ele>
        <time>2019-10-15T12:36:31.000Z</time>
      </trkpt>
      <trkpt lat="37.41427" lon="-4.58654">
        <ele>382.21</ele>
        <time>2019-10-15T12:36:36.000Z</time>
      </trkpt>
      <trkpt lat="37.41412" lon="-4.58631">
        <ele>382.23</ele>
        <time>2019-10-15T12:36:41.000Z</time>
      </trkpt>
      <trkpt lat="37.41398" lon="-4.58608">
        <ele>382.24</ele>
        <time>2019-10-15T12:36:46.000Z</time>
      </trkpt>
      <trkpt lat="37.41386" lon="-4.58584">
        <ele>382.29</ele>
        <time>2019-10-15T12:36:51.000Z</time>
      </trkpt>
      <trkpt lat="37.41375" lon="-4.58559">
        <ele>382.35</ele>
        <time>2019-10-15T12:36:56.000Z</time>
      </trkpt>
      <trkpt lat="37.41365" lon="-4.58535">
        <ele>382.39</ele>
        <time>2019-10-15T12:37:01.000Z</time>
      </trkpt>
      <trkpt lat="37.41357" lon="-4.5851">
        <ele>382.45</ele>
        <time>2019-10-15T12:37:06.000Z</time>
      </trkpt>
      <trkpt lat="37.41351" lon="-4.58486">
        <ele>382.52</ele>
        <time>2019-10-15T12:37:11.000Z</time>
      </trkpt>
      <trkpt lat="37.41345" lon="-4.58462">
        <ele>382.58</ele>
        <time>2019-10-15T12:37:16.000Z</time>
      </trkpt>
      <trkpt lat="37.41341" lon="-4.58437">
        <ele>382.66</ele>
        <time>2019-10-15T12:37:21.000Z</time>
      </trkpt>
      <trkpt lat="37.41338" lon="-4.58413">
        <ele>382.73</ele>
        <time>2019-10-15T12:37:26.000Z</time>
      </trkpt>
      <trkpt lat="37.41335" lon="-4.5839">
        <ele>382.8</ele>
        <time>2019-10-15T12:37:31.000Z</time>
      </trkpt>
      <trkpt lat="37.41334" lon="-4.58365">
        <ele>382.88</ele>
        <time>2019-10-15T12:37:36.000Z</time>
      </trkpt>
      <trkpt lat="37.41334" lon="-4.58342">
        <ele>382.99</ele>
        <time>2019-10-15T12:37:41.000Z</time>
      </trkpt>
      <trkpt lat="37.41335" lon="-4.58318">
        <ele>383.12</ele>
        <time>2019-10-15T12:37:46.000Z</time>
      </trkpt>
      <trkpt lat="37.41337" lon="-4.58293">
        <ele>383.23</ele>
        <time>2019-10-15T12:37:51.000Z</time>
      </trkpt>
      <trkpt lat="37.4134" lon="-4.58269">
        <ele>383.31</ele>
        <time>2019-10-15T12:37:56.000Z</time>
      </trkpt>
      <trkpt lat="37.41344" lon="-4.58248">
        <ele>383.36</ele>
        <time>2019-10-15T12:38:01.000Z</time>
      </trkpt>
      <trkpt lat="37.41347" lon="-4.58226">
        <ele>383.42</ele>
        <time>2019-10-15T12:38:06.000Z</time>
      </trkpt>
      <trkpt lat="37.41352" lon="-4.58205">
        <ele>383.5</ele>
        <time>2019-10-15T12:38:11.000Z</time>
      </trkpt>
      <trkpt lat="37.41358" lon="-4.58185">
        <ele>383.58</ele>
        <time>2019-10-15T12:38:16.000Z</time>
      </trkpt>
      <trkpt lat="37.41364" lon="-4.58165">
        <ele>383.68</ele>
        <time>2019-10-15T12:38:21.000Z</time>
      </trkpt>
      <trkpt lat="37.4137" lon="-4.58147">
        <ele>383.77</ele>
        <time>2019-10-15T12:38:26.000Z</time>
      </trkpt>
      <trkpt lat="37.41376" lon="-4.58134">
        <ele>383.88</ele>
        <time>2019-10-15T12:38:31.000Z</time>
      </trkpt>
      <trkpt lat="37.4138" lon="-4.58123">
        <ele>384.01</ele>
        <time>2019-10-15T12:38:37.000Z</time>
      </trkpt>
      <trkpt lat="37.41384" lon="-4.58113">
        <ele>384.38</ele>
        <time>2019-10-15T12:39:06.000Z</time>
      </trkpt>
      <trkpt lat="37.4139" lon="-4.58098">
        <ele>384.55</ele>
        <time>2019-10-15T12:39:11.000Z</time>
      </trkpt>
      <trkpt lat="37.41396" lon="-4.58084">
        <ele>384.72</ele>
        <time>2019-10-15T12:39:16.000Z</time>
      </trkpt>
      <trkpt lat="37.41389" lon="-4.58076">
        <ele>384.88</ele>
        <time>2019-10-15T12:39:21.000Z</time>
      </trkpt>
      <trkpt lat="37.41373" lon="-4.58102">
        <ele>385.92</ele>
        <time>2019-10-15T12:39:26.000Z</time>
      </trkpt>
      <trkpt lat="37.41357" lon="-4.58138">
        <ele>386.22</ele>
        <time>2019-10-15T12:39:31.000Z</time>
      </trkpt>
      <trkpt lat="37.41324" lon="-4.58167">
        <ele>386.09</ele>
        <time>2019-10-15T12:39:36.000Z</time>
      </trkpt>
      <trkpt lat="37.41283" lon="-4.58193">
        <ele>385.75</ele>
        <time>2019-10-15T12:39:41.000Z</time>
      </trkpt>
      <trkpt lat="37.41243" lon="-4.58216">
        <ele>385.27</ele>
        <time>2019-10-15T12:39:46.000Z</time>
      </trkpt>
      <trkpt lat="37.41203" lon="-4.58232">
        <ele>384.87</ele>
        <time>2019-10-15T12:39:51.000Z</time>
      </trkpt>
      <trkpt lat="37.41163" lon="-4.58241">
        <ele>384.17</ele>
        <time>2019-10-15T12:39:56.000Z</time>
      </trkpt>
      <trkpt lat="37.41123" lon="-4.58252">
        <ele>383.51</ele>
        <time>2019-10-15T12:40:01.000Z</time>
      </trkpt>
      <trkpt lat="37.41084" lon="-4.58254">
        <ele>382.85</ele>
        <time>2019-10-15T12:40:06.000Z</time>
      </trkpt>
      <trkpt lat="37.41045" lon="-4.58239">
        <ele>382.25</ele>
        <time>2019-10-15T12:40:11.000Z</time>
      </trkpt>
      <trkpt lat="37.41008" lon="-4.58225">
        <ele>381.97</ele>
        <time>2019-10-15T12:40:16.000Z</time>
      </trkpt>
      <trkpt lat="37.40974" lon="-4.58212">
        <ele>382.16</ele>
        <time>2019-10-15T12:40:21.000Z</time>
      </trkpt>
      <trkpt lat="37.40943" lon="-4.582">
        <ele>382.14</ele>
        <time>2019-10-15T12:40:26.000Z</time>
      </trkpt>
      <trkpt lat="37.40913" lon="-4.58189">
        <ele>382.02</ele>
        <time>2019-10-15T12:40:31.000Z</time>
      </trkpt>
      <trkpt lat="37.40886" lon="-4.58179">
        <ele>381.95</ele>
        <time>2019-10-15T12:40:36.000Z</time>
      </trkpt>
      <trkpt lat="37.40858" lon="-4.58169">
        <ele>381.75</ele>
        <time>2019-10-15T12:40:41.000Z</time>
      </trkpt>
      <trkpt lat="37.40829" lon="-4.58167">
        <ele>381.42</ele>
        <time>2019-10-15T12:40:46.000Z</time>
      </trkpt>
      <trkpt lat="37.40803" lon="-4.5817">
        <ele>381.4</ele>
        <time>2019-10-15T12:40:51.000Z</time>
      </trkpt>
      <trkpt lat="37.40779" lon="-4.58175">
        <ele>381.22</ele>
        <time>2019-10-15T12:40:56.000Z</time>
      </trkpt>
      <trkpt lat="37.40755" lon="-4.5818">
        <ele>381.09</ele>
        <time>2019-10-15T12:41:01.000Z</time>
      </trkpt>
      <trkpt lat="37.4073" lon="-4.58185">
        <ele>381.01</ele>
        <time>2019-10-15T12:41:06.000Z</time>
      </trkpt>
      <trkpt lat="37.40703" lon="-4.5819">
        <ele>380.76</ele>
        <time>2019-10-15T12:41:11.000Z</time>
      </trkpt>
      <trkpt lat="37.40674" lon="-4.58194">
        <ele>380.65</ele>
        <time>2019-10-15T12:41:16.000Z</time>
      </trkpt>
      <trkpt lat="37.40646" lon="-4.582">
        <ele>380.63</ele>
        <time>2019-10-15T12:41:21.000Z</time>
      </trkpt>
      <trkpt lat="37.40619" lon="-4.58207">
        <ele>380.51</ele>
        <time>2019-10-15T12:41:26.000Z</time>
      </trkpt>
      <trkpt lat="37.40592" lon="-4.58212">
        <ele>380.43</ele>
        <time>2019-10-15T12:41:31.000Z</time>
      </trkpt>
      <trkpt lat="37.40565" lon="-4.58217">
        <ele>380.42</ele>
        <time>2019-10-15T12:41:36.000Z</time>
      </trkpt>
      <trkpt lat="37.40538" lon="-4.58222">
        <ele>380.39</ele>
        <time>2019-10-15T12:41:41.000Z</time>
      </trkpt>
      <trkpt lat="37.40513" lon="-4.58225">
        <ele>380.39</ele>
        <time>2019-10-15T12:41:46.000Z</time>
      </trkpt>
      <trkpt lat="37.40488" lon="-4.58229">
        <ele>380.48</ele>
        <time>2019-10-15T12:41:51.000Z</time>
      </trkpt>
      <trkpt lat="37.40463" lon="-4.58234">
        <ele>380.72</ele>
        <time>2019-10-15T12:41:56.000Z</time>
      </trkpt>
      <trkpt lat="37.40439" lon="-4.58237">
        <ele>380.98</ele>
        <time>2019-10-15T12:42:01.000Z</time>
      </trkpt>
      <trkpt lat="37.40414" lon="-4.58242">
        <ele>381.09</ele>
        <time>2019-10-15T12:42:06.000Z</time>
      </trkpt>
      <trkpt lat="37.40389" lon="-4.58247">
        <ele>381.19</ele>
        <time>2019-10-15T12:42:11.000Z</time>
      </trkpt>
      <trkpt lat="37.40366" lon="-4.58251">
        <ele>381.34</ele>
        <time>2019-10-15T12:42:16.000Z</time>
      </trkpt>
      <trkpt lat="37.40342" lon="-4.58255">
        <ele>381.63</ele>
        <time>2019-10-15T12:42:21.000Z</time>
      </trkpt>
      <trkpt lat="37.40319" lon="-4.58259">
        <ele>382</ele>
        <time>2019-10-15T12:42:26.000Z</time>
      </trkpt>
      <trkpt lat="37.40295" lon="-4.58264">
        <ele>382.39</ele>
        <time>2019-10-15T12:42:31.000Z</time>
      </trkpt>
      <trkpt lat="37.40271" lon="-4.58269">
        <ele>382.73</ele>
        <time>2019-10-15T12:42:36.000Z</time>
      </trkpt>
      <trkpt lat="37.40245" lon="-4.58273">
        <ele>382.99</ele>
        <time>2019-10-15T12:42:41.000Z</time>
      </trkpt>
      <trkpt lat="37.40217" lon="-4.58276">
        <ele>383.13</ele>
        <time>2019-10-15T12:42:46.000Z</time>
      </trkpt>
      <trkpt lat="37.40189" lon="-4.5828">
        <ele>383.35</ele>
        <time>2019-10-15T12:42:51.000Z</time>
      </trkpt>
      <trkpt lat="37.40161" lon="-4.58283">
        <ele>383.6</ele>
        <time>2019-10-15T12:42:56.000Z</time>
      </trkpt>
      <trkpt lat="37.40132" lon="-4.58286">
        <ele>383.74</ele>
        <time>2019-10-15T12:43:01.000Z</time>
      </trkpt>
      <trkpt lat="37.40103" lon="-4.58289">
        <ele>383.69</ele>
        <time>2019-10-15T12:43:06.000Z</time>
      </trkpt>
      <trkpt lat="37.40074" lon="-4.58292">
        <ele>383.54</ele>
        <time>2019-10-15T12:43:11.000Z</time>
      </trkpt>
      <trkpt lat="37.40046" lon="-4.58295">
        <ele>383.45</ele>
        <time>2019-10-15T12:43:16.000Z</time>
      </trkpt>
      <trkpt lat="37.40019" lon="-4.58297">
        <ele>383.43</ele>
        <time>2019-10-15T12:43:21.000Z</time>
      </trkpt>
      <trkpt lat="37.39991" lon="-4.58301">
        <ele>383.34</ele>
        <time>2019-10-15T12:43:26.000Z</time>
      </trkpt>
      <trkpt lat="37.39965" lon="-4.58304">
        <ele>383.23</ele>
        <time>2019-10-15T12:43:31.000Z</time>
      </trkpt>
      <trkpt lat="37.39937" lon="-4.5831">
        <ele>383.09</ele>
        <time>2019-10-15T12:43:36.000Z</time>
      </trkpt>
      <trkpt lat="37.39913" lon="-4.58324">
        <ele>383.01</ele>
        <time>2019-10-15T12:43:41.000Z</time>
      </trkpt>
      <trkpt lat="37.39893" lon="-4.58344">
        <ele>382.96</ele>
        <time>2019-10-15T12:43:46.000Z</time>
      </trkpt>
      <trkpt lat="37.39874" lon="-4.58366">
        <ele>382.81</ele>
        <time>2019-10-15T12:43:51.000Z</time>
      </trkpt>
      <trkpt lat="37.39855" lon="-4.58389">
        <ele>382.47</ele>
        <time>2019-10-15T12:43:56.000Z</time>
      </trkpt>
      <trkpt lat="37.39833" lon="-4.5841">
        <ele>382.16</ele>
        <time>2019-10-15T12:44:01.000Z</time>
      </trkpt>
      <trkpt lat="37.39809" lon="-4.58418">
        <ele>382.07</ele>
        <time>2019-10-15T12:44:06.000Z</time>
      </trkpt>
      <trkpt lat="37.39803" lon="-4.58386">
        <ele>382.23</ele>
        <time>2019-10-15T12:44:11.000Z</time>
      </trkpt>
      <trkpt lat="37.39808" lon="-4.58352">
        <ele>382.42</ele>
        <time>2019-10-15T12:44:16.000Z</time>
      </trkpt>
      <trkpt lat="37.39816" lon="-4.58321">
        <ele>382.44</ele>
        <time>2019-10-15T12:44:21.000Z</time>
      </trkpt>
      <trkpt lat="37.39818" lon="-4.58294">
        <ele>382.43</ele>
        <time>2019-10-15T12:44:26.000Z</time>
      </trkpt>
      <trkpt lat="37.39791" lon="-4.58304">
        <ele>382.26</ele>
        <time>2019-10-15T12:44:31.000Z</time>
      </trkpt>
      <trkpt lat="37.39761" lon="-4.58329">
        <ele>381.59</ele>
        <time>2019-10-15T12:44:36.000Z</time>
      </trkpt>
      <trkpt lat="37.39725" lon="-4.58361">
        <ele>380.51</ele>
        <time>2019-10-15T12:44:41.000Z</time>
      </trkpt>
      <trkpt lat="37.39683" lon="-4.58396">
        <ele>379.24</ele>
        <time>2019-10-15T12:44:46.000Z</time>
      </trkpt>
      <trkpt lat="37.39636" lon="-4.58436">
        <ele>377.79</ele>
        <time>2019-10-15T12:44:51.000Z</time>
      </trkpt>
      <trkpt lat="37.39599" lon="-4.58484">
        <ele>376.66</ele>
        <time>2019-10-15T12:44:56.000Z</time>
      </trkpt>
      <trkpt lat="37.39574" lon="-4.58534">
        <ele>376.39</ele>
        <time>2019-10-15T12:45:01.000Z</time>
      </trkpt>
      <trkpt lat="37.39549" lon="-4.58574">
        <ele>376.14</ele>
        <time>2019-10-15T12:45:06.000Z</time>
      </trkpt>
      <trkpt lat="37.39524" lon="-4.58605">
        <ele>375.36</ele>
        <time>2019-10-15T12:45:11.000Z</time>
      </trkpt>
      <trkpt lat="37.39498" lon="-4.58627">
        <ele>374.93</ele>
        <time>2019-10-15T12:45:16.000Z</time>
      </trkpt>
      <trkpt lat="37.39473" lon="-4.58643">
        <ele>374.69</ele>
        <time>2019-10-15T12:45:21.000Z</time>
      </trkpt>
      <trkpt lat="37.39447" lon="-4.58655">
        <ele>374.71</ele>
        <time>2019-10-15T12:45:26.000Z</time>
      </trkpt>
      <trkpt lat="37.39423" lon="-4.58662">
        <ele>374.84</ele>
        <time>2019-10-15T12:45:31.000Z</time>
      </trkpt>
      <trkpt lat="37.39397" lon="-4.58665">
        <ele>374.98</ele>
        <time>2019-10-15T12:45:36.000Z</time>
      </trkpt>
      <trkpt lat="37.39371" lon="-4.58665">
        <ele>375.04</ele>
        <time>2019-10-15T12:45:41.000Z</time>
      </trkpt>
      <trkpt lat="37.39346" lon="-4.58662">
        <ele>374.98</ele>
        <time>2019-10-15T12:45:46.000Z</time>
      </trkpt>
      <trkpt lat="37.3932" lon="-4.58655">
        <ele>374.94</ele>
        <time>2019-10-15T12:45:51.000Z</time>
      </trkpt>
      <trkpt lat="37.39295" lon="-4.58643">
        <ele>374.98</ele>
        <time>2019-10-15T12:45:56.000Z</time>
      </trkpt>
      <trkpt lat="37.39269" lon="-4.58632">
        <ele>375.21</ele>
        <time>2019-10-15T12:46:01.000Z</time>
      </trkpt>
      <trkpt lat="37.39244" lon="-4.58621">
        <ele>375.65</ele>
        <time>2019-10-15T12:46:06.000Z</time>
      </trkpt>
      <trkpt lat="37.3922" lon="-4.58609">
        <ele>376.04</ele>
        <time>2019-10-15T12:46:11.000Z</time>
      </trkpt>
      <trkpt lat="37.39196" lon="-4.58598">
        <ele>376.48</ele>
        <time>2019-10-15T12:46:16.000Z</time>
      </trkpt>
      <trkpt lat="37.39176" lon="-4.58589">
        <ele>376.89</ele>
        <time>2019-10-15T12:46:21.000Z</time>
      </trkpt>
      <trkpt lat="37.39159" lon="-4.58581">
        <ele>376.95</ele>
        <time>2019-10-15T12:46:26.000Z</time>
      </trkpt>
      <trkpt lat="37.39144" lon="-4.58575">
        <ele>377.01</ele>
        <time>2019-10-15T12:46:31.000Z</time>
      </trkpt>
      <trkpt lat="37.3913" lon="-4.58569">
        <ele>377.12</ele>
        <time>2019-10-15T12:46:36.000Z</time>
      </trkpt>
      <trkpt lat="37.39116" lon="-4.58562">
        <ele>377.28</ele>
        <time>2019-10-15T12:46:41.000Z</time>
      </trkpt>
      <trkpt lat="37.39101" lon="-4.58555">
        <ele>377.46</ele>
        <time>2019-10-15T12:46:46.000Z</time>
      </trkpt>
      <trkpt lat="37.39087" lon="-4.58549">
        <ele>377.65</ele>
        <time>2019-10-15T12:46:51.000Z</time>
      </trkpt>
      <trkpt lat="37.39073" lon="-4.58545">
        <ele>377.84</ele>
        <time>2019-10-15T12:46:56.000Z</time>
      </trkpt>
      <trkpt lat="37.39056" lon="-4.58539">
        <ele>378.04</ele>
        <time>2019-10-15T12:47:00.999Z</time>
      </trkpt>
      <trkpt lat="37.39038" lon="-4.58532">
        <ele>378.98</ele>
        <time>2019-10-15T12:47:05.999Z</time>
      </trkpt>
      <trkpt lat="37.39014" lon="-4.58525">
        <ele>379.9</ele>
        <time>2019-10-15T12:47:10.999Z</time>
      </trkpt>
      <trkpt lat="37.38985" lon="-4.58521">
        <ele>380.37</ele>
        <time>2019-10-15T12:47:15.999Z</time>
      </trkpt>
      <trkpt lat="37.38951" lon="-4.58522">
        <ele>380.46</ele>
        <time>2019-10-15T12:47:20.999Z</time>
      </trkpt>
      <trkpt lat="37.38915" lon="-4.58529">
        <ele>380.23</ele>
        <time>2019-10-15T12:47:25.999Z</time>
      </trkpt>
      <trkpt lat="37.38878" lon="-4.58541">
        <ele>379.84</ele>
        <time>2019-10-15T12:47:30.999Z</time>
      </trkpt>
      <trkpt lat="37.3884" lon="-4.58553">
        <ele>379.5</ele>
        <time>2019-10-15T12:47:35.999Z</time>
      </trkpt>
      <trkpt lat="37.38799" lon="-4.58565">
        <ele>379.01</ele>
        <time>2019-10-15T12:47:40.999Z</time>
      </trkpt>
      <trkpt lat="37.38758" lon="-4.58579">
        <ele>378.36</ele>
        <time>2019-10-15T12:47:45.999Z</time>
      </trkpt>
      <trkpt lat="37.38716" lon="-4.58592">
        <ele>377.73</ele>
        <time>2019-10-15T12:47:50.999Z</time>
      </trkpt>
      <trkpt lat="37.38674" lon="-4.58605">
        <ele>377</ele>
        <time>2019-10-15T12:47:55.999Z</time>
      </trkpt>
      <trkpt lat="37.3863" lon="-4.58619">
        <ele>376.41</ele>
        <time>2019-10-15T12:48:00.999Z</time>
      </trkpt>
      <trkpt lat="37.38586" lon="-4.58633">
        <ele>375.93</ele>
        <time>2019-10-15T12:48:05.999Z</time>
      </trkpt>
      <trkpt lat="37.38545" lon="-4.58646">
        <ele>375.35</ele>
        <time>2019-10-15T12:48:10.999Z</time>
      </trkpt>
      <trkpt lat="37.38504" lon="-4.58659">
        <ele>374.78</ele>
        <time>2019-10-15T12:48:15.999Z</time>
      </trkpt>
      <trkpt lat="37.38464" lon="-4.58671">
        <ele>374.28</ele>
        <time>2019-10-15T12:48:20.999Z</time>
      </trkpt>
      <trkpt lat="37.38426" lon="-4.58683">
        <ele>373.55</ele>
        <time>2019-10-15T12:48:25.999Z</time>
      </trkpt>
      <trkpt lat="37.38387" lon="-4.5869">
        <ele>372.76</ele>
        <time>2019-10-15T12:48:30.999Z</time>
      </trkpt>
      <trkpt lat="37.38346" lon="-4.58689">
        <ele>371.85</ele>
        <time>2019-10-15T12:48:35.999Z</time>
      </trkpt>
      <trkpt lat="37.38305" lon="-4.58679">
        <ele>371.11</ele>
        <time>2019-10-15T12:48:40.999Z</time>
      </trkpt>
      <trkpt lat="37.38263" lon="-4.58666">
        <ele>370.66</ele>
        <time>2019-10-15T12:48:45.999Z</time>
      </trkpt>
      <trkpt lat="37.3822" lon="-4.58654">
        <ele>370.1</ele>
        <time>2019-10-15T12:48:50.999Z</time>
      </trkpt>
      <trkpt lat="37.38179" lon="-4.58642">
        <ele>369.17</ele>
        <time>2019-10-15T12:48:55.999Z</time>
      </trkpt>
      <trkpt lat="37.38137" lon="-4.5863">
        <ele>368.52</ele>
        <time>2019-10-15T12:49:00.999Z</time>
      </trkpt>
      <trkpt lat="37.38098" lon="-4.58619">
        <ele>367.99</ele>
        <time>2019-10-15T12:49:05.999Z</time>
      </trkpt>
      <trkpt lat="37.38058" lon="-4.58606">
        <ele>367.19</ele>
        <time>2019-10-15T12:49:10.999Z</time>
      </trkpt>
      <trkpt lat="37.38016" lon="-4.58594">
        <ele>366.1</ele>
        <time>2019-10-15T12:49:15.999Z</time>
      </trkpt>
      <trkpt lat="37.37974" lon="-4.58581">
        <ele>364.76</ele>
        <time>2019-10-15T12:49:20.999Z</time>
      </trkpt>
      <trkpt lat="37.3793" lon="-4.58568">
        <ele>363.17</ele>
        <time>2019-10-15T12:49:25.999Z</time>
      </trkpt>
      <trkpt lat="37.37888" lon="-4.5857">
        <ele>362.13</ele>
        <time>2019-10-15T12:49:30.999Z</time>
      </trkpt>
      <trkpt lat="37.37855" lon="-4.58593">
        <ele>360.92</ele>
        <time>2019-10-15T12:49:35.999Z</time>
      </trkpt>
      <trkpt lat="37.37837" lon="-4.58631">
        <ele>359.09</ele>
        <time>2019-10-15T12:49:40.999Z</time>
      </trkpt>
      <trkpt lat="37.37823" lon="-4.58675">
        <ele>356.93</ele>
        <time>2019-10-15T12:49:45.999Z</time>
      </trkpt>
      <trkpt lat="37.37806" lon="-4.58725">
        <ele>354.95</ele>
        <time>2019-10-15T12:49:50.999Z</time>
      </trkpt>
      <trkpt lat="37.37802" lon="-4.58783">
        <ele>353.45</ele>
        <time>2019-10-15T12:49:55.999Z</time>
      </trkpt>
      <trkpt lat="37.37813" lon="-4.58835">
        <ele>352.7</ele>
        <time>2019-10-15T12:50:00.999Z</time>
      </trkpt>
      <trkpt lat="37.37823" lon="-4.58882">
        <ele>352.11</ele>
        <time>2019-10-15T12:50:05.999Z</time>
      </trkpt>
      <trkpt lat="37.37834" lon="-4.58923">
        <ele>351.58</ele>
        <time>2019-10-15T12:50:10.999Z</time>
      </trkpt>
      <trkpt lat="37.37844" lon="-4.58963">
        <ele>350.84</ele>
        <time>2019-10-15T12:50:15.999Z</time>
      </trkpt>
      <trkpt lat="37.37852" lon="-4.59002">
        <ele>349.97</ele>
        <time>2019-10-15T12:50:20.999Z</time>
      </trkpt>
      <trkpt lat="37.37861" lon="-4.5904">
        <ele>349.12</ele>
        <time>2019-10-15T12:50:25.999Z</time>
      </trkpt>
      <trkpt lat="37.37869" lon="-4.59073">
        <ele>348.29</ele>
        <time>2019-10-15T12:50:30.999Z</time>
      </trkpt>
      <trkpt lat="37.37874" lon="-4.59109">
        <ele>347.51</ele>
        <time>2019-10-15T12:50:35.999Z</time>
      </trkpt>
      <trkpt lat="37.37875" lon="-4.59145">
        <ele>346.71</ele>
        <time>2019-10-15T12:50:40.999Z</time>
      </trkpt>
      <trkpt lat="37.37873" lon="-4.59182">
        <ele>345.82</ele>
        <time>2019-10-15T12:50:45.999Z</time>
      </trkpt>
      <trkpt lat="37.37867" lon="-4.59219">
        <ele>345.08</ele>
        <time>2019-10-15T12:50:50.999Z</time>
      </trkpt>
      <trkpt lat="37.37857" lon="-4.59254">
        <ele>344.48</ele>
        <time>2019-10-15T12:50:55.999Z</time>
      </trkpt>
      <trkpt lat="37.37843" lon="-4.59289">
        <ele>344</ele>
        <time>2019-10-15T12:51:00.999Z</time>
      </trkpt>
      <trkpt lat="37.37825" lon="-4.59319">
        <ele>343.49</ele>
        <time>2019-10-15T12:51:05.999Z</time>
      </trkpt>
      <trkpt lat="37.37804" lon="-4.59347">
        <ele>342.98</ele>
        <time>2019-10-15T12:51:10.999Z</time>
      </trkpt>
      <trkpt lat="37.37779" lon="-4.59374">
        <ele>342.39</ele>
        <time>2019-10-15T12:51:15.999Z</time>
      </trkpt>
      <trkpt lat="37.37749" lon="-4.59396">
        <ele>341.74</ele>
        <time>2019-10-15T12:51:20.999Z</time>
      </trkpt>
      <trkpt lat="37.37715" lon="-4.59416">
        <ele>340.9</ele>
        <time>2019-10-15T12:51:25.999Z</time>
      </trkpt>
      <trkpt lat="37.37677" lon="-4.59437">
        <ele>340.02</ele>
        <time>2019-10-15T12:51:30.999Z</time>
      </trkpt>
      <trkpt lat="37.37637" lon="-4.59459">
        <ele>339.27</ele>
        <time>2019-10-15T12:51:35.999Z</time>
      </trkpt>
      <trkpt lat="37.37594" lon="-4.59484">
        <ele>338.46</ele>
        <time>2019-10-15T12:51:40.999Z</time>
      </trkpt>
      <trkpt lat="37.3755" lon="-4.59509">
        <ele>337.54</ele>
        <time>2019-10-15T12:51:45.999Z</time>
      </trkpt>
      <trkpt lat="37.37505" lon="-4.59534">
        <ele>336.74</ele>
        <time>2019-10-15T12:51:50.999Z</time>
      </trkpt>
      <trkpt lat="37.37463" lon="-4.59558">
        <ele>335.86</ele>
        <time>2019-10-15T12:51:55.999Z</time>
      </trkpt>
      <trkpt lat="37.37428" lon="-4.59584">
        <ele>334.94</ele>
        <time>2019-10-15T12:52:00.999Z</time>
      </trkpt>
      <trkpt lat="37.37411" lon="-4.59624">
        <ele>333.72</ele>
        <time>2019-10-15T12:52:05.999Z</time>
      </trkpt>
      <trkpt lat="37.37409" lon="-4.59664">
        <ele>332.91</ele>
        <time>2019-10-15T12:52:10.999Z</time>
      </trkpt>
      <trkpt lat="37.37403" lon="-4.59699">
        <ele>332.33</ele>
        <time>2019-10-15T12:52:15.999Z</time>
      </trkpt>
      <trkpt lat="37.37386" lon="-4.5973">
        <ele>330.98</ele>
        <time>2019-10-15T12:52:20.999Z</time>
      </trkpt>
      <trkpt lat="37.3736" lon="-4.59763">
        <ele>329.01</ele>
        <time>2019-10-15T12:52:25.999Z</time>
      </trkpt>
      <trkpt lat="37.37332" lon="-4.59802">
        <ele>327.34</ele>
        <time>2019-10-15T12:52:30.999Z</time>
      </trkpt>
      <trkpt lat="37.37302" lon="-4.59844">
        <ele>326.06</ele>
        <time>2019-10-15T12:52:35.999Z</time>
      </trkpt>
      <trkpt lat="37.37272" lon="-4.59889">
        <ele>324.76</ele>
        <time>2019-10-15T12:52:40.999Z</time>
      </trkpt>
      <trkpt lat="37.37253" lon="-4.59942">
        <ele>323.68</ele>
        <time>2019-10-15T12:52:45.999Z</time>
      </trkpt>
      <trkpt lat="37.3725" lon="-4.59998">
        <ele>322.41</ele>
        <time>2019-10-15T12:52:50.999Z</time>
      </trkpt>
      <trkpt lat="37.37255" lon="-4.60049">
        <ele>321.07</ele>
        <time>2019-10-15T12:52:55.999Z</time>
      </trkpt>
      <trkpt lat="37.37258" lon="-4.601">
        <ele>319.73</ele>
        <time>2019-10-15T12:53:00.999Z</time>
      </trkpt>
      <trkpt lat="37.37246" lon="-4.60148">
        <ele>318.11</ele>
        <time>2019-10-15T12:53:05.999Z</time>
      </trkpt>
      <trkpt lat="37.37218" lon="-4.60188">
        <ele>316.53</ele>
        <time>2019-10-15T12:53:10.999Z</time>
      </trkpt>
      <trkpt lat="37.37191" lon="-4.60226">
        <ele>315.19</ele>
        <time>2019-10-15T12:53:15.999Z</time>
      </trkpt>
      <trkpt lat="37.37161" lon="-4.6026">
        <ele>314.08</ele>
        <time>2019-10-15T12:53:20.999Z</time>
      </trkpt>
      <trkpt lat="37.37128" lon="-4.60287">
        <ele>312.45</ele>
        <time>2019-10-15T12:53:25.999Z</time>
      </trkpt>
      <trkpt lat="37.37092" lon="-4.60313">
        <ele>311.2</ele>
        <time>2019-10-15T12:53:30.999Z</time>
      </trkpt>
      <trkpt lat="37.37055" lon="-4.60334">
        <ele>310</ele>
        <time>2019-10-15T12:53:35.999Z</time>
      </trkpt>
      <trkpt lat="37.37016" lon="-4.60339">
        <ele>309.04</ele>
        <time>2019-10-15T12:53:40.999Z</time>
      </trkpt>
      <trkpt lat="37.36979" lon="-4.60343">
        <ele>308.17</ele>
        <time>2019-10-15T12:53:45.999Z</time>
      </trkpt>
      <trkpt lat="37.36946" lon="-4.60345">
        <ele>307.52</ele>
        <time>2019-10-15T12:53:50.999Z</time>
      </trkpt>
      <trkpt lat="37.36922" lon="-4.60347">
        <ele>307.65</ele>
        <time>2019-10-15T12:53:55.999Z</time>
      </trkpt>
      <trkpt lat="37.36903" lon="-4.60351">
        <ele>307.75</ele>
        <time>2019-10-15T12:54:00.999Z</time>
      </trkpt>
      <trkpt lat="37.36889" lon="-4.60353">
        <ele>307.77</ele>
        <time>2019-10-15T12:54:05.999Z</time>
      </trkpt>
      <trkpt lat="37.36877" lon="-4.60354">
        <ele>307.82</ele>
        <time>2019-10-15T12:54:10.999Z</time>
      </trkpt>
      <trkpt lat="37.36865" lon="-4.60354">
        <ele>307.9</ele>
        <time>2019-10-15T12:54:15.999Z</time>
      </trkpt>
      <trkpt lat="37.36855" lon="-4.60351">
        <ele>308.01</ele>
        <time>2019-10-15T12:54:20.999Z</time>
      </trkpt>
      <trkpt lat="37.36844" lon="-4.60348">
        <ele>308.17</ele>
        <time>2019-10-15T12:54:25.999Z</time>
      </trkpt>
      <trkpt lat="37.36834" lon="-4.60344">
        <ele>308.33</ele>
        <time>2019-10-15T12:54:30.999Z</time>
      </trkpt>
      <trkpt lat="37.36826" lon="-4.6034">
        <ele>308.48</ele>
        <time>2019-10-15T12:54:35.999Z</time>
      </trkpt>
      <trkpt lat="37.36818" lon="-4.60335">
        <ele>308.64</ele>
        <time>2019-10-15T12:54:40.999Z</time>
      </trkpt>
      <trkpt lat="37.3681" lon="-4.60327">
        <ele>308.83</ele>
        <time>2019-10-15T12:54:45.999Z</time>
      </trkpt>
      <trkpt lat="37.36803" lon="-4.60321">
        <ele>309.04</ele>
        <time>2019-10-15T12:54:50.999Z</time>
      </trkpt>
      <trkpt lat="37.36795" lon="-4.60313">
        <ele>309.3</ele>
        <time>2019-10-15T12:54:55.999Z</time>
      </trkpt>
      <trkpt lat="37.36787" lon="-4.60303">
        <ele>309.57</ele>
        <time>2019-10-15T12:55:00.999Z</time>
      </trkpt>
      <trkpt lat="37.3678" lon="-4.60293">
        <ele>309.83</ele>
        <time>2019-10-15T12:55:05.999Z</time>
      </trkpt>
      <trkpt lat="37.36773" lon="-4.60285">
        <ele>310.06</ele>
        <time>2019-10-15T12:55:10.999Z</time>
      </trkpt>
      <trkpt lat="37.36765" lon="-4.60276">
        <ele>310.25</ele>
        <time>2019-10-15T12:55:15.999Z</time>
      </trkpt>
      <trkpt lat="37.36757" lon="-4.60268">
        <ele>310.43</ele>
        <time>2019-10-15T12:55:20.999Z</time>
      </trkpt>
      <trkpt lat="37.36749" lon="-4.6026">
        <ele>310.61</ele>
        <time>2019-10-15T12:55:25.999Z</time>
      </trkpt>
      <trkpt lat="37.36739" lon="-4.60254">
        <ele>310.81</ele>
        <time>2019-10-15T12:55:30.999Z</time>
      </trkpt>
      <trkpt lat="37.3673" lon="-4.60248">
        <ele>311.01</ele>
        <time>2019-10-15T12:55:35.999Z</time>
      </trkpt>
      <trkpt lat="37.36721" lon="-4.60244">
        <ele>311.2</ele>
        <time>2019-10-15T12:55:40.999Z</time>
      </trkpt>
      <trkpt lat="37.36712" lon="-4.60241">
        <ele>311.37</ele>
        <time>2019-10-15T12:55:45.999Z</time>
      </trkpt>
      <trkpt lat="37.36701" lon="-4.60239">
        <ele>311.52</ele>
        <time>2019-10-15T12:55:50.999Z</time>
      </trkpt>
      <trkpt lat="37.3669" lon="-4.60237">
        <ele>311.66</ele>
        <time>2019-10-15T12:55:55.999Z</time>
      </trkpt>
      <trkpt lat="37.36679" lon="-4.60236">
        <ele>311.8</ele>
        <time>2019-10-15T12:56:00.999Z</time>
      </trkpt>
      <trkpt lat="37.36667" lon="-4.60237">
        <ele>311.93</ele>
        <time>2019-10-15T12:56:05.999Z</time>
      </trkpt>
      <trkpt lat="37.36655" lon="-4.60239">
        <ele>312.07</ele>
        <time>2019-10-15T12:56:10.999Z</time>
      </trkpt>
      <trkpt lat="37.36643" lon="-4.60243">
        <ele>312.24</ele>
        <time>2019-10-15T12:56:15.999Z</time>
      </trkpt>
      <trkpt lat="37.36632" lon="-4.6025">
        <ele>312.45</ele>
        <time>2019-10-15T12:56:20.999Z</time>
      </trkpt>
      <trkpt lat="37.36619" lon="-4.60257">
        <ele>312.69</ele>
        <time>2019-10-15T12:56:25.999Z</time>
      </trkpt>
      <trkpt lat="37.36607" lon="-4.60265">
        <ele>312.94</ele>
        <time>2019-10-15T12:56:30.999Z</time>
      </trkpt>
      <trkpt lat="37.36596" lon="-4.60276">
        <ele>313.21</ele>
        <time>2019-10-15T12:56:35.999Z</time>
      </trkpt>
      <trkpt lat="37.36585" lon="-4.60287">
        <ele>313.49</ele>
        <time>2019-10-15T12:56:40.999Z</time>
      </trkpt>
      <trkpt lat="37.36574" lon="-4.60297">
        <ele>313.77</ele>
        <time>2019-10-15T12:56:45.999Z</time>
      </trkpt>
      <trkpt lat="37.36563" lon="-4.60307">
        <ele>314.07</ele>
        <time>2019-10-15T12:56:50.999Z</time>
      </trkpt>
      <trkpt lat="37.3655" lon="-4.60316">
        <ele>314.37</ele>
        <time>2019-10-15T12:56:55.999Z</time>
      </trkpt>
      <trkpt lat="37.36536" lon="-4.60324">
        <ele>314.67</ele>
        <time>2019-10-15T12:57:00.999Z</time>
      </trkpt>
      <trkpt lat="37.36521" lon="-4.6033">
        <ele>314.99</ele>
        <time>2019-10-15T12:57:05.999Z</time>
      </trkpt>
      <trkpt lat="37.36505" lon="-4.60335">
        <ele>315.32</ele>
        <time>2019-10-15T12:57:10.999Z</time>
      </trkpt>
      <trkpt lat="37.36488" lon="-4.60338">
        <ele>315.68</ele>
        <time>2019-10-15T12:57:15.999Z</time>
      </trkpt>
      <trkpt lat="37.3647" lon="-4.60339">
        <ele>316.02</ele>
        <time>2019-10-15T12:57:20.999Z</time>
      </trkpt>
      <trkpt lat="37.36454" lon="-4.60337">
        <ele>316.34</ele>
        <time>2019-10-15T12:57:25.999Z</time>
      </trkpt>
      <trkpt lat="37.36438" lon="-4.60334">
        <ele>316.63</ele>
        <time>2019-10-15T12:57:30.999Z</time>
      </trkpt>
      <trkpt lat="37.36422" lon="-4.60327">
        <ele>316.92</ele>
        <time>2019-10-15T12:57:35.999Z</time>
      </trkpt>
      <trkpt lat="37.36407" lon="-4.60319">
        <ele>317.23</ele>
        <time>2019-10-15T12:57:40.999Z</time>
      </trkpt>
      <trkpt lat="37.36393" lon="-4.60311">
        <ele>317.55</ele>
        <time>2019-10-15T12:57:45.999Z</time>
      </trkpt>
      <trkpt lat="37.3638" lon="-4.60302">
        <ele>317.91</ele>
        <time>2019-10-15T12:57:50.999Z</time>
      </trkpt>
      <trkpt lat="37.36367" lon="-4.60293">
        <ele>318.28</ele>
        <time>2019-10-15T12:57:55.999Z</time>
      </trkpt>
      <trkpt lat="37.36355" lon="-4.60286">
        <ele>318.67</ele>
        <time>2019-10-15T12:58:00.999Z</time>
      </trkpt>
      <trkpt lat="37.36344" lon="-4.60279">
        <ele>319.07</ele>
        <time>2019-10-15T12:58:05.999Z</time>
      </trkpt>
      <trkpt lat="37.36333" lon="-4.60272">
        <ele>319.48</ele>
        <time>2019-10-15T12:58:10.999Z</time>
      </trkpt>
      <trkpt lat="37.36323" lon="-4.60266">
        <ele>319.92</ele>
        <time>2019-10-15T12:58:15.999Z</time>
      </trkpt>
      <trkpt lat="37.36314" lon="-4.6026">
        <ele>320.37</ele>
        <time>2019-10-15T12:58:20.999Z</time>
      </trkpt>
      <trkpt lat="37.36305" lon="-4.60254">
        <ele>320.84</ele>
        <time>2019-10-15T12:58:25.999Z</time>
      </trkpt>
      <trkpt lat="37.36296" lon="-4.60247">
        <ele>321.29</ele>
        <time>2019-10-15T12:58:30.999Z</time>
      </trkpt>
      <trkpt lat="37.36287" lon="-4.60239">
        <ele>321.71</ele>
        <time>2019-10-15T12:58:35.999Z</time>
      </trkpt>
      <trkpt lat="37.36279" lon="-4.60232">
        <ele>322.1</ele>
        <time>2019-10-15T12:58:40.999Z</time>
      </trkpt>
      <trkpt lat="37.36272" lon="-4.60224">
        <ele>322.51</ele>
        <time>2019-10-15T12:58:45.999Z</time>
      </trkpt>
      <trkpt lat="37.36265" lon="-4.60214">
        <ele>322.95</ele>
        <time>2019-10-15T12:58:50.999Z</time>
      </trkpt>
      <trkpt lat="37.36259" lon="-4.60205">
        <ele>323.4</ele>
        <time>2019-10-15T12:58:55.999Z</time>
      </trkpt>
      <trkpt lat="37.36254" lon="-4.60195">
        <ele>323.86</ele>
        <time>2019-10-15T12:59:00.999Z</time>
      </trkpt>
      <trkpt lat="37.36249" lon="-4.60183">
        <ele>324.42</ele>
        <time>2019-10-15T12:59:06.999Z</time>
      </trkpt>
      <trkpt lat="37.36246" lon="-4.60173">
        <ele>324.89</ele>
        <time>2019-10-15T12:59:11.999Z</time>
      </trkpt>
      <trkpt lat="37.36241" lon="-4.60162">
        <ele>325.47</ele>
        <time>2019-10-15T12:59:17.999Z</time>
      </trkpt>
      <trkpt lat="37.36236" lon="-4.60152">
        <ele>326.05</ele>
        <time>2019-10-15T12:59:23.999Z</time>
      </trkpt>
      <trkpt lat="37.36231" lon="-4.60141">
        <ele>326.53</ele>
        <time>2019-10-15T12:59:28.999Z</time>
      </trkpt>
      <trkpt lat="37.36225" lon="-4.60129">
        <ele>327</ele>
        <time>2019-10-15T12:59:33.999Z</time>
      </trkpt>
      <trkpt lat="37.36219" lon="-4.60119">
        <ele>327.46</ele>
        <time>2019-10-15T12:59:38.999Z</time>
      </trkpt>
      <trkpt lat="37.36211" lon="-4.60107">
        <ele>327.93</ele>
        <time>2019-10-15T12:59:43.999Z</time>
      </trkpt>
      <trkpt lat="37.36205" lon="-4.60098">
        <ele>328.41</ele>
        <time>2019-10-15T12:59:48.999Z</time>
      </trkpt>
      <trkpt lat="37.36197" lon="-4.60089">
        <ele>328.88</ele>
        <time>2019-10-15T12:59:53.999Z</time>
      </trkpt>
      <trkpt lat="37.36189" lon="-4.60082">
        <ele>329.36</ele>
        <time>2019-10-15T12:59:58.999Z</time>
      </trkpt>
      <trkpt lat="37.36181" lon="-4.60074">
        <ele>329.85</ele>
        <time>2019-10-15T13:00:03.999Z</time>
      </trkpt>
      <trkpt lat="37.36173" lon="-4.60066">
        <ele>330.33</ele>
        <time>2019-10-15T13:00:08.999Z</time>
      </trkpt>
      <trkpt lat="37.36164" lon="-4.60057">
        <ele>330.82</ele>
        <time>2019-10-15T13:00:13.999Z</time>
      </trkpt>
      <trkpt lat="37.36155" lon="-4.60049">
        <ele>331.31</ele>
        <time>2019-10-15T13:00:18.999Z</time>
      </trkpt>
      <trkpt lat="37.36147" lon="-4.60042">
        <ele>331.81</ele>
        <time>2019-10-15T13:00:23.999Z</time>
      </trkpt>
      <trkpt lat="37.36139" lon="-4.60035">
        <ele>332.32</ele>
        <time>2019-10-15T13:00:28.999Z</time>
      </trkpt>
      <trkpt lat="37.36131" lon="-4.60028">
        <ele>332.83</ele>
        <time>2019-10-15T13:00:33.999Z</time>
      </trkpt>
      <trkpt lat="37.36123" lon="-4.6002">
        <ele>333.34</ele>
        <time>2019-10-15T13:00:38.999Z</time>
      </trkpt>
      <trkpt lat="37.36115" lon="-4.60013">
        <ele>333.86</ele>
        <time>2019-10-15T13:00:43.999Z</time>
      </trkpt>
      <trkpt lat="37.36106" lon="-4.60005">
        <ele>334.38</ele>
        <time>2019-10-15T13:00:48.999Z</time>
      </trkpt>
      <trkpt lat="37.36098" lon="-4.59997">
        <ele>334.89</ele>
        <time>2019-10-15T13:00:53.999Z</time>
      </trkpt>
      <trkpt lat="37.3609" lon="-4.5999">
        <ele>335.41</ele>
        <time>2019-10-15T13:00:58.999Z</time>
      </trkpt>
      <trkpt lat="37.36081" lon="-4.59982">
        <ele>335.92</ele>
        <time>2019-10-15T13:01:03.999Z</time>
      </trkpt>
      <trkpt lat="37.36072" lon="-4.59973">
        <ele>336.43</ele>
        <time>2019-10-15T13:01:08.999Z</time>
      </trkpt>
      <trkpt lat="37.36063" lon="-4.59965">
        <ele>336.94</ele>
        <time>2019-10-15T13:01:13.999Z</time>
      </trkpt>
      <trkpt lat="37.36054" lon="-4.59957">
        <ele>337.44</ele>
        <time>2019-10-15T13:01:18.999Z</time>
      </trkpt>
      <trkpt lat="37.36046" lon="-4.59948">
        <ele>339.51</ele>
        <time>2019-10-15T13:02:32.999Z</time>
      </trkpt>
      <trkpt lat="37.36034" lon="-4.59938">
        <ele>339.95</ele>
        <time>2019-10-15T13:02:37.999Z</time>
      </trkpt>
      <trkpt lat="37.36019" lon="-4.59926">
        <ele>340.93</ele>
        <time>2019-10-15T13:02:42.999Z</time>
      </trkpt>
      <trkpt lat="37.36003" lon="-4.59911">
        <ele>343.48</ele>
        <time>2019-10-15T13:02:47.999Z</time>
      </trkpt>
      <trkpt lat="37.35982" lon="-4.59893">
        <ele>344.61</ele>
        <time>2019-10-15T13:02:52.999Z</time>
      </trkpt>
      <trkpt lat="37.35957" lon="-4.59875">
        <ele>345.19</ele>
        <time>2019-10-15T13:02:57.999Z</time>
      </trkpt>
      <trkpt lat="37.35929" lon="-4.59863">
        <ele>345.65</ele>
        <time>2019-10-15T13:03:02.999Z</time>
      </trkpt>
      <trkpt lat="37.35898" lon="-4.59861">
        <ele>346.11</ele>
        <time>2019-10-15T13:03:08.000Z</time>
      </trkpt>
      <trkpt lat="37.35869" lon="-4.59866">
        <ele>346.55</ele>
        <time>2019-10-15T13:03:13.000Z</time>
      </trkpt>
      <trkpt lat="37.35841" lon="-4.59872">
        <ele>346.96</ele>
        <time>2019-10-15T13:03:18.000Z</time>
      </trkpt>
      <trkpt lat="37.35813" lon="-4.59877">
        <ele>347.4</ele>
        <time>2019-10-15T13:03:23.000Z</time>
      </trkpt>
      <trkpt lat="37.35785" lon="-4.59881">
        <ele>347.89</ele>
        <time>2019-10-15T13:03:28.000Z</time>
      </trkpt>
      <trkpt lat="37.35758" lon="-4.59881">
        <ele>348.34</ele>
        <time>2019-10-15T13:03:33.000Z</time>
      </trkpt>
      <trkpt lat="37.35731" lon="-4.59874">
        <ele>348.64</ele>
        <time>2019-10-15T13:03:38.000Z</time>
      </trkpt>
      <trkpt lat="37.35701" lon="-4.59865">
        <ele>348.82</ele>
        <time>2019-10-15T13:03:43.000Z</time>
      </trkpt>
      <trkpt lat="37.35671" lon="-4.59857">
        <ele>349.1</ele>
        <time>2019-10-15T13:03:48.000Z</time>
      </trkpt>
      <trkpt lat="37.3564" lon="-4.59854">
        <ele>349.5</ele>
        <time>2019-10-15T13:03:53.000Z</time>
      </trkpt>
      <trkpt lat="37.3561" lon="-4.59857">
        <ele>350.06</ele>
        <time>2019-10-15T13:03:58.000Z</time>
      </trkpt>
      <trkpt lat="37.35581" lon="-4.59869">
        <ele>350.62</ele>
        <time>2019-10-15T13:04:03.000Z</time>
      </trkpt>
      <trkpt lat="37.35553" lon="-4.59888">
        <ele>351.24</ele>
        <time>2019-10-15T13:04:08.000Z</time>
      </trkpt>
      <trkpt lat="37.35527" lon="-4.59911">
        <ele>351.96</ele>
        <time>2019-10-15T13:04:13.000Z</time>
      </trkpt>
      <trkpt lat="37.35502" lon="-4.59934">
        <ele>352.59</ele>
        <time>2019-10-15T13:04:18.000Z</time>
      </trkpt>
      <trkpt lat="37.35477" lon="-4.59957">
        <ele>353.2</ele>
        <time>2019-10-15T13:04:23.000Z</time>
      </trkpt>
      <trkpt lat="37.35452" lon="-4.59979">
        <ele>354.2</ele>
        <time>2019-10-15T13:04:28.000Z</time>
      </trkpt>
      <trkpt lat="37.35426" lon="-4.6">
        <ele>354.92</ele>
        <time>2019-10-15T13:04:33.000Z</time>
      </trkpt>
      <trkpt lat="37.35396" lon="-4.60018">
        <ele>355.49</ele>
        <time>2019-10-15T13:04:38.000Z</time>
      </trkpt>
      <trkpt lat="37.35363" lon="-4.60029">
        <ele>355.87</ele>
        <time>2019-10-15T13:04:43.000Z</time>
      </trkpt>
      <trkpt lat="37.35328" lon="-4.60035">
        <ele>355.97</ele>
        <time>2019-10-15T13:04:48.000Z</time>
      </trkpt>
      <trkpt lat="37.35291" lon="-4.6004">
        <ele>355.94</ele>
        <time>2019-10-15T13:04:53.000Z</time>
      </trkpt>
      <trkpt lat="37.35254" lon="-4.60045">
        <ele>355.76</ele>
        <time>2019-10-15T13:04:58.000Z</time>
      </trkpt>
      <trkpt lat="37.35217" lon="-4.6005">
        <ele>355.59</ele>
        <time>2019-10-15T13:05:03.000Z</time>
      </trkpt>
      <trkpt lat="37.35181" lon="-4.60054">
        <ele>355.58</ele>
        <time>2019-10-15T13:05:08.000Z</time>
      </trkpt>
      <trkpt lat="37.35144" lon="-4.60059">
        <ele>355.27</ele>
        <time>2019-10-15T13:05:13.000Z</time>
      </trkpt>
      <trkpt lat="37.35105" lon="-4.60063">
        <ele>355.22</ele>
        <time>2019-10-15T13:05:18.000Z</time>
      </trkpt>
      <trkpt lat="37.35064" lon="-4.60069">
        <ele>354.87</ele>
        <time>2019-10-15T13:05:23.000Z</time>
      </trkpt>
      <trkpt lat="37.35018" lon="-4.60077">
        <ele>354.15</ele>
        <time>2019-10-15T13:05:28.000Z</time>
      </trkpt>
      <trkpt lat="37.34971" lon="-4.60096">
        <ele>353.51</ele>
        <time>2019-10-15T13:05:33.000Z</time>
      </trkpt>
      <trkpt lat="37.34923" lon="-4.60116">
        <ele>352.84</ele>
        <time>2019-10-15T13:05:38.000Z</time>
      </trkpt>
      <trkpt lat="37.34875" lon="-4.60136">
        <ele>352.61</ele>
        <time>2019-10-15T13:05:43.000Z</time>
      </trkpt>
      <trkpt lat="37.34834" lon="-4.60153">
        <ele>352.6</ele>
        <time>2019-10-15T13:05:48.000Z</time>
      </trkpt>
      <trkpt lat="37.348" lon="-4.60167">
        <ele>352.38</ele>
        <time>2019-10-15T13:05:53.000Z</time>
      </trkpt>
      <trkpt lat="37.34772" lon="-4.60179">
        <ele>352.1</ele>
        <time>2019-10-15T13:05:58.000Z</time>
      </trkpt>
      <trkpt lat="37.34748" lon="-4.60189">
        <ele>351.77</ele>
        <time>2019-10-15T13:06:03.000Z</time>
      </trkpt>
      <trkpt lat="37.34727" lon="-4.60198">
        <ele>351.39</ele>
        <time>2019-10-15T13:06:08.000Z</time>
      </trkpt>
      <trkpt lat="37.34708" lon="-4.60206">
        <ele>351.38</ele>
        <time>2019-10-15T13:06:13.000Z</time>
      </trkpt>
      <trkpt lat="37.34691" lon="-4.60214">
        <ele>351.37</ele>
        <time>2019-10-15T13:06:18.000Z</time>
      </trkpt>
      <trkpt lat="37.34675" lon="-4.60221">
        <ele>351.33</ele>
        <time>2019-10-15T13:06:23.000Z</time>
      </trkpt>
      <trkpt lat="37.34659" lon="-4.60227">
        <ele>351.26</ele>
        <time>2019-10-15T13:06:28.000Z</time>
      </trkpt>
      <trkpt lat="37.34643" lon="-4.60233">
        <ele>351.19</ele>
        <time>2019-10-15T13:06:33.000Z</time>
      </trkpt>
      <trkpt lat="37.34628" lon="-4.60239">
        <ele>351.11</ele>
        <time>2019-10-15T13:06:38.000Z</time>
      </trkpt>
      <trkpt lat="37.34614" lon="-4.60245">
        <ele>351.04</ele>
        <time>2019-10-15T13:06:43.000Z</time>
      </trkpt>
      <trkpt lat="37.34599" lon="-4.60251">
        <ele>351.01</ele>
        <time>2019-10-15T13:06:48.000Z</time>
      </trkpt>
      <trkpt lat="37.34585" lon="-4.60259">
        <ele>351</ele>
        <time>2019-10-15T13:06:53.000Z</time>
      </trkpt>
      <trkpt lat="37.34571" lon="-4.60267">
        <ele>350.98</ele>
        <time>2019-10-15T13:06:58.000Z</time>
      </trkpt>
      <trkpt lat="37.34555" lon="-4.60276">
        <ele>350.94</ele>
        <time>2019-10-15T13:07:03.000Z</time>
      </trkpt>
      <trkpt lat="37.34543" lon="-4.60285">
        <ele>350.89</ele>
        <time>2019-10-15T13:07:08.000Z</time>
      </trkpt>
      <trkpt lat="37.3453" lon="-4.60296">
        <ele>350.82</ele>
        <time>2019-10-15T13:07:13.000Z</time>
      </trkpt>
      <trkpt lat="37.34517" lon="-4.60307">
        <ele>350.76</ele>
        <time>2019-10-15T13:07:18.000Z</time>
      </trkpt>
      <trkpt lat="37.34504" lon="-4.60318">
        <ele>350.7</ele>
        <time>2019-10-15T13:07:23.000Z</time>
      </trkpt>
      <trkpt lat="37.34492" lon="-4.60329">
        <ele>350.64</ele>
        <time>2019-10-15T13:07:28.000Z</time>
      </trkpt>
      <trkpt lat="37.34481" lon="-4.6034">
        <ele>350.59</ele>
        <time>2019-10-15T13:07:33.000Z</time>
      </trkpt>
      <trkpt lat="37.34469" lon="-4.6035">
        <ele>350.56</ele>
        <time>2019-10-15T13:07:38.000Z</time>
      </trkpt>
      <trkpt lat="37.34456" lon="-4.60361">
        <ele>350.56</ele>
        <time>2019-10-15T13:07:43.000Z</time>
      </trkpt>
      <trkpt lat="37.34445" lon="-4.60372">
        <ele>350.59</ele>
        <time>2019-10-15T13:07:48.000Z</time>
      </trkpt>
      <trkpt lat="37.34433" lon="-4.60384">
        <ele>350.64</ele>
        <time>2019-10-15T13:07:53.000Z</time>
      </trkpt>
      <trkpt lat="37.34422" lon="-4.60395">
        <ele>350.75</ele>
        <time>2019-10-15T13:07:58.000Z</time>
      </trkpt>
      <trkpt lat="37.3441" lon="-4.60406">
        <ele>350.91</ele>
        <time>2019-10-15T13:08:03.000Z</time>
      </trkpt>
      <trkpt lat="37.34398" lon="-4.60416">
        <ele>351.09</ele>
        <time>2019-10-15T13:08:08.000Z</time>
      </trkpt>
      <trkpt lat="37.34386" lon="-4.60427">
        <ele>351.31</ele>
        <time>2019-10-15T13:08:13.000Z</time>
      </trkpt>
      <trkpt lat="37.34374" lon="-4.60438">
        <ele>351.56</ele>
        <time>2019-10-15T13:08:18.000Z</time>
      </trkpt>
      <trkpt lat="37.34361" lon="-4.60449">
        <ele>351.87</ele>
        <time>2019-10-15T13:08:23.000Z</time>
      </trkpt>
      <trkpt lat="37.34348" lon="-4.60458">
        <ele>352.22</ele>
        <time>2019-10-15T13:08:28.000Z</time>
      </trkpt>
      <trkpt lat="37.34336" lon="-4.60469">
        <ele>352.61</ele>
        <time>2019-10-15T13:08:33.000Z</time>
      </trkpt>
      <trkpt lat="37.34324" lon="-4.60479">
        <ele>353</ele>
        <time>2019-10-15T13:08:38.000Z</time>
      </trkpt>
      <trkpt lat="37.34312" lon="-4.60489">
        <ele>353.41</ele>
        <time>2019-10-15T13:08:43.000Z</time>
      </trkpt>
      <trkpt lat="37.343" lon="-4.60499">
        <ele>353.81</ele>
        <time>2019-10-15T13:08:48.000Z</time>
      </trkpt>
      <trkpt lat="37.34287" lon="-4.60509">
        <ele>354.23</ele>
        <time>2019-10-15T13:08:53.000Z</time>
      </trkpt>
      <trkpt lat="37.34276" lon="-4.6052">
        <ele>354.64</ele>
        <time>2019-10-15T13:08:58.000Z</time>
      </trkpt>
      <trkpt lat="37.34263" lon="-4.60529">
        <ele>355.03</ele>
        <time>2019-10-15T13:09:03.000Z</time>
      </trkpt>
      <trkpt lat="37.34252" lon="-4.60539">
        <ele>355.4</ele>
        <time>2019-10-15T13:09:08.000Z</time>
      </trkpt>
      <trkpt lat="37.3424" lon="-4.60549">
        <ele>355.76</ele>
        <time>2019-10-15T13:09:13.000Z</time>
      </trkpt>
      <trkpt lat="37.34229" lon="-4.60559">
        <ele>356.11</ele>
        <time>2019-10-15T13:09:18.000Z</time>
      </trkpt>
      <trkpt lat="37.34219" lon="-4.60569">
        <ele>356.45</ele>
        <time>2019-10-15T13:09:23.000Z</time>
      </trkpt>
      <trkpt lat="37.34209" lon="-4.60577">
        <ele>356.79</ele>
        <time>2019-10-15T13:09:28.000Z</time>
      </trkpt>
      <trkpt lat="37.34199" lon="-4.60584">
        <ele>357.12</ele>
        <time>2019-10-15T13:09:33.000Z</time>
      </trkpt>
      <trkpt lat="37.3419" lon="-4.60592">
        <ele>357.43</ele>
        <time>2019-10-15T13:09:38.000Z</time>
      </trkpt>
      <trkpt lat="37.34181" lon="-4.606">
        <ele>357.75</ele>
        <time>2019-10-15T13:09:43.000Z</time>
      </trkpt>
      <trkpt lat="37.34173" lon="-4.60607">
        <ele>358.07</ele>
        <time>2019-10-15T13:09:48.000Z</time>
      </trkpt>
      <trkpt lat="37.34164" lon="-4.60614">
        <ele>358.48</ele>
        <time>2019-10-15T13:09:54.000Z</time>
      </trkpt>
      <trkpt lat="37.34157" lon="-4.60621">
        <ele>358.87</ele>
        <time>2019-10-15T13:10:00.000Z</time>
      </trkpt>
      <trkpt lat="37.3415" lon="-4.60629">
        <ele>359.26</ele>
        <time>2019-10-15T13:10:06.000Z</time>
      </trkpt>
      <trkpt lat="37.34141" lon="-4.60637">
        <ele>359.65</ele>
        <time>2019-10-15T13:10:12.000Z</time>
      </trkpt>
      <trkpt lat="37.34133" lon="-4.60645">
        <ele>360.04</ele>
        <time>2019-10-15T13:10:18.000Z</time>
      </trkpt>
      <trkpt lat="37.34125" lon="-4.60652">
        <ele>360.43</ele>
        <time>2019-10-15T13:10:24.000Z</time>
      </trkpt>
      <trkpt lat="37.34116" lon="-4.60657">
        <ele>360.75</ele>
        <time>2019-10-15T13:10:29.000Z</time>
      </trkpt>
      <trkpt lat="37.34108" lon="-4.60663">
        <ele>361.07</ele>
        <time>2019-10-15T13:10:34.000Z</time>
      </trkpt>
      <trkpt lat="37.34098" lon="-4.6067">
        <ele>361.5</ele>
        <time>2019-10-15T13:10:40.000Z</time>
      </trkpt>
      <trkpt lat="37.34089" lon="-4.60675">
        <ele>361.89</ele>
        <time>2019-10-15T13:10:45.000Z</time>
      </trkpt>
      <trkpt lat="37.34081" lon="-4.60682">
        <ele>362.31</ele>
        <time>2019-10-15T13:10:50.000Z</time>
      </trkpt>
      <trkpt lat="37.34072" lon="-4.60687">
        <ele>362.73</ele>
        <time>2019-10-15T13:10:55.000Z</time>
      </trkpt>
      <trkpt lat="37.34062" lon="-4.60694">
        <ele>363.16</ele>
        <time>2019-10-15T13:11:00.000Z</time>
      </trkpt>
      <trkpt lat="37.34054" lon="-4.60699">
        <ele>363.6</ele>
        <time>2019-10-15T13:11:05.000Z</time>
      </trkpt>
      <trkpt lat="37.34045" lon="-4.60706">
        <ele>364.03</ele>
        <time>2019-10-15T13:11:10.000Z</time>
      </trkpt>
      <trkpt lat="37.34036" lon="-4.60711">
        <ele>364.47</ele>
        <time>2019-10-15T13:11:15.000Z</time>
      </trkpt>
      <trkpt lat="37.34028" lon="-4.60717">
        <ele>364.9</ele>
        <time>2019-10-15T13:11:20.000Z</time>
      </trkpt>
      <trkpt lat="37.34018" lon="-4.60723">
        <ele>365.33</ele>
        <time>2019-10-15T13:11:25.000Z</time>
      </trkpt>
      <trkpt lat="37.34007" lon="-4.60729">
        <ele>365.75</ele>
        <time>2019-10-15T13:11:30.000Z</time>
      </trkpt>
      <trkpt lat="37.33996" lon="-4.60736">
        <ele>366.16</ele>
        <time>2019-10-15T13:11:35.000Z</time>
      </trkpt>
      <trkpt lat="37.33985" lon="-4.60741">
        <ele>366.56</ele>
        <time>2019-10-15T13:11:40.000Z</time>
      </trkpt>
      <trkpt lat="37.33973" lon="-4.60748">
        <ele>366.94</ele>
        <time>2019-10-15T13:11:45.000Z</time>
      </trkpt>
      <trkpt lat="37.33962" lon="-4.60754">
        <ele>367.31</ele>
        <time>2019-10-15T13:11:50.000Z</time>
      </trkpt>
      <trkpt lat="37.3395" lon="-4.60762">
        <ele>367.66</ele>
        <time>2019-10-15T13:11:55.000Z</time>
      </trkpt>
      <trkpt lat="37.33937" lon="-4.6077">
        <ele>368.01</ele>
        <time>2019-10-15T13:12:00.000Z</time>
      </trkpt>
      <trkpt lat="37.33924" lon="-4.60777">
        <ele>368.34</ele>
        <time>2019-10-15T13:12:05.000Z</time>
      </trkpt>
      <trkpt lat="37.33911" lon="-4.60786">
        <ele>368.67</ele>
        <time>2019-10-15T13:12:10.000Z</time>
      </trkpt>
      <trkpt lat="37.33898" lon="-4.60794">
        <ele>368.98</ele>
        <time>2019-10-15T13:12:15.000Z</time>
      </trkpt>
      <trkpt lat="37.33885" lon="-4.60803">
        <ele>369.3</ele>
        <time>2019-10-15T13:12:20.000Z</time>
      </trkpt>
      <trkpt lat="37.33871" lon="-4.60811">
        <ele>369.6</ele>
        <time>2019-10-15T13:12:25.000Z</time>
      </trkpt>
      <trkpt lat="37.33859" lon="-4.60819">
        <ele>369.91</ele>
        <time>2019-10-15T13:12:30.000Z</time>
      </trkpt>
      <trkpt lat="37.33846" lon="-4.60827">
        <ele>370.21</ele>
        <time>2019-10-15T13:12:35.000Z</time>
      </trkpt>
      <trkpt lat="37.33833" lon="-4.60836">
        <ele>370.5</ele>
        <time>2019-10-15T13:12:40.000Z</time>
      </trkpt>
      <trkpt lat="37.3382" lon="-4.60844">
        <ele>370.79</ele>
        <time>2019-10-15T13:12:45.000Z</time>
      </trkpt>
      <trkpt lat="37.33807" lon="-4.60852">
        <ele>371.08</ele>
        <time>2019-10-15T13:12:50.000Z</time>
      </trkpt>
      <trkpt lat="37.33796" lon="-4.60861">
        <ele>371.37</ele>
        <time>2019-10-15T13:12:55.000Z</time>
      </trkpt>
      <trkpt lat="37.33784" lon="-4.60871">
        <ele>371.65</ele>
        <time>2019-10-15T13:13:00.000Z</time>
      </trkpt>
      <trkpt lat="37.33773" lon="-4.60882">
        <ele>371.94</ele>
        <time>2019-10-15T13:13:05.000Z</time>
      </trkpt>
      <trkpt lat="37.33764" lon="-4.60894">
        <ele>372.22</ele>
        <time>2019-10-15T13:13:10.000Z</time>
      </trkpt>
      <trkpt lat="37.33756" lon="-4.60907">
        <ele>372.51</ele>
        <time>2019-10-15T13:13:15.000Z</time>
      </trkpt>
      <trkpt lat="37.3375" lon="-4.6092">
        <ele>372.79</ele>
        <time>2019-10-15T13:13:20.000Z</time>
      </trkpt>
      <trkpt lat="37.33745" lon="-4.60932">
        <ele>373.06</ele>
        <time>2019-10-15T13:13:25.000Z</time>
      </trkpt>
      <trkpt lat="37.3374" lon="-4.60943">
        <ele>373.32</ele>
        <time>2019-10-15T13:13:30.000Z</time>
      </trkpt>
      <trkpt lat="37.33735" lon="-4.60955">
        <ele>373.58</ele>
        <time>2019-10-15T13:13:35.000Z</time>
      </trkpt>
      <trkpt lat="37.33729" lon="-4.60968">
        <ele>373.82</ele>
        <time>2019-10-15T13:13:40.000Z</time>
      </trkpt>
      <trkpt lat="37.33724" lon="-4.6098">
        <ele>374.06</ele>
        <time>2019-10-15T13:13:45.000Z</time>
      </trkpt>
      <trkpt lat="37.33719" lon="-4.6099">
        <ele>374.29</ele>
        <time>2019-10-15T13:13:50.000Z</time>
      </trkpt>
      <trkpt lat="37.33714" lon="-4.60999">
        <ele>374.51</ele>
        <time>2019-10-15T13:13:55.000Z</time>
      </trkpt>
      <trkpt lat="37.33708" lon="-4.61011">
        <ele>374.74</ele>
        <time>2019-10-15T13:14:00.000Z</time>
      </trkpt>
      <trkpt lat="37.33703" lon="-4.61022">
        <ele>375.02</ele>
        <time>2019-10-15T13:14:06.000Z</time>
      </trkpt>
      <trkpt lat="37.337" lon="-4.61033">
        <ele>375.25</ele>
        <time>2019-10-15T13:14:11.000Z</time>
      </trkpt>
      <trkpt lat="37.33694" lon="-4.61044">
        <ele>375.52</ele>
        <time>2019-10-15T13:14:17.000Z</time>
      </trkpt>
      <trkpt lat="37.3369" lon="-4.61055">
        <ele>375.74</ele>
        <time>2019-10-15T13:14:22.000Z</time>
      </trkpt>
      <trkpt lat="37.33683" lon="-4.61063">
        <ele>376.01</ele>
        <time>2019-10-15T13:14:28.000Z</time>
      </trkpt>
      <trkpt lat="37.33676" lon="-4.61073">
        <ele>376.28</ele>
        <time>2019-10-15T13:14:34.000Z</time>
      </trkpt>
      <trkpt lat="37.33668" lon="-4.61081">
        <ele>376.55</ele>
        <time>2019-10-15T13:14:40.000Z</time>
      </trkpt>
      <trkpt lat="37.33661" lon="-4.61089">
        <ele>376.78</ele>
        <time>2019-10-15T13:14:45.000Z</time>
      </trkpt>
      <trkpt lat="37.33653" lon="-4.61097">
        <ele>377.08</ele>
        <time>2019-10-15T13:14:51.000Z</time>
      </trkpt>
      <trkpt lat="37.33644" lon="-4.61103">
        <ele>377.39</ele>
        <time>2019-10-15T13:14:57.000Z</time>
      </trkpt>
      <trkpt lat="37.33635" lon="-4.61109">
        <ele>377.72</ele>
        <time>2019-10-15T13:15:03.000Z</time>
      </trkpt>
      <trkpt lat="37.33625" lon="-4.61113">
        <ele>378.06</ele>
        <time>2019-10-15T13:15:09.000Z</time>
      </trkpt>
      <trkpt lat="37.33616" lon="-4.61116">
        <ele>378.42</ele>
        <time>2019-10-15T13:15:15.000Z</time>
      </trkpt>
      <trkpt lat="37.33607" lon="-4.61119">
        <ele>378.78</ele>
        <time>2019-10-15T13:15:21.000Z</time>
      </trkpt>
      <trkpt lat="37.33598" lon="-4.6112">
        <ele>379.15</ele>
        <time>2019-10-15T13:15:27.000Z</time>
      </trkpt>
      <trkpt lat="37.33588" lon="-4.6112">
        <ele>379.54</ele>
        <time>2019-10-15T13:15:33.000Z</time>
      </trkpt>
      <trkpt lat="37.33578" lon="-4.61119">
        <ele>379.93</ele>
        <time>2019-10-15T13:15:39.000Z</time>
      </trkpt>
      <trkpt lat="37.33568" lon="-4.61117">
        <ele>380.33</ele>
        <time>2019-10-15T13:15:45.000Z</time>
      </trkpt>
      <trkpt lat="37.33558" lon="-4.61115">
        <ele>380.75</ele>
        <time>2019-10-15T13:15:51.000Z</time>
      </trkpt>
      <trkpt lat="37.33548" lon="-4.61113">
        <ele>381.16</ele>
        <time>2019-10-15T13:15:57.000Z</time>
      </trkpt>
      <trkpt lat="37.33539" lon="-4.61111">
        <ele>381.52</ele>
        <time>2019-10-15T13:16:02.000Z</time>
      </trkpt>
      <trkpt lat="37.33529" lon="-4.6111">
        <ele>381.87</ele>
        <time>2019-10-15T13:16:07.000Z</time>
      </trkpt>
      <trkpt lat="37.33519" lon="-4.61107">
        <ele>382.22</ele>
        <time>2019-10-15T13:16:12.000Z</time>
      </trkpt>
      <trkpt lat="37.33506" lon="-4.61105">
        <ele>382.57</ele>
        <time>2019-10-15T13:16:17.000Z</time>
      </trkpt>
      <trkpt lat="37.33493" lon="-4.61103">
        <ele>382.92</ele>
        <time>2019-10-15T13:16:22.000Z</time>
      </trkpt>
      <trkpt lat="37.3348" lon="-4.61101">
        <ele>383.27</ele>
        <time>2019-10-15T13:16:27.000Z</time>
      </trkpt>
      <trkpt lat="37.33466" lon="-4.61099">
        <ele>383.62</ele>
        <time>2019-10-15T13:16:32.000Z</time>
      </trkpt>
      <trkpt lat="37.33452" lon="-4.61097">
        <ele>383.97</ele>
        <time>2019-10-15T13:16:37.000Z</time>
      </trkpt>
      <trkpt lat="37.33437" lon="-4.61095">
        <ele>384.32</ele>
        <time>2019-10-15T13:16:42.000Z</time>
      </trkpt>
      <trkpt lat="37.33421" lon="-4.61094">
        <ele>384.66</ele>
        <time>2019-10-15T13:16:47.000Z</time>
      </trkpt>
      <trkpt lat="37.33406" lon="-4.61095">
        <ele>385</ele>
        <time>2019-10-15T13:16:52.000Z</time>
      </trkpt>
      <trkpt lat="37.33391" lon="-4.61099">
        <ele>385.34</ele>
        <time>2019-10-15T13:16:57.000Z</time>
      </trkpt>
      <trkpt lat="37.33378" lon="-4.61104">
        <ele>385.68</ele>
        <time>2019-10-15T13:17:02.000Z</time>
      </trkpt>
      <trkpt lat="37.33365" lon="-4.6111">
        <ele>386.01</ele>
        <time>2019-10-15T13:17:07.000Z</time>
      </trkpt>
      <trkpt lat="37.33353" lon="-4.61115">
        <ele>386.34</ele>
        <time>2019-10-15T13:17:12.000Z</time>
      </trkpt>
      <trkpt lat="37.33341" lon="-4.61121">
        <ele>386.68</ele>
        <time>2019-10-15T13:17:17.000Z</time>
      </trkpt>
      <trkpt lat="37.33331" lon="-4.61127">
        <ele>387.02</ele>
        <time>2019-10-15T13:17:22.000Z</time>
      </trkpt>
      <trkpt lat="37.33321" lon="-4.61132">
        <ele>387.37</ele>
        <time>2019-10-15T13:17:27.000Z</time>
      </trkpt>
      <trkpt lat="37.33311" lon="-4.61137">
        <ele>387.71</ele>
        <time>2019-10-15T13:17:32.000Z</time>
      </trkpt>
      <trkpt lat="37.33301" lon="-4.61142">
        <ele>388.07</ele>
        <time>2019-10-15T13:17:37.000Z</time>
      </trkpt>
      <trkpt lat="37.33291" lon="-4.61147">
        <ele>388.42</ele>
        <time>2019-10-15T13:17:42.000Z</time>
      </trkpt>
      <trkpt lat="37.33281" lon="-4.61152">
        <ele>388.78</ele>
        <time>2019-10-15T13:17:47.000Z</time>
      </trkpt>
      <trkpt lat="37.33272" lon="-4.61156">
        <ele>389.14</ele>
        <time>2019-10-15T13:17:52.000Z</time>
      </trkpt>
      <trkpt lat="37.33262" lon="-4.61161">
        <ele>389.5</ele>
        <time>2019-10-15T13:17:57.000Z</time>
      </trkpt>
      <trkpt lat="37.33253" lon="-4.61166">
        <ele>389.87</ele>
        <time>2019-10-15T13:18:02.000Z</time>
      </trkpt>
      <trkpt lat="37.33244" lon="-4.61171">
        <ele>390.23</ele>
        <time>2019-10-15T13:18:07.000Z</time>
      </trkpt>
      <trkpt lat="37.33234" lon="-4.61176">
        <ele>390.6</ele>
        <time>2019-10-15T13:18:12.000Z</time>
      </trkpt>
      <trkpt lat="37.33225" lon="-4.6118">
        <ele>390.96</ele>
        <time>2019-10-15T13:18:17.000Z</time>
      </trkpt>
      <trkpt lat="37.33216" lon="-4.61184">
        <ele>391.33</ele>
        <time>2019-10-15T13:18:22.000Z</time>
      </trkpt>
      <trkpt lat="37.33206" lon="-4.6119">
        <ele>391.7</ele>
        <time>2019-10-15T13:18:27.000Z</time>
      </trkpt>
      <trkpt lat="37.33197" lon="-4.61196">
        <ele>392.14</ele>
        <time>2019-10-15T13:18:33.000Z</time>
      </trkpt>
      <trkpt lat="37.33188" lon="-4.612">
        <ele>392.52</ele>
        <time>2019-10-15T13:18:38.000Z</time>
      </trkpt>
      <trkpt lat="37.33179" lon="-4.61204">
        <ele>392.89</ele>
        <time>2019-10-15T13:18:43.000Z</time>
      </trkpt>
      <trkpt lat="37.3317" lon="-4.61208">
        <ele>393.27</ele>
        <time>2019-10-15T13:18:48.000Z</time>
      </trkpt>
      <trkpt lat="37.33161" lon="-4.61213">
        <ele>393.64</ele>
        <time>2019-10-15T13:18:53.000Z</time>
      </trkpt>
      <trkpt lat="37.33152" lon="-4.61218">
        <ele>394.02</ele>
        <time>2019-10-15T13:18:58.000Z</time>
      </trkpt>
      <trkpt lat="37.33143" lon="-4.61222">
        <ele>394.4</ele>
        <time>2019-10-15T13:19:03.000Z</time>
      </trkpt>
      <trkpt lat="37.33135" lon="-4.61227">
        <ele>394.78</ele>
        <time>2019-10-15T13:19:07.999Z</time>
      </trkpt>
      <trkpt lat="37.33127" lon="-4.61232">
        <ele>395.16</ele>
        <time>2019-10-15T13:19:12.999Z</time>
      </trkpt>
      <trkpt lat="37.33118" lon="-4.61236">
        <ele>395.54</ele>
        <time>2019-10-15T13:19:17.999Z</time>
      </trkpt>
      <trkpt lat="37.33107" lon="-4.61241">
        <ele>396</ele>
        <time>2019-10-15T13:19:23.999Z</time>
      </trkpt>
      <trkpt lat="37.33098" lon="-4.61245">
        <ele>396.37</ele>
        <time>2019-10-15T13:19:28.999Z</time>
      </trkpt>
      <trkpt lat="37.33089" lon="-4.6125">
        <ele>396.75</ele>
        <time>2019-10-15T13:19:33.999Z</time>
      </trkpt>
      <trkpt lat="37.33079" lon="-4.61253">
        <ele>397.2</ele>
        <time>2019-10-15T13:19:39.999Z</time>
      </trkpt>
      <trkpt lat="37.3307" lon="-4.61257">
        <ele>397.57</ele>
        <time>2019-10-15T13:19:44.999Z</time>
      </trkpt>
      <trkpt lat="37.33061" lon="-4.61261">
        <ele>397.93</ele>
        <time>2019-10-15T13:19:49.999Z</time>
      </trkpt>
      <trkpt lat="37.33051" lon="-4.61263">
        <ele>398.29</ele>
        <time>2019-10-15T13:19:54.999Z</time>
      </trkpt>
      <trkpt lat="37.33041" lon="-4.61266">
        <ele>398.65</ele>
        <time>2019-10-15T13:19:59.999Z</time>
      </trkpt>
      <trkpt lat="37.33032" lon="-4.61269">
        <ele>399</ele>
        <time>2019-10-15T13:20:04.999Z</time>
      </trkpt>
      <trkpt lat="37.33022" lon="-4.61272">
        <ele>399.44</ele>
        <time>2019-10-15T13:20:10.999Z</time>
      </trkpt>
      <trkpt lat="37.33012" lon="-4.61275">
        <ele>399.87</ele>
        <time>2019-10-15T13:20:16.999Z</time>
      </trkpt>
      <trkpt lat="37.33" lon="-4.61277">
        <ele>400.23</ele>
        <time>2019-10-15T13:20:21.999Z</time>
      </trkpt>
      <trkpt lat="37.3299" lon="-4.61279">
        <ele>400.59</ele>
        <time>2019-10-15T13:20:26.999Z</time>
      </trkpt>
      <trkpt lat="37.32979" lon="-4.61281">
        <ele>400.96</ele>
        <time>2019-10-15T13:20:31.999Z</time>
      </trkpt>
      <trkpt lat="37.32969" lon="-4.61283">
        <ele>401.32</ele>
        <time>2019-10-15T13:20:36.999Z</time>
      </trkpt>
      <trkpt lat="37.32957" lon="-4.61284">
        <ele>401.69</ele>
        <time>2019-10-15T13:20:41.999Z</time>
      </trkpt>
      <trkpt lat="37.32946" lon="-4.61286">
        <ele>402.06</ele>
        <time>2019-10-15T13:20:46.999Z</time>
      </trkpt>
      <trkpt lat="37.32935" lon="-4.61288">
        <ele>402.43</ele>
        <time>2019-10-15T13:20:51.999Z</time>
      </trkpt>
      <trkpt lat="37.32923" lon="-4.6129">
        <ele>402.81</ele>
        <time>2019-10-15T13:20:56.999Z</time>
      </trkpt>
      <trkpt lat="37.32912" lon="-4.61291">
        <ele>403.18</ele>
        <time>2019-10-15T13:21:01.999Z</time>
      </trkpt>
      <trkpt lat="37.32901" lon="-4.61293">
        <ele>403.56</ele>
        <time>2019-10-15T13:21:06.999Z</time>
      </trkpt>
      <trkpt lat="37.3289" lon="-4.61296">
        <ele>403.93</ele>
        <time>2019-10-15T13:21:11.999Z</time>
      </trkpt>
      <trkpt lat="37.32879" lon="-4.61298">
        <ele>404.31</ele>
        <time>2019-10-15T13:21:16.999Z</time>
      </trkpt>
      <trkpt lat="37.32868" lon="-4.61299">
        <ele>404.68</ele>
        <time>2019-10-15T13:21:21.999Z</time>
      </trkpt>
      <trkpt lat="37.32857" lon="-4.61301">
        <ele>405.05</ele>
        <time>2019-10-15T13:21:26.999Z</time>
      </trkpt>
      <trkpt lat="37.32847" lon="-4.61303">
        <ele>405.43</ele>
        <time>2019-10-15T13:21:31.999Z</time>
      </trkpt>
      <trkpt lat="37.32838" lon="-4.61305">
        <ele>405.8</ele>
        <time>2019-10-15T13:21:36.999Z</time>
      </trkpt>
      <trkpt lat="37.32828" lon="-4.61307">
        <ele>406.18</ele>
        <time>2019-10-15T13:21:41.999Z</time>
      </trkpt>
      <trkpt lat="37.32818" lon="-4.6131">
        <ele>406.55</ele>
        <time>2019-10-15T13:21:46.999Z</time>
      </trkpt>
      <trkpt lat="37.32809" lon="-4.61313">
        <ele>406.92</ele>
        <time>2019-10-15T13:21:51.999Z</time>
      </trkpt>
      <trkpt lat="37.328" lon="-4.61316">
        <ele>407.28</ele>
        <time>2019-10-15T13:21:56.999Z</time>
      </trkpt>
      <trkpt lat="37.32791" lon="-4.61318">
        <ele>407.64</ele>
        <time>2019-10-15T13:22:01.999Z</time>
      </trkpt>
      <trkpt lat="37.32781" lon="-4.61321">
        <ele>407.99</ele>
        <time>2019-10-15T13:22:06.999Z</time>
      </trkpt>
      <trkpt lat="37.32771" lon="-4.61323">
        <ele>408.4</ele>
        <time>2019-10-15T13:22:12.999Z</time>
      </trkpt>
      <trkpt lat="37.32762" lon="-4.61326">
        <ele>408.74</ele>
        <time>2019-10-15T13:22:17.999Z</time>
      </trkpt>
      <trkpt lat="37.32753" lon="-4.61331">
        <ele>409.08</ele>
        <time>2019-10-15T13:22:22.999Z</time>
      </trkpt>
      <trkpt lat="37.32745" lon="-4.61338">
        <ele>409.42</ele>
        <time>2019-10-15T13:22:27.999Z</time>
      </trkpt>
      <trkpt lat="37.32736" lon="-4.61345">
        <ele>409.83</ele>
        <time>2019-10-15T13:22:33.999Z</time>
      </trkpt>
      <trkpt lat="37.32728" lon="-4.61353">
        <ele>410.17</ele>
        <time>2019-10-15T13:22:38.999Z</time>
      </trkpt>
      <trkpt lat="37.3272" lon="-4.61361">
        <ele>410.52</ele>
        <time>2019-10-15T13:22:43.999Z</time>
      </trkpt>
      <trkpt lat="37.3271" lon="-4.61369">
        <ele>410.86</ele>
        <time>2019-10-15T13:22:48.999Z</time>
      </trkpt>
      <trkpt lat="37.32701" lon="-4.61377">
        <ele>411.21</ele>
        <time>2019-10-15T13:22:53.999Z</time>
      </trkpt>
      <trkpt lat="37.3269" lon="-4.61389">
        <ele>411.6</ele>
        <time>2019-10-15T13:22:58.999Z</time>
      </trkpt>
      <trkpt lat="37.32678" lon="-4.614">
        <ele>412.02</ele>
        <time>2019-10-15T13:23:03.999Z</time>
      </trkpt>
      <trkpt lat="37.32665" lon="-4.61414">
        <ele>412.47</ele>
        <time>2019-10-15T13:23:08.999Z</time>
      </trkpt>
      <trkpt lat="37.32652" lon="-4.61428">
        <ele>413.57</ele>
        <time>2019-10-15T13:23:13.999Z</time>
      </trkpt>
      <trkpt lat="37.32636" lon="-4.61444">
        <ele>416.49</ele>
        <time>2019-10-15T13:23:18.999Z</time>
      </trkpt>
      <trkpt lat="37.32619" lon="-4.61464">
        <ele>417.88</ele>
        <time>2019-10-15T13:23:23.999Z</time>
      </trkpt>
      <trkpt lat="37.326" lon="-4.61484">
        <ele>418.72</ele>
        <time>2019-10-15T13:23:28.999Z</time>
      </trkpt>
      <trkpt lat="37.32581" lon="-4.61504">
        <ele>419.39</ele>
        <time>2019-10-15T13:23:33.999Z</time>
      </trkpt>
      <trkpt lat="37.32561" lon="-4.61526">
        <ele>419.99</ele>
        <time>2019-10-15T13:23:38.999Z</time>
      </trkpt>
      <trkpt lat="37.32539" lon="-4.61545">
        <ele>420.56</ele>
        <time>2019-10-15T13:23:43.999Z</time>
      </trkpt>
      <trkpt lat="37.32514" lon="-4.61563">
        <ele>421.1</ele>
        <time>2019-10-15T13:23:48.999Z</time>
      </trkpt>
      <trkpt lat="37.32486" lon="-4.61581">
        <ele>421.62</ele>
        <time>2019-10-15T13:23:53.999Z</time>
      </trkpt>
      <trkpt lat="37.32456" lon="-4.61599">
        <ele>422.09</ele>
        <time>2019-10-15T13:23:58.999Z</time>
      </trkpt>
      <trkpt lat="37.32425" lon="-4.61617">
        <ele>422.52</ele>
        <time>2019-10-15T13:24:03.999Z</time>
      </trkpt>
      <trkpt lat="37.32393" lon="-4.61638">
        <ele>423</ele>
        <time>2019-10-15T13:24:08.999Z</time>
      </trkpt>
      <trkpt lat="37.32359" lon="-4.61659">
        <ele>423.7</ele>
        <time>2019-10-15T13:24:13.999Z</time>
      </trkpt>
      <trkpt lat="37.32322" lon="-4.61674">
        <ele>424.37</ele>
        <time>2019-10-15T13:24:18.999Z</time>
      </trkpt>
      <trkpt lat="37.32283" lon="-4.61688">
        <ele>425.1</ele>
        <time>2019-10-15T13:24:23.999Z</time>
      </trkpt>
      <trkpt lat="37.32242" lon="-4.61702">
        <ele>425.97</ele>
        <time>2019-10-15T13:24:28.999Z</time>
      </trkpt>
      <trkpt lat="37.322" lon="-4.61715">
        <ele>426.96</ele>
        <time>2019-10-15T13:24:33.999Z</time>
      </trkpt>
      <trkpt lat="37.32156" lon="-4.61729">
        <ele>427.71</ele>
        <time>2019-10-15T13:24:38.999Z</time>
      </trkpt>
      <trkpt lat="37.32112" lon="-4.61744">
        <ele>428.19</ele>
        <time>2019-10-15T13:24:43.999Z</time>
      </trkpt>
      <trkpt lat="37.32066" lon="-4.6176">
        <ele>428.38</ele>
        <time>2019-10-15T13:24:48.999Z</time>
      </trkpt>
      <trkpt lat="37.32018" lon="-4.61775">
        <ele>428.71</ele>
        <time>2019-10-15T13:24:53.999Z</time>
      </trkpt>
      <trkpt lat="37.3197" lon="-4.61791">
        <ele>428.87</ele>
        <time>2019-10-15T13:24:58.999Z</time>
      </trkpt>
      <trkpt lat="37.31922" lon="-4.61811">
        <ele>428.47</ele>
        <time>2019-10-15T13:25:03.999Z</time>
      </trkpt>
      <trkpt lat="37.3188" lon="-4.61848">
        <ele>428.78</ele>
        <time>2019-10-15T13:25:08.999Z</time>
      </trkpt>
      <trkpt lat="37.31847" lon="-4.61891">
        <ele>428.57</ele>
        <time>2019-10-15T13:25:13.999Z</time>
      </trkpt>
      <trkpt lat="37.31816" lon="-4.61932">
        <ele>428.2</ele>
        <time>2019-10-15T13:25:18.999Z</time>
      </trkpt>
      <trkpt lat="37.31787" lon="-4.6197">
        <ele>427.98</ele>
        <time>2019-10-15T13:25:23.999Z</time>
      </trkpt>
      <trkpt lat="37.31758" lon="-4.62005">
        <ele>427.65</ele>
        <time>2019-10-15T13:25:28.999Z</time>
      </trkpt>
      <trkpt lat="37.31731" lon="-4.62041">
        <ele>427.35</ele>
        <time>2019-10-15T13:25:33.999Z</time>
      </trkpt>
      <trkpt lat="37.31704" lon="-4.62076">
        <ele>427.13</ele>
        <time>2019-10-15T13:25:38.999Z</time>
      </trkpt>
      <trkpt lat="37.31677" lon="-4.62109">
        <ele>426.83</ele>
        <time>2019-10-15T13:25:43.999Z</time>
      </trkpt>
      <trkpt lat="37.31646" lon="-4.62135">
        <ele>426.12</ele>
        <time>2019-10-15T13:25:48.999Z</time>
      </trkpt>
      <trkpt lat="37.31612" lon="-4.62157">
        <ele>425.44</ele>
        <time>2019-10-15T13:25:53.999Z</time>
      </trkpt>
      <trkpt lat="37.31581" lon="-4.62188">
        <ele>424.84</ele>
        <time>2019-10-15T13:25:58.999Z</time>
      </trkpt>
      <trkpt lat="37.31553" lon="-4.62225">
        <ele>424.05</ele>
        <time>2019-10-15T13:26:03.999Z</time>
      </trkpt>
      <trkpt lat="37.31526" lon="-4.62264">
        <ele>423.25</ele>
        <time>2019-10-15T13:26:08.999Z</time>
      </trkpt>
      <trkpt lat="37.31498" lon="-4.62304">
        <ele>422.35</ele>
        <time>2019-10-15T13:26:13.999Z</time>
      </trkpt>
      <trkpt lat="37.3147" lon="-4.62345">
        <ele>421.37</ele>
        <time>2019-10-15T13:26:18.999Z</time>
      </trkpt>
      <trkpt lat="37.31443" lon="-4.62385">
        <ele>420.38</ele>
        <time>2019-10-15T13:26:23.999Z</time>
      </trkpt>
      <trkpt lat="37.31422" lon="-4.62433">
        <ele>419.54</ele>
        <time>2019-10-15T13:26:28.999Z</time>
      </trkpt>
      <trkpt lat="37.31406" lon="-4.6248">
        <ele>419.03</ele>
        <time>2019-10-15T13:26:33.999Z</time>
      </trkpt>
      <trkpt lat="37.31389" lon="-4.62528">
        <ele>418.31</ele>
        <time>2019-10-15T13:26:38.999Z</time>
      </trkpt>
      <trkpt lat="37.31372" lon="-4.62576">
        <ele>417.39</ele>
        <time>2019-10-15T13:26:43.999Z</time>
      </trkpt>
      <trkpt lat="37.31363" lon="-4.62628">
        <ele>416.21</ele>
        <time>2019-10-15T13:26:48.999Z</time>
      </trkpt>
      <trkpt lat="37.3137" lon="-4.6268">
        <ele>414.9</ele>
        <time>2019-10-15T13:26:53.999Z</time>
      </trkpt>
      <trkpt lat="37.31379" lon="-4.62732">
        <ele>413.56</ele>
        <time>2019-10-15T13:26:58.999Z</time>
      </trkpt>
      <trkpt lat="37.31388" lon="-4.62784">
        <ele>412.48</ele>
        <time>2019-10-15T13:27:03.999Z</time>
      </trkpt>
      <trkpt lat="37.31398" lon="-4.62837">
        <ele>411.47</ele>
        <time>2019-10-15T13:27:08.999Z</time>
      </trkpt>
      <trkpt lat="37.31408" lon="-4.6289">
        <ele>410.37</ele>
        <time>2019-10-15T13:27:13.999Z</time>
      </trkpt>
      <trkpt lat="37.31417" lon="-4.62942">
        <ele>409.31</ele>
        <time>2019-10-15T13:27:18.999Z</time>
      </trkpt>
      <trkpt lat="37.31424" lon="-4.62993">
        <ele>407.98</ele>
        <time>2019-10-15T13:27:23.999Z</time>
      </trkpt>
      <trkpt lat="37.31425" lon="-4.63047">
        <ele>406.65</ele>
        <time>2019-10-15T13:27:28.999Z</time>
      </trkpt>
      <trkpt lat="37.31422" lon="-4.63106">
        <ele>405.46</ele>
        <time>2019-10-15T13:27:33.999Z</time>
      </trkpt>
      <trkpt lat="37.31432" lon="-4.63167">
        <ele>403.62</ele>
        <time>2019-10-15T13:27:38.999Z</time>
      </trkpt>
      <trkpt lat="37.31453" lon="-4.63226">
        <ele>402.39</ele>
        <time>2019-10-15T13:27:43.999Z</time>
      </trkpt>
      <trkpt lat="37.31473" lon="-4.63281">
        <ele>401.46</ele>
        <time>2019-10-15T13:27:48.999Z</time>
      </trkpt>
      <trkpt lat="37.3149" lon="-4.63333">
        <ele>400.44</ele>
        <time>2019-10-15T13:27:53.999Z</time>
      </trkpt>
      <trkpt lat="37.31503" lon="-4.63382">
        <ele>398.74</ele>
        <time>2019-10-15T13:27:58.999Z</time>
      </trkpt>
      <trkpt lat="37.31507" lon="-4.63435">
        <ele>396.58</ele>
        <time>2019-10-15T13:28:03.999Z</time>
      </trkpt>
      <trkpt lat="37.31506" lon="-4.63492">
        <ele>394.88</ele>
        <time>2019-10-15T13:28:08.999Z</time>
      </trkpt>
      <trkpt lat="37.31506" lon="-4.63552">
        <ele>392.42</ele>
        <time>2019-10-15T13:28:13.999Z</time>
      </trkpt>
      <trkpt lat="37.31505" lon="-4.63613">
        <ele>390.56</ele>
        <time>2019-10-15T13:28:18.999Z</time>
      </trkpt>
      <trkpt lat="37.315" lon="-4.63671">
        <ele>389.39</ele>
        <time>2019-10-15T13:28:23.999Z</time>
      </trkpt>
      <trkpt lat="37.31484" lon="-4.63723">
        <ele>387.86</ele>
        <time>2019-10-15T13:28:28.999Z</time>
      </trkpt>
      <trkpt lat="37.3146" lon="-4.63768">
        <ele>386.28</ele>
        <time>2019-10-15T13:28:33.999Z</time>
      </trkpt>
      <trkpt lat="37.31431" lon="-4.63811">
        <ele>384.58</ele>
        <time>2019-10-15T13:28:38.999Z</time>
      </trkpt>
      <trkpt lat="37.314" lon="-4.63852">
        <ele>383.36</ele>
        <time>2019-10-15T13:28:43.999Z</time>
      </trkpt>
      <trkpt lat="37.31369" lon="-4.63893">
        <ele>382.26</ele>
        <time>2019-10-15T13:28:48.999Z</time>
      </trkpt>
      <trkpt lat="37.31337" lon="-4.63937">
        <ele>380.98</ele>
        <time>2019-10-15T13:28:53.999Z</time>
      </trkpt>
      <trkpt lat="37.31308" lon="-4.63983">
        <ele>379.32</ele>
        <time>2019-10-15T13:28:58.999Z</time>
      </trkpt>
      <trkpt lat="37.31294" lon="-4.64042">
        <ele>375.92</ele>
        <time>2019-10-15T13:29:03.999Z</time>
      </trkpt>
      <trkpt lat="37.31266" lon="-4.64092">
        <ele>372.99</ele>
        <time>2019-10-15T13:29:08.999Z</time>
      </trkpt>
      <trkpt lat="37.3123" lon="-4.64132">
        <ele>370.92</ele>
        <time>2019-10-15T13:29:13.999Z</time>
      </trkpt>
      <trkpt lat="37.31196" lon="-4.64171">
        <ele>369.43</ele>
        <time>2019-10-15T13:29:18.999Z</time>
      </trkpt>
      <trkpt lat="37.31165" lon="-4.64206">
        <ele>367.97</ele>
        <time>2019-10-15T13:29:23.999Z</time>
      </trkpt>
      <trkpt lat="37.31138" lon="-4.64236">
        <ele>366.37</ele>
        <time>2019-10-15T13:29:28.999Z</time>
      </trkpt>
      <trkpt lat="37.31114" lon="-4.64264">
        <ele>365.33</ele>
        <time>2019-10-15T13:29:33.999Z</time>
      </trkpt>
      <trkpt lat="37.31101" lon="-4.64296">
        <ele>363.82</ele>
        <time>2019-10-15T13:29:38.999Z</time>
      </trkpt>
      <trkpt lat="37.31095" lon="-4.64329">
        <ele>361.99</ele>
        <time>2019-10-15T13:29:43.999Z</time>
      </trkpt>
      <trkpt lat="37.31094" lon="-4.6436">
        <ele>360.54</ele>
        <time>2019-10-15T13:29:48.999Z</time>
      </trkpt>
      <trkpt lat="37.31089" lon="-4.64392">
        <ele>358.81</ele>
        <time>2019-10-15T13:29:53.999Z</time>
      </trkpt>
      <trkpt lat="37.31078" lon="-4.64424">
        <ele>357.53</ele>
        <time>2019-10-15T13:29:58.999Z</time>
      </trkpt>
      <trkpt lat="37.31065" lon="-4.64461">
        <ele>356.42</ele>
        <time>2019-10-15T13:30:03.999Z</time>
      </trkpt>
      <trkpt lat="37.31051" lon="-4.645">
        <ele>354.59</ele>
        <time>2019-10-15T13:30:08.999Z</time>
      </trkpt>
      <trkpt lat="37.31037" lon="-4.64539">
        <ele>353.29</ele>
        <time>2019-10-15T13:30:13.999Z</time>
      </trkpt>
      <trkpt lat="37.31021" lon="-4.64582">
        <ele>352.28</ele>
        <time>2019-10-15T13:30:18.999Z</time>
      </trkpt>
      <trkpt lat="37.31005" lon="-4.64625">
        <ele>351.72</ele>
        <time>2019-10-15T13:30:23.999Z</time>
      </trkpt>
      <trkpt lat="37.30989" lon="-4.64671">
        <ele>351.42</ele>
        <time>2019-10-15T13:30:28.999Z</time>
      </trkpt>
      <trkpt lat="37.30968" lon="-4.64722">
        <ele>350.47</ele>
        <time>2019-10-15T13:30:33.999Z</time>
      </trkpt>
      <trkpt lat="37.30944" lon="-4.64777">
        <ele>349.46</ele>
        <time>2019-10-15T13:30:38.999Z</time>
      </trkpt>
      <trkpt lat="37.30896" lon="-4.6481">
        <ele>348.82</ele>
        <time>2019-10-15T13:30:43.999Z</time>
      </trkpt>
      <trkpt lat="37.3084" lon="-4.64825">
        <ele>348.76</ele>
        <time>2019-10-15T13:30:48.999Z</time>
      </trkpt>
      <trkpt lat="37.30793" lon="-4.64864">
        <ele>348.33</ele>
        <time>2019-10-15T13:30:53.999Z</time>
      </trkpt>
      <trkpt lat="37.30753" lon="-4.64913">
        <ele>348.09</ele>
        <time>2019-10-15T13:30:58.999Z</time>
      </trkpt>
      <trkpt lat="37.30717" lon="-4.64965">
        <ele>347.44</ele>
        <time>2019-10-15T13:31:03.999Z</time>
      </trkpt>
      <trkpt lat="37.3068" lon="-4.65014">
        <ele>346.92</ele>
        <time>2019-10-15T13:31:08.999Z</time>
      </trkpt>
      <trkpt lat="37.30647" lon="-4.65056">
        <ele>346.54</ele>
        <time>2019-10-15T13:31:13.999Z</time>
      </trkpt>
      <trkpt lat="37.30613" lon="-4.65081">
        <ele>345.99</ele>
        <time>2019-10-15T13:31:18.999Z</time>
      </trkpt>
      <trkpt lat="37.30579" lon="-4.65103">
        <ele>344.92</ele>
        <time>2019-10-15T13:31:23.999Z</time>
      </trkpt>
      <trkpt lat="37.30541" lon="-4.65128">
        <ele>343.76</ele>
        <time>2019-10-15T13:31:28.999Z</time>
      </trkpt>
      <trkpt lat="37.30512" lon="-4.65178">
        <ele>341.84</ele>
        <time>2019-10-15T13:31:33.999Z</time>
      </trkpt>
      <trkpt lat="37.30464" lon="-4.65208">
        <ele>340.12</ele>
        <time>2019-10-15T13:31:38.999Z</time>
      </trkpt>
      <trkpt lat="37.30405" lon="-4.65231">
        <ele>339.04</ele>
        <time>2019-10-15T13:31:43.999Z</time>
      </trkpt>
      <trkpt lat="37.30347" lon="-4.65272">
        <ele>337.32</ele>
        <time>2019-10-15T13:31:48.999Z</time>
      </trkpt>
      <trkpt lat="37.30289" lon="-4.65294">
        <ele>334.99</ele>
        <time>2019-10-15T13:31:53.999Z</time>
      </trkpt>
      <trkpt lat="37.30249" lon="-4.65322">
        <ele>329.77</ele>
        <time>2019-10-15T13:31:58.999Z</time>
      </trkpt>
      <trkpt lat="37.30232" lon="-4.65378">
        <ele>324.18</ele>
        <time>2019-10-15T13:32:03.999Z</time>
      </trkpt>
      <trkpt lat="37.30237" lon="-4.65427">
        <ele>318.42</ele>
        <time>2019-10-15T13:32:08.999Z</time>
      </trkpt>
      <trkpt lat="37.30269" lon="-4.65463">
        <ele>312.89</ele>
        <time>2019-10-15T13:32:13.999Z</time>
      </trkpt>
      <trkpt lat="37.30305" lon="-4.65493">
        <ele>306.84</ele>
        <time>2019-10-15T13:32:18.999Z</time>
      </trkpt>
      <trkpt lat="37.30329" lon="-4.65534">
        <ele>302.46</ele>
        <time>2019-10-15T13:32:23.999Z</time>
      </trkpt>
      <trkpt lat="37.30348" lon="-4.6557">
        <ele>299.21</ele>
        <time>2019-10-15T13:32:28.999Z</time>
      </trkpt>
      <trkpt lat="37.30364" lon="-4.65606">
        <ele>296.94</ele>
        <time>2019-10-15T13:32:33.999Z</time>
      </trkpt>
      <trkpt lat="37.30373" lon="-4.65633">
        <ele>295.82</ele>
        <time>2019-10-15T13:32:38.999Z</time>
      </trkpt>
      <trkpt lat="37.30381" lon="-4.6564">
        <ele>298.69</ele>
        <time>2019-10-15T13:34:47.000Z</time>
      </trkpt>
      <trkpt lat="37.30389" lon="-4.65634">
        <ele>295.61</ele>
        <time>2019-10-15T13:37:06.000Z</time>
      </trkpt>
      <trkpt lat="37.30396" lon="-4.65623">
        <ele>294.17</ele>
        <time>2019-10-15T13:37:23.000Z</time>
      </trkpt>
      <trkpt lat="37.30401" lon="-4.65613">
        <ele>293.35</ele>
        <time>2019-10-15T13:37:28.000Z</time>
      </trkpt>
      <trkpt lat="37.30411" lon="-4.65606">
        <ele>292.56</ele>
        <time>2019-10-15T13:37:33.000Z</time>
      </trkpt>
      <trkpt lat="37.30423" lon="-4.65597">
        <ele>291.8</ele>
        <time>2019-10-15T13:37:38.000Z</time>
      </trkpt>
      <trkpt lat="37.30432" lon="-4.65593">
        <ele>291.07</ele>
        <time>2019-10-15T13:37:43.000Z</time>
      </trkpt>
      <trkpt lat="37.30445" lon="-4.65593">
        <ele>290.37</ele>
        <time>2019-10-15T13:37:48.000Z</time>
      </trkpt>
      <trkpt lat="37.30456" lon="-4.656">
        <ele>289.68</ele>
        <time>2019-10-15T13:37:53.000Z</time>
      </trkpt>
      <trkpt lat="37.30468" lon="-4.65608">
        <ele>289.03</ele>
        <time>2019-10-15T13:37:58.000Z</time>
      </trkpt>
      <trkpt lat="37.30479" lon="-4.65615">
        <ele>288.43</ele>
        <time>2019-10-15T13:38:03.000Z</time>
      </trkpt>
      <trkpt lat="37.30492" lon="-4.65623">
        <ele>287.88</ele>
        <time>2019-10-15T13:38:08.000Z</time>
      </trkpt>
      <trkpt lat="37.30507" lon="-4.65632">
        <ele>287.36</ele>
        <time>2019-10-15T13:38:13.000Z</time>
      </trkpt>
      <trkpt lat="37.30521" lon="-4.65641">
        <ele>286.87</ele>
        <time>2019-10-15T13:38:18.000Z</time>
      </trkpt>
      <trkpt lat="37.30535" lon="-4.65647">
        <ele>286.38</ele>
        <time>2019-10-15T13:38:23.000Z</time>
      </trkpt>
      <trkpt lat="37.30548" lon="-4.65655">
        <ele>285.9</ele>
        <time>2019-10-15T13:38:28.000Z</time>
      </trkpt>
      <trkpt lat="37.30562" lon="-4.65665">
        <ele>285.44</ele>
        <time>2019-10-15T13:38:33.000Z</time>
      </trkpt>
      <trkpt lat="37.30575" lon="-4.65674">
        <ele>285.01</ele>
        <time>2019-10-15T13:38:38.000Z</time>
      </trkpt>
      <trkpt lat="37.30589" lon="-4.65688">
        <ele>284.59</ele>
        <time>2019-10-15T13:38:43.000Z</time>
      </trkpt>
      <trkpt lat="37.30602" lon="-4.65702">
        <ele>284.2</ele>
        <time>2019-10-15T13:38:48.000Z</time>
      </trkpt>
      <trkpt lat="37.30614" lon="-4.65715">
        <ele>283.83</ele>
        <time>2019-10-15T13:38:53.000Z</time>
      </trkpt>
      <trkpt lat="37.30626" lon="-4.65726">
        <ele>283.49</ele>
        <time>2019-10-15T13:38:58.000Z</time>
      </trkpt>
      <trkpt lat="37.30639" lon="-4.65739">
        <ele>283.17</ele>
        <time>2019-10-15T13:39:03.000Z</time>
      </trkpt>
      <trkpt lat="37.30651" lon="-4.65753">
        <ele>282.88</ele>
        <time>2019-10-15T13:39:08.000Z</time>
      </trkpt>
      <trkpt lat="37.3066" lon="-4.65765">
        <ele>282.61</ele>
        <time>2019-10-15T13:39:13.000Z</time>
      </trkpt>
      <trkpt lat="37.30672" lon="-4.65779">
        <ele>282.35</ele>
        <time>2019-10-15T13:39:18.000Z</time>
      </trkpt>
      <trkpt lat="37.30688" lon="-4.65797">
        <ele>281.2</ele>
        <time>2019-10-15T13:39:23.000Z</time>
      </trkpt>
      <trkpt lat="37.30704" lon="-4.65814">
        <ele>280.35</ele>
        <time>2019-10-15T13:39:28.000Z</time>
      </trkpt>
      <trkpt lat="37.30721" lon="-4.65832">
        <ele>280.03</ele>
        <time>2019-10-15T13:39:33.000Z</time>
      </trkpt>
      <trkpt lat="37.30737" lon="-4.65848">
        <ele>279.86</ele>
        <time>2019-10-15T13:39:38.000Z</time>
      </trkpt>
      <trkpt lat="37.30754" lon="-4.65866">
        <ele>279.74</ele>
        <time>2019-10-15T13:39:43.000Z</time>
      </trkpt>
      <trkpt lat="37.3077" lon="-4.65886">
        <ele>279.67</ele>
        <time>2019-10-15T13:39:48.000Z</time>
      </trkpt>
      <trkpt lat="37.30765" lon="-4.65923">
        <ele>279.52</ele>
        <time>2019-10-15T13:39:53.000Z</time>
      </trkpt>
      <trkpt lat="37.30742" lon="-4.65957">
        <ele>279.31</ele>
        <time>2019-10-15T13:39:58.000Z</time>
      </trkpt>
      <trkpt lat="37.30723" lon="-4.65989">
        <ele>278.99</ele>
        <time>2019-10-15T13:40:03.000Z</time>
      </trkpt>
      <trkpt lat="37.30705" lon="-4.66018">
        <ele>278.5</ele>
        <time>2019-10-15T13:40:08.000Z</time>
      </trkpt>
      <trkpt lat="37.30687" lon="-4.66046">
        <ele>278.57</ele>
        <time>2019-10-15T13:40:13.000Z</time>
      </trkpt>
      <trkpt lat="37.3067" lon="-4.66074">
        <ele>277.89</ele>
        <time>2019-10-15T13:40:18.000Z</time>
      </trkpt>
      <trkpt lat="37.30654" lon="-4.66102">
        <ele>277.5</ele>
        <time>2019-10-15T13:40:23.000Z</time>
      </trkpt>
      <trkpt lat="37.30654" lon="-4.66128">
        <ele>277.2</ele>
        <time>2019-10-15T13:40:28.000Z</time>
      </trkpt>
      <trkpt lat="37.30667" lon="-4.66142">
        <ele>277.13</ele>
        <time>2019-10-15T13:40:33.000Z</time>
      </trkpt>
      <trkpt lat="37.30677" lon="-4.66148">
        <ele>277.05</ele>
        <time>2019-10-15T13:40:38.000Z</time>
      </trkpt>
      <trkpt lat="37.30687" lon="-4.66158">
        <ele>276.96</ele>
        <time>2019-10-15T13:40:43.000Z</time>
      </trkpt>
      <trkpt lat="37.30696" lon="-4.66167">
        <ele>276.91</ele>
        <time>2019-10-15T13:40:48.000Z</time>
      </trkpt>
      <trkpt lat="37.30705" lon="-4.66176">
        <ele>276.89</ele>
        <time>2019-10-15T13:40:53.000Z</time>
      </trkpt>
      <trkpt lat="37.30716" lon="-4.66186">
        <ele>276.87</ele>
        <time>2019-10-15T13:40:58.000Z</time>
      </trkpt>
      <trkpt lat="37.30725" lon="-4.66196">
        <ele>276.84</ele>
        <time>2019-10-15T13:41:03.000Z</time>
      </trkpt>
      <trkpt lat="37.30734" lon="-4.66206">
        <ele>276.82</ele>
        <time>2019-10-15T13:41:08.000Z</time>
      </trkpt>
      <trkpt lat="37.30742" lon="-4.66216">
        <ele>276.82</ele>
        <time>2019-10-15T13:41:13.000Z</time>
      </trkpt>
      <trkpt lat="37.3075" lon="-4.66228">
        <ele>276.81</ele>
        <time>2019-10-15T13:41:18.000Z</time>
      </trkpt>
      <trkpt lat="37.30758" lon="-4.66242">
        <ele>276.81</ele>
        <time>2019-10-15T13:41:23.000Z</time>
      </trkpt>
      <trkpt lat="37.30764" lon="-4.66256">
        <ele>276.82</ele>
        <time>2019-10-15T13:41:28.000Z</time>
      </trkpt>
      <trkpt lat="37.3077" lon="-4.66272">
        <ele>276.83</ele>
        <time>2019-10-15T13:41:33.000Z</time>
      </trkpt>
      <trkpt lat="37.30777" lon="-4.66289">
        <ele>276.84</ele>
        <time>2019-10-15T13:41:38.000Z</time>
      </trkpt>
      <trkpt lat="37.30784" lon="-4.66308">
        <ele>276.86</ele>
        <time>2019-10-15T13:41:43.000Z</time>
      </trkpt>
      <trkpt lat="37.30791" lon="-4.66328">
        <ele>276.88</ele>
        <time>2019-10-15T13:41:48.000Z</time>
      </trkpt>
      <trkpt lat="37.308" lon="-4.66349">
        <ele>276.96</ele>
        <time>2019-10-15T13:41:53.000Z</time>
      </trkpt>
      <trkpt lat="37.30809" lon="-4.66371">
        <ele>276.99</ele>
        <time>2019-10-15T13:41:58.000Z</time>
      </trkpt>
      <trkpt lat="37.30817" lon="-4.66393">
        <ele>277.01</ele>
        <time>2019-10-15T13:42:03.000Z</time>
      </trkpt>
      <trkpt lat="37.30825" lon="-4.66414">
        <ele>277</ele>
        <time>2019-10-15T13:42:08.000Z</time>
      </trkpt>
      <trkpt lat="37.30833" lon="-4.66437">
        <ele>277.02</ele>
        <time>2019-10-15T13:42:13.000Z</time>
      </trkpt>
      <trkpt lat="37.3084" lon="-4.66464">
        <ele>277.02</ele>
        <time>2019-10-15T13:42:18.000Z</time>
      </trkpt>
      <trkpt lat="37.30846" lon="-4.66493">
        <ele>277.05</ele>
        <time>2019-10-15T13:42:23.000Z</time>
      </trkpt>
      <trkpt lat="37.30853" lon="-4.6652">
        <ele>277.08</ele>
        <time>2019-10-15T13:42:28.000Z</time>
      </trkpt>
      <trkpt lat="37.30859" lon="-4.66546">
        <ele>277.1</ele>
        <time>2019-10-15T13:42:33.000Z</time>
      </trkpt>
      <trkpt lat="37.30864" lon="-4.66573">
        <ele>277.09</ele>
        <time>2019-10-15T13:42:38.000Z</time>
      </trkpt>
      <trkpt lat="37.30869" lon="-4.66601">
        <ele>277.05</ele>
        <time>2019-10-15T13:42:43.000Z</time>
      </trkpt>
      <trkpt lat="37.3087" lon="-4.6663">
        <ele>277</ele>
        <time>2019-10-15T13:42:48.000Z</time>
      </trkpt>
      <trkpt lat="37.30873" lon="-4.66659">
        <ele>276.95</ele>
        <time>2019-10-15T13:42:53.000Z</time>
      </trkpt>
      <trkpt lat="37.30879" lon="-4.66687">
        <ele>276.88</ele>
        <time>2019-10-15T13:42:58.000Z</time>
      </trkpt>
      <trkpt lat="37.30886" lon="-4.66714">
        <ele>276.85</ele>
        <time>2019-10-15T13:43:03.000Z</time>
      </trkpt>
      <trkpt lat="37.30897" lon="-4.66741">
        <ele>276.77</ele>
        <time>2019-10-15T13:43:08.000Z</time>
      </trkpt>
      <trkpt lat="37.30906" lon="-4.66768">
        <ele>276.69</ele>
        <time>2019-10-15T13:43:13.000Z</time>
      </trkpt>
      <trkpt lat="37.30899" lon="-4.6679">
        <ele>276.66</ele>
        <time>2019-10-15T13:43:18.000Z</time>
      </trkpt>
      <trkpt lat="37.30884" lon="-4.66808">
        <ele>276.69</ele>
        <time>2019-10-15T13:43:23.000Z</time>
      </trkpt>
      <trkpt lat="37.30871" lon="-4.66825">
        <ele>276.73</ele>
        <time>2019-10-15T13:43:28.000Z</time>
      </trkpt>
      <trkpt lat="37.30857" lon="-4.66842">
        <ele>276.83</ele>
        <time>2019-10-15T13:43:33.000Z</time>
      </trkpt>
      <trkpt lat="37.30845" lon="-4.6686">
        <ele>276.91</ele>
        <time>2019-10-15T13:43:38.000Z</time>
      </trkpt>
      <trkpt lat="37.30833" lon="-4.66875">
        <ele>276.94</ele>
        <time>2019-10-15T13:43:43.000Z</time>
      </trkpt>
      <trkpt lat="37.3082" lon="-4.66894">
        <ele>276.98</ele>
        <time>2019-10-15T13:43:48.000Z</time>
      </trkpt>
      <trkpt lat="37.30808" lon="-4.6691">
        <ele>277.08</ele>
        <time>2019-10-15T13:43:53.000Z</time>
      </trkpt>
      <trkpt lat="37.30796" lon="-4.66926">
        <ele>277.13</ele>
        <time>2019-10-15T13:43:58.000Z</time>
      </trkpt>
      <trkpt lat="37.30783" lon="-4.66945">
        <ele>277.36</ele>
        <time>2019-10-15T13:44:03.000Z</time>
      </trkpt>
      <trkpt lat="37.3077" lon="-4.66961">
        <ele>277.41</ele>
        <time>2019-10-15T13:44:08.000Z</time>
      </trkpt>
      <trkpt lat="37.30755" lon="-4.66979">
        <ele>277.8</ele>
        <time>2019-10-15T13:44:13.000Z</time>
      </trkpt>
      <trkpt lat="37.30742" lon="-4.67001">
        <ele>278.02</ele>
        <time>2019-10-15T13:44:18.000Z</time>
      </trkpt>
      <trkpt lat="37.30729" lon="-4.67019">
        <ele>278.16</ele>
        <time>2019-10-15T13:44:23.000Z</time>
      </trkpt>
      <trkpt lat="37.30716" lon="-4.67036">
        <ele>278.18</ele>
        <time>2019-10-15T13:44:28.000Z</time>
      </trkpt>
      <trkpt lat="37.30704" lon="-4.67051">
        <ele>278.21</ele>
        <time>2019-10-15T13:44:33.000Z</time>
      </trkpt>
      <trkpt lat="37.30691" lon="-4.67068">
        <ele>278.24</ele>
        <time>2019-10-15T13:44:38.000Z</time>
      </trkpt>
      <trkpt lat="37.30679" lon="-4.67085">
        <ele>278.5</ele>
        <time>2019-10-15T13:44:43.000Z</time>
      </trkpt>
      <trkpt lat="37.30664" lon="-4.67103">
        <ele>278.66</ele>
        <time>2019-10-15T13:44:48.000Z</time>
      </trkpt>
      <trkpt lat="37.30649" lon="-4.67123">
        <ele>278.81</ele>
        <time>2019-10-15T13:44:53.000Z</time>
      </trkpt>
      <trkpt lat="37.30633" lon="-4.67144">
        <ele>278.95</ele>
        <time>2019-10-15T13:44:58.000Z</time>
      </trkpt>
      <trkpt lat="37.30621" lon="-4.67167">
        <ele>279.08</ele>
        <time>2019-10-15T13:45:03.000Z</time>
      </trkpt>
      <trkpt lat="37.3061" lon="-4.67193">
        <ele>279.2</ele>
        <time>2019-10-15T13:45:08.000Z</time>
      </trkpt>
      <trkpt lat="37.30602" lon="-4.6722">
        <ele>279.3</ele>
        <time>2019-10-15T13:45:13.000Z</time>
      </trkpt>
      <trkpt lat="37.30594" lon="-4.67252">
        <ele>279.37</ele>
        <time>2019-10-15T13:45:18.000Z</time>
      </trkpt>
      <trkpt lat="37.30583" lon="-4.67281">
        <ele>279.46</ele>
        <time>2019-10-15T13:45:23.000Z</time>
      </trkpt>
      <trkpt lat="37.30569" lon="-4.67306">
        <ele>279.58</ele>
        <time>2019-10-15T13:45:28.000Z</time>
      </trkpt>
      <trkpt lat="37.30552" lon="-4.67329">
        <ele>279.7</ele>
        <time>2019-10-15T13:45:33.000Z</time>
      </trkpt>
      <trkpt lat="37.30539" lon="-4.67347">
        <ele>279.74</ele>
        <time>2019-10-15T13:45:38.000Z</time>
      </trkpt>
      <trkpt lat="37.3053" lon="-4.67361">
        <ele>279.76</ele>
        <time>2019-10-15T13:45:43.000Z</time>
      </trkpt>
      <trkpt lat="37.30521" lon="-4.67372">
        <ele>279.78</ele>
        <time>2019-10-15T13:45:48.000Z</time>
      </trkpt>
      <trkpt lat="37.30513" lon="-4.67381">
        <ele>279.81</ele>
        <time>2019-10-15T13:45:53.000Z</time>
      </trkpt>
      <trkpt lat="37.30507" lon="-4.6739">
        <ele>279.85</ele>
        <time>2019-10-15T13:45:58.000Z</time>
      </trkpt>
      <trkpt lat="37.305" lon="-4.67397">
        <ele>279.9</ele>
        <time>2019-10-15T13:46:03.000Z</time>
      </trkpt>
      <trkpt lat="37.30493" lon="-4.67406">
        <ele>279.97</ele>
        <time>2019-10-15T13:46:08.000Z</time>
      </trkpt>
      <trkpt lat="37.30485" lon="-4.67415">
        <ele>280.05</ele>
        <time>2019-10-15T13:46:13.000Z</time>
      </trkpt>
      <trkpt lat="37.30478" lon="-4.67425">
        <ele>280.16</ele>
        <time>2019-10-15T13:46:19.000Z</time>
      </trkpt>
      <trkpt lat="37.30475" lon="-4.67437">
        <ele>280.3</ele>
        <time>2019-10-15T13:46:25.000Z</time>
      </trkpt>
      <trkpt lat="37.30476" lon="-4.67448">
        <ele>280.44</ele>
        <time>2019-10-15T13:46:30.000Z</time>
      </trkpt>
      <trkpt lat="37.30476" lon="-4.67462">
        <ele>280.62</ele>
        <time>2019-10-15T13:46:36.000Z</time>
      </trkpt>
      <trkpt lat="37.30476" lon="-4.67474">
        <ele>280.79</ele>
        <time>2019-10-15T13:46:41.000Z</time>
      </trkpt>
      <trkpt lat="37.3047" lon="-4.67484">
        <ele>280.99</ele>
        <time>2019-10-15T13:46:47.000Z</time>
      </trkpt>
      <trkpt lat="37.3046" lon="-4.67488">
        <ele>281.17</ele>
        <time>2019-10-15T13:46:52.000Z</time>
      </trkpt>
      <trkpt lat="37.3045" lon="-4.67488">
        <ele>281.35</ele>
        <time>2019-10-15T13:46:57.000Z</time>
      </trkpt>
      <trkpt lat="37.30439" lon="-4.67492">
        <ele>281.53</ele>
        <time>2019-10-15T13:47:02.000Z</time>
      </trkpt>
      <trkpt lat="37.30427" lon="-4.67496">
        <ele>281.7</ele>
        <time>2019-10-15T13:47:07.000Z</time>
      </trkpt>
      <trkpt lat="37.30416" lon="-4.67501">
        <ele>281.87</ele>
        <time>2019-10-15T13:47:12.000Z</time>
      </trkpt>
      <trkpt lat="37.30404" lon="-4.67505">
        <ele>282.04</ele>
        <time>2019-10-15T13:47:17.000Z</time>
      </trkpt>
      <trkpt lat="37.30392" lon="-4.67509">
        <ele>282.19</ele>
        <time>2019-10-15T13:47:22.000Z</time>
      </trkpt>
      <trkpt lat="37.3038" lon="-4.67513">
        <ele>282.35</ele>
        <time>2019-10-15T13:47:27.000Z</time>
      </trkpt>
      <trkpt lat="37.30368" lon="-4.6752">
        <ele>282.5</ele>
        <time>2019-10-15T13:47:32.000Z</time>
      </trkpt>
      <trkpt lat="37.30356" lon="-4.67527">
        <ele>282.65</ele>
        <time>2019-10-15T13:47:37.000Z</time>
      </trkpt>
      <trkpt lat="37.30344" lon="-4.67535">
        <ele>282.79</ele>
        <time>2019-10-15T13:47:42.000Z</time>
      </trkpt>
      <trkpt lat="37.30334" lon="-4.67541">
        <ele>282.94</ele>
        <time>2019-10-15T13:47:47.000Z</time>
      </trkpt>
      <trkpt lat="37.30321" lon="-4.67548">
        <ele>283.08</ele>
        <time>2019-10-15T13:47:52.000Z</time>
      </trkpt>
      <trkpt lat="37.30307" lon="-4.67555">
        <ele>283.22</ele>
        <time>2019-10-15T13:47:57.000Z</time>
      </trkpt>
      <trkpt lat="37.30292" lon="-4.67564">
        <ele>283.37</ele>
        <time>2019-10-15T13:48:02.000Z</time>
      </trkpt>
      <trkpt lat="37.30275" lon="-4.67577">
        <ele>284.19</ele>
        <time>2019-10-15T13:48:07.000Z</time>
      </trkpt>
      <trkpt lat="37.3026" lon="-4.6759">
        <ele>284.79</ele>
        <time>2019-10-15T13:48:12.000Z</time>
      </trkpt>
      <trkpt lat="37.30241" lon="-4.6761">
        <ele>285.27</ele>
        <time>2019-10-15T13:48:17.000Z</time>
      </trkpt>
      <trkpt lat="37.30221" lon="-4.67633">
        <ele>285.55</ele>
        <time>2019-10-15T13:48:22.000Z</time>
      </trkpt>
      <trkpt lat="37.30202" lon="-4.67656">
        <ele>285.71</ele>
        <time>2019-10-15T13:48:27.000Z</time>
      </trkpt>
      <trkpt lat="37.30181" lon="-4.67671">
        <ele>285.86</ele>
        <time>2019-10-15T13:48:32.000Z</time>
      </trkpt>
      <trkpt lat="37.30163" lon="-4.67683">
        <ele>285.97</ele>
        <time>2019-10-15T13:48:37.000Z</time>
      </trkpt>
      <trkpt lat="37.3015" lon="-4.67691">
        <ele>286</ele>
        <time>2019-10-15T13:48:42.000Z</time>
      </trkpt>
      <trkpt lat="37.30141" lon="-4.67696">
        <ele>286.05</ele>
        <time>2019-10-15T13:48:47.000Z</time>
      </trkpt>
      <trkpt lat="37.30133" lon="-4.67702">
        <ele>286.12</ele>
        <time>2019-10-15T13:48:52.000Z</time>
      </trkpt>
      <trkpt lat="37.30125" lon="-4.67708">
        <ele>286.21</ele>
        <time>2019-10-15T13:48:58.000Z</time>
      </trkpt>
      <trkpt lat="37.30116" lon="-4.67713">
        <ele>286.33</ele>
        <time>2019-10-15T13:49:04.000Z</time>
      </trkpt>
      <trkpt lat="37.30108" lon="-4.67719">
        <ele>286.45</ele>
        <time>2019-10-15T13:49:10.000Z</time>
      </trkpt>
      <trkpt lat="37.30099" lon="-4.67722">
        <ele>286.59</ele>
        <time>2019-10-15T13:49:16.000Z</time>
      </trkpt>
      <trkpt lat="37.30089" lon="-4.67722">
        <ele>286.77</ele>
        <time>2019-10-15T13:49:23.000Z</time>
      </trkpt>
      <trkpt lat="37.3008" lon="-4.67724">
        <ele>286.94</ele>
        <time>2019-10-15T13:49:29.000Z</time>
      </trkpt>
      <trkpt lat="37.3007" lon="-4.67727">
        <ele>287.09</ele>
        <time>2019-10-15T13:49:34.000Z</time>
      </trkpt>
      <trkpt lat="37.30061" lon="-4.6773">
        <ele>287.26</ele>
        <time>2019-10-15T13:49:39.000Z</time>
      </trkpt>
      <trkpt lat="37.30052" lon="-4.67734">
        <ele>287.42</ele>
        <time>2019-10-15T13:49:44.000Z</time>
      </trkpt>
      <trkpt lat="37.30043" lon="-4.67737">
        <ele>287.63</ele>
        <time>2019-10-15T13:49:50.000Z</time>
      </trkpt>
      <trkpt lat="37.3004" lon="-4.67748">
        <ele>288.56</ele>
        <time>2019-10-15T13:51:30.999Z</time>
      </trkpt>
      <trkpt lat="37.30026" lon="-4.67755">
        <ele>288.72</ele>
        <time>2019-10-15T13:51:35.999Z</time>
      </trkpt>
      <trkpt lat="37.30006" lon="-4.67761">
        <ele>288.88</ele>
        <time>2019-10-15T13:51:40.999Z</time>
      </trkpt>
      <trkpt lat="37.29988" lon="-4.67765">
        <ele>289.05</ele>
        <time>2019-10-15T13:51:45.999Z</time>
      </trkpt>
      <trkpt lat="37.2997" lon="-4.6777">
        <ele>289.49</ele>
        <time>2019-10-15T13:51:50.999Z</time>
      </trkpt>
      <trkpt lat="37.29952" lon="-4.67776">
        <ele>290</ele>
        <time>2019-10-15T13:51:55.999Z</time>
      </trkpt>
      <trkpt lat="37.29933" lon="-4.67789">
        <ele>291.1</ele>
        <time>2019-10-15T13:52:00.999Z</time>
      </trkpt>
      <trkpt lat="37.29912" lon="-4.67807">
        <ele>291.75</ele>
        <time>2019-10-15T13:52:05.999Z</time>
      </trkpt>
      <trkpt lat="37.29896" lon="-4.67835">
        <ele>292.08</ele>
        <time>2019-10-15T13:52:10.999Z</time>
      </trkpt>
      <trkpt lat="37.2988" lon="-4.67865">
        <ele>292.43</ele>
        <time>2019-10-15T13:52:15.999Z</time>
      </trkpt>
      <trkpt lat="37.29864" lon="-4.67894">
        <ele>292.79</ele>
        <time>2019-10-15T13:52:20.999Z</time>
      </trkpt>
      <trkpt lat="37.29854" lon="-4.67926">
        <ele>293.29</ele>
        <time>2019-10-15T13:52:25.999Z</time>
      </trkpt>
      <trkpt lat="37.2984" lon="-4.67956">
        <ele>293.76</ele>
        <time>2019-10-15T13:52:30.999Z</time>
      </trkpt>
      <trkpt lat="37.29827" lon="-4.67986">
        <ele>294.15</ele>
        <time>2019-10-15T13:52:35.999Z</time>
      </trkpt>
      <trkpt lat="37.29816" lon="-4.68018">
        <ele>294.68</ele>
        <time>2019-10-15T13:52:40.999Z</time>
      </trkpt>
      <trkpt lat="37.29805" lon="-4.6805">
        <ele>295.26</ele>
        <time>2019-10-15T13:52:45.999Z</time>
      </trkpt>
      <trkpt lat="37.29791" lon="-4.6808">
        <ele>295.89</ele>
        <time>2019-10-15T13:52:50.999Z</time>
      </trkpt>
      <trkpt lat="37.29769" lon="-4.68094">
        <ele>296.6</ele>
        <time>2019-10-15T13:52:55.999Z</time>
      </trkpt>
      <trkpt lat="37.29749" lon="-4.68103">
        <ele>297.33</ele>
        <time>2019-10-15T13:53:00.999Z</time>
      </trkpt>
      <trkpt lat="37.29733" lon="-4.68109">
        <ele>297.48</ele>
        <time>2019-10-15T13:53:05.999Z</time>
      </trkpt>
      <trkpt lat="37.29721" lon="-4.68114">
        <ele>297.7</ele>
        <time>2019-10-15T13:53:10.999Z</time>
      </trkpt>
      <trkpt lat="37.2971" lon="-4.68119">
        <ele>297.95</ele>
        <time>2019-10-15T13:53:15.999Z</time>
      </trkpt>
      <trkpt lat="37.29699" lon="-4.68124">
        <ele>298.24</ele>
        <time>2019-10-15T13:53:20.999Z</time>
      </trkpt>
      <trkpt lat="37.29689" lon="-4.68128">
        <ele>298.56</ele>
        <time>2019-10-15T13:53:25.999Z</time>
      </trkpt>
      <trkpt lat="37.2968" lon="-4.68133">
        <ele>299.03</ele>
        <time>2019-10-15T13:53:31.999Z</time>
      </trkpt>
      <trkpt lat="37.29671" lon="-4.6814">
        <ele>299.57</ele>
        <time>2019-10-15T13:53:37.999Z</time>
      </trkpt>
      <trkpt lat="37.29663" lon="-4.68149">
        <ele>300.12</ele>
        <time>2019-10-15T13:53:43.999Z</time>
      </trkpt>
      <trkpt lat="37.29656" lon="-4.68158">
        <ele>300.61</ele>
        <time>2019-10-15T13:53:48.999Z</time>
      </trkpt>
      <trkpt lat="37.29647" lon="-4.68168">
        <ele>301.13</ele>
        <time>2019-10-15T13:53:53.999Z</time>
      </trkpt>
      <trkpt lat="37.29636" lon="-4.6818">
        <ele>301.67</ele>
        <time>2019-10-15T13:53:58.999Z</time>
      </trkpt>
      <trkpt lat="37.29623" lon="-4.68194">
        <ele>302.2</ele>
        <time>2019-10-15T13:54:03.999Z</time>
      </trkpt>
      <trkpt lat="37.29609" lon="-4.6821">
        <ele>305.59</ele>
        <time>2019-10-15T13:54:08.999Z</time>
      </trkpt>
      <trkpt lat="37.29592" lon="-4.68224">
        <ele>306.83</ele>
        <time>2019-10-15T13:54:13.999Z</time>
      </trkpt>
      <trkpt lat="37.29575" lon="-4.68236">
        <ele>307.24</ele>
        <time>2019-10-15T13:54:18.999Z</time>
      </trkpt>
      <trkpt lat="37.29557" lon="-4.68252">
        <ele>307.44</ele>
        <time>2019-10-15T13:54:23.999Z</time>
      </trkpt>
      <trkpt lat="37.29541" lon="-4.68268">
        <ele>307.56</ele>
        <time>2019-10-15T13:54:28.999Z</time>
      </trkpt>
      <trkpt lat="37.29524" lon="-4.68286">
        <ele>307.8</ele>
        <time>2019-10-15T13:54:33.999Z</time>
      </trkpt>
      <trkpt lat="37.29504" lon="-4.68306">
        <ele>308.08</ele>
        <time>2019-10-15T13:54:38.999Z</time>
      </trkpt>
      <trkpt lat="37.2948" lon="-4.68334">
        <ele>308.11</ele>
        <time>2019-10-15T13:54:43.999Z</time>
      </trkpt>
      <trkpt lat="37.29455" lon="-4.68375">
        <ele>308.03</ele>
        <time>2019-10-15T13:54:48.999Z</time>
      </trkpt>
      <trkpt lat="37.29427" lon="-4.6841">
        <ele>308.31</ele>
        <time>2019-10-15T13:54:53.999Z</time>
      </trkpt>
      <trkpt lat="37.29399" lon="-4.68427">
        <ele>308.77</ele>
        <time>2019-10-15T13:54:58.999Z</time>
      </trkpt>
      <trkpt lat="37.29381" lon="-4.68434">
        <ele>309.04</ele>
        <time>2019-10-15T13:55:03.999Z</time>
      </trkpt>
      <trkpt lat="37.29372" lon="-4.68438">
        <ele>309.18</ele>
        <time>2019-10-15T13:55:08.999Z</time>
      </trkpt>
      <trkpt lat="37.29363" lon="-4.68443">
        <ele>309.37</ele>
        <time>2019-10-15T13:55:14.999Z</time>
      </trkpt>
      <trkpt lat="37.29353" lon="-4.68446">
        <ele>309.66</ele>
        <time>2019-10-15T13:55:21.999Z</time>
      </trkpt>
      <trkpt lat="37.29344" lon="-4.68448">
        <ele>309.9</ele>
        <time>2019-10-15T13:55:28.999Z</time>
      </trkpt>
      <trkpt lat="37.29335" lon="-4.68447">
        <ele>310.09</ele>
        <time>2019-10-15T13:55:36.999Z</time>
      </trkpt>
      <trkpt lat="37.29325" lon="-4.68446">
        <ele>310.14</ele>
        <time>2019-10-15T13:55:44.999Z</time>
      </trkpt>
      <trkpt lat="37.29316" lon="-4.68443">
        <ele>310.3</ele>
        <time>2019-10-15T13:55:51.999Z</time>
      </trkpt>
      <trkpt lat="37.29306" lon="-4.68442">
        <ele>310.72</ele>
        <time>2019-10-15T13:55:59.999Z</time>
      </trkpt>
      <trkpt lat="37.29297" lon="-4.6844">
        <ele>311.26</ele>
        <time>2019-10-15T13:56:06.999Z</time>
      </trkpt>
      <trkpt lat="37.29287" lon="-4.6844">
        <ele>312.01</ele>
        <time>2019-10-15T13:56:14.999Z</time>
      </trkpt>
      <trkpt lat="37.29277" lon="-4.68438">
        <ele>312.87</ele>
        <time>2019-10-15T13:56:22.999Z</time>
      </trkpt>
      <trkpt lat="37.29267" lon="-4.68436">
        <ele>313.66</ele>
        <time>2019-10-15T13:56:29.999Z</time>
      </trkpt>
      <trkpt lat="37.29257" lon="-4.68435">
        <ele>314.52</ele>
        <time>2019-10-15T13:56:36.999Z</time>
      </trkpt>
      <trkpt lat="37.29247" lon="-4.68433">
        <ele>315.42</ele>
        <time>2019-10-15T13:56:43.999Z</time>
      </trkpt>
      <trkpt lat="37.29237" lon="-4.68435">
        <ele>316.39</ele>
        <time>2019-10-15T13:56:51.999Z</time>
      </trkpt>
      <trkpt lat="37.29228" lon="-4.68439">
        <ele>317.21</ele>
        <time>2019-10-15T13:56:58.999Z</time>
      </trkpt>
      <trkpt lat="37.29218" lon="-4.68442">
        <ele>318.03</ele>
        <time>2019-10-15T13:57:05.999Z</time>
      </trkpt>
      <trkpt lat="37.29209" lon="-4.68445">
        <ele>318.83</ele>
        <time>2019-10-15T13:57:12.999Z</time>
      </trkpt>
      <trkpt lat="37.292" lon="-4.6845">
        <ele>319.62</ele>
        <time>2019-10-15T13:57:19.999Z</time>
      </trkpt>
      <trkpt lat="37.29191" lon="-4.68454">
        <ele>320.41</ele>
        <time>2019-10-15T13:57:26.999Z</time>
      </trkpt>
      <trkpt lat="37.29182" lon="-4.68457">
        <ele>321.1</ele>
        <time>2019-10-15T13:57:32.999Z</time>
      </trkpt>
      <trkpt lat="37.29173" lon="-4.68461">
        <ele>321.74</ele>
        <time>2019-10-15T13:57:38.999Z</time>
      </trkpt>
      <trkpt lat="37.29163" lon="-4.68464">
        <ele>322.47</ele>
        <time>2019-10-15T13:57:45.999Z</time>
      </trkpt>
      <trkpt lat="37.29154" lon="-4.68468">
        <ele>323.14</ele>
        <time>2019-10-15T13:57:52.999Z</time>
      </trkpt>
      <trkpt lat="37.29144" lon="-4.68473">
        <ele>323.8</ele>
        <time>2019-10-15T13:57:59.999Z</time>
      </trkpt>
      <trkpt lat="37.29134" lon="-4.68477">
        <ele>324.48</ele>
        <time>2019-10-15T13:58:06.999Z</time>
      </trkpt>
      <trkpt lat="37.29125" lon="-4.6848">
        <ele>325.07</ele>
        <time>2019-10-15T13:58:12.999Z</time>
      </trkpt>
      <trkpt lat="37.29115" lon="-4.68484">
        <ele>325.79</ele>
        <time>2019-10-15T13:58:19.999Z</time>
      </trkpt>
      <trkpt lat="37.29106" lon="-4.68488">
        <ele>326.52</ele>
        <time>2019-10-15T13:58:26.999Z</time>
      </trkpt>
      <trkpt lat="37.29095" lon="-4.68492">
        <ele>327.26</ele>
        <time>2019-10-15T13:58:33.999Z</time>
      </trkpt>
      <trkpt lat="37.29087" lon="-4.68495">
        <ele>327.92</ele>
        <time>2019-10-15T13:58:39.999Z</time>
      </trkpt>
      <trkpt lat="37.29077" lon="-4.68499">
        <ele>328.71</ele>
        <time>2019-10-15T13:58:46.999Z</time>
      </trkpt>
      <trkpt lat="37.29068" lon="-4.68504">
        <ele>329.4</ele>
        <time>2019-10-15T13:58:52.999Z</time>
      </trkpt>
      <trkpt lat="37.29059" lon="-4.68509">
        <ele>330.23</ele>
        <time>2019-10-15T13:58:59.999Z</time>
      </trkpt>
      <trkpt lat="37.2905" lon="-4.68515">
        <ele>330.95</ele>
        <time>2019-10-15T13:59:05.999Z</time>
      </trkpt>
      <trkpt lat="37.29042" lon="-4.68522">
        <ele>331.63</ele>
        <time>2019-10-15T13:59:11.999Z</time>
      </trkpt>
      <trkpt lat="37.29033" lon="-4.6853">
        <ele>332.33</ele>
        <time>2019-10-15T13:59:17.999Z</time>
      </trkpt>
      <trkpt lat="37.29024" lon="-4.68537">
        <ele>332.94</ele>
        <time>2019-10-15T13:59:22.999Z</time>
      </trkpt>
      <trkpt lat="37.29013" lon="-4.68547">
        <ele>333.55</ele>
        <time>2019-10-15T13:59:27.999Z</time>
      </trkpt>
      <trkpt lat="37.29001" lon="-4.68559">
        <ele>334.15</ele>
        <time>2019-10-15T13:59:32.999Z</time>
      </trkpt>
      <trkpt lat="37.2899" lon="-4.68578">
        <ele>336.32</ele>
        <time>2019-10-15T13:59:37.999Z</time>
      </trkpt>
      <trkpt lat="37.2898" lon="-4.68599">
        <ele>339.13</ele>
        <time>2019-10-15T13:59:42.999Z</time>
      </trkpt>
      <trkpt lat="37.28973" lon="-4.6862">
        <ele>340.03</ele>
        <time>2019-10-15T13:59:47.999Z</time>
      </trkpt>
      <trkpt lat="37.28966" lon="-4.68643">
        <ele>340.67</ele>
        <time>2019-10-15T13:59:52.999Z</time>
      </trkpt>
      <trkpt lat="37.2896" lon="-4.68666">
        <ele>341.42</ele>
        <time>2019-10-15T13:59:57.999Z</time>
      </trkpt>
      <trkpt lat="37.28955" lon="-4.68692">
        <ele>342.08</ele>
        <time>2019-10-15T14:00:02.999Z</time>
      </trkpt>
      <trkpt lat="37.2895" lon="-4.68716">
        <ele>342.47</ele>
        <time>2019-10-15T14:00:07.999Z</time>
      </trkpt>
      <trkpt lat="37.28944" lon="-4.68739">
        <ele>342.71</ele>
        <time>2019-10-15T14:00:12.999Z</time>
      </trkpt>
      <trkpt lat="37.28939" lon="-4.68763">
        <ele>343.07</ele>
        <time>2019-10-15T14:00:17.999Z</time>
      </trkpt>
      <trkpt lat="37.28933" lon="-4.68787">
        <ele>343.13</ele>
        <time>2019-10-15T14:00:22.999Z</time>
      </trkpt>
      <trkpt lat="37.28925" lon="-4.68806">
        <ele>343.21</ele>
        <time>2019-10-15T14:00:27.999Z</time>
      </trkpt>
      <trkpt lat="37.28916" lon="-4.68824">
        <ele>343.31</ele>
        <time>2019-10-15T14:00:32.999Z</time>
      </trkpt>
      <trkpt lat="37.28908" lon="-4.6884">
        <ele>343.44</ele>
        <time>2019-10-15T14:00:37.999Z</time>
      </trkpt>
      <trkpt lat="37.28901" lon="-4.68855">
        <ele>343.59</ele>
        <time>2019-10-15T14:00:42.999Z</time>
      </trkpt>
      <trkpt lat="37.28893" lon="-4.68869">
        <ele>343.75</ele>
        <time>2019-10-15T14:00:47.999Z</time>
      </trkpt>
      <trkpt lat="37.28886" lon="-4.68884">
        <ele>343.92</ele>
        <time>2019-10-15T14:00:52.999Z</time>
      </trkpt>
      <trkpt lat="37.2888" lon="-4.68897">
        <ele>344.11</ele>
        <time>2019-10-15T14:00:57.999Z</time>
      </trkpt>
      <trkpt lat="37.28874" lon="-4.68912">
        <ele>344.31</ele>
        <time>2019-10-15T14:01:02.999Z</time>
      </trkpt>
      <trkpt lat="37.28869" lon="-4.68923">
        <ele>344.53</ele>
        <time>2019-10-15T14:01:07.999Z</time>
      </trkpt>
      <trkpt lat="37.28865" lon="-4.68935">
        <ele>344.74</ele>
        <time>2019-10-15T14:01:12.999Z</time>
      </trkpt>
      <trkpt lat="37.28862" lon="-4.68947">
        <ele>344.96</ele>
        <time>2019-10-15T14:01:17.999Z</time>
      </trkpt>
      <trkpt lat="37.28859" lon="-4.68961">
        <ele>345.2</ele>
        <time>2019-10-15T14:01:22.999Z</time>
      </trkpt>
      <trkpt lat="37.28856" lon="-4.68972">
        <ele>345.44</ele>
        <time>2019-10-15T14:01:27.999Z</time>
      </trkpt>
      <trkpt lat="37.28853" lon="-4.68985">
        <ele>345.7</ele>
        <time>2019-10-15T14:01:32.999Z</time>
      </trkpt>
      <trkpt lat="37.28849" lon="-4.68996">
        <ele>345.99</ele>
        <time>2019-10-15T14:01:38.999Z</time>
      </trkpt>
      <trkpt lat="37.28846" lon="-4.69008">
        <ele>346.24</ele>
        <time>2019-10-15T14:01:43.999Z</time>
      </trkpt>
      <trkpt lat="37.28842" lon="-4.69019">
        <ele>346.54</ele>
        <time>2019-10-15T14:01:49.999Z</time>
      </trkpt>
      <trkpt lat="37.28837" lon="-4.69031">
        <ele>346.85</ele>
        <time>2019-10-15T14:01:55.999Z</time>
      </trkpt>
      <trkpt lat="37.28831" lon="-4.69039">
        <ele>347.15</ele>
        <time>2019-10-15T14:02:01.999Z</time>
      </trkpt>
      <trkpt lat="37.28825" lon="-4.6905">
        <ele>347.58</ele>
        <time>2019-10-15T14:02:09.999Z</time>
      </trkpt>
      <trkpt lat="37.2882" lon="-4.6906">
        <ele>347.97</ele>
        <time>2019-10-15T14:02:16.999Z</time>
      </trkpt>
      <trkpt lat="37.28816" lon="-4.69072">
        <ele>348.38</ele>
        <time>2019-10-15T14:02:23.999Z</time>
      </trkpt>
      <trkpt lat="37.2881" lon="-4.69081">
        <ele>348.85</ele>
        <time>2019-10-15T14:02:31.999Z</time>
      </trkpt>
      <trkpt lat="37.28805" lon="-4.69092">
        <ele>349.3</ele>
        <time>2019-10-15T14:02:38.999Z</time>
      </trkpt>
      <trkpt lat="37.28801" lon="-4.69102">
        <ele>349.7</ele>
        <time>2019-10-15T14:02:44.999Z</time>
      </trkpt>
      <trkpt lat="37.28797" lon="-4.69113">
        <ele>350.1</ele>
        <time>2019-10-15T14:02:50.999Z</time>
      </trkpt>
      <trkpt lat="37.28793" lon="-4.69123">
        <ele>350.52</ele>
        <time>2019-10-15T14:02:56.999Z</time>
      </trkpt>
      <trkpt lat="37.28789" lon="-4.69133">
        <ele>350.96</ele>
        <time>2019-10-15T14:03:02.999Z</time>
      </trkpt>
      <trkpt lat="37.28786" lon="-4.69146">
        <ele>351.41</ele>
        <time>2019-10-15T14:03:08.999Z</time>
      </trkpt>
      <trkpt lat="37.28781" lon="-4.69157">
        <ele>352.04</ele>
        <time>2019-10-15T14:03:16.999Z</time>
      </trkpt>
      <trkpt lat="37.28776" lon="-4.69169">
        <ele>352.6</ele>
        <time>2019-10-15T14:03:23.999Z</time>
      </trkpt>
      <trkpt lat="37.28772" lon="-4.69182">
        <ele>353.16</ele>
        <time>2019-10-15T14:03:30.999Z</time>
      </trkpt>
      <trkpt lat="37.28768" lon="-4.69191">
        <ele>353.65</ele>
        <time>2019-10-15T14:03:36.999Z</time>
      </trkpt>
      <trkpt lat="37.28764" lon="-4.69203">
        <ele>354.21</ele>
        <time>2019-10-15T14:03:43.999Z</time>
      </trkpt>
      <trkpt lat="37.28761" lon="-4.69216">
        <ele>354.78</ele>
        <time>2019-10-15T14:03:50.999Z</time>
      </trkpt>
      <trkpt lat="37.28758" lon="-4.69227">
        <ele>355.27</ele>
        <time>2019-10-15T14:03:56.999Z</time>
      </trkpt>
      <trkpt lat="37.28755" lon="-4.69239">
        <ele>355.84</ele>
        <time>2019-10-15T14:04:03.999Z</time>
      </trkpt>
      <trkpt lat="37.28752" lon="-4.69251">
        <ele>356.35</ele>
        <time>2019-10-15T14:04:09.999Z</time>
      </trkpt>
      <trkpt lat="37.28749" lon="-4.69263">
        <ele>356.86</ele>
        <time>2019-10-15T14:04:15.999Z</time>
      </trkpt>
      <trkpt lat="37.28745" lon="-4.69275">
        <ele>357.31</ele>
        <time>2019-10-15T14:04:20.999Z</time>
      </trkpt>
      <trkpt lat="37.28741" lon="-4.69287">
        <ele>357.77</ele>
        <time>2019-10-15T14:04:25.999Z</time>
      </trkpt>
      <trkpt lat="37.28736" lon="-4.693">
        <ele>358.35</ele>
        <time>2019-10-15T14:04:31.999Z</time>
      </trkpt>
      <trkpt lat="37.28732" lon="-4.69312">
        <ele>358.95</ele>
        <time>2019-10-15T14:04:37.999Z</time>
      </trkpt>
      <trkpt lat="37.28728" lon="-4.69325">
        <ele>359.57</ele>
        <time>2019-10-15T14:04:43.999Z</time>
      </trkpt>
      <trkpt lat="37.28725" lon="-4.69338">
        <ele>360.09</ele>
        <time>2019-10-15T14:04:48.999Z</time>
      </trkpt>
      <trkpt lat="37.28721" lon="-4.69351">
        <ele>360.6</ele>
        <time>2019-10-15T14:04:53.999Z</time>
      </trkpt>
      <trkpt lat="37.28717" lon="-4.69363">
        <ele>361.11</ele>
        <time>2019-10-15T14:04:58.999Z</time>
      </trkpt>
      <trkpt lat="37.28713" lon="-4.69375">
        <ele>361.63</ele>
        <time>2019-10-15T14:05:03.999Z</time>
      </trkpt>
      <trkpt lat="37.28709" lon="-4.69387">
        <ele>362.15</ele>
        <time>2019-10-15T14:05:08.999Z</time>
      </trkpt>
      <trkpt lat="37.28704" lon="-4.69397">
        <ele>362.66</ele>
        <time>2019-10-15T14:05:13.999Z</time>
      </trkpt>
      <trkpt lat="37.28698" lon="-4.69408">
        <ele>363.27</ele>
        <time>2019-10-15T14:05:19.999Z</time>
      </trkpt>
      <trkpt lat="37.28692" lon="-4.6942">
        <ele>364.07</ele>
        <time>2019-10-15T14:05:27.999Z</time>
      </trkpt>
      <trkpt lat="37.28686" lon="-4.69432">
        <ele>364.65</ele>
        <time>2019-10-15T14:05:33.999Z</time>
      </trkpt>
      <trkpt lat="37.28681" lon="-4.69443">
        <ele>365.23</ele>
        <time>2019-10-15T14:05:39.999Z</time>
      </trkpt>
      <trkpt lat="37.28675" lon="-4.69454">
        <ele>365.8</ele>
        <time>2019-10-15T14:05:45.999Z</time>
      </trkpt>
      <trkpt lat="37.28669" lon="-4.69464">
        <ele>366.25</ele>
        <time>2019-10-15T14:05:50.999Z</time>
      </trkpt>
      <trkpt lat="37.28661" lon="-4.69471">
        <ele>366.7</ele>
        <time>2019-10-15T14:05:55.999Z</time>
      </trkpt>
      <trkpt lat="37.28652" lon="-4.69477">
        <ele>367.13</ele>
        <time>2019-10-15T14:06:01.000Z</time>
      </trkpt>
      <trkpt lat="37.28644" lon="-4.69481">
        <ele>367.54</ele>
        <time>2019-10-15T14:06:06.000Z</time>
      </trkpt>
      <trkpt lat="37.28635" lon="-4.69484">
        <ele>367.96</ele>
        <time>2019-10-15T14:06:11.000Z</time>
      </trkpt>
      <trkpt lat="37.28625" lon="-4.69487">
        <ele>368.54</ele>
        <time>2019-10-15T14:06:18.000Z</time>
      </trkpt>
      <trkpt lat="37.28616" lon="-4.6949">
        <ele>368.96</ele>
        <time>2019-10-15T14:06:23.000Z</time>
      </trkpt>
      <trkpt lat="37.28606" lon="-4.69492">
        <ele>369.56</ele>
        <time>2019-10-15T14:06:30.000Z</time>
      </trkpt>
      <trkpt lat="37.28594" lon="-4.69495">
        <ele>369.97</ele>
        <time>2019-10-15T14:06:35.000Z</time>
      </trkpt>
      <trkpt lat="37.28578" lon="-4.695">
        <ele>371.52</ele>
        <time>2019-10-15T14:06:40.000Z</time>
      </trkpt>
      <trkpt lat="37.28558" lon="-4.69509">
        <ele>373.57</ele>
        <time>2019-10-15T14:06:45.000Z</time>
      </trkpt>
      <trkpt lat="37.28535" lon="-4.6952">
        <ele>374.42</ele>
        <time>2019-10-15T14:06:50.000Z</time>
      </trkpt>
      <trkpt lat="37.28507" lon="-4.69533">
        <ele>374.84</ele>
        <time>2019-10-15T14:06:55.000Z</time>
      </trkpt>
      <trkpt lat="37.28475" lon="-4.69546">
        <ele>375.12</ele>
        <time>2019-10-15T14:07:00.000Z</time>
      </trkpt>
      <trkpt lat="37.28439" lon="-4.69559">
        <ele>375.23</ele>
        <time>2019-10-15T14:07:05.000Z</time>
      </trkpt>
      <trkpt lat="37.28403" lon="-4.69573">
        <ele>375.59</ele>
        <time>2019-10-15T14:07:10.000Z</time>
      </trkpt>
      <trkpt lat="37.2837" lon="-4.69585">
        <ele>376.12</ele>
        <time>2019-10-15T14:07:15.000Z</time>
      </trkpt>
      <trkpt lat="37.28339" lon="-4.69595">
        <ele>376.68</ele>
        <time>2019-10-15T14:07:20.000Z</time>
      </trkpt>
      <trkpt lat="37.28311" lon="-4.69601">
        <ele>377.26</ele>
        <time>2019-10-15T14:07:25.000Z</time>
      </trkpt>
      <trkpt lat="37.28286" lon="-4.69608">
        <ele>378.38</ele>
        <time>2019-10-15T14:07:30.000Z</time>
      </trkpt>
      <trkpt lat="37.28268" lon="-4.69614">
        <ele>379.24</ele>
        <time>2019-10-15T14:07:35.000Z</time>
      </trkpt>
      <trkpt lat="37.2825" lon="-4.69622">
        <ele>379.9</ele>
        <time>2019-10-15T14:07:40.000Z</time>
      </trkpt>
      <trkpt lat="37.28233" lon="-4.6963">
        <ele>381.24</ele>
        <time>2019-10-15T14:07:45.000Z</time>
      </trkpt>
      <trkpt lat="37.28214" lon="-4.69638">
        <ele>382.02</ele>
        <time>2019-10-15T14:07:50.000Z</time>
      </trkpt>
      <trkpt lat="37.28196" lon="-4.69646">
        <ele>382.74</ele>
        <time>2019-10-15T14:07:55.000Z</time>
      </trkpt>
      <trkpt lat="37.28176" lon="-4.69649">
        <ele>383.14</ele>
        <time>2019-10-15T14:08:00.000Z</time>
      </trkpt>
      <trkpt lat="37.28154" lon="-4.69655">
        <ele>382.73</ele>
        <time>2019-10-15T14:08:05.000Z</time>
      </trkpt>
      <trkpt lat="37.28127" lon="-4.69681">
        <ele>381.52</ele>
        <time>2019-10-15T14:08:10.000Z</time>
      </trkpt>
      <trkpt lat="37.28103" lon="-4.69719">
        <ele>380.96</ele>
        <time>2019-10-15T14:08:15.000Z</time>
      </trkpt>
      <trkpt lat="37.28084" lon="-4.69759">
        <ele>380.8</ele>
        <time>2019-10-15T14:08:20.000Z</time>
      </trkpt>
      <trkpt lat="37.28068" lon="-4.69797">
        <ele>380.85</ele>
        <time>2019-10-15T14:08:25.000Z</time>
      </trkpt>
      <trkpt lat="37.28047" lon="-4.69826">
        <ele>381.51</ele>
        <time>2019-10-15T14:08:30.000Z</time>
      </trkpt>
      <trkpt lat="37.28026" lon="-4.6985">
        <ele>382.21</ele>
        <time>2019-10-15T14:08:35.000Z</time>
      </trkpt>
      <trkpt lat="37.28003" lon="-4.69871">
        <ele>382.5</ele>
        <time>2019-10-15T14:08:40.000Z</time>
      </trkpt>
      <trkpt lat="37.27979" lon="-4.69882">
        <ele>382.79</ele>
        <time>2019-10-15T14:08:45.000Z</time>
      </trkpt>
      <trkpt lat="37.27956" lon="-4.69881">
        <ele>383.24</ele>
        <time>2019-10-15T14:08:50.000Z</time>
      </trkpt>
      <trkpt lat="37.27937" lon="-4.69877">
        <ele>383.33</ele>
        <time>2019-10-15T14:08:55.000Z</time>
      </trkpt>
      <trkpt lat="37.27922" lon="-4.69872">
        <ele>383.39</ele>
        <time>2019-10-15T14:09:00.000Z</time>
      </trkpt>
      <trkpt lat="37.27909" lon="-4.69871">
        <ele>383.5</ele>
        <time>2019-10-15T14:09:05.000Z</time>
      </trkpt>
      <trkpt lat="37.27898" lon="-4.69873">
        <ele>383.64</ele>
        <time>2019-10-15T14:09:10.000Z</time>
      </trkpt>
      <trkpt lat="37.27889" lon="-4.69878">
        <ele>383.81</ele>
        <time>2019-10-15T14:09:15.000Z</time>
      </trkpt>
      <trkpt lat="37.2788" lon="-4.69885">
        <ele>384.05</ele>
        <time>2019-10-15T14:09:21.000Z</time>
      </trkpt>
      <trkpt lat="37.27872" lon="-4.69892">
        <ele>384.31</ele>
        <time>2019-10-15T14:09:26.000Z</time>
      </trkpt>
      <trkpt lat="37.27863" lon="-4.69899">
        <ele>384.67</ele>
        <time>2019-10-15T14:09:32.000Z</time>
      </trkpt>
      <trkpt lat="37.27855" lon="-4.69903">
        <ele>385.08</ele>
        <time>2019-10-15T14:09:38.000Z</time>
      </trkpt>
      <trkpt lat="37.27846" lon="-4.69907">
        <ele>385.49</ele>
        <time>2019-10-15T14:09:44.000Z</time>
      </trkpt>
      <trkpt lat="37.27836" lon="-4.69911">
        <ele>385.99</ele>
        <time>2019-10-15T14:09:51.000Z</time>
      </trkpt>
      <trkpt lat="37.27826" lon="-4.69912">
        <ele>386.55</ele>
        <time>2019-10-15T14:09:58.000Z</time>
      </trkpt>
      <trkpt lat="37.27817" lon="-4.69913">
        <ele>387.07</ele>
        <time>2019-10-15T14:10:04.000Z</time>
      </trkpt>
      <trkpt lat="37.27808" lon="-4.69914">
        <ele>387.6</ele>
        <time>2019-10-15T14:10:10.000Z</time>
      </trkpt>
      <trkpt lat="37.27797" lon="-4.69913">
        <ele>388.19</ele>
        <time>2019-10-15T14:10:17.000Z</time>
      </trkpt>
      <trkpt lat="37.27788" lon="-4.69913">
        <ele>388.82</ele>
        <time>2019-10-15T14:10:24.000Z</time>
      </trkpt>
      <trkpt lat="37.27778" lon="-4.69913">
        <ele>389.44</ele>
        <time>2019-10-15T14:10:31.000Z</time>
      </trkpt>
      <trkpt lat="37.27767" lon="-4.69912">
        <ele>390.5</ele>
        <time>2019-10-15T14:11:04.000Z</time>
      </trkpt>
      <trkpt lat="37.27758" lon="-4.69911">
        <ele>390.97</ele>
        <time>2019-10-15T14:11:11.000Z</time>
      </trkpt>
      <trkpt lat="37.27748" lon="-4.69911">
        <ele>391.31</ele>
        <time>2019-10-15T14:11:16.000Z</time>
      </trkpt>
      <trkpt lat="37.27738" lon="-4.69911">
        <ele>391.63</ele>
        <time>2019-10-15T14:11:21.000Z</time>
      </trkpt>
      <trkpt lat="37.27728" lon="-4.69909">
        <ele>392.04</ele>
        <time>2019-10-15T14:11:27.000Z</time>
      </trkpt>
      <trkpt lat="37.27718" lon="-4.69907">
        <ele>392.45</ele>
        <time>2019-10-15T14:11:33.000Z</time>
      </trkpt>
      <trkpt lat="37.27709" lon="-4.69903">
        <ele>392.97</ele>
        <time>2019-10-15T14:11:40.000Z</time>
      </trkpt>
      <trkpt lat="37.27699" lon="-4.69901">
        <ele>393.54</ele>
        <time>2019-10-15T14:11:47.000Z</time>
      </trkpt>
      <trkpt lat="37.27689" lon="-4.69899">
        <ele>394.16</ele>
        <time>2019-10-15T14:11:54.000Z</time>
      </trkpt>
      <trkpt lat="37.27679" lon="-4.69897">
        <ele>394.72</ele>
        <time>2019-10-15T14:12:00.000Z</time>
      </trkpt>
      <trkpt lat="37.2767" lon="-4.69894">
        <ele>395.29</ele>
        <time>2019-10-15T14:12:06.000Z</time>
      </trkpt>
      <trkpt lat="37.2766" lon="-4.69891">
        <ele>395.95</ele>
        <time>2019-10-15T14:12:13.000Z</time>
      </trkpt>
      <trkpt lat="37.27651" lon="-4.69889">
        <ele>396.55</ele>
        <time>2019-10-15T14:12:19.000Z</time>
      </trkpt>
      <trkpt lat="37.27641" lon="-4.69886">
        <ele>397.19</ele>
        <time>2019-10-15T14:12:25.000Z</time>
      </trkpt>
      <trkpt lat="37.27631" lon="-4.69883">
        <ele>397.98</ele>
        <time>2019-10-15T14:12:32.000Z</time>
      </trkpt>
      <trkpt lat="37.27621" lon="-4.69881">
        <ele>399.64</ele>
        <time>2019-10-15T14:12:48.000Z</time>
      </trkpt>
      <trkpt lat="37.27612" lon="-4.69881">
        <ele>400.58</ele>
        <time>2019-10-15T14:12:56.000Z</time>
      </trkpt>
      <trkpt lat="37.27603" lon="-4.69878">
        <ele>401.6</ele>
        <time>2019-10-15T14:13:05.000Z</time>
      </trkpt>
      <trkpt lat="37.27594" lon="-4.69876">
        <ele>402.79</ele>
        <time>2019-10-15T14:13:14.000Z</time>
      </trkpt>
      <trkpt lat="37.27584" lon="-4.69875">
        <ele>404.26</ele>
        <time>2019-10-15T14:13:24.000Z</time>
      </trkpt>
      <trkpt lat="37.27574" lon="-4.69874">
        <ele>405.74</ele>
        <time>2019-10-15T14:13:34.000Z</time>
      </trkpt>
      <trkpt lat="37.27565" lon="-4.69871">
        <ele>406.87</ele>
        <time>2019-10-15T14:13:42.000Z</time>
      </trkpt>
      <trkpt lat="37.27556" lon="-4.69867">
        <ele>408.1</ele>
        <time>2019-10-15T14:13:53.000Z</time>
      </trkpt>
      <trkpt lat="37.27547" lon="-4.69864">
        <ele>408.84</ele>
        <time>2019-10-15T14:13:59.000Z</time>
      </trkpt>
      <trkpt lat="37.27537" lon="-4.69858">
        <ele>409.4</ele>
        <time>2019-10-15T14:14:04.000Z</time>
      </trkpt>
      <trkpt lat="37.2752" lon="-4.69844">
        <ele>411.84</ele>
        <time>2019-10-15T14:14:09.000Z</time>
      </trkpt>
      <trkpt lat="37.27495" lon="-4.69824">
        <ele>413.67</ele>
        <time>2019-10-15T14:14:14.000Z</time>
      </trkpt>
      <trkpt lat="37.27457" lon="-4.69806">
        <ele>414.38</ele>
        <time>2019-10-15T14:14:19.000Z</time>
      </trkpt>
      <trkpt lat="37.27407" lon="-4.69809">
        <ele>414.02</ele>
        <time>2019-10-15T14:14:24.000Z</time>
      </trkpt>
      <trkpt lat="37.27354" lon="-4.69825">
        <ele>413.46</ele>
        <time>2019-10-15T14:14:29.000Z</time>
      </trkpt>
      <trkpt lat="37.27307" lon="-4.69843">
        <ele>413.71</ele>
        <time>2019-10-15T14:14:34.000Z</time>
      </trkpt>
      <trkpt lat="37.27268" lon="-4.69856">
        <ele>414.05</ele>
        <time>2019-10-15T14:14:39.000Z</time>
      </trkpt>
      <trkpt lat="37.2724" lon="-4.69865">
        <ele>414.28</ele>
        <time>2019-10-15T14:14:44.000Z</time>
      </trkpt>
      <trkpt lat="37.27219" lon="-4.69879">
        <ele>414.29</ele>
        <time>2019-10-15T14:14:49.000Z</time>
      </trkpt>
      <trkpt lat="37.27201" lon="-4.69892">
        <ele>414.62</ele>
        <time>2019-10-15T14:14:54.000Z</time>
      </trkpt>
      <trkpt lat="37.27184" lon="-4.69904">
        <ele>414.65</ele>
        <time>2019-10-15T14:14:59.000Z</time>
      </trkpt>
      <trkpt lat="37.27169" lon="-4.69917">
        <ele>414.63</ele>
        <time>2019-10-15T14:15:04.000Z</time>
      </trkpt>
      <trkpt lat="37.27155" lon="-4.69927">
        <ele>414.6</ele>
        <time>2019-10-15T14:15:09.000Z</time>
      </trkpt>
      <trkpt lat="37.27141" lon="-4.69937">
        <ele>414.59</ele>
        <time>2019-10-15T14:15:14.000Z</time>
      </trkpt>
      <trkpt lat="37.27127" lon="-4.69946">
        <ele>414.6</ele>
        <time>2019-10-15T14:15:19.000Z</time>
      </trkpt>
      <trkpt lat="37.27115" lon="-4.69955">
        <ele>414.68</ele>
        <time>2019-10-15T14:15:24.000Z</time>
      </trkpt>
      <trkpt lat="37.27102" lon="-4.69964">
        <ele>414.78</ele>
        <time>2019-10-15T14:15:29.000Z</time>
      </trkpt>
      <trkpt lat="37.27092" lon="-4.69979">
        <ele>414.87</ele>
        <time>2019-10-15T14:15:34.000Z</time>
      </trkpt>
      <trkpt lat="37.27086" lon="-4.69996">
        <ele>414.96</ele>
        <time>2019-10-15T14:15:39.000Z</time>
      </trkpt>
      <trkpt lat="37.2708" lon="-4.70013">
        <ele>415.03</ele>
        <time>2019-10-15T14:15:44.000Z</time>
      </trkpt>
      <trkpt lat="37.27074" lon="-4.7003">
        <ele>415.11</ele>
        <time>2019-10-15T14:15:49.000Z</time>
      </trkpt>
      <trkpt lat="37.27069" lon="-4.70045">
        <ele>415.21</ele>
        <time>2019-10-15T14:15:54.000Z</time>
      </trkpt>
      <trkpt lat="37.27063" lon="-4.70058">
        <ele>415.34</ele>
        <time>2019-10-15T14:15:59.000Z</time>
      </trkpt>
      <trkpt lat="37.27059" lon="-4.7007">
        <ele>415.52</ele>
        <time>2019-10-15T14:16:04.000Z</time>
      </trkpt>
      <trkpt lat="37.27055" lon="-4.70082">
        <ele>415.74</ele>
        <time>2019-10-15T14:16:09.000Z</time>
      </trkpt>
      <trkpt lat="37.2705" lon="-4.70093">
        <ele>415.96</ele>
        <time>2019-10-15T14:16:14.000Z</time>
      </trkpt>
      <trkpt lat="37.27045" lon="-4.70104">
        <ele>416.22</ele>
        <time>2019-10-15T14:16:20.000Z</time>
      </trkpt>
      <trkpt lat="37.27041" lon="-4.70115">
        <ele>416.43</ele>
        <time>2019-10-15T14:16:25.000Z</time>
      </trkpt>
      <trkpt lat="37.27036" lon="-4.70126">
        <ele>416.74</ele>
        <time>2019-10-15T14:16:32.000Z</time>
      </trkpt>
      <trkpt lat="37.27032" lon="-4.70138">
        <ele>417.08</ele>
        <time>2019-10-15T14:16:39.000Z</time>
      </trkpt>
      <trkpt lat="37.27028" lon="-4.70148">
        <ele>417.36</ele>
        <time>2019-10-15T14:16:45.000Z</time>
      </trkpt>
      <trkpt lat="37.27023" lon="-4.7016">
        <ele>417.68</ele>
        <time>2019-10-15T14:16:52.000Z</time>
      </trkpt>
      <trkpt lat="37.2702" lon="-4.70171">
        <ele>417.99</ele>
        <time>2019-10-15T14:16:58.000Z</time>
      </trkpt>
      <trkpt lat="37.27017" lon="-4.70181">
        <ele>418.34</ele>
        <time>2019-10-15T14:17:04.000Z</time>
      </trkpt>
      <trkpt lat="37.27012" lon="-4.70192">
        <ele>418.72</ele>
        <time>2019-10-15T14:17:10.000Z</time>
      </trkpt>
      <trkpt lat="37.27008" lon="-4.70203">
        <ele>419.16</ele>
        <time>2019-10-15T14:17:17.000Z</time>
      </trkpt>
      <trkpt lat="37.27005" lon="-4.70215">
        <ele>419.63</ele>
        <time>2019-10-15T14:17:24.000Z</time>
      </trkpt>
      <trkpt lat="37.26999" lon="-4.70226">
        <ele>420.14</ele>
        <time>2019-10-15T14:17:31.000Z</time>
      </trkpt>
      <trkpt lat="37.26993" lon="-4.70234">
        <ele>420.6</ele>
        <time>2019-10-15T14:17:37.000Z</time>
      </trkpt>
      <trkpt lat="37.26987" lon="-4.70244">
        <ele>421.09</ele>
        <time>2019-10-15T14:17:43.000Z</time>
      </trkpt>
      <trkpt lat="37.2698" lon="-4.70253">
        <ele>421.71</ele>
        <time>2019-10-15T14:17:50.000Z</time>
      </trkpt>
      <trkpt lat="37.26973" lon="-4.70262">
        <ele>422.34</ele>
        <time>2019-10-15T14:17:57.000Z</time>
      </trkpt>
      <trkpt lat="37.26967" lon="-4.70273">
        <ele>422.99</ele>
        <time>2019-10-15T14:18:04.000Z</time>
      </trkpt>
      <trkpt lat="37.26962" lon="-4.70282">
        <ele>423.57</ele>
        <time>2019-10-15T14:18:10.000Z</time>
      </trkpt>
      <trkpt lat="37.26957" lon="-4.70293">
        <ele>424.14</ele>
        <time>2019-10-15T14:18:16.000Z</time>
      </trkpt>
      <trkpt lat="37.26951" lon="-4.70304">
        <ele>424.61</ele>
        <time>2019-10-15T14:18:21.000Z</time>
      </trkpt>
      <trkpt lat="37.26944" lon="-4.70317">
        <ele>425.06</ele>
        <time>2019-10-15T14:18:26.000Z</time>
      </trkpt>
      <trkpt lat="37.26934" lon="-4.70334">
        <ele>425.48</ele>
        <time>2019-10-15T14:18:31.000Z</time>
      </trkpt>
      <trkpt lat="37.26923" lon="-4.70354">
        <ele>427.81</ele>
        <time>2019-10-15T14:18:36.000Z</time>
      </trkpt>
      <trkpt lat="37.26912" lon="-4.70376">
        <ele>429.05</ele>
        <time>2019-10-15T14:18:41.000Z</time>
      </trkpt>
      <trkpt lat="37.26899" lon="-4.704">
        <ele>429.41</ele>
        <time>2019-10-15T14:18:46.000Z</time>
      </trkpt>
      <trkpt lat="37.26886" lon="-4.70424">
        <ele>429.57</ele>
        <time>2019-10-15T14:18:51.000Z</time>
      </trkpt>
      <trkpt lat="37.26873" lon="-4.70451">
        <ele>429.72</ele>
        <time>2019-10-15T14:18:56.000Z</time>
      </trkpt>
      <trkpt lat="37.26862" lon="-4.70475">
        <ele>430.08</ele>
        <time>2019-10-15T14:19:01.000Z</time>
      </trkpt>
      <trkpt lat="37.26848" lon="-4.70498">
        <ele>430.25</ele>
        <time>2019-10-15T14:19:06.000Z</time>
      </trkpt>
      <trkpt lat="37.26832" lon="-4.70522">
        <ele>430.42</ele>
        <time>2019-10-15T14:19:11.000Z</time>
      </trkpt>
      <trkpt lat="37.26817" lon="-4.70549">
        <ele>430.6</ele>
        <time>2019-10-15T14:19:16.000Z</time>
      </trkpt>
      <trkpt lat="37.26803" lon="-4.70575">
        <ele>430.85</ele>
        <time>2019-10-15T14:19:21.000Z</time>
      </trkpt>
      <trkpt lat="37.2679" lon="-4.70601">
        <ele>430.89</ele>
        <time>2019-10-15T14:19:26.000Z</time>
      </trkpt>
      <trkpt lat="37.26778" lon="-4.70626">
        <ele>430.95</ele>
        <time>2019-10-15T14:19:31.000Z</time>
      </trkpt>
      <trkpt lat="37.26765" lon="-4.70649">
        <ele>431.26</ele>
        <time>2019-10-15T14:19:36.000Z</time>
      </trkpt>
      <trkpt lat="37.26754" lon="-4.70671">
        <ele>431.64</ele>
        <time>2019-10-15T14:19:41.000Z</time>
      </trkpt>
      <trkpt lat="37.26743" lon="-4.70693">
        <ele>432.04</ele>
        <time>2019-10-15T14:19:46.000Z</time>
      </trkpt>
      <trkpt lat="37.26732" lon="-4.70715">
        <ele>432.51</ele>
        <time>2019-10-15T14:19:51.000Z</time>
      </trkpt>
      <trkpt lat="37.26721" lon="-4.70738">
        <ele>432.96</ele>
        <time>2019-10-15T14:19:56.000Z</time>
      </trkpt>
      <trkpt lat="37.26712" lon="-4.70761">
        <ele>433.35</ele>
        <time>2019-10-15T14:20:01.000Z</time>
      </trkpt>
      <trkpt lat="37.26701" lon="-4.70783">
        <ele>433.75</ele>
        <time>2019-10-15T14:20:06.000Z</time>
      </trkpt>
      <trkpt lat="37.2669" lon="-4.70804">
        <ele>434.09</ele>
        <time>2019-10-15T14:20:11.000Z</time>
      </trkpt>
      <trkpt lat="37.26678" lon="-4.70826">
        <ele>434.34</ele>
        <time>2019-10-15T14:20:16.000Z</time>
      </trkpt>
      <trkpt lat="37.26667" lon="-4.70848">
        <ele>434.6</ele>
        <time>2019-10-15T14:20:21.000Z</time>
      </trkpt>
      <trkpt lat="37.26653" lon="-4.70866">
        <ele>434.84</ele>
        <time>2019-10-15T14:20:26.000Z</time>
      </trkpt>
      <trkpt lat="37.26638" lon="-4.70884">
        <ele>435.02</ele>
        <time>2019-10-15T14:20:31.000Z</time>
      </trkpt>
      <trkpt lat="37.26617" lon="-4.70904">
        <ele>435.16</ele>
        <time>2019-10-15T14:20:36.000Z</time>
      </trkpt>
      <trkpt lat="37.26594" lon="-4.70926">
        <ele>435.31</ele>
        <time>2019-10-15T14:20:41.000Z</time>
      </trkpt>
      <trkpt lat="37.26569" lon="-4.70947">
        <ele>435.58</ele>
        <time>2019-10-15T14:20:46.000Z</time>
      </trkpt>
      <trkpt lat="37.26542" lon="-4.70967">
        <ele>435.76</ele>
        <time>2019-10-15T14:20:51.000Z</time>
      </trkpt>
      <trkpt lat="37.26515" lon="-4.70989">
        <ele>435.69</ele>
        <time>2019-10-15T14:20:56.000Z</time>
      </trkpt>
      <trkpt lat="37.26489" lon="-4.71013">
        <ele>435.71</ele>
        <time>2019-10-15T14:21:01.000Z</time>
      </trkpt>
      <trkpt lat="37.26463" lon="-4.71035">
        <ele>435.72</ele>
        <time>2019-10-15T14:21:06.000Z</time>
      </trkpt>
      <trkpt lat="37.26441" lon="-4.71058">
        <ele>435.94</ele>
        <time>2019-10-15T14:21:11.000Z</time>
      </trkpt>
      <trkpt lat="37.2642" lon="-4.71081">
        <ele>436.45</ele>
        <time>2019-10-15T14:21:16.000Z</time>
      </trkpt>
      <trkpt lat="37.26401" lon="-4.71105">
        <ele>436.69</ele>
        <time>2019-10-15T14:21:21.000Z</time>
      </trkpt>
      <trkpt lat="37.26383" lon="-4.71129">
        <ele>436.85</ele>
        <time>2019-10-15T14:21:26.000Z</time>
      </trkpt>
      <trkpt lat="37.26366" lon="-4.71152">
        <ele>437.09</ele>
        <time>2019-10-15T14:21:31.000Z</time>
      </trkpt>
      <trkpt lat="37.26349" lon="-4.71174">
        <ele>437.26</ele>
        <time>2019-10-15T14:21:35.999Z</time>
      </trkpt>
      <trkpt lat="37.26332" lon="-4.71195">
        <ele>437.33</ele>
        <time>2019-10-15T14:21:40.999Z</time>
      </trkpt>
      <trkpt lat="37.26316" lon="-4.71215">
        <ele>437.48</ele>
        <time>2019-10-15T14:21:45.999Z</time>
      </trkpt>
      <trkpt lat="37.26302" lon="-4.71235">
        <ele>437.72</ele>
        <time>2019-10-15T14:21:50.999Z</time>
      </trkpt>
      <trkpt lat="37.26288" lon="-4.71254">
        <ele>437.93</ele>
        <time>2019-10-15T14:21:55.999Z</time>
      </trkpt>
      <trkpt lat="37.26274" lon="-4.71272">
        <ele>438.07</ele>
        <time>2019-10-15T14:22:00.999Z</time>
      </trkpt>
      <trkpt lat="37.26259" lon="-4.71291">
        <ele>438.12</ele>
        <time>2019-10-15T14:22:05.999Z</time>
      </trkpt>
      <trkpt lat="37.26245" lon="-4.71309">
        <ele>438.15</ele>
        <time>2019-10-15T14:22:10.999Z</time>
      </trkpt>
      <trkpt lat="37.26232" lon="-4.71327">
        <ele>438.18</ele>
        <time>2019-10-15T14:22:15.999Z</time>
      </trkpt>
      <trkpt lat="37.2622" lon="-4.71342">
        <ele>438.19</ele>
        <time>2019-10-15T14:22:20.999Z</time>
      </trkpt>
      <trkpt lat="37.26208" lon="-4.71358">
        <ele>438.24</ele>
        <time>2019-10-15T14:22:25.999Z</time>
      </trkpt>
      <trkpt lat="37.26197" lon="-4.71373">
        <ele>438.3</ele>
        <time>2019-10-15T14:22:30.999Z</time>
      </trkpt>
      <trkpt lat="37.26186" lon="-4.71386">
        <ele>438.36</ele>
        <time>2019-10-15T14:22:35.999Z</time>
      </trkpt>
      <trkpt lat="37.26174" lon="-4.714">
        <ele>438.44</ele>
        <time>2019-10-15T14:22:40.999Z</time>
      </trkpt>
      <trkpt lat="37.26162" lon="-4.71412">
        <ele>438.54</ele>
        <time>2019-10-15T14:22:45.999Z</time>
      </trkpt>
      <trkpt lat="37.2615" lon="-4.71424">
        <ele>438.68</ele>
        <time>2019-10-15T14:22:50.999Z</time>
      </trkpt>
      <trkpt lat="37.26138" lon="-4.71435">
        <ele>438.84</ele>
        <time>2019-10-15T14:22:55.999Z</time>
      </trkpt>
      <trkpt lat="37.26126" lon="-4.71446">
        <ele>439.04</ele>
        <time>2019-10-15T14:23:00.999Z</time>
      </trkpt>
      <trkpt lat="37.26114" lon="-4.71457">
        <ele>439.24</ele>
        <time>2019-10-15T14:23:05.999Z</time>
      </trkpt>
      <trkpt lat="37.26104" lon="-4.71466">
        <ele>439.44</ele>
        <time>2019-10-15T14:23:10.999Z</time>
      </trkpt>
      <trkpt lat="37.26094" lon="-4.71476">
        <ele>439.63</ele>
        <time>2019-10-15T14:23:15.999Z</time>
      </trkpt>
      <trkpt lat="37.26082" lon="-4.71487">
        <ele>439.81</ele>
        <time>2019-10-15T14:23:20.999Z</time>
      </trkpt>
      <trkpt lat="37.26068" lon="-4.71501">
        <ele>440.01</ele>
        <time>2019-10-15T14:23:25.999Z</time>
      </trkpt>
      <trkpt lat="37.26053" lon="-4.71517">
        <ele>441.25</ele>
        <time>2019-10-15T14:23:30.999Z</time>
      </trkpt>
      <trkpt lat="37.2604" lon="-4.71533">
        <ele>442.04</ele>
        <time>2019-10-15T14:23:35.999Z</time>
      </trkpt>
      <trkpt lat="37.26026" lon="-4.7155">
        <ele>442.45</ele>
        <time>2019-10-15T14:23:40.999Z</time>
      </trkpt>
      <trkpt lat="37.26013" lon="-4.71568">
        <ele>442.76</ele>
        <time>2019-10-15T14:23:45.999Z</time>
      </trkpt>
      <trkpt lat="37.26002" lon="-4.71587">
        <ele>442.88</ele>
        <time>2019-10-15T14:23:50.999Z</time>
      </trkpt>
      <trkpt lat="37.25992" lon="-4.71606">
        <ele>442.93</ele>
        <time>2019-10-15T14:23:55.999Z</time>
      </trkpt>
      <trkpt lat="37.25983" lon="-4.71625">
        <ele>443</ele>
        <time>2019-10-15T14:24:00.999Z</time>
      </trkpt>
      <trkpt lat="37.25973" lon="-4.71641">
        <ele>443.08</ele>
        <time>2019-10-15T14:24:05.999Z</time>
      </trkpt>
      <trkpt lat="37.25962" lon="-4.71659">
        <ele>443.18</ele>
        <time>2019-10-15T14:24:10.999Z</time>
      </trkpt>
      <trkpt lat="37.25952" lon="-4.71677">
        <ele>443.29</ele>
        <time>2019-10-15T14:24:15.999Z</time>
      </trkpt>
      <trkpt lat="37.2594" lon="-4.71694">
        <ele>443.4</ele>
        <time>2019-10-15T14:24:20.999Z</time>
      </trkpt>
      <trkpt lat="37.25928" lon="-4.71709">
        <ele>443.52</ele>
        <time>2019-10-15T14:24:25.999Z</time>
      </trkpt>
      <trkpt lat="37.25914" lon="-4.71724">
        <ele>443.68</ele>
        <time>2019-10-15T14:24:30.999Z</time>
      </trkpt>
      <trkpt lat="37.259" lon="-4.71738">
        <ele>443.87</ele>
        <time>2019-10-15T14:24:35.999Z</time>
      </trkpt>
      <trkpt lat="37.25887" lon="-4.71751">
        <ele>444.1</ele>
        <time>2019-10-15T14:24:40.999Z</time>
      </trkpt>
      <trkpt lat="37.25876" lon="-4.71764">
        <ele>444.35</ele>
        <time>2019-10-15T14:24:45.999Z</time>
      </trkpt>
      <trkpt lat="37.25864" lon="-4.71777">
        <ele>444.62</ele>
        <time>2019-10-15T14:24:50.999Z</time>
      </trkpt>
      <trkpt lat="37.25855" lon="-4.71789">
        <ele>444.89</ele>
        <time>2019-10-15T14:24:55.999Z</time>
      </trkpt>
      <trkpt lat="37.25846" lon="-4.71801">
        <ele>445.17</ele>
        <time>2019-10-15T14:25:00.999Z</time>
      </trkpt>
      <trkpt lat="37.25837" lon="-4.71811">
        <ele>445.46</ele>
        <time>2019-10-15T14:25:05.999Z</time>
      </trkpt>
      <trkpt lat="37.2583" lon="-4.71822">
        <ele>445.76</ele>
        <time>2019-10-15T14:25:10.999Z</time>
      </trkpt>
      <trkpt lat="37.25825" lon="-4.71834">
        <ele>446.06</ele>
        <time>2019-10-15T14:25:15.999Z</time>
      </trkpt>
      <trkpt lat="37.25819" lon="-4.71845">
        <ele>446.35</ele>
        <time>2019-10-15T14:25:20.999Z</time>
      </trkpt>
      <trkpt lat="37.25814" lon="-4.71855">
        <ele>446.61</ele>
        <time>2019-10-15T14:25:25.999Z</time>
      </trkpt>
      <trkpt lat="37.25808" lon="-4.71866">
        <ele>446.86</ele>
        <time>2019-10-15T14:25:30.999Z</time>
      </trkpt>
      <trkpt lat="37.25801" lon="-4.71877">
        <ele>447.11</ele>
        <time>2019-10-15T14:25:35.999Z</time>
      </trkpt>
      <trkpt lat="37.25796" lon="-4.71887">
        <ele>447.32</ele>
        <time>2019-10-15T14:25:40.999Z</time>
      </trkpt>
      <trkpt lat="37.2579" lon="-4.71897">
        <ele>447.52</ele>
        <time>2019-10-15T14:25:45.999Z</time>
      </trkpt>
      <trkpt lat="37.25782" lon="-4.71906">
        <ele>447.73</ele>
        <time>2019-10-15T14:25:50.999Z</time>
      </trkpt>
      <trkpt lat="37.25776" lon="-4.71918">
        <ele>447.94</ele>
        <time>2019-10-15T14:25:55.999Z</time>
      </trkpt>
      <trkpt lat="37.25768" lon="-4.71928">
        <ele>448.14</ele>
        <time>2019-10-15T14:26:00.999Z</time>
      </trkpt>
      <trkpt lat="37.25762" lon="-4.71938">
        <ele>448.35</ele>
        <time>2019-10-15T14:26:05.999Z</time>
      </trkpt>
      <trkpt lat="37.25756" lon="-4.71948">
        <ele>448.57</ele>
        <time>2019-10-15T14:26:10.999Z</time>
      </trkpt>
      <trkpt lat="37.25748" lon="-4.71958">
        <ele>448.8</ele>
        <time>2019-10-15T14:26:15.999Z</time>
      </trkpt>
      <trkpt lat="37.25742" lon="-4.71967">
        <ele>449.05</ele>
        <time>2019-10-15T14:26:20.999Z</time>
      </trkpt>
      <trkpt lat="37.25735" lon="-4.71978">
        <ele>449.3</ele>
        <time>2019-10-15T14:26:25.999Z</time>
      </trkpt>
      <trkpt lat="37.25728" lon="-4.71988">
        <ele>449.56</ele>
        <time>2019-10-15T14:26:30.999Z</time>
      </trkpt>
      <trkpt lat="37.25723" lon="-4.71998">
        <ele>449.82</ele>
        <time>2019-10-15T14:26:35.999Z</time>
      </trkpt>
      <trkpt lat="37.25718" lon="-4.72008">
        <ele>450.08</ele>
        <time>2019-10-15T14:26:40.999Z</time>
      </trkpt>
      <trkpt lat="37.25713" lon="-4.72018">
        <ele>450.33</ele>
        <time>2019-10-15T14:26:45.999Z</time>
      </trkpt>
      <trkpt lat="37.25709" lon="-4.72029">
        <ele>450.59</ele>
        <time>2019-10-15T14:26:50.999Z</time>
      </trkpt>
      <trkpt lat="37.25704" lon="-4.72041">
        <ele>450.84</ele>
        <time>2019-10-15T14:26:55.999Z</time>
      </trkpt>
      <trkpt lat="37.25699" lon="-4.72051">
        <ele>451.1</ele>
        <time>2019-10-15T14:27:00.999Z</time>
      </trkpt>
      <trkpt lat="37.25694" lon="-4.72062">
        <ele>451.35</ele>
        <time>2019-10-15T14:27:05.999Z</time>
      </trkpt>
      <trkpt lat="37.25689" lon="-4.72073">
        <ele>451.61</ele>
        <time>2019-10-15T14:27:10.999Z</time>
      </trkpt>
      <trkpt lat="37.25684" lon="-4.72084">
        <ele>451.88</ele>
        <time>2019-10-15T14:27:15.999Z</time>
      </trkpt>
      <trkpt lat="37.25679" lon="-4.72094">
        <ele>452.14</ele>
        <time>2019-10-15T14:27:20.999Z</time>
      </trkpt>
      <trkpt lat="37.25673" lon="-4.72106">
        <ele>452.4</ele>
        <time>2019-10-15T14:27:25.999Z</time>
      </trkpt>
      <trkpt lat="37.25667" lon="-4.72118">
        <ele>452.66</ele>
        <time>2019-10-15T14:27:30.999Z</time>
      </trkpt>
      <trkpt lat="37.2566" lon="-4.7213">
        <ele>452.9</ele>
        <time>2019-10-15T14:27:35.999Z</time>
      </trkpt>
      <trkpt lat="37.25652" lon="-4.72144">
        <ele>453.13</ele>
        <time>2019-10-15T14:27:40.999Z</time>
      </trkpt>
      <trkpt lat="37.25643" lon="-4.72158">
        <ele>453.36</ele>
        <time>2019-10-15T14:27:45.999Z</time>
      </trkpt>
      <trkpt lat="37.25635" lon="-4.72172">
        <ele>453.58</ele>
        <time>2019-10-15T14:27:50.999Z</time>
      </trkpt>
      <trkpt lat="37.25627" lon="-4.72185">
        <ele>453.78</ele>
        <time>2019-10-15T14:27:55.999Z</time>
      </trkpt>
      <trkpt lat="37.25621" lon="-4.72201">
        <ele>453.99</ele>
        <time>2019-10-15T14:28:00.999Z</time>
      </trkpt>
      <trkpt lat="37.25614" lon="-4.72216">
        <ele>454.18</ele>
        <time>2019-10-15T14:28:05.999Z</time>
      </trkpt>
      <trkpt lat="37.25608" lon="-4.72234">
        <ele>454.38</ele>
        <time>2019-10-15T14:28:10.999Z</time>
      </trkpt>
      <trkpt lat="37.256" lon="-4.72254">
        <ele>455.11</ele>
        <time>2019-10-15T14:28:15.999Z</time>
      </trkpt>
      <trkpt lat="37.2559" lon="-4.72276">
        <ele>456.09</ele>
        <time>2019-10-15T14:28:20.999Z</time>
      </trkpt>
      <trkpt lat="37.25577" lon="-4.72297">
        <ele>456.49</ele>
        <time>2019-10-15T14:28:25.999Z</time>
      </trkpt>
      <trkpt lat="37.25561" lon="-4.72317">
        <ele>456.71</ele>
        <time>2019-10-15T14:28:30.999Z</time>
      </trkpt>
      <trkpt lat="37.25544" lon="-4.72336">
        <ele>456.86</ele>
        <time>2019-10-15T14:28:35.999Z</time>
      </trkpt>
      <trkpt lat="37.25528" lon="-4.72356">
        <ele>456.99</ele>
        <time>2019-10-15T14:28:40.999Z</time>
      </trkpt>
      <trkpt lat="37.25512" lon="-4.72375">
        <ele>457.14</ele>
        <time>2019-10-15T14:28:45.999Z</time>
      </trkpt>
      <trkpt lat="37.25498" lon="-4.72397">
        <ele>457.29</ele>
        <time>2019-10-15T14:28:50.999Z</time>
      </trkpt>
      <trkpt lat="37.25487" lon="-4.72416">
        <ele>457.36</ele>
        <time>2019-10-15T14:28:55.999Z</time>
      </trkpt>
      <trkpt lat="37.25478" lon="-4.72433">
        <ele>457.38</ele>
        <time>2019-10-15T14:29:00.999Z</time>
      </trkpt>
      <trkpt lat="37.25468" lon="-4.72451">
        <ele>457.47</ele>
        <time>2019-10-15T14:29:05.999Z</time>
      </trkpt>
      <trkpt lat="37.25456" lon="-4.72473">
        <ele>457.72</ele>
        <time>2019-10-15T14:29:10.999Z</time>
      </trkpt>
      <trkpt lat="37.25445" lon="-4.72495">
        <ele>457.88</ele>
        <time>2019-10-15T14:29:15.999Z</time>
      </trkpt>
      <trkpt lat="37.25433" lon="-4.72516">
        <ele>458.07</ele>
        <time>2019-10-15T14:29:20.999Z</time>
      </trkpt>
      <trkpt lat="37.25419" lon="-4.72541">
        <ele>458.22</ele>
        <time>2019-10-15T14:29:25.999Z</time>
      </trkpt>
      <trkpt lat="37.25406" lon="-4.72572">
        <ele>458.34</ele>
        <time>2019-10-15T14:29:30.999Z</time>
      </trkpt>
      <trkpt lat="37.25396" lon="-4.7261">
        <ele>458.44</ele>
        <time>2019-10-15T14:29:35.999Z</time>
      </trkpt>
      <trkpt lat="37.25384" lon="-4.72648">
        <ele>458.63</ele>
        <time>2019-10-15T14:29:40.999Z</time>
      </trkpt>
      <trkpt lat="37.25369" lon="-4.72679">
        <ele>458.91</ele>
        <time>2019-10-15T14:29:45.999Z</time>
      </trkpt>
      <trkpt lat="37.25354" lon="-4.72706">
        <ele>459.35</ele>
        <time>2019-10-15T14:29:50.999Z</time>
      </trkpt>
      <trkpt lat="37.25337" lon="-4.72724">
        <ele>460.05</ele>
        <time>2019-10-15T14:29:55.999Z</time>
      </trkpt>
      <trkpt lat="37.25324" lon="-4.72737">
        <ele>460.25</ele>
        <time>2019-10-15T14:30:00.999Z</time>
      </trkpt>
      <trkpt lat="37.25312" lon="-4.7275">
        <ele>460.44</ele>
        <time>2019-10-15T14:30:05.999Z</time>
      </trkpt>
      <trkpt lat="37.253" lon="-4.72761">
        <ele>460.68</ele>
        <time>2019-10-15T14:30:10.999Z</time>
      </trkpt>
      <trkpt lat="37.25287" lon="-4.72772">
        <ele>460.96</ele>
        <time>2019-10-15T14:30:15.999Z</time>
      </trkpt>
      <trkpt lat="37.25275" lon="-4.72778">
        <ele>461.27</ele>
        <time>2019-10-15T14:30:20.999Z</time>
      </trkpt>
      <trkpt lat="37.25264" lon="-4.72781">
        <ele>461.61</ele>
        <time>2019-10-15T14:30:25.999Z</time>
      </trkpt>
      <trkpt lat="37.25254" lon="-4.72785">
        <ele>461.98</ele>
        <time>2019-10-15T14:30:30.999Z</time>
      </trkpt>
      <trkpt lat="37.25243" lon="-4.72788">
        <ele>462.34</ele>
        <time>2019-10-15T14:30:35.999Z</time>
      </trkpt>
      <trkpt lat="37.25229" lon="-4.72793">
        <ele>462.73</ele>
        <time>2019-10-15T14:30:40.999Z</time>
      </trkpt>
      <trkpt lat="37.25211" lon="-4.728">
        <ele>464.92</ele>
        <time>2019-10-15T14:30:45.999Z</time>
      </trkpt>
      <trkpt lat="37.25191" lon="-4.72815">
        <ele>465.93</ele>
        <time>2019-10-15T14:30:50.999Z</time>
      </trkpt>
      <trkpt lat="37.25171" lon="-4.72836">
        <ele>465.96</ele>
        <time>2019-10-15T14:30:55.999Z</time>
      </trkpt>
      <trkpt lat="37.2515" lon="-4.72859">
        <ele>465.93</ele>
        <time>2019-10-15T14:31:00.999Z</time>
      </trkpt>
      <trkpt lat="37.25129" lon="-4.72883">
        <ele>465.87</ele>
        <time>2019-10-15T14:31:05.999Z</time>
      </trkpt>
      <trkpt lat="37.25105" lon="-4.7291">
        <ele>465.94</ele>
        <time>2019-10-15T14:31:10.999Z</time>
      </trkpt>
      <trkpt lat="37.25083" lon="-4.72942">
        <ele>466.02</ele>
        <time>2019-10-15T14:31:15.999Z</time>
      </trkpt>
      <trkpt lat="37.25065" lon="-4.72976">
        <ele>465.86</ele>
        <time>2019-10-15T14:31:20.999Z</time>
      </trkpt>
      <trkpt lat="37.25048" lon="-4.7301">
        <ele>465.86</ele>
        <time>2019-10-15T14:31:25.999Z</time>
      </trkpt>
      <trkpt lat="37.25031" lon="-4.73043">
        <ele>465.87</ele>
        <time>2019-10-15T14:31:30.999Z</time>
      </trkpt>
      <trkpt lat="37.25014" lon="-4.73075">
        <ele>465.94</ele>
        <time>2019-10-15T14:31:35.999Z</time>
      </trkpt>
      <trkpt lat="37.24995" lon="-4.73105">
        <ele>465.98</ele>
        <time>2019-10-15T14:31:40.999Z</time>
      </trkpt>
      <trkpt lat="37.24974" lon="-4.73132">
        <ele>465.97</ele>
        <time>2019-10-15T14:31:45.999Z</time>
      </trkpt>
      <trkpt lat="37.24952" lon="-4.73157">
        <ele>465.93</ele>
        <time>2019-10-15T14:31:50.999Z</time>
      </trkpt>
      <trkpt lat="37.24929" lon="-4.73181">
        <ele>466.11</ele>
        <time>2019-10-15T14:31:55.999Z</time>
      </trkpt>
      <trkpt lat="37.24906" lon="-4.73198">
        <ele>466.39</ele>
        <time>2019-10-15T14:32:00.999Z</time>
      </trkpt>
      <trkpt lat="37.24886" lon="-4.73213">
        <ele>466.75</ele>
        <time>2019-10-15T14:32:05.999Z</time>
      </trkpt>
      <trkpt lat="37.24866" lon="-4.73225">
        <ele>466.94</ele>
        <time>2019-10-15T14:32:10.999Z</time>
      </trkpt>
      <trkpt lat="37.24847" lon="-4.73236">
        <ele>466.83</ele>
        <time>2019-10-15T14:32:15.999Z</time>
      </trkpt>
      <trkpt lat="37.24822" lon="-4.73246">
        <ele>466.47</ele>
        <time>2019-10-15T14:32:20.999Z</time>
      </trkpt>
      <trkpt lat="37.24794" lon="-4.73257">
        <ele>466.04</ele>
        <time>2019-10-15T14:32:25.999Z</time>
      </trkpt>
      <trkpt lat="37.24764" lon="-4.73267">
        <ele>465.71</ele>
        <time>2019-10-15T14:32:30.999Z</time>
      </trkpt>
      <trkpt lat="37.24734" lon="-4.73278">
        <ele>465.57</ele>
        <time>2019-10-15T14:32:35.999Z</time>
      </trkpt>
      <trkpt lat="37.24705" lon="-4.73289">
        <ele>465.72</ele>
        <time>2019-10-15T14:32:40.999Z</time>
      </trkpt>
      <trkpt lat="37.24676" lon="-4.73299">
        <ele>465.77</ele>
        <time>2019-10-15T14:32:45.999Z</time>
      </trkpt>
      <trkpt lat="37.24649" lon="-4.73314">
        <ele>465.82</ele>
        <time>2019-10-15T14:32:50.999Z</time>
      </trkpt>
      <trkpt lat="37.24623" lon="-4.73331">
        <ele>465.99</ele>
        <time>2019-10-15T14:32:55.999Z</time>
      </trkpt>
      <trkpt lat="37.24597" lon="-4.73346">
        <ele>466.48</ele>
        <time>2019-10-15T14:33:00.999Z</time>
      </trkpt>
      <trkpt lat="37.24571" lon="-4.73362">
        <ele>467.11</ele>
        <time>2019-10-15T14:33:05.999Z</time>
      </trkpt>
      <trkpt lat="37.24544" lon="-4.73374">
        <ele>467.29</ele>
        <time>2019-10-15T14:33:10.999Z</time>
      </trkpt>
      <trkpt lat="37.24519" lon="-4.73375">
        <ele>467.31</ele>
        <time>2019-10-15T14:33:15.999Z</time>
      </trkpt>
      <trkpt lat="37.24494" lon="-4.73379">
        <ele>467.44</ele>
        <time>2019-10-15T14:33:20.999Z</time>
      </trkpt>
      <trkpt lat="37.2447" lon="-4.73393">
        <ele>467.85</ele>
        <time>2019-10-15T14:33:25.999Z</time>
      </trkpt>
      <trkpt lat="37.24449" lon="-4.73409">
        <ele>468.24</ele>
        <time>2019-10-15T14:33:30.999Z</time>
      </trkpt>
      <trkpt lat="37.24429" lon="-4.73422">
        <ele>468.51</ele>
        <time>2019-10-15T14:33:35.999Z</time>
      </trkpt>
      <trkpt lat="37.2441" lon="-4.73433">
        <ele>468.78</ele>
        <time>2019-10-15T14:33:40.999Z</time>
      </trkpt>
      <trkpt lat="37.24392" lon="-4.73439">
        <ele>469.32</ele>
        <time>2019-10-15T14:33:45.999Z</time>
      </trkpt>
      <trkpt lat="37.24372" lon="-4.7344">
        <ele>469.42</ele>
        <time>2019-10-15T14:33:50.999Z</time>
      </trkpt>
      <trkpt lat="37.24353" lon="-4.73439">
        <ele>469.48</ele>
        <time>2019-10-15T14:33:55.999Z</time>
      </trkpt>
      <trkpt lat="37.24335" lon="-4.73437">
        <ele>469.76</ele>
        <time>2019-10-15T14:34:00.999Z</time>
      </trkpt>
      <trkpt lat="37.24313" lon="-4.73434">
        <ele>469.82</ele>
        <time>2019-10-15T14:34:05.999Z</time>
      </trkpt>
      <trkpt lat="37.24292" lon="-4.73433">
        <ele>469.95</ele>
        <time>2019-10-15T14:34:10.999Z</time>
      </trkpt>
      <trkpt lat="37.24271" lon="-4.73442">
        <ele>470.21</ele>
        <time>2019-10-15T14:34:15.999Z</time>
      </trkpt>
      <trkpt lat="37.24255" lon="-4.73455">
        <ele>470.5</ele>
        <time>2019-10-15T14:34:20.999Z</time>
      </trkpt>
      <trkpt lat="37.2424" lon="-4.73467">
        <ele>470.56</ele>
        <time>2019-10-15T14:34:25.999Z</time>
      </trkpt>
      <trkpt lat="37.24227" lon="-4.73478">
        <ele>470.66</ele>
        <time>2019-10-15T14:34:30.999Z</time>
      </trkpt>
      <trkpt lat="37.24213" lon="-4.73489">
        <ele>470.77</ele>
        <time>2019-10-15T14:34:35.999Z</time>
      </trkpt>
      <trkpt lat="37.24199" lon="-4.73501">
        <ele>470.86</ele>
        <time>2019-10-15T14:34:40.999Z</time>
      </trkpt>
      <trkpt lat="37.24185" lon="-4.73512">
        <ele>470.95</ele>
        <time>2019-10-15T14:34:45.999Z</time>
      </trkpt>
      <trkpt lat="37.24171" lon="-4.73523">
        <ele>471.05</ele>
        <time>2019-10-15T14:34:50.999Z</time>
      </trkpt>
      <trkpt lat="37.24156" lon="-4.73533">
        <ele>471.17</ele>
        <time>2019-10-15T14:34:55.999Z</time>
      </trkpt>
      <trkpt lat="37.24143" lon="-4.73543">
        <ele>471.3</ele>
        <time>2019-10-15T14:35:00.999Z</time>
      </trkpt>
      <trkpt lat="37.2413" lon="-4.73554">
        <ele>471.43</ele>
        <time>2019-10-15T14:35:05.999Z</time>
      </trkpt>
      <trkpt lat="37.24117" lon="-4.73563">
        <ele>471.57</ele>
        <time>2019-10-15T14:35:10.999Z</time>
      </trkpt>
      <trkpt lat="37.24103" lon="-4.73573">
        <ele>471.72</ele>
        <time>2019-10-15T14:35:15.999Z</time>
      </trkpt>
      <trkpt lat="37.24089" lon="-4.73581">
        <ele>471.89</ele>
        <time>2019-10-15T14:35:20.999Z</time>
      </trkpt>
      <trkpt lat="37.24075" lon="-4.73586">
        <ele>472.07</ele>
        <time>2019-10-15T14:35:25.999Z</time>
      </trkpt>
      <trkpt lat="37.24061" lon="-4.73591">
        <ele>472.24</ele>
        <time>2019-10-15T14:35:30.999Z</time>
      </trkpt>
      <trkpt lat="37.24046" lon="-4.73596">
        <ele>472.41</ele>
        <time>2019-10-15T14:35:35.999Z</time>
      </trkpt>
      <trkpt lat="37.24032" lon="-4.736">
        <ele>472.59</ele>
        <time>2019-10-15T14:35:40.999Z</time>
      </trkpt>
      <trkpt lat="37.24017" lon="-4.73604">
        <ele>472.8</ele>
        <time>2019-10-15T14:35:45.999Z</time>
      </trkpt>
      <trkpt lat="37.24003" lon="-4.73608">
        <ele>473.04</ele>
        <time>2019-10-15T14:35:50.999Z</time>
      </trkpt>
      <trkpt lat="37.23988" lon="-4.73612">
        <ele>473.3</ele>
        <time>2019-10-15T14:35:55.999Z</time>
      </trkpt>
      <trkpt lat="37.23975" lon="-4.73616">
        <ele>473.6</ele>
        <time>2019-10-15T14:36:00.999Z</time>
      </trkpt>
      <trkpt lat="37.23963" lon="-4.73618">
        <ele>473.93</ele>
        <time>2019-10-15T14:36:05.999Z</time>
      </trkpt>
      <trkpt lat="37.23951" lon="-4.7362">
        <ele>474.28</ele>
        <time>2019-10-15T14:36:10.999Z</time>
      </trkpt>
      <trkpt lat="37.23938" lon="-4.73623">
        <ele>474.64</ele>
        <time>2019-10-15T14:36:15.999Z</time>
      </trkpt>
      <trkpt lat="37.23925" lon="-4.73624">
        <ele>474.99</ele>
        <time>2019-10-15T14:36:20.999Z</time>
      </trkpt>
      <trkpt lat="37.23911" lon="-4.73622">
        <ele>475.33</ele>
        <time>2019-10-15T14:36:25.999Z</time>
      </trkpt>
      <trkpt lat="37.23894" lon="-4.73618">
        <ele>476.55</ele>
        <time>2019-10-15T14:36:30.999Z</time>
      </trkpt>
      <trkpt lat="37.23874" lon="-4.73615">
        <ele>478.14</ele>
        <time>2019-10-15T14:36:35.999Z</time>
      </trkpt>
      <trkpt lat="37.23853" lon="-4.73612">
        <ele>478.78</ele>
        <time>2019-10-15T14:36:40.999Z</time>
      </trkpt>
      <trkpt lat="37.23832" lon="-4.73613">
        <ele>479.03</ele>
        <time>2019-10-15T14:36:45.999Z</time>
      </trkpt>
      <trkpt lat="37.23813" lon="-4.73614">
        <ele>479.11</ele>
        <time>2019-10-15T14:36:50.999Z</time>
      </trkpt>
      <trkpt lat="37.23798" lon="-4.73617">
        <ele>479.14</ele>
        <time>2019-10-15T14:36:55.999Z</time>
      </trkpt>
      <trkpt lat="37.23786" lon="-4.73618">
        <ele>479.21</ele>
        <time>2019-10-15T14:37:00.000Z</time>
      </trkpt>
      <trkpt lat="37.23774" lon="-4.73622">
        <ele>479.35</ele>
        <time>2019-10-15T14:37:05.000Z</time>
      </trkpt>
      <trkpt lat="37.23763" lon="-4.73627">
        <ele>479.55</ele>
        <time>2019-10-15T14:37:10.000Z</time>
      </trkpt>
      <trkpt lat="37.23753" lon="-4.73631">
        <ele>479.79</ele>
        <time>2019-10-15T14:37:15.000Z</time>
      </trkpt>
      <trkpt lat="37.23743" lon="-4.73637">
        <ele>480.06</ele>
        <time>2019-10-15T14:37:20.000Z</time>
      </trkpt>
      <trkpt lat="37.23733" lon="-4.73642">
        <ele>480.36</ele>
        <time>2019-10-15T14:37:25.000Z</time>
      </trkpt>
      <trkpt lat="37.23723" lon="-4.73648">
        <ele>480.66</ele>
        <time>2019-10-15T14:37:30.000Z</time>
      </trkpt>
      <trkpt lat="37.23712" lon="-4.73652">
        <ele>480.98</ele>
        <time>2019-10-15T14:37:35.000Z</time>
      </trkpt>
      <trkpt lat="37.23702" lon="-4.73658">
        <ele>481.31</ele>
        <time>2019-10-15T14:37:40.000Z</time>
      </trkpt>
      <trkpt lat="37.23691" lon="-4.73663">
        <ele>481.65</ele>
        <time>2019-10-15T14:37:45.000Z</time>
      </trkpt>
      <trkpt lat="37.23679" lon="-4.7367">
        <ele>481.99</ele>
        <time>2019-10-15T14:37:50.000Z</time>
      </trkpt>
      <trkpt lat="37.23668" lon="-4.73678">
        <ele>482.34</ele>
        <time>2019-10-15T14:37:55.000Z</time>
      </trkpt>
      <trkpt lat="37.23657" lon="-4.73686">
        <ele>482.7</ele>
        <time>2019-10-15T14:38:00.000Z</time>
      </trkpt>
      <trkpt lat="37.23646" lon="-4.73695">
        <ele>483.08</ele>
        <time>2019-10-15T14:38:05.000Z</time>
      </trkpt>
      <trkpt lat="37.23634" lon="-4.73705">
        <ele>483.45</ele>
        <time>2019-10-15T14:38:10.000Z</time>
      </trkpt>
      <trkpt lat="37.23626" lon="-4.73708">
        <ele>485.26</ele>
        <time>2019-10-15T14:40:34.000Z</time>
      </trkpt>
      <trkpt lat="37.23617" lon="-4.73715">
        <ele>487.39</ele>
        <time>2019-10-15T14:43:15.000Z</time>
      </trkpt>
      <trkpt lat="37.23603" lon="-4.73729">
        <ele>489.03</ele>
        <time>2019-10-15T14:43:20.000Z</time>
      </trkpt>
      <trkpt lat="37.23584" lon="-4.73749">
        <ele>489.91</ele>
        <time>2019-10-15T14:43:25.000Z</time>
      </trkpt>
      <trkpt lat="37.2356" lon="-4.73773">
        <ele>490.18</ele>
        <time>2019-10-15T14:43:30.000Z</time>
      </trkpt>
      <trkpt lat="37.23533" lon="-4.73802">
        <ele>490.19</ele>
        <time>2019-10-15T14:43:35.000Z</time>
      </trkpt>
      <trkpt lat="37.23505" lon="-4.73833">
        <ele>490.03</ele>
        <time>2019-10-15T14:43:40.000Z</time>
      </trkpt>
      <trkpt lat="37.23478" lon="-4.73862">
        <ele>489.88</ele>
        <time>2019-10-15T14:43:45.000Z</time>
      </trkpt>
      <trkpt lat="37.23451" lon="-4.73893">
        <ele>489.7</ele>
        <time>2019-10-15T14:43:50.000Z</time>
      </trkpt>
      <trkpt lat="37.23424" lon="-4.73923">
        <ele>489.41</ele>
        <time>2019-10-15T14:43:55.000Z</time>
      </trkpt>
      <trkpt lat="37.23397" lon="-4.73953">
        <ele>489.15</ele>
        <time>2019-10-15T14:44:00.000Z</time>
      </trkpt>
      <trkpt lat="37.23373" lon="-4.73991">
        <ele>488.64</ele>
        <time>2019-10-15T14:44:05.000Z</time>
      </trkpt>
      <trkpt lat="37.23357" lon="-4.74035">
        <ele>488.71</ele>
        <time>2019-10-15T14:44:10.000Z</time>
      </trkpt>
      <trkpt lat="37.23343" lon="-4.74072">
        <ele>488.74</ele>
        <time>2019-10-15T14:44:15.000Z</time>
      </trkpt>
      <trkpt lat="37.23328" lon="-4.74108">
        <ele>488.41</ele>
        <time>2019-10-15T14:44:20.000Z</time>
      </trkpt>
      <trkpt lat="37.23313" lon="-4.74142">
        <ele>488.11</ele>
        <time>2019-10-15T14:44:25.000Z</time>
      </trkpt>
      <trkpt lat="37.23294" lon="-4.74171">
        <ele>487.57</ele>
        <time>2019-10-15T14:44:30.000Z</time>
      </trkpt>
      <trkpt lat="37.23273" lon="-4.74196">
        <ele>486.81</ele>
        <time>2019-10-15T14:44:35.000Z</time>
      </trkpt>
      <trkpt lat="37.23249" lon="-4.74221">
        <ele>486.24</ele>
        <time>2019-10-15T14:44:40.000Z</time>
      </trkpt>
      <trkpt lat="37.23226" lon="-4.74245">
        <ele>486.14</ele>
        <time>2019-10-15T14:44:45.000Z</time>
      </trkpt>
      <trkpt lat="37.23203" lon="-4.74267">
        <ele>486.08</ele>
        <time>2019-10-15T14:44:50.000Z</time>
      </trkpt>
      <trkpt lat="37.23181" lon="-4.74289">
        <ele>486.01</ele>
        <time>2019-10-15T14:44:55.000Z</time>
      </trkpt>
      <trkpt lat="37.23158" lon="-4.74311">
        <ele>485.75</ele>
        <time>2019-10-15T14:45:00.000Z</time>
      </trkpt>
      <trkpt lat="37.23133" lon="-4.74335">
        <ele>485.47</ele>
        <time>2019-10-15T14:45:05.000Z</time>
      </trkpt>
      <trkpt lat="37.23107" lon="-4.74359">
        <ele>485.2</ele>
        <time>2019-10-15T14:45:10.000Z</time>
      </trkpt>
      <trkpt lat="37.2308" lon="-4.74382">
        <ele>484.82</ele>
        <time>2019-10-15T14:45:15.000Z</time>
      </trkpt>
      <trkpt lat="37.23053" lon="-4.74406">
        <ele>484.55</ele>
        <time>2019-10-15T14:45:20.000Z</time>
      </trkpt>
      <trkpt lat="37.23023" lon="-4.74432">
        <ele>484.09</ele>
        <time>2019-10-15T14:45:25.000Z</time>
      </trkpt>
      <trkpt lat="37.22992" lon="-4.7446">
        <ele>483.55</ele>
        <time>2019-10-15T14:45:30.000Z</time>
      </trkpt>
      <trkpt lat="37.22957" lon="-4.74491">
        <ele>483.11</ele>
        <time>2019-10-15T14:45:35.000Z</time>
      </trkpt>
      <trkpt lat="37.22918" lon="-4.74525">
        <ele>482.54</ele>
        <time>2019-10-15T14:45:40.000Z</time>
      </trkpt>
      <trkpt lat="37.22878" lon="-4.74558">
        <ele>481.88</ele>
        <time>2019-10-15T14:45:45.000Z</time>
      </trkpt>
      <trkpt lat="37.22842" lon="-4.74597">
        <ele>481.15</ele>
        <time>2019-10-15T14:45:50.000Z</time>
      </trkpt>
      <trkpt lat="37.2282" lon="-4.74652">
        <ele>480.88</ele>
        <time>2019-10-15T14:45:55.000Z</time>
      </trkpt>
      <trkpt lat="37.22815" lon="-4.74707">
        <ele>480.21</ele>
        <time>2019-10-15T14:46:00.000Z</time>
      </trkpt>
      <trkpt lat="37.22815" lon="-4.74752">
        <ele>480.27</ele>
        <time>2019-10-15T14:46:05.000Z</time>
      </trkpt>
      <trkpt lat="37.22814" lon="-4.7479">
        <ele>479.99</ele>
        <time>2019-10-15T14:46:10.000Z</time>
      </trkpt>
      <trkpt lat="37.22812" lon="-4.74825">
        <ele>479.56</ele>
        <time>2019-10-15T14:46:15.000Z</time>
      </trkpt>
      <trkpt lat="37.2281" lon="-4.74857">
        <ele>479.19</ele>
        <time>2019-10-15T14:46:20.000Z</time>
      </trkpt>
      <trkpt lat="37.22806" lon="-4.74886">
        <ele>479.02</ele>
        <time>2019-10-15T14:46:25.000Z</time>
      </trkpt>
      <trkpt lat="37.22801" lon="-4.74914">
        <ele>478.78</ele>
        <time>2019-10-15T14:46:30.000Z</time>
      </trkpt>
      <trkpt lat="37.22793" lon="-4.7494">
        <ele>478.19</ele>
        <time>2019-10-15T14:46:35.000Z</time>
      </trkpt>
      <trkpt lat="37.22784" lon="-4.7497">
        <ele>477.6</ele>
        <time>2019-10-15T14:46:40.000Z</time>
      </trkpt>
      <trkpt lat="37.22772" lon="-4.75003">
        <ele>477.06</ele>
        <time>2019-10-15T14:46:45.000Z</time>
      </trkpt>
      <trkpt lat="37.22756" lon="-4.75041">
        <ele>476.23</ele>
        <time>2019-10-15T14:46:50.000Z</time>
      </trkpt>
      <trkpt lat="37.22738" lon="-4.75084">
        <ele>475.01</ele>
        <time>2019-10-15T14:46:55.000Z</time>
      </trkpt>
      <trkpt lat="37.22716" lon="-4.75127">
        <ele>474.12</ele>
        <time>2019-10-15T14:47:00.000Z</time>
      </trkpt>
      <trkpt lat="37.22691" lon="-4.75171">
        <ele>473.14</ele>
        <time>2019-10-15T14:47:05.000Z</time>
      </trkpt>
      <trkpt lat="37.22672" lon="-4.75225">
        <ele>472.51</ele>
        <time>2019-10-15T14:47:10.000Z</time>
      </trkpt>
      <trkpt lat="37.22655" lon="-4.7528">
        <ele>472.18</ele>
        <time>2019-10-15T14:47:15.000Z</time>
      </trkpt>
      <trkpt lat="37.22638" lon="-4.75336">
        <ele>472.17</ele>
        <time>2019-10-15T14:47:20.000Z</time>
      </trkpt>
      <trkpt lat="37.22618" lon="-4.75389">
        <ele>472</ele>
        <time>2019-10-15T14:47:25.000Z</time>
      </trkpt>
      <trkpt lat="37.22594" lon="-4.75447">
        <ele>471.65</ele>
        <time>2019-10-15T14:47:30.000Z</time>
      </trkpt>
      <trkpt lat="37.22573" lon="-4.75513">
        <ele>471.55</ele>
        <time>2019-10-15T14:47:35.000Z</time>
      </trkpt>
      <trkpt lat="37.22547" lon="-4.75578">
        <ele>471.3</ele>
        <time>2019-10-15T14:47:40.000Z</time>
      </trkpt>
      <trkpt lat="37.22512" lon="-4.75643">
        <ele>470.82</ele>
        <time>2019-10-15T14:47:45.000Z</time>
      </trkpt>
      <trkpt lat="37.22473" lon="-4.75708">
        <ele>470.19</ele>
        <time>2019-10-15T14:47:50.000Z</time>
      </trkpt>
      <trkpt lat="37.22437" lon="-4.75761">
        <ele>468.89</ele>
        <time>2019-10-15T14:47:55.000Z</time>
      </trkpt>
      <trkpt lat="37.22414" lon="-4.75796">
        <ele>468.77</ele>
        <time>2019-10-15T14:48:00.000Z</time>
      </trkpt>
      <trkpt lat="37.22401" lon="-4.75815">
        <ele>468.23</ele>
        <time>2019-10-15T14:48:05.000Z</time>
      </trkpt>
      <trkpt lat="37.22391" lon="-4.75826">
        <ele>468.02</ele>
        <time>2019-10-15T14:48:10.000Z</time>
      </trkpt>
      <trkpt lat="37.22383" lon="-4.7584">
        <ele>467.72</ele>
        <time>2019-10-15T14:48:15.000Z</time>
      </trkpt>
      <trkpt lat="37.22375" lon="-4.75851">
        <ele>467.29</ele>
        <time>2019-10-15T14:48:20.000Z</time>
      </trkpt>
      <trkpt lat="37.22367" lon="-4.75862">
        <ele>466.81</ele>
        <time>2019-10-15T14:48:25.000Z</time>
      </trkpt>
      <trkpt lat="37.22359" lon="-4.75873">
        <ele>466.3</ele>
        <time>2019-10-15T14:48:30.000Z</time>
      </trkpt>
      <trkpt lat="37.22352" lon="-4.75884">
        <ele>465.72</ele>
        <time>2019-10-15T14:48:35.000Z</time>
      </trkpt>
      <trkpt lat="37.22345" lon="-4.75894">
        <ele>465.05</ele>
        <time>2019-10-15T14:48:40.000Z</time>
      </trkpt>
      <trkpt lat="37.22339" lon="-4.75902">
        <ele>464.39</ele>
        <time>2019-10-15T14:48:45.000Z</time>
      </trkpt>
      <trkpt lat="37.22331" lon="-4.75912">
        <ele>463.7</ele>
        <time>2019-10-15T14:48:50.000Z</time>
      </trkpt>
      <trkpt lat="37.22324" lon="-4.75922">
        <ele>462.96</ele>
        <time>2019-10-15T14:48:55.000Z</time>
      </trkpt>
      <trkpt lat="37.22317" lon="-4.75934">
        <ele>462.19</ele>
        <time>2019-10-15T14:49:00.000Z</time>
      </trkpt>
      <trkpt lat="37.22309" lon="-4.75945">
        <ele>461.41</ele>
        <time>2019-10-15T14:49:05.000Z</time>
      </trkpt>
      <trkpt lat="37.22298" lon="-4.7596">
        <ele>459.49</ele>
        <time>2019-10-15T14:49:10.000Z</time>
      </trkpt>
      <trkpt lat="37.22283" lon="-4.75979">
        <ele>454.51</ele>
        <time>2019-10-15T14:49:15.000Z</time>
      </trkpt>
      <trkpt lat="37.22263" lon="-4.76">
        <ele>452.39</ele>
        <time>2019-10-15T14:49:20.000Z</time>
      </trkpt>
      <trkpt lat="37.22239" lon="-4.76027">
        <ele>451.26</ele>
        <time>2019-10-15T14:49:25.000Z</time>
      </trkpt>
      <trkpt lat="37.22209" lon="-4.76058">
        <ele>450.43</ele>
        <time>2019-10-15T14:49:30.000Z</time>
      </trkpt>
      <trkpt lat="37.22175" lon="-4.76093">
        <ele>449.26</ele>
        <time>2019-10-15T14:49:35.000Z</time>
      </trkpt>
      <trkpt lat="37.22137" lon="-4.76125">
        <ele>448.16</ele>
        <time>2019-10-15T14:49:40.000Z</time>
      </trkpt>
      <trkpt lat="37.22096" lon="-4.7616">
        <ele>447.79</ele>
        <time>2019-10-15T14:49:45.000Z</time>
      </trkpt>
      <trkpt lat="37.22057" lon="-4.76193">
        <ele>447.4</ele>
        <time>2019-10-15T14:49:50.000Z</time>
      </trkpt>
      <trkpt lat="37.2202" lon="-4.76224">
        <ele>447.21</ele>
        <time>2019-10-15T14:49:55.000Z</time>
      </trkpt>
      <trkpt lat="37.21985" lon="-4.76257">
        <ele>447.31</ele>
        <time>2019-10-15T14:50:00.000Z</time>
      </trkpt>
      <trkpt lat="37.21953" lon="-4.76294">
        <ele>447.03</ele>
        <time>2019-10-15T14:50:05.000Z</time>
      </trkpt>
      <trkpt lat="37.21929" lon="-4.76334">
        <ele>446.54</ele>
        <time>2019-10-15T14:50:10.000Z</time>
      </trkpt>
      <trkpt lat="37.21906" lon="-4.76371">
        <ele>445.59</ele>
        <time>2019-10-15T14:50:15.000Z</time>
      </trkpt>
      <trkpt lat="37.21884" lon="-4.76405">
        <ele>444.72</ele>
        <time>2019-10-15T14:50:20.000Z</time>
      </trkpt>
      <trkpt lat="37.21862" lon="-4.76438">
        <ele>444.21</ele>
        <time>2019-10-15T14:50:25.000Z</time>
      </trkpt>
      <trkpt lat="37.21843" lon="-4.76471">
        <ele>443.62</ele>
        <time>2019-10-15T14:50:30.000Z</time>
      </trkpt>
      <trkpt lat="37.2183" lon="-4.76506">
        <ele>443.14</ele>
        <time>2019-10-15T14:50:35.000Z</time>
      </trkpt>
      <trkpt lat="37.21818" lon="-4.76539">
        <ele>442.53</ele>
        <time>2019-10-15T14:50:40.000Z</time>
      </trkpt>
      <trkpt lat="37.21807" lon="-4.76572">
        <ele>441.78</ele>
        <time>2019-10-15T14:50:45.000Z</time>
      </trkpt>
      <trkpt lat="37.21795" lon="-4.76606">
        <ele>441.05</ele>
        <time>2019-10-15T14:50:50.000Z</time>
      </trkpt>
      <trkpt lat="37.21784" lon="-4.76639">
        <ele>440.6</ele>
        <time>2019-10-15T14:50:55.000Z</time>
      </trkpt>
      <trkpt lat="37.21773" lon="-4.7667">
        <ele>439.91</ele>
        <time>2019-10-15T14:51:00.000Z</time>
      </trkpt>
      <trkpt lat="37.21762" lon="-4.76702">
        <ele>439.36</ele>
        <time>2019-10-15T14:51:05.000Z</time>
      </trkpt>
      <trkpt lat="37.21751" lon="-4.76734">
        <ele>438.98</ele>
        <time>2019-10-15T14:51:10.000Z</time>
      </trkpt>
      <trkpt lat="37.2174" lon="-4.76767">
        <ele>438.6</ele>
        <time>2019-10-15T14:51:15.000Z</time>
      </trkpt>
      <trkpt lat="37.21724" lon="-4.76798">
        <ele>438.29</ele>
        <time>2019-10-15T14:51:20.000Z</time>
      </trkpt>
      <trkpt lat="37.21698" lon="-4.76819">
        <ele>437.88</ele>
        <time>2019-10-15T14:51:25.000Z</time>
      </trkpt>
      <trkpt lat="37.2167" lon="-4.76836">
        <ele>437.62</ele>
        <time>2019-10-15T14:51:30.000Z</time>
      </trkpt>
      <trkpt lat="37.21643" lon="-4.76853">
        <ele>437.42</ele>
        <time>2019-10-15T14:51:35.000Z</time>
      </trkpt>
      <trkpt lat="37.21616" lon="-4.7687">
        <ele>437.24</ele>
        <time>2019-10-15T14:51:40.000Z</time>
      </trkpt>
      <trkpt lat="37.2159" lon="-4.76887">
        <ele>437.12</ele>
        <time>2019-10-15T14:51:45.000Z</time>
      </trkpt>
      <trkpt lat="37.21565" lon="-4.76905">
        <ele>436.84</ele>
        <time>2019-10-15T14:51:50.000Z</time>
      </trkpt>
      <trkpt lat="37.21542" lon="-4.76922">
        <ele>436.54</ele>
        <time>2019-10-15T14:51:55.000Z</time>
      </trkpt>
      <trkpt lat="37.21519" lon="-4.76941">
        <ele>436.31</ele>
        <time>2019-10-15T14:52:00.000Z</time>
      </trkpt>
      <trkpt lat="37.21496" lon="-4.76958">
        <ele>436.31</ele>
        <time>2019-10-15T14:52:05.000Z</time>
      </trkpt>
      <trkpt lat="37.21472" lon="-4.76975">
        <ele>436.4</ele>
        <time>2019-10-15T14:52:10.000Z</time>
      </trkpt>
      <trkpt lat="37.21449" lon="-4.76993">
        <ele>436.35</ele>
        <time>2019-10-15T14:52:15.000Z</time>
      </trkpt>
      <trkpt lat="37.21425" lon="-4.77012">
        <ele>436.3</ele>
        <time>2019-10-15T14:52:19.999Z</time>
      </trkpt>
      <trkpt lat="37.21402" lon="-4.77029">
        <ele>436.19</ele>
        <time>2019-10-15T14:52:24.999Z</time>
      </trkpt>
      <trkpt lat="37.21379" lon="-4.77048">
        <ele>436.02</ele>
        <time>2019-10-15T14:52:29.999Z</time>
      </trkpt>
      <trkpt lat="37.21354" lon="-4.77066">
        <ele>435.94</ele>
        <time>2019-10-15T14:52:34.999Z</time>
      </trkpt>
      <trkpt lat="37.2133" lon="-4.77084">
        <ele>435.93</ele>
        <time>2019-10-15T14:52:39.999Z</time>
      </trkpt>
      <trkpt lat="37.21307" lon="-4.77106">
        <ele>435.95</ele>
        <time>2019-10-15T14:52:44.999Z</time>
      </trkpt>
      <trkpt lat="37.21293" lon="-4.77137">
        <ele>435.94</ele>
        <time>2019-10-15T14:52:49.999Z</time>
      </trkpt>
      <trkpt lat="37.2128" lon="-4.77167">
        <ele>435.75</ele>
        <time>2019-10-15T14:52:54.999Z</time>
      </trkpt>
      <trkpt lat="37.2126" lon="-4.77192">
        <ele>435.47</ele>
        <time>2019-10-15T14:52:59.999Z</time>
      </trkpt>
      <trkpt lat="37.21237" lon="-4.77214">
        <ele>435.37</ele>
        <time>2019-10-15T14:53:04.999Z</time>
      </trkpt>
      <trkpt lat="37.21219" lon="-4.77236">
        <ele>435.44</ele>
        <time>2019-10-15T14:53:09.999Z</time>
      </trkpt>
      <trkpt lat="37.21208" lon="-4.77257">
        <ele>435.46</ele>
        <time>2019-10-15T14:53:14.999Z</time>
      </trkpt>
      <trkpt lat="37.212" lon="-4.77277">
        <ele>435.46</ele>
        <time>2019-10-15T14:53:19.999Z</time>
      </trkpt>
      <trkpt lat="37.21187" lon="-4.77297">
        <ele>435.32</ele>
        <time>2019-10-15T14:53:24.999Z</time>
      </trkpt>
      <trkpt lat="37.21166" lon="-4.77317">
        <ele>435.1</ele>
        <time>2019-10-15T14:53:29.999Z</time>
      </trkpt>
      <trkpt lat="37.2114" lon="-4.77341">
        <ele>435</ele>
        <time>2019-10-15T14:53:34.999Z</time>
      </trkpt>
      <trkpt lat="37.21126" lon="-4.77375">
        <ele>435.02</ele>
        <time>2019-10-15T14:53:39.999Z</time>
      </trkpt>
      <trkpt lat="37.21129" lon="-4.77404">
        <ele>435.07</ele>
        <time>2019-10-15T14:53:44.999Z</time>
      </trkpt>
      <trkpt lat="37.21125" lon="-4.77427">
        <ele>435.13</ele>
        <time>2019-10-15T14:53:49.999Z</time>
      </trkpt>
      <trkpt lat="37.21103" lon="-4.77442">
        <ele>434.99</ele>
        <time>2019-10-15T14:53:54.999Z</time>
      </trkpt>
      <trkpt lat="37.21078" lon="-4.77453">
        <ele>434.82</ele>
        <time>2019-10-15T14:53:59.999Z</time>
      </trkpt>
      <trkpt lat="37.21053" lon="-4.77463">
        <ele>434.62</ele>
        <time>2019-10-15T14:54:04.999Z</time>
      </trkpt>
      <trkpt lat="37.21028" lon="-4.77473">
        <ele>434.48</ele>
        <time>2019-10-15T14:54:09.999Z</time>
      </trkpt>
      <trkpt lat="37.21003" lon="-4.77484">
        <ele>434.54</ele>
        <time>2019-10-15T14:54:14.999Z</time>
      </trkpt>
      <trkpt lat="37.2098" lon="-4.77495">
        <ele>434.65</ele>
        <time>2019-10-15T14:54:19.999Z</time>
      </trkpt>
      <trkpt lat="37.20957" lon="-4.77502">
        <ele>434.72</ele>
        <time>2019-10-15T14:54:24.999Z</time>
      </trkpt>
      <trkpt lat="37.20939" lon="-4.77512">
        <ele>434.6</ele>
        <time>2019-10-15T14:54:29.999Z</time>
      </trkpt>
      <trkpt lat="37.20918" lon="-4.77516">
        <ele>434.36</ele>
        <time>2019-10-15T14:54:34.999Z</time>
      </trkpt>
      <trkpt lat="37.20896" lon="-4.7752">
        <ele>434.42</ele>
        <time>2019-10-15T14:54:39.999Z</time>
      </trkpt>
      <trkpt lat="37.20873" lon="-4.77526">
        <ele>434.76</ele>
        <time>2019-10-15T14:54:44.999Z</time>
      </trkpt>
      <trkpt lat="37.20852" lon="-4.77534">
        <ele>435.2</ele>
        <time>2019-10-15T14:54:49.999Z</time>
      </trkpt>
      <trkpt lat="37.2083" lon="-4.77543">
        <ele>435.55</ele>
        <time>2019-10-15T14:54:54.999Z</time>
      </trkpt>
      <trkpt lat="37.20807" lon="-4.77551">
        <ele>435.79</ele>
        <time>2019-10-15T14:54:59.999Z</time>
      </trkpt>
      <trkpt lat="37.20785" lon="-4.77561">
        <ele>436.07</ele>
        <time>2019-10-15T14:55:04.999Z</time>
      </trkpt>
      <trkpt lat="37.20762" lon="-4.7757">
        <ele>436.34</ele>
        <time>2019-10-15T14:55:09.999Z</time>
      </trkpt>
      <trkpt lat="37.2074" lon="-4.77579">
        <ele>436.7</ele>
        <time>2019-10-15T14:55:14.999Z</time>
      </trkpt>
      <trkpt lat="37.20717" lon="-4.77587">
        <ele>437.13</ele>
        <time>2019-10-15T14:55:19.999Z</time>
      </trkpt>
      <trkpt lat="37.20694" lon="-4.77594">
        <ele>437.38</ele>
        <time>2019-10-15T14:55:24.999Z</time>
      </trkpt>
      <trkpt lat="37.20672" lon="-4.776">
        <ele>437.58</ele>
        <time>2019-10-15T14:55:29.999Z</time>
      </trkpt>
      <trkpt lat="37.20648" lon="-4.77606">
        <ele>437.93</ele>
        <time>2019-10-15T14:55:34.999Z</time>
      </trkpt>
      <trkpt lat="37.20625" lon="-4.77614">
        <ele>438.21</ele>
        <time>2019-10-15T14:55:39.999Z</time>
      </trkpt>
      <trkpt lat="37.206" lon="-4.77622">
        <ele>438.53</ele>
        <time>2019-10-15T14:55:44.999Z</time>
      </trkpt>
      <trkpt lat="37.20575" lon="-4.77631">
        <ele>438.83</ele>
        <time>2019-10-15T14:55:49.999Z</time>
      </trkpt>
      <trkpt lat="37.20549" lon="-4.77639">
        <ele>439.06</ele>
        <time>2019-10-15T14:55:54.999Z</time>
      </trkpt>
      <trkpt lat="37.20525" lon="-4.77648">
        <ele>439.3</ele>
        <time>2019-10-15T14:55:59.999Z</time>
      </trkpt>
      <trkpt lat="37.20502" lon="-4.77658">
        <ele>439.54</ele>
        <time>2019-10-15T14:56:04.999Z</time>
      </trkpt>
      <trkpt lat="37.20477" lon="-4.77666">
        <ele>439.69</ele>
        <time>2019-10-15T14:56:09.999Z</time>
      </trkpt>
      <trkpt lat="37.20453" lon="-4.77673">
        <ele>439.83</ele>
        <time>2019-10-15T14:56:14.999Z</time>
      </trkpt>
      <trkpt lat="37.20427" lon="-4.77682">
        <ele>439.95</ele>
        <time>2019-10-15T14:56:19.999Z</time>
      </trkpt>
      <trkpt lat="37.20404" lon="-4.77692">
        <ele>440.07</ele>
        <time>2019-10-15T14:56:24.999Z</time>
      </trkpt>
      <trkpt lat="37.20386" lon="-4.77697">
        <ele>440.1</ele>
        <time>2019-10-15T14:56:29.999Z</time>
      </trkpt>
      <trkpt lat="37.20374" lon="-4.77701">
        <ele>440.12</ele>
        <time>2019-10-15T14:56:34.999Z</time>
      </trkpt>
      <trkpt lat="37.20361" lon="-4.77705">
        <ele>440.14</ele>
        <time>2019-10-15T14:56:39.999Z</time>
      </trkpt>
      <trkpt lat="37.20346" lon="-4.77712">
        <ele>440.18</ele>
        <time>2019-10-15T14:56:44.999Z</time>
      </trkpt>
      <trkpt lat="37.20329" lon="-4.77718">
        <ele>440.22</ele>
        <time>2019-10-15T14:56:49.999Z</time>
      </trkpt>
      <trkpt lat="37.20313" lon="-4.77723">
        <ele>440.27</ele>
        <time>2019-10-15T14:56:54.999Z</time>
      </trkpt>
      <trkpt lat="37.20297" lon="-4.77727">
        <ele>440.32</ele>
        <time>2019-10-15T14:56:59.999Z</time>
      </trkpt>
      <trkpt lat="37.20281" lon="-4.77735">
        <ele>440.39</ele>
        <time>2019-10-15T14:57:04.999Z</time>
      </trkpt>
      <trkpt lat="37.20267" lon="-4.77748">
        <ele>440.47</ele>
        <time>2019-10-15T14:57:09.999Z</time>
      </trkpt>
      <trkpt lat="37.20254" lon="-4.7776">
        <ele>440.55</ele>
        <time>2019-10-15T14:57:14.999Z</time>
      </trkpt>
      <trkpt lat="37.20241" lon="-4.77772">
        <ele>440.65</ele>
        <time>2019-10-15T14:57:19.999Z</time>
      </trkpt>
      <trkpt lat="37.20228" lon="-4.77784">
        <ele>440.76</ele>
        <time>2019-10-15T14:57:24.999Z</time>
      </trkpt>
      <trkpt lat="37.20217" lon="-4.77797">
        <ele>440.87</ele>
        <time>2019-10-15T14:57:29.999Z</time>
      </trkpt>
      <trkpt lat="37.20206" lon="-4.77809">
        <ele>440.98</ele>
        <time>2019-10-15T14:57:34.999Z</time>
      </trkpt>
      <trkpt lat="37.20194" lon="-4.7782">
        <ele>441.09</ele>
        <time>2019-10-15T14:57:39.999Z</time>
      </trkpt>
      <trkpt lat="37.20182" lon="-4.77832">
        <ele>441.2</ele>
        <time>2019-10-15T14:57:44.999Z</time>
      </trkpt>
      <trkpt lat="37.20172" lon="-4.77842">
        <ele>441.3</ele>
        <time>2019-10-15T14:57:49.999Z</time>
      </trkpt>
      <trkpt lat="37.20163" lon="-4.77849">
        <ele>441.4</ele>
        <time>2019-10-15T14:57:54.999Z</time>
      </trkpt>
      <trkpt lat="37.20156" lon="-4.77857">
        <ele>441.81</ele>
        <time>2019-10-15T14:58:21.999Z</time>
      </trkpt>
      <trkpt lat="37.20149" lon="-4.77865">
        <ele>442.17</ele>
        <time>2019-10-15T14:58:41.999Z</time>
      </trkpt>
      <trkpt lat="37.20146" lon="-4.77854">
        <ele>442.65</ele>
        <time>2019-10-15T14:59:19.999Z</time>
      </trkpt>
      <trkpt lat="37.20152" lon="-4.77845">
        <ele>442.96</ele>
        <time>2019-10-15T14:59:39.999Z</time>
      </trkpt>
      <trkpt lat="37.20149" lon="-4.77856">
        <ele>452.14</ele>
        <time>2019-10-15T15:20:41.000Z</time>
      </trkpt>
      <trkpt lat="37.20142" lon="-4.77863">
        <ele>451.9</ele>
        <time>2019-10-15T15:23:11.999Z</time>
      </trkpt>
      <trkpt lat="37.20132" lon="-4.77864">
        <ele>451.76</ele>
        <time>2019-10-15T15:23:19.999Z</time>
      </trkpt>
      <trkpt lat="37.20126" lon="-4.77854">
        <ele>451.49</ele>
        <time>2019-10-15T15:23:44.999Z</time>
      </trkpt>
      <trkpt lat="37.2012" lon="-4.7784">
        <ele>451.43</ele>
        <time>2019-10-15T15:23:49.999Z</time>
      </trkpt>
      <trkpt lat="37.20114" lon="-4.77823">
        <ele>451.37</ele>
        <time>2019-10-15T15:23:54.999Z</time>
      </trkpt>
      <trkpt lat="37.20108" lon="-4.77809">
        <ele>451.3</ele>
        <time>2019-10-15T15:23:59.999Z</time>
      </trkpt>
      <trkpt lat="37.201" lon="-4.77798">
        <ele>451.25</ele>
        <time>2019-10-15T15:24:04.999Z</time>
      </trkpt>
      <trkpt lat="37.20093" lon="-4.77773">
        <ele>450.83</ele>
        <time>2019-10-15T15:24:09.999Z</time>
      </trkpt>
      <trkpt lat="37.20084" lon="-4.77743">
        <ele>450.64</ele>
        <time>2019-10-15T15:24:14.999Z</time>
      </trkpt>
      <trkpt lat="37.20078" lon="-4.77717">
        <ele>450.54</ele>
        <time>2019-10-15T15:24:19.999Z</time>
      </trkpt>
      <trkpt lat="37.20075" lon="-4.77701">
        <ele>450.53</ele>
        <time>2019-10-15T15:24:24.999Z</time>
      </trkpt>
      <trkpt lat="37.20072" lon="-4.77689">
        <ele>450.5</ele>
        <time>2019-10-15T15:24:31.999Z</time>
      </trkpt>
      <trkpt lat="37.2007" lon="-4.77677">
        <ele>450.44</ele>
        <time>2019-10-15T15:24:38.999Z</time>
      </trkpt>
      <trkpt lat="37.20066" lon="-4.77666">
        <ele>450.39</ele>
        <time>2019-10-15T15:24:44.999Z</time>
      </trkpt>
      <trkpt lat="37.20063" lon="-4.77655">
        <ele>450.34</ele>
        <time>2019-10-15T15:24:51.999Z</time>
      </trkpt>
      <trkpt lat="37.20055" lon="-4.77641">
        <ele>450.29</ele>
        <time>2019-10-15T15:24:56.999Z</time>
      </trkpt>
      <trkpt lat="37.20042" lon="-4.77624">
        <ele>450.23</ele>
        <time>2019-10-15T15:25:01.999Z</time>
      </trkpt>
      <trkpt lat="37.20029" lon="-4.7761">
        <ele>450.17</ele>
        <time>2019-10-15T15:25:06.999Z</time>
      </trkpt>
      <trkpt lat="37.20017" lon="-4.776">
        <ele>450.11</ele>
        <time>2019-10-15T15:25:11.999Z</time>
      </trkpt>
      <trkpt lat="37.20026" lon="-4.77603">
        <ele>449.9</ele>
        <time>2019-10-15T15:25:38.999Z</time>
      </trkpt>
      <trkpt lat="37.20036" lon="-4.77616">
        <ele>449.81</ele>
        <time>2019-10-15T15:25:43.999Z</time>
      </trkpt>
      <trkpt lat="37.20047" lon="-4.7763">
        <ele>449.73</ele>
        <time>2019-10-15T15:25:48.999Z</time>
      </trkpt>
      <trkpt lat="37.20058" lon="-4.77623">
        <ele>449.65</ele>
        <time>2019-10-15T15:25:53.999Z</time>
      </trkpt>
      <trkpt lat="37.20069" lon="-4.77607">
        <ele>449.56</ele>
        <time>2019-10-15T15:25:58.999Z</time>
      </trkpt>
      <trkpt lat="37.20081" lon="-4.77594">
        <ele>449.47</ele>
        <time>2019-10-15T15:26:03.999Z</time>
      </trkpt>
      <trkpt lat="37.20088" lon="-4.77586">
        <ele>449.31</ele>
        <time>2019-10-15T15:26:45.999Z</time>
      </trkpt>
      <trkpt lat="37.20099" lon="-4.77582">
        <ele>449.28</ele>
        <time>2019-10-15T15:26:50.999Z</time>
      </trkpt>
      <trkpt lat="37.20112" lon="-4.77582">
        <ele>449.24</ele>
        <time>2019-10-15T15:26:55.999Z</time>
      </trkpt>
      <trkpt lat="37.20122" lon="-4.77578">
        <ele>449.11</ele>
        <time>2019-10-15T15:27:12.999Z</time>
      </trkpt>
      <trkpt lat="37.20131" lon="-4.77572">
        <ele>449.03</ele>
        <time>2019-10-15T15:27:17.999Z</time>
      </trkpt>
      <trkpt lat="37.20143" lon="-4.77569">
        <ele>448.96</ele>
        <time>2019-10-15T15:27:22.999Z</time>
      </trkpt>
      <trkpt lat="37.20153" lon="-4.77568">
        <ele>448.88</ele>
        <time>2019-10-15T15:27:27.999Z</time>
      </trkpt>
      <trkpt lat="37.20163" lon="-4.77564">
        <ele>448.81</ele>
        <time>2019-10-15T15:27:32.999Z</time>
      </trkpt>
      <trkpt lat="37.20171" lon="-4.77558">
        <ele>448.73</ele>
        <time>2019-10-15T15:27:38.999Z</time>
      </trkpt>
      <trkpt lat="37.2018" lon="-4.77555">
        <ele>448.65</ele>
        <time>2019-10-15T15:27:45.999Z</time>
      </trkpt>
      <trkpt lat="37.20171" lon="-4.77547">
        <ele>448.47</ele>
        <time>2019-10-15T15:28:07.999Z</time>
      </trkpt>
      <trkpt lat="37.20165" lon="-4.77528">
        <ele>448.4</ele>
        <time>2019-10-15T15:28:12.999Z</time>
      </trkpt>
      <trkpt lat="37.20161" lon="-4.77517">
        <ele>448.32</ele>
        <time>2019-10-15T15:28:17.999Z</time>
      </trkpt>
      <trkpt lat="37.20168" lon="-4.77509">
        <ele>448.23</ele>
        <time>2019-10-15T15:28:26.999Z</time>
      </trkpt>
      <trkpt lat="37.20177" lon="-4.77502">
        <ele>448.18</ele>
        <time>2019-10-15T15:28:31.999Z</time>
      </trkpt>
      <trkpt lat="37.20187" lon="-4.77496">
        <ele>448.14</ele>
        <time>2019-10-15T15:28:38.999Z</time>
      </trkpt>
      <trkpt lat="37.20201" lon="-4.77487">
        <ele>448.11</ele>
        <time>2019-10-15T15:28:43.999Z</time>
      </trkpt>
      <trkpt lat="37.20213" lon="-4.77478">
        <ele>448.09</ele>
        <time>2019-10-15T15:28:48.999Z</time>
      </trkpt>
      <trkpt lat="37.20211" lon="-4.77466">
        <ele>448.06</ele>
        <time>2019-10-15T15:28:54.999Z</time>
      </trkpt>
      <trkpt lat="37.20207" lon="-4.77456">
        <ele>448.04</ele>
        <time>2019-10-15T15:28:59.999Z</time>
      </trkpt>
      <trkpt lat="37.20214" lon="-4.77467">
        <ele>444.75</ele>
        <time>2019-10-15T15:36:44.999Z</time>
      </trkpt>
      <trkpt lat="37.20221" lon="-4.77482">
        <ele>444.39</ele>
        <time>2019-10-15T15:36:49.999Z</time>
      </trkpt>
      <trkpt lat="37.20227" lon="-4.775">
        <ele>444.07</ele>
        <time>2019-10-15T15:36:54.999Z</time>
      </trkpt>
      <trkpt lat="37.20233" lon="-4.77516">
        <ele>443.79</ele>
        <time>2019-10-15T15:36:59.999Z</time>
      </trkpt>
      <trkpt lat="37.20228" lon="-4.77525">
        <ele>443.53</ele>
        <time>2019-10-15T15:37:04.999Z</time>
      </trkpt>
      <trkpt lat="37.20213" lon="-4.77533">
        <ele>443.3</ele>
        <time>2019-10-15T15:37:09.999Z</time>
      </trkpt>
      <trkpt lat="37.20197" lon="-4.77544">
        <ele>443.1</ele>
        <time>2019-10-15T15:37:14.999Z</time>
      </trkpt>
      <trkpt lat="37.20179" lon="-4.77555">
        <ele>442.18</ele>
        <time>2019-10-15T15:37:19.999Z</time>
      </trkpt>
      <trkpt lat="37.20159" lon="-4.77565">
        <ele>441.47</ele>
        <time>2019-10-15T15:37:24.999Z</time>
      </trkpt>
      <trkpt lat="37.20138" lon="-4.77573">
        <ele>441.21</ele>
        <time>2019-10-15T15:37:29.999Z</time>
      </trkpt>
      <trkpt lat="37.20117" lon="-4.77583">
        <ele>441.12</ele>
        <time>2019-10-15T15:37:34.999Z</time>
      </trkpt>
      <trkpt lat="37.20094" lon="-4.77591">
        <ele>441.1</ele>
        <time>2019-10-15T15:37:39.999Z</time>
      </trkpt>
      <trkpt lat="37.20073" lon="-4.77605">
        <ele>441.12</ele>
        <time>2019-10-15T15:37:44.999Z</time>
      </trkpt>
      <trkpt lat="37.20058" lon="-4.77623">
        <ele>441.14</ele>
        <time>2019-10-15T15:37:49.999Z</time>
      </trkpt>
      <trkpt lat="37.20059" lon="-4.77637">
        <ele>441.14</ele>
        <time>2019-10-15T15:37:54.999Z</time>
      </trkpt>
      <trkpt lat="37.20067" lon="-4.77652">
        <ele>441.16</ele>
        <time>2019-10-15T15:37:59.999Z</time>
      </trkpt>
      <trkpt lat="37.20073" lon="-4.77669">
        <ele>441.18</ele>
        <time>2019-10-15T15:38:05.000Z</time>
      </trkpt>
      <trkpt lat="37.20078" lon="-4.77687">
        <ele>441.19</ele>
        <time>2019-10-15T15:38:10.000Z</time>
      </trkpt>
      <trkpt lat="37.20086" lon="-4.77716">
        <ele>441.26</ele>
        <time>2019-10-15T15:38:15.000Z</time>
      </trkpt>
      <trkpt lat="37.20097" lon="-4.77752">
        <ele>441.25</ele>
        <time>2019-10-15T15:38:20.000Z</time>
      </trkpt>
      <trkpt lat="37.20105" lon="-4.77777">
        <ele>441.26</ele>
        <time>2019-10-15T15:38:25.000Z</time>
      </trkpt>
      <trkpt lat="37.20108" lon="-4.77797">
        <ele>441.26</ele>
        <time>2019-10-15T15:38:30.000Z</time>
      </trkpt>
      <trkpt lat="37.2011" lon="-4.7781">
        <ele>441.28</ele>
        <time>2019-10-15T15:38:35.000Z</time>
      </trkpt>
      <trkpt lat="37.20114" lon="-4.77823">
        <ele>441.3</ele>
        <time>2019-10-15T15:38:40.000Z</time>
      </trkpt>
      <trkpt lat="37.20118" lon="-4.77837">
        <ele>441.33</ele>
        <time>2019-10-15T15:38:45.000Z</time>
      </trkpt>
      <trkpt lat="37.20123" lon="-4.7785">
        <ele>441.36</ele>
        <time>2019-10-15T15:38:50.000Z</time>
      </trkpt>
      <trkpt lat="37.20129" lon="-4.77861">
        <ele>441.4</ele>
        <time>2019-10-15T15:38:56.000Z</time>
      </trkpt>
      <trkpt lat="37.20129" lon="-4.77873">
        <ele>441.44</ele>
        <time>2019-10-15T15:39:02.000Z</time>
      </trkpt>
      <trkpt lat="37.20115" lon="-4.77884">
        <ele>441.48</ele>
        <time>2019-10-15T15:39:07.000Z</time>
      </trkpt>
      <trkpt lat="37.20105" lon="-4.77895">
        <ele>441.55</ele>
        <time>2019-10-15T15:39:12.000Z</time>
      </trkpt>
      <trkpt lat="37.20095" lon="-4.77908">
        <ele>441.63</ele>
        <time>2019-10-15T15:39:17.000Z</time>
      </trkpt>
      <trkpt lat="37.20089" lon="-4.77917">
        <ele>441.74</ele>
        <time>2019-10-15T15:39:22.000Z</time>
      </trkpt>
      <trkpt lat="37.20083" lon="-4.77931">
        <ele>441.87</ele>
        <time>2019-10-15T15:39:27.000Z</time>
      </trkpt>
      <trkpt lat="37.20075" lon="-4.77949">
        <ele>441.99</ele>
        <time>2019-10-15T15:39:32.000Z</time>
      </trkpt>
      <trkpt lat="37.2007" lon="-4.77963">
        <ele>442.11</ele>
        <time>2019-10-15T15:39:37.000Z</time>
      </trkpt>
      <trkpt lat="37.20061" lon="-4.7798">
        <ele>442.22</ele>
        <time>2019-10-15T15:39:42.000Z</time>
      </trkpt>
      <trkpt lat="37.2005" lon="-4.77988">
        <ele>442.36</ele>
        <time>2019-10-15T15:39:47.000Z</time>
      </trkpt>
      <trkpt lat="37.20035" lon="-4.78002">
        <ele>442.51</ele>
        <time>2019-10-15T15:39:52.000Z</time>
      </trkpt>
      <trkpt lat="37.20027" lon="-4.78016">
        <ele>442.7</ele>
        <time>2019-10-15T15:39:57.000Z</time>
      </trkpt>
      <trkpt lat="37.20031" lon="-4.78027">
        <ele>443.09</ele>
        <time>2019-10-15T15:40:21.000Z</time>
      </trkpt>
      <trkpt lat="37.20037" lon="-4.78037">
        <ele>443.42</ele>
        <time>2019-10-15T15:40:29.000Z</time>
      </trkpt>
      <trkpt lat="37.20049" lon="-4.78044">
        <ele>443.61</ele>
        <time>2019-10-15T15:40:34.000Z</time>
      </trkpt>
      <trkpt lat="37.20066" lon="-4.78056">
        <ele>443.81</ele>
        <time>2019-10-15T15:40:39.000Z</time>
      </trkpt>
      <trkpt lat="37.20087" lon="-4.78066">
        <ele>444.83</ele>
        <time>2019-10-15T15:40:44.000Z</time>
      </trkpt>
      <trkpt lat="37.20099" lon="-4.7807">
        <ele>444.95</ele>
        <time>2019-10-15T15:40:49.000Z</time>
      </trkpt>
      <trkpt lat="37.2011" lon="-4.78072">
        <ele>445.05</ele>
        <time>2019-10-15T15:40:54.000Z</time>
      </trkpt>
      <trkpt lat="37.20118" lon="-4.78075">
        <ele>445.2</ele>
        <time>2019-10-15T15:41:02.000Z</time>
      </trkpt>
      <trkpt lat="37.20122" lon="-4.78064">
        <ele>445.31</ele>
        <time>2019-10-15T15:41:09.000Z</time>
      </trkpt>
      <trkpt lat="37.20127" lon="-4.78053">
        <ele>445.36</ele>
        <time>2019-10-15T15:41:47.000Z</time>
      </trkpt>
      <trkpt lat="37.20118" lon="-4.78061">
        <ele>445.36</ele>
        <time>2019-10-15T15:41:53.000Z</time>
      </trkpt>
      <trkpt lat="37.20108" lon="-4.78074">
        <ele>445.36</ele>
        <time>2019-10-15T15:41:58.000Z</time>
      </trkpt>
      <trkpt lat="37.20098" lon="-4.78074">
        <ele>445.35</ele>
        <time>2019-10-15T15:42:04.000Z</time>
      </trkpt>
      <trkpt lat="37.20081" lon="-4.78065">
        <ele>445.35</ele>
        <time>2019-10-15T15:42:09.000Z</time>
      </trkpt>
      <trkpt lat="37.20067" lon="-4.78056">
        <ele>445.34</ele>
        <time>2019-10-15T15:42:14.000Z</time>
      </trkpt>
      <trkpt lat="37.20054" lon="-4.78047">
        <ele>445.34</ele>
        <time>2019-10-15T15:42:19.000Z</time>
      </trkpt>
      <trkpt lat="37.20041" lon="-4.78039">
        <ele>445.35</ele>
        <time>2019-10-15T15:42:24.000Z</time>
      </trkpt>
      <trkpt lat="37.20029" lon="-4.78036">
        <ele>445.37</ele>
        <time>2019-10-15T15:42:29.000Z</time>
      </trkpt>
      <trkpt lat="37.20019" lon="-4.78042">
        <ele>445.39</ele>
        <time>2019-10-15T15:42:34.000Z</time>
      </trkpt>
      <trkpt lat="37.20011" lon="-4.78052">
        <ele>445.42</ele>
        <time>2019-10-15T15:42:39.000Z</time>
      </trkpt>
      <trkpt lat="37.20005" lon="-4.78062">
        <ele>445.47</ele>
        <time>2019-10-15T15:42:46.000Z</time>
      </trkpt>
      <trkpt lat="37.19994" lon="-4.78074">
        <ele>445.51</ele>
        <time>2019-10-15T15:42:51.000Z</time>
      </trkpt>
      <trkpt lat="37.19984" lon="-4.78084">
        <ele>445.58</ele>
        <time>2019-10-15T15:42:56.000Z</time>
      </trkpt>
      <trkpt lat="37.19982" lon="-4.78096">
        <ele>445.95</ele>
        <time>2019-10-15T15:43:31.000Z</time>
      </trkpt>
      <trkpt lat="37.19975" lon="-4.78104">
        <ele>446.18</ele>
        <time>2019-10-15T15:43:37.000Z</time>
      </trkpt>
      <trkpt lat="37.19969" lon="-4.78114">
        <ele>446.37</ele>
        <time>2019-10-15T15:43:42.000Z</time>
      </trkpt>
      <trkpt lat="37.19963" lon="-4.78123">
        <ele>446.55</ele>
        <time>2019-10-15T15:43:47.000Z</time>
      </trkpt>
      <trkpt lat="37.19956" lon="-4.78132">
        <ele>446.73</ele>
        <time>2019-10-15T15:43:52.000Z</time>
      </trkpt>
      <trkpt lat="37.19948" lon="-4.78142">
        <ele>446.9</ele>
        <time>2019-10-15T15:43:57.000Z</time>
      </trkpt>
      <trkpt lat="37.19941" lon="-4.78151">
        <ele>447.07</ele>
        <time>2019-10-15T15:44:02.000Z</time>
      </trkpt>
      <trkpt lat="37.19935" lon="-4.78161">
        <ele>447.23</ele>
        <time>2019-10-15T15:44:07.000Z</time>
      </trkpt>
      <trkpt lat="37.1993" lon="-4.78172">
        <ele>447.38</ele>
        <time>2019-10-15T15:44:12.000Z</time>
      </trkpt>
      <trkpt lat="37.19926" lon="-4.78183">
        <ele>447.56</ele>
        <time>2019-10-15T15:44:18.000Z</time>
      </trkpt>
      <trkpt lat="37.19935" lon="-4.78181">
        <ele>447.93</ele>
        <time>2019-10-15T15:44:37.000Z</time>
      </trkpt>
      <trkpt lat="37.19937" lon="-4.78166">
        <ele>448.17</ele>
        <time>2019-10-15T15:45:25.000Z</time>
      </trkpt>
      <trkpt lat="37.19944" lon="-4.78149">
        <ele>448.18</ele>
        <time>2019-10-15T15:45:30.000Z</time>
      </trkpt>
      <trkpt lat="37.19953" lon="-4.78129">
        <ele>448.21</ele>
        <time>2019-10-15T15:45:35.000Z</time>
      </trkpt>
      <trkpt lat="37.19968" lon="-4.78107">
        <ele>448.2</ele>
        <time>2019-10-15T15:45:40.000Z</time>
      </trkpt>
      <trkpt lat="37.19973" lon="-4.78096">
        <ele>448.17</ele>
        <time>2019-10-15T15:45:47.000Z</time>
      </trkpt>
      <trkpt lat="37.19976" lon="-4.78085">
        <ele>447.42</ele>
        <time>2019-10-15T15:50:07.000Z</time>
      </trkpt>
      <trkpt lat="37.19983" lon="-4.78076">
        <ele>447.3</ele>
        <time>2019-10-15T15:50:15.000Z</time>
      </trkpt>
      <trkpt lat="37.1999" lon="-4.78068">
        <ele>447.18</ele>
        <time>2019-10-15T15:50:23.000Z</time>
      </trkpt>
      <trkpt lat="37.19996" lon="-4.78059">
        <ele>444.38</ele>
        <time>2019-10-15T16:02:57.999Z</time>
      </trkpt>
      <trkpt lat="37.20005" lon="-4.78044">
        <ele>444.26</ele>
        <time>2019-10-15T16:03:02.999Z</time>
      </trkpt>
      <trkpt lat="37.20013" lon="-4.78032">
        <ele>444.14</ele>
        <time>2019-10-15T16:03:07.999Z</time>
      </trkpt>
      <trkpt lat="37.20027" lon="-4.78024">
        <ele>444.04</ele>
        <time>2019-10-15T16:03:12.999Z</time>
      </trkpt>
      <trkpt lat="37.2004" lon="-4.78008">
        <ele>443.94</ele>
        <time>2019-10-15T16:03:17.999Z</time>
      </trkpt>
      <trkpt lat="37.20053" lon="-4.77991">
        <ele>443.86</ele>
        <time>2019-10-15T16:03:22.999Z</time>
      </trkpt>
      <trkpt lat="37.20054" lon="-4.77979">
        <ele>443.8</ele>
        <time>2019-10-15T16:03:33.999Z</time>
      </trkpt>
      <trkpt lat="37.20046" lon="-4.77986">
        <ele>443.71</ele>
        <time>2019-10-15T16:04:01.999Z</time>
      </trkpt>
      <trkpt lat="37.20036" lon="-4.77981">
        <ele>443.41</ele>
        <time>2019-10-15T16:04:46.999Z</time>
      </trkpt>
      <trkpt lat="37.20044" lon="-4.77975">
        <ele>443.39</ele>
        <time>2019-10-15T16:05:24.999Z</time>
      </trkpt>
      <trkpt lat="37.20056" lon="-4.77966">
        <ele>443.4</ele>
        <time>2019-10-15T16:05:29.999Z</time>
      </trkpt>
      <trkpt lat="37.20064" lon="-4.77954">
        <ele>443.41</ele>
        <time>2019-10-15T16:05:36.999Z</time>
      </trkpt>
      <trkpt lat="37.20062" lon="-4.77939">
        <ele>443.41</ele>
        <time>2019-10-15T16:05:41.999Z</time>
      </trkpt>
      <trkpt lat="37.2007" lon="-4.77947">
        <ele>443.41</ele>
        <time>2019-10-15T16:05:46.999Z</time>
      </trkpt>
      <trkpt lat="37.20058" lon="-4.77943">
        <ele>443.42</ele>
        <time>2019-10-15T16:05:59.999Z</time>
      </trkpt>
      <trkpt lat="37.20068" lon="-4.77944">
        <ele>443.42</ele>
        <time>2019-10-15T16:06:04.999Z</time>
      </trkpt>
      <trkpt lat="37.20068" lon="-4.77956">
        <ele>443.44</ele>
        <time>2019-10-15T16:06:13.999Z</time>
      </trkpt>
      <trkpt lat="37.20059" lon="-4.77954">
        <ele>443.47</ele>
        <time>2019-10-15T16:06:23.999Z</time>
      </trkpt>
      <trkpt lat="37.20047" lon="-4.77949">
        <ele>443.47</ele>
        <time>2019-10-15T16:06:28.999Z</time>
      </trkpt>
      <trkpt lat="37.20037" lon="-4.77949">
        <ele>443.49</ele>
        <time>2019-10-15T16:06:45.999Z</time>
      </trkpt>
      <trkpt lat="37.20038" lon="-4.7796">
        <ele>443.54</ele>
        <time>2019-10-15T16:07:11.999Z</time>
      </trkpt>
      <trkpt lat="37.20034" lon="-4.7797">
        <ele>443.6</ele>
        <time>2019-10-15T16:07:33.999Z</time>
      </trkpt>
      <trkpt lat="37.20025" lon="-4.77965">
        <ele>443.62</ele>
        <time>2019-10-15T16:07:41.999Z</time>
      </trkpt>
      <trkpt lat="37.20048" lon="-4.77999">
        <ele>443.72</ele>
        <time>2019-10-15T16:09:07.000Z</time>
      </trkpt>
      <trkpt lat="37.20036" lon="-4.77989">
        <ele>443.6</ele>
        <time>2019-10-15T16:10:31.000Z</time>
      </trkpt>
      <trkpt lat="37.2005" lon="-4.77988">
        <ele>443.57</ele>
        <time>2019-10-15T16:10:38.000Z</time>
      </trkpt>
      <trkpt lat="37.2006" lon="-4.77983">
        <ele>443.55</ele>
        <time>2019-10-15T16:10:43.000Z</time>
      </trkpt>
      <trkpt lat="37.20064" lon="-4.77994">
        <ele>443.55</ele>
        <time>2019-10-15T16:10:51.000Z</time>
      </trkpt>
      <trkpt lat="37.20033" lon="-4.78005">
        <ele>443.52</ele>
        <time>2019-10-15T16:11:13.000Z</time>
      </trkpt>
      <trkpt lat="37.2005" lon="-4.7799">
        <ele>443.67</ele>
        <time>2019-10-15T16:11:47.000Z</time>
      </trkpt>
      <trkpt lat="37.20043" lon="-4.77982">
        <ele>443.5</ele>
        <time>2019-10-15T16:12:16.000Z</time>
      </trkpt>
      <trkpt lat="37.20033" lon="-4.77977">
        <ele>443.42</ele>
        <time>2019-10-15T16:12:23.000Z</time>
      </trkpt>
      <trkpt lat="37.2004" lon="-4.77987">
        <ele>443.4</ele>
        <time>2019-10-15T16:12:29.000Z</time>
      </trkpt>
      <trkpt lat="37.20048" lon="-4.77992">
        <ele>443.32</ele>
        <time>2019-10-15T16:12:36.000Z</time>
      </trkpt>
      <trkpt lat="37.20042" lon="-4.78001">
        <ele>445.17</ele>
        <time>2019-10-15T16:18:13.000Z</time>
      </trkpt>
      <trkpt lat="37.20035" lon="-4.78009">
        <ele>445.52</ele>
        <time>2019-10-15T16:18:20.000Z</time>
      </trkpt>
      <trkpt lat="37.2003" lon="-4.7802">
        <ele>445.91</ele>
        <time>2019-10-15T16:18:30.000Z</time>
      </trkpt>
      <trkpt lat="37.2002" lon="-4.78017">
        <ele>446.15</ele>
        <time>2019-10-15T16:18:39.000Z</time>
      </trkpt>
      <trkpt lat="37.20018" lon="-4.78028">
        <ele>446.46</ele>
        <time>2019-10-15T16:18:54.000Z</time>
      </trkpt>
      <trkpt lat="37.20014" lon="-4.78038">
        <ele>446.63</ele>
        <time>2019-10-15T16:19:01.000Z</time>
      </trkpt>
      <trkpt lat="37.20007" lon="-4.78047">
        <ele>446.71</ele>
        <time>2019-10-15T16:19:08.000Z</time>
      </trkpt>
      <trkpt lat="37.20002" lon="-4.78056">
        <ele>446.73</ele>
        <time>2019-10-15T16:19:15.000Z</time>
      </trkpt>
      <trkpt lat="37.19997" lon="-4.78066">
        <ele>446.72</ele>
        <time>2019-10-15T16:19:41.000Z</time>
      </trkpt>
      <trkpt lat="37.19991" lon="-4.78075">
        <ele>445.51</ele>
        <time>2019-10-15T16:24:38.999Z</time>
      </trkpt>
      <trkpt lat="37.19989" lon="-4.78086">
        <ele>445.41</ele>
        <time>2019-10-15T16:25:04.999Z</time>
      </trkpt>
      <trkpt lat="37.19984" lon="-4.78098">
        <ele>445.43</ele>
        <time>2019-10-15T16:25:10.999Z</time>
      </trkpt>
      <trkpt lat="37.19974" lon="-4.78111">
        <ele>445.45</ele>
        <time>2019-10-15T16:25:15.999Z</time>
      </trkpt>
      <trkpt lat="37.19964" lon="-4.78124">
        <ele>445.5</ele>
        <time>2019-10-15T16:25:20.999Z</time>
      </trkpt>
      <trkpt lat="37.19953" lon="-4.78137">
        <ele>445.59</ele>
        <time>2019-10-15T16:25:25.999Z</time>
      </trkpt>
      <trkpt lat="37.19945" lon="-4.78151">
        <ele>445.71</ele>
        <time>2019-10-15T16:25:30.999Z</time>
      </trkpt>
      <trkpt lat="37.19938" lon="-4.78164">
        <ele>445.84</ele>
        <time>2019-10-15T16:25:35.999Z</time>
      </trkpt>
      <trkpt lat="37.19932" lon="-4.78179">
        <ele>446</ele>
        <time>2019-10-15T16:25:40.999Z</time>
      </trkpt>
      <trkpt lat="37.19925" lon="-4.78197">
        <ele>446.18</ele>
        <time>2019-10-15T16:25:45.999Z</time>
      </trkpt>
      <trkpt lat="37.19917" lon="-4.78215">
        <ele>446.35</ele>
        <time>2019-10-15T16:25:50.999Z</time>
      </trkpt>
      <trkpt lat="37.19909" lon="-4.78231">
        <ele>446.52</ele>
        <time>2019-10-15T16:25:55.999Z</time>
      </trkpt>
      <trkpt lat="37.19902" lon="-4.7825">
        <ele>446.69</ele>
        <time>2019-10-15T16:26:00.999Z</time>
      </trkpt>
      <trkpt lat="37.19893" lon="-4.78269">
        <ele>446.86</ele>
        <time>2019-10-15T16:26:05.999Z</time>
      </trkpt>
      <trkpt lat="37.19883" lon="-4.78288">
        <ele>447.04</ele>
        <time>2019-10-15T16:26:10.999Z</time>
      </trkpt>
      <trkpt lat="37.19875" lon="-4.78305">
        <ele>447.24</ele>
        <time>2019-10-15T16:26:15.999Z</time>
      </trkpt>
      <trkpt lat="37.19867" lon="-4.78322">
        <ele>447.44</ele>
        <time>2019-10-15T16:26:20.999Z</time>
      </trkpt>
      <trkpt lat="37.1986" lon="-4.7834">
        <ele>447.65</ele>
        <time>2019-10-15T16:26:25.999Z</time>
      </trkpt>
      <trkpt lat="37.19852" lon="-4.78357">
        <ele>447.86</ele>
        <time>2019-10-15T16:26:30.999Z</time>
      </trkpt>
      <trkpt lat="37.19844" lon="-4.78375">
        <ele>448.07</ele>
        <time>2019-10-15T16:26:35.999Z</time>
      </trkpt>
      <trkpt lat="37.19837" lon="-4.78392">
        <ele>448.28</ele>
        <time>2019-10-15T16:26:40.999Z</time>
      </trkpt>
      <trkpt lat="37.19831" lon="-4.78409">
        <ele>448.45</ele>
        <time>2019-10-15T16:26:45.999Z</time>
      </trkpt>
      <trkpt lat="37.19824" lon="-4.78427">
        <ele>448.63</ele>
        <time>2019-10-15T16:26:50.999Z</time>
      </trkpt>
      <trkpt lat="37.19817" lon="-4.78444">
        <ele>448.79</ele>
        <time>2019-10-15T16:26:55.999Z</time>
      </trkpt>
      <trkpt lat="37.1981" lon="-4.78464">
        <ele>448.95</ele>
        <time>2019-10-15T16:27:00.999Z</time>
      </trkpt>
      <trkpt lat="37.19805" lon="-4.78484">
        <ele>449.1</ele>
        <time>2019-10-15T16:27:05.999Z</time>
      </trkpt>
      <trkpt lat="37.19802" lon="-4.78507">
        <ele>449.43</ele>
        <time>2019-10-15T16:27:10.999Z</time>
      </trkpt>
      <trkpt lat="37.19802" lon="-4.78533">
        <ele>450.05</ele>
        <time>2019-10-15T16:27:15.999Z</time>
      </trkpt>
      <trkpt lat="37.19801" lon="-4.78556">
        <ele>450.36</ele>
        <time>2019-10-15T16:27:20.999Z</time>
      </trkpt>
      <trkpt lat="37.198" lon="-4.78581">
        <ele>450.58</ele>
        <time>2019-10-15T16:27:25.999Z</time>
      </trkpt>
      <trkpt lat="37.198" lon="-4.78606">
        <ele>450.75</ele>
        <time>2019-10-15T16:27:30.999Z</time>
      </trkpt>
      <trkpt lat="37.19799" lon="-4.78634">
        <ele>450.91</ele>
        <time>2019-10-15T16:27:35.999Z</time>
      </trkpt>
      <trkpt lat="37.19799" lon="-4.78658">
        <ele>451.09</ele>
        <time>2019-10-15T16:27:40.999Z</time>
      </trkpt>
      <trkpt lat="37.19795" lon="-4.78681">
        <ele>451.26</ele>
        <time>2019-10-15T16:27:45.999Z</time>
      </trkpt>
      <trkpt lat="37.1979" lon="-4.78704">
        <ele>451.39</ele>
        <time>2019-10-15T16:27:50.999Z</time>
      </trkpt>
      <trkpt lat="37.19784" lon="-4.78727">
        <ele>451.48</ele>
        <time>2019-10-15T16:27:55.999Z</time>
      </trkpt>
      <trkpt lat="37.19778" lon="-4.78749">
        <ele>451.5</ele>
        <time>2019-10-15T16:28:00.999Z</time>
      </trkpt>
      <trkpt lat="37.19773" lon="-4.78769">
        <ele>451.5</ele>
        <time>2019-10-15T16:28:05.999Z</time>
      </trkpt>
      <trkpt lat="37.19767" lon="-4.78789">
        <ele>451.51</ele>
        <time>2019-10-15T16:28:10.999Z</time>
      </trkpt>
      <trkpt lat="37.19761" lon="-4.78809">
        <ele>451.51</ele>
        <time>2019-10-15T16:28:15.999Z</time>
      </trkpt>
      <trkpt lat="37.19756" lon="-4.78828">
        <ele>451.51</ele>
        <time>2019-10-15T16:28:20.999Z</time>
      </trkpt>
      <trkpt lat="37.19751" lon="-4.78847">
        <ele>451.5</ele>
        <time>2019-10-15T16:28:25.999Z</time>
      </trkpt>
      <trkpt lat="37.19745" lon="-4.78866">
        <ele>451.49</ele>
        <time>2019-10-15T16:28:30.999Z</time>
      </trkpt>
      <trkpt lat="37.1974" lon="-4.78885">
        <ele>451.47</ele>
        <time>2019-10-15T16:28:35.999Z</time>
      </trkpt>
      <trkpt lat="37.19735" lon="-4.78902">
        <ele>451.46</ele>
        <time>2019-10-15T16:28:40.999Z</time>
      </trkpt>
      <trkpt lat="37.1973" lon="-4.78921">
        <ele>451.46</ele>
        <time>2019-10-15T16:28:45.999Z</time>
      </trkpt>
      <trkpt lat="37.19726" lon="-4.78939">
        <ele>451.47</ele>
        <time>2019-10-15T16:28:50.999Z</time>
      </trkpt>
      <trkpt lat="37.1972" lon="-4.78957">
        <ele>451.48</ele>
        <time>2019-10-15T16:28:55.999Z</time>
      </trkpt>
      <trkpt lat="37.19715" lon="-4.78976">
        <ele>451.5</ele>
        <time>2019-10-15T16:29:00.999Z</time>
      </trkpt>
      <trkpt lat="37.19709" lon="-4.78997">
        <ele>451.52</ele>
        <time>2019-10-15T16:29:05.999Z</time>
      </trkpt>
      <trkpt lat="37.19704" lon="-4.79017">
        <ele>451.53</ele>
        <time>2019-10-15T16:29:10.999Z</time>
      </trkpt>
      <trkpt lat="37.19698" lon="-4.79038">
        <ele>451.55</ele>
        <time>2019-10-15T16:29:15.999Z</time>
      </trkpt>
      <trkpt lat="37.19693" lon="-4.79058">
        <ele>451.57</ele>
        <time>2019-10-15T16:29:20.999Z</time>
      </trkpt>
      <trkpt lat="37.19687" lon="-4.7908">
        <ele>451.6</ele>
        <time>2019-10-15T16:29:25.999Z</time>
      </trkpt>
      <trkpt lat="37.19681" lon="-4.791">
        <ele>451.64</ele>
        <time>2019-10-15T16:29:30.999Z</time>
      </trkpt>
      <trkpt lat="37.19675" lon="-4.79121">
        <ele>451.69</ele>
        <time>2019-10-15T16:29:35.999Z</time>
      </trkpt>
      <trkpt lat="37.1967" lon="-4.79142">
        <ele>451.76</ele>
        <time>2019-10-15T16:29:40.999Z</time>
      </trkpt>
      <trkpt lat="37.19664" lon="-4.79163">
        <ele>451.84</ele>
        <time>2019-10-15T16:29:45.999Z</time>
      </trkpt>
      <trkpt lat="37.19659" lon="-4.79185">
        <ele>452.08</ele>
        <time>2019-10-15T16:29:50.999Z</time>
      </trkpt>
      <trkpt lat="37.19655" lon="-4.79208">
        <ele>452.28</ele>
        <time>2019-10-15T16:29:55.999Z</time>
      </trkpt>
      <trkpt lat="37.19649" lon="-4.7923">
        <ele>452.38</ele>
        <time>2019-10-15T16:30:00.999Z</time>
      </trkpt>
      <trkpt lat="37.19645" lon="-4.79252">
        <ele>452.67</ele>
        <time>2019-10-15T16:30:05.999Z</time>
      </trkpt>
      <trkpt lat="37.19641" lon="-4.79276">
        <ele>453.11</ele>
        <time>2019-10-15T16:30:10.999Z</time>
      </trkpt>
      <trkpt lat="37.19638" lon="-4.79301">
        <ele>453.35</ele>
        <time>2019-10-15T16:30:15.999Z</time>
      </trkpt>
      <trkpt lat="37.19636" lon="-4.79326">
        <ele>453.48</ele>
        <time>2019-10-15T16:30:20.999Z</time>
      </trkpt>
      <trkpt lat="37.19634" lon="-4.79351">
        <ele>453.56</ele>
        <time>2019-10-15T16:30:25.999Z</time>
      </trkpt>
      <trkpt lat="37.19631" lon="-4.79378">
        <ele>453.6</ele>
        <time>2019-10-15T16:30:30.999Z</time>
      </trkpt>
      <trkpt lat="37.19628" lon="-4.79405">
        <ele>453.64</ele>
        <time>2019-10-15T16:30:35.999Z</time>
      </trkpt>
      <trkpt lat="37.19625" lon="-4.7943">
        <ele>453.69</ele>
        <time>2019-10-15T16:30:40.999Z</time>
      </trkpt>
      <trkpt lat="37.19622" lon="-4.79451">
        <ele>453.71</ele>
        <time>2019-10-15T16:30:45.999Z</time>
      </trkpt>
      <trkpt lat="37.19619" lon="-4.7947">
        <ele>453.72</ele>
        <time>2019-10-15T16:30:50.999Z</time>
      </trkpt>
      <trkpt lat="37.19617" lon="-4.79486">
        <ele>453.73</ele>
        <time>2019-10-15T16:30:55.999Z</time>
      </trkpt>
      <trkpt lat="37.19614" lon="-4.795">
        <ele>453.76</ele>
        <time>2019-10-15T16:31:00.999Z</time>
      </trkpt>
      <trkpt lat="37.19612" lon="-4.79516">
        <ele>453.8</ele>
        <time>2019-10-15T16:31:05.999Z</time>
      </trkpt>
      <trkpt lat="37.1961" lon="-4.79532">
        <ele>453.86</ele>
        <time>2019-10-15T16:31:10.999Z</time>
      </trkpt>
      <trkpt lat="37.19607" lon="-4.79551">
        <ele>453.94</ele>
        <time>2019-10-15T16:31:15.999Z</time>
      </trkpt>
      <trkpt lat="37.19605" lon="-4.79572">
        <ele>454.03</ele>
        <time>2019-10-15T16:31:20.999Z</time>
      </trkpt>
      <trkpt lat="37.19602" lon="-4.79597">
        <ele>454.57</ele>
        <time>2019-10-15T16:31:25.999Z</time>
      </trkpt>
      <trkpt lat="37.19598" lon="-4.79628">
        <ele>454.88</ele>
        <time>2019-10-15T16:31:30.999Z</time>
      </trkpt>
      <trkpt lat="37.19594" lon="-4.79665">
        <ele>455.02</ele>
        <time>2019-10-15T16:31:35.999Z</time>
      </trkpt>
      <trkpt lat="37.19588" lon="-4.79708">
        <ele>455.09</ele>
        <time>2019-10-15T16:31:40.999Z</time>
      </trkpt>
      <trkpt lat="37.19582" lon="-4.79751">
        <ele>455.06</ele>
        <time>2019-10-15T16:31:45.999Z</time>
      </trkpt>
      <trkpt lat="37.19576" lon="-4.79792">
        <ele>455.19</ele>
        <time>2019-10-15T16:31:50.999Z</time>
      </trkpt>
      <trkpt lat="37.19571" lon="-4.7983">
        <ele>455.35</ele>
        <time>2019-10-15T16:31:55.999Z</time>
      </trkpt>
      <trkpt lat="37.19566" lon="-4.79866">
        <ele>455.34</ele>
        <time>2019-10-15T16:32:00.999Z</time>
      </trkpt>
      <trkpt lat="37.19561" lon="-4.79903">
        <ele>455.29</ele>
        <time>2019-10-15T16:32:05.999Z</time>
      </trkpt>
      <trkpt lat="37.19563" lon="-4.7994">
        <ele>455.43</ele>
        <time>2019-10-15T16:32:10.999Z</time>
      </trkpt>
      <trkpt lat="37.19572" lon="-4.79975">
        <ele>455.62</ele>
        <time>2019-10-15T16:32:15.999Z</time>
      </trkpt>
      <trkpt lat="37.19547" lon="-4.7999">
        <ele>455.81</ele>
        <time>2019-10-15T16:32:20.999Z</time>
      </trkpt>
      <trkpt lat="37.19516" lon="-4.79985">
        <ele>456.05</ele>
        <time>2019-10-15T16:32:25.999Z</time>
      </trkpt>
      <trkpt lat="37.19489" lon="-4.79991">
        <ele>456.29</ele>
        <time>2019-10-15T16:32:30.999Z</time>
      </trkpt>
      <trkpt lat="37.19461" lon="-4.80002">
        <ele>456.39</ele>
        <time>2019-10-15T16:32:35.999Z</time>
      </trkpt>
      <trkpt lat="37.19434" lon="-4.80013">
        <ele>456.53</ele>
        <time>2019-10-15T16:32:40.999Z</time>
      </trkpt>
      <trkpt lat="37.19406" lon="-4.80025">
        <ele>456.65</ele>
        <time>2019-10-15T16:32:45.999Z</time>
      </trkpt>
      <trkpt lat="37.19379" lon="-4.8004">
        <ele>456.63</ele>
        <time>2019-10-15T16:32:50.999Z</time>
      </trkpt>
      <trkpt lat="37.19351" lon="-4.80056">
        <ele>456.76</ele>
        <time>2019-10-15T16:32:55.999Z</time>
      </trkpt>
      <trkpt lat="37.19325" lon="-4.80074">
        <ele>457.08</ele>
        <time>2019-10-15T16:33:00.999Z</time>
      </trkpt>
      <trkpt lat="37.19299" lon="-4.80095">
        <ele>457.37</ele>
        <time>2019-10-15T16:33:05.999Z</time>
      </trkpt>
      <trkpt lat="37.19273" lon="-4.80116">
        <ele>457.54</ele>
        <time>2019-10-15T16:33:10.999Z</time>
      </trkpt>
      <trkpt lat="37.19249" lon="-4.80139">
        <ele>457.63</ele>
        <time>2019-10-15T16:33:15.999Z</time>
      </trkpt>
      <trkpt lat="37.19225" lon="-4.80163">
        <ele>457.88</ele>
        <time>2019-10-15T16:33:20.999Z</time>
      </trkpt>
      <trkpt lat="37.19204" lon="-4.80187">
        <ele>458.2</ele>
        <time>2019-10-15T16:33:25.999Z</time>
      </trkpt>
      <trkpt lat="37.19184" lon="-4.80213">
        <ele>458.4</ele>
        <time>2019-10-15T16:33:30.999Z</time>
      </trkpt>
      <trkpt lat="37.19165" lon="-4.80238">
        <ele>458.49</ele>
        <time>2019-10-15T16:33:35.999Z</time>
      </trkpt>
      <trkpt lat="37.19148" lon="-4.80264">
        <ele>458.71</ele>
        <time>2019-10-15T16:33:40.999Z</time>
      </trkpt>
      <trkpt lat="37.19132" lon="-4.80289">
        <ele>458.9</ele>
        <time>2019-10-15T16:33:45.999Z</time>
      </trkpt>
      <trkpt lat="37.19118" lon="-4.80316">
        <ele>459.04</ele>
        <time>2019-10-15T16:33:50.999Z</time>
      </trkpt>
      <trkpt lat="37.19105" lon="-4.80343">
        <ele>459.07</ele>
        <time>2019-10-15T16:33:55.999Z</time>
      </trkpt>
      <trkpt lat="37.19092" lon="-4.80369">
        <ele>459.26</ele>
        <time>2019-10-15T16:34:00.999Z</time>
      </trkpt>
      <trkpt lat="37.19081" lon="-4.80396">
        <ele>459.36</ele>
        <time>2019-10-15T16:34:05.999Z</time>
      </trkpt>
      <trkpt lat="37.1907" lon="-4.80423">
        <ele>459.42</ele>
        <time>2019-10-15T16:34:10.999Z</time>
      </trkpt>
      <trkpt lat="37.19061" lon="-4.80451">
        <ele>459.29</ele>
        <time>2019-10-15T16:34:15.999Z</time>
      </trkpt>
      <trkpt lat="37.19054" lon="-4.80481">
        <ele>459.13</ele>
        <time>2019-10-15T16:34:20.999Z</time>
      </trkpt>
      <trkpt lat="37.19048" lon="-4.80513">
        <ele>458.89</ele>
        <time>2019-10-15T16:34:25.999Z</time>
      </trkpt>
      <trkpt lat="37.19042" lon="-4.80544">
        <ele>458.79</ele>
        <time>2019-10-15T16:34:30.999Z</time>
      </trkpt>
      <trkpt lat="37.19035" lon="-4.80574">
        <ele>458.96</ele>
        <time>2019-10-15T16:34:35.999Z</time>
      </trkpt>
      <trkpt lat="37.19028" lon="-4.80602">
        <ele>459</ele>
        <time>2019-10-15T16:34:40.999Z</time>
      </trkpt>
      <trkpt lat="37.19021" lon="-4.8063">
        <ele>459.01</ele>
        <time>2019-10-15T16:34:45.999Z</time>
      </trkpt>
      <trkpt lat="37.19015" lon="-4.80658">
        <ele>458.9</ele>
        <time>2019-10-15T16:34:50.999Z</time>
      </trkpt>
      <trkpt lat="37.1901" lon="-4.80687">
        <ele>458.89</ele>
        <time>2019-10-15T16:34:55.999Z</time>
      </trkpt>
      <trkpt lat="37.19004" lon="-4.80716">
        <ele>458.96</ele>
        <time>2019-10-15T16:35:00.999Z</time>
      </trkpt>
      <trkpt lat="37.18996" lon="-4.80743">
        <ele>459</ele>
        <time>2019-10-15T16:35:05.999Z</time>
      </trkpt>
      <trkpt lat="37.18988" lon="-4.80769">
        <ele>459.02</ele>
        <time>2019-10-15T16:35:10.999Z</time>
      </trkpt>
      <trkpt lat="37.18981" lon="-4.80796">
        <ele>459.03</ele>
        <time>2019-10-15T16:35:15.999Z</time>
      </trkpt>
      <trkpt lat="37.18976" lon="-4.80822">
        <ele>459.11</ele>
        <time>2019-10-15T16:35:20.999Z</time>
      </trkpt>
      <trkpt lat="37.18969" lon="-4.80849">
        <ele>459.12</ele>
        <time>2019-10-15T16:35:25.999Z</time>
      </trkpt>
      <trkpt lat="37.18962" lon="-4.80877">
        <ele>459.07</ele>
        <time>2019-10-15T16:35:30.999Z</time>
      </trkpt>
      <trkpt lat="37.18954" lon="-4.80904">
        <ele>459.15</ele>
        <time>2019-10-15T16:35:35.999Z</time>
      </trkpt>
      <trkpt lat="37.18944" lon="-4.80932">
        <ele>459.2</ele>
        <time>2019-10-15T16:35:40.999Z</time>
      </trkpt>
      <trkpt lat="37.18932" lon="-4.8096">
        <ele>459.3</ele>
        <time>2019-10-15T16:35:45.999Z</time>
      </trkpt>
      <trkpt lat="37.18918" lon="-4.80987">
        <ele>459.32</ele>
        <time>2019-10-15T16:35:50.999Z</time>
      </trkpt>
      <trkpt lat="37.18903" lon="-4.81013">
        <ele>459.4</ele>
        <time>2019-10-15T16:35:55.999Z</time>
      </trkpt>
      <trkpt lat="37.18886" lon="-4.81037">
        <ele>459.48</ele>
        <time>2019-10-15T16:36:00.999Z</time>
      </trkpt>
      <trkpt lat="37.1887" lon="-4.81057">
        <ele>459.57</ele>
        <time>2019-10-15T16:36:05.999Z</time>
      </trkpt>
      <trkpt lat="37.18853" lon="-4.81077">
        <ele>459.59</ele>
        <time>2019-10-15T16:36:10.999Z</time>
      </trkpt>
      <trkpt lat="37.18835" lon="-4.81095">
        <ele>459.64</ele>
        <time>2019-10-15T16:36:15.999Z</time>
      </trkpt>
      <trkpt lat="37.18818" lon="-4.81111">
        <ele>459.84</ele>
        <time>2019-10-15T16:36:20.999Z</time>
      </trkpt>
      <trkpt lat="37.18799" lon="-4.81124">
        <ele>460.06</ele>
        <time>2019-10-15T16:36:25.999Z</time>
      </trkpt>
      <trkpt lat="37.18782" lon="-4.81138">
        <ele>460.39</ele>
        <time>2019-10-15T16:36:30.999Z</time>
      </trkpt>
      <trkpt lat="37.18763" lon="-4.81151">
        <ele>460.68</ele>
        <time>2019-10-15T16:36:35.999Z</time>
      </trkpt>
      <trkpt lat="37.18745" lon="-4.81164">
        <ele>460.93</ele>
        <time>2019-10-15T16:36:40.999Z</time>
      </trkpt>
      <trkpt lat="37.18727" lon="-4.81177">
        <ele>461.08</ele>
        <time>2019-10-15T16:36:45.999Z</time>
      </trkpt>
      <trkpt lat="37.18708" lon="-4.8119">
        <ele>461.22</ele>
        <time>2019-10-15T16:36:50.999Z</time>
      </trkpt>
      <trkpt lat="37.18691" lon="-4.81203">
        <ele>461.31</ele>
        <time>2019-10-15T16:36:55.999Z</time>
      </trkpt>
      <trkpt lat="37.18674" lon="-4.81216">
        <ele>461.4</ele>
        <time>2019-10-15T16:37:00.999Z</time>
      </trkpt>
      <trkpt lat="37.18657" lon="-4.81227">
        <ele>461.54</ele>
        <time>2019-10-15T16:37:05.999Z</time>
      </trkpt>
      <trkpt lat="37.18641" lon="-4.81239">
        <ele>461.59</ele>
        <time>2019-10-15T16:37:10.999Z</time>
      </trkpt>
      <trkpt lat="37.18626" lon="-4.81249">
        <ele>461.65</ele>
        <time>2019-10-15T16:37:15.999Z</time>
      </trkpt>
      <trkpt lat="37.18612" lon="-4.81259">
        <ele>461.74</ele>
        <time>2019-10-15T16:37:20.999Z</time>
      </trkpt>
      <trkpt lat="37.186" lon="-4.81268">
        <ele>461.85</ele>
        <time>2019-10-15T16:37:25.999Z</time>
      </trkpt>
      <trkpt lat="37.18588" lon="-4.81277">
        <ele>461.99</ele>
        <time>2019-10-15T16:37:30.999Z</time>
      </trkpt>
      <trkpt lat="37.18577" lon="-4.81285">
        <ele>462.14</ele>
        <time>2019-10-15T16:37:35.999Z</time>
      </trkpt>
      <trkpt lat="37.18566" lon="-4.81293">
        <ele>462.31</ele>
        <time>2019-10-15T16:37:40.999Z</time>
      </trkpt>
      <trkpt lat="37.18557" lon="-4.813">
        <ele>462.49</ele>
        <time>2019-10-15T16:37:45.999Z</time>
      </trkpt>
      <trkpt lat="37.18547" lon="-4.81306">
        <ele>462.68</ele>
        <time>2019-10-15T16:37:50.999Z</time>
      </trkpt>
      <trkpt lat="37.18539" lon="-4.81313">
        <ele>462.87</ele>
        <time>2019-10-15T16:37:55.999Z</time>
      </trkpt>
      <trkpt lat="37.1853" lon="-4.81318">
        <ele>463.07</ele>
        <time>2019-10-15T16:38:00.999Z</time>
      </trkpt>
      <trkpt lat="37.18522" lon="-4.81324">
        <ele>463.29</ele>
        <time>2019-10-15T16:38:05.999Z</time>
      </trkpt>
      <trkpt lat="37.18513" lon="-4.8133">
        <ele>463.56</ele>
        <time>2019-10-15T16:38:11.999Z</time>
      </trkpt>
      <trkpt lat="37.18503" lon="-4.81336">
        <ele>463.86</ele>
        <time>2019-10-15T16:38:17.999Z</time>
      </trkpt>
      <trkpt lat="37.18495" lon="-4.81341">
        <ele>464.11</ele>
        <time>2019-10-15T16:38:22.999Z</time>
      </trkpt>
      <trkpt lat="37.18485" lon="-4.81345">
        <ele>464.35</ele>
        <time>2019-10-15T16:38:27.999Z</time>
      </trkpt>
      <trkpt lat="37.18477" lon="-4.81349">
        <ele>464.57</ele>
        <time>2019-10-15T16:38:32.999Z</time>
      </trkpt>
      <trkpt lat="37.18467" lon="-4.81354">
        <ele>464.84</ele>
        <time>2019-10-15T16:38:38.999Z</time>
      </trkpt>
      <trkpt lat="37.18457" lon="-4.81359">
        <ele>465.09</ele>
        <time>2019-10-15T16:38:44.999Z</time>
      </trkpt>
      <trkpt lat="37.18447" lon="-4.81364">
        <ele>465.32</ele>
        <time>2019-10-15T16:38:50.999Z</time>
      </trkpt>
      <trkpt lat="37.18437" lon="-4.81368">
        <ele>465.54</ele>
        <time>2019-10-15T16:38:56.999Z</time>
      </trkpt>
      <trkpt lat="37.18428" lon="-4.81372">
        <ele>465.71</ele>
        <time>2019-10-15T16:39:01.999Z</time>
      </trkpt>
      <trkpt lat="37.18417" lon="-4.81376">
        <ele>465.87</ele>
        <time>2019-10-15T16:39:06.999Z</time>
      </trkpt>
      <trkpt lat="37.18404" lon="-4.8138">
        <ele>466.03</ele>
        <time>2019-10-15T16:39:11.999Z</time>
      </trkpt>
      <trkpt lat="37.18392" lon="-4.81384">
        <ele>466.17</ele>
        <time>2019-10-15T16:39:16.999Z</time>
      </trkpt>
      <trkpt lat="37.18383" lon="-4.81386">
        <ele>466.56</ele>
        <time>2019-10-15T16:40:13.000Z</time>
      </trkpt>
      <trkpt lat="37.18366" lon="-4.81389">
        <ele>467.05</ele>
        <time>2019-10-15T16:40:18.000Z</time>
      </trkpt>
      <trkpt lat="37.18341" lon="-4.81393">
        <ele>467.64</ele>
        <time>2019-10-15T16:40:23.000Z</time>
      </trkpt>
      <trkpt lat="37.18311" lon="-4.81398">
        <ele>467.78</ele>
        <time>2019-10-15T16:40:28.000Z</time>
      </trkpt>
      <trkpt lat="37.18273" lon="-4.81404">
        <ele>467.63</ele>
        <time>2019-10-15T16:40:33.000Z</time>
      </trkpt>
      <trkpt lat="37.18233" lon="-4.81411">
        <ele>467.15</ele>
        <time>2019-10-15T16:40:38.000Z</time>
      </trkpt>
      <trkpt lat="37.18191" lon="-4.81419">
        <ele>466.76</ele>
        <time>2019-10-15T16:40:43.000Z</time>
      </trkpt>
      <trkpt lat="37.18151" lon="-4.81426">
        <ele>466.6</ele>
        <time>2019-10-15T16:40:48.000Z</time>
      </trkpt>
      <trkpt lat="37.18113" lon="-4.81434">
        <ele>466.22</ele>
        <time>2019-10-15T16:40:53.000Z</time>
      </trkpt>
      <trkpt lat="37.18078" lon="-4.8144">
        <ele>465.76</ele>
        <time>2019-10-15T16:40:58.000Z</time>
      </trkpt>
      <trkpt lat="37.18044" lon="-4.81446">
        <ele>465.31</ele>
        <time>2019-10-15T16:41:03.000Z</time>
      </trkpt>
      <trkpt lat="37.18012" lon="-4.81452">
        <ele>464.74</ele>
        <time>2019-10-15T16:41:08.000Z</time>
      </trkpt>
      <trkpt lat="37.17981" lon="-4.81452">
        <ele>464.12</ele>
        <time>2019-10-15T16:41:13.000Z</time>
      </trkpt>
      <trkpt lat="37.17952" lon="-4.81451">
        <ele>463.43</ele>
        <time>2019-10-15T16:41:18.000Z</time>
      </trkpt>
      <trkpt lat="37.17926" lon="-4.81447">
        <ele>462.99</ele>
        <time>2019-10-15T16:41:23.000Z</time>
      </trkpt>
      <trkpt lat="37.17901" lon="-4.81441">
        <ele>462.59</ele>
        <time>2019-10-15T16:41:28.000Z</time>
      </trkpt>
      <trkpt lat="37.17876" lon="-4.81433">
        <ele>462.23</ele>
        <time>2019-10-15T16:41:33.000Z</time>
      </trkpt>
      <trkpt lat="37.17854" lon="-4.81424">
        <ele>461.85</ele>
        <time>2019-10-15T16:41:38.000Z</time>
      </trkpt>
      <trkpt lat="37.17833" lon="-4.81412">
        <ele>461.57</ele>
        <time>2019-10-15T16:41:43.000Z</time>
      </trkpt>
      <trkpt lat="37.17812" lon="-4.81399">
        <ele>461.41</ele>
        <time>2019-10-15T16:41:48.000Z</time>
      </trkpt>
      <trkpt lat="37.17791" lon="-4.81384">
        <ele>461.36</ele>
        <time>2019-10-15T16:41:53.000Z</time>
      </trkpt>
      <trkpt lat="37.17771" lon="-4.81367">
        <ele>461.29</ele>
        <time>2019-10-15T16:41:58.000Z</time>
      </trkpt>
      <trkpt lat="37.17749" lon="-4.81349">
        <ele>461.26</ele>
        <time>2019-10-15T16:42:03.000Z</time>
      </trkpt>
      <trkpt lat="37.17728" lon="-4.81331">
        <ele>461.23</ele>
        <time>2019-10-15T16:42:08.000Z</time>
      </trkpt>
      <trkpt lat="37.17709" lon="-4.81315">
        <ele>461.2</ele>
        <time>2019-10-15T16:42:13.000Z</time>
      </trkpt>
      <trkpt lat="37.1769" lon="-4.81302">
        <ele>461.09</ele>
        <time>2019-10-15T16:42:18.000Z</time>
      </trkpt>
      <trkpt lat="37.17676" lon="-4.81293">
        <ele>461.06</ele>
        <time>2019-10-15T16:42:23.000Z</time>
      </trkpt>
      <trkpt lat="37.17667" lon="-4.81287">
        <ele>461</ele>
        <time>2019-10-15T16:42:44.000Z</time>
      </trkpt>
      <trkpt lat="37.17675" lon="-4.8128">
        <ele>461.07</ele>
        <time>2019-10-15T16:43:43.000Z</time>
      </trkpt>
      <trkpt lat="37.17676" lon="-4.81266">
        <ele>461.09</ele>
        <time>2019-10-15T16:43:49.000Z</time>
      </trkpt>
      <trkpt lat="37.17664" lon="-4.81248">
        <ele>460.88</ele>
        <time>2019-10-15T16:43:54.000Z</time>
      </trkpt>
      <trkpt lat="37.17638" lon="-4.81228">
        <ele>460.69</ele>
        <time>2019-10-15T16:43:59.000Z</time>
      </trkpt>
      <trkpt lat="37.17614" lon="-4.81219">
        <ele>460.53</ele>
        <time>2019-10-15T16:44:04.000Z</time>
      </trkpt>
      <trkpt lat="37.17594" lon="-4.81212">
        <ele>460.34</ele>
        <time>2019-10-15T16:44:09.000Z</time>
      </trkpt>
      <trkpt lat="37.17576" lon="-4.81206">
        <ele>460.06</ele>
        <time>2019-10-15T16:44:14.000Z</time>
      </trkpt>
      <trkpt lat="37.17559" lon="-4.81203">
        <ele>460</ele>
        <time>2019-10-15T16:44:19.000Z</time>
      </trkpt>
      <trkpt lat="37.17545" lon="-4.81207">
        <ele>459.93</ele>
        <time>2019-10-15T16:44:24.000Z</time>
      </trkpt>
      <trkpt lat="37.17532" lon="-4.81211">
        <ele>459.87</ele>
        <time>2019-10-15T16:44:29.000Z</time>
      </trkpt>
      <trkpt lat="37.17518" lon="-4.81216">
        <ele>459.81</ele>
        <time>2019-10-15T16:44:34.000Z</time>
      </trkpt>
      <trkpt lat="37.17506" lon="-4.81222">
        <ele>459.77</ele>
        <time>2019-10-15T16:44:39.000Z</time>
      </trkpt>
      <trkpt lat="37.17506" lon="-4.8121">
        <ele>457.72</ele>
        <time>2019-10-15T17:08:08.999Z</time>
      </trkpt>
      <trkpt lat="37.17507" lon="-4.81222">
        <ele>457.99</ele>
        <time>2019-10-15T17:11:47.000Z</time>
      </trkpt>
      <trkpt lat="37.17505" lon="-4.81222">
        <ele>465.96</ele>
        <time>2019-10-15T17:35:10.999Z</time>
      </trkpt>
    </trkseg>
  </trk>
</gpx>